GFSSW_sfc_wetblb_000.txt.gz
Wetbulb
56.47 56.41 56.19 55.97 56.15 55.72 55.70 55.80 55.95 56.06 56.13 56.24 56.29 56.33 56.49 57.03 56.97 53.09 48.18 53.51 56.31 65.35 66.82 64.59 63.22 60.92 58.83 55.78 57.64 56.28 46.66 44.39 46.18 47.96 49.48 54.36 49.24 53.09 54.95 52.96 53.66 54.18 55.08 57.88 59.30
56.48 56.49 56.24 56.48 56.74 56.47 55.75 55.55 55.70 55.92 56.02 56.07 56.09 55.98 56.28 56.92 52.84 49.30 56.54 62.69 63.64 66.62 60.68 59.67 57.35 59.00 53.83 54.58 55.27 51.95 46.29 49.34 53.59 52.28 50.69 53.63 50.98 51.80 51.24 51.29 52.34 55.06 57.69 58.66 58.41
55.05 55.47 56.04 56.52 56.48 56.64 56.44 56.12 55.72 55.70 56.13 55.57 55.72 55.79 56.21 56.07 49.50 49.67 64.00 62.95 64.14 66.02 56.64 58.88 59.92 57.05 52.28 53.62 53.97 52.23 49.56 53.58 54.32 55.00 54.64 53.52 53.42 53.39 50.78 49.24 51.40 52.01 55.53 56.74 55.85
54.22 54.24 54.33 54.80 55.35 56.22 56.47 56.03 55.85 55.76 55.62 55.32 55.36 55.55 56.25 53.09 37.35 50.36 67.19 67.91 66.30 63.03 57.31 53.77 52.26 52.33 51.01 50.86 55.26 49.28 54.37 55.15 55.44 56.08 54.52 52.80 54.70 53.44 51.98 51.83 53.96 54.98 57.41 56.24 55.05
53.02 53.81 53.89 53.85 53.93 54.58 55.51 56.02 55.88 55.56 55.49 55.44 55.40 55.64 51.93 47.54 45.19 51.36 66.71 66.60 65.27 59.90 55.77 52.15 49.43 49.43 48.15 52.50 53.44 51.84 53.89 55.43 55.88 54.97 54.69 55.25 52.81 52.37 51.78 54.76 55.38 55.50 55.99 55.83 55.40
51.84 51.76 52.53 53.27 53.34 53.52 54.74 55.45 55.82 55.69 55.66 55.51 55.64 55.82 49.55 38.23 50.40 53.16 53.68 53.93 57.71 57.08 54.53 51.64 50.14 50.89 47.02 49.97 50.15 54.10 54.57 54.70 55.31 54.94 55.10 53.53 53.79 51.57 53.42 55.46 54.62 53.65 53.71 54.15 53.60
53.20 52.55 51.64 51.80 52.77 53.43 53.96 54.16 54.40 55.70 55.58 55.68 56.24 53.69 46.91 42.96 50.76 52.75 51.07 50.24 54.98 55.50 52.24 54.28 53.61 50.42 48.25 46.63 50.41 51.62 49.86 52.69 53.47 52.13 51.36 53.49 49.72 50.34 53.77 54.23 52.96 52.18 52.37 53.40 54.06
54.12 53.68 53.15 52.35 51.51 52.56 53.45 54.04 54.22 54.23 54.71 55.41 56.17 51.76 42.90 51.28 51.92 49.38 49.43 48.59 51.41 52.32 54.35 54.51 54.65 50.34 47.01 48.52 48.77 46.20 45.86 42.17 48.73 50.88 52.33 50.10 46.22 51.97 53.71 52.57 52.39 52.86 52.14 52.41 52.29
53.93 54.07 53.66 53.21 52.47 51.47 52.30 53.29 53.29 53.81 54.49 54.83 51.67 48.33 39.50 52.20 48.45 49.93 52.29 49.23 50.29 51.93 54.50 56.73 51.39 47.63 46.22 44.71 41.67 42.75 39.93 41.85 44.64 50.16 51.04 48.86 47.88 52.60 54.09 52.57 51.99 52.03 52.31 53.08 52.61
53.40 53.46 53.85 53.50 53.00 52.15 51.84 52.39 52.38 52.21 52.08 53.16 52.45 44.28 45.34 43.72 48.41 51.29 49.93 52.37 49.51 49.83 49.82 51.53 49.18 43.84 41.81 40.38 36.19 40.00 39.67 43.06 44.32 49.07 49.58 48.58 48.22 51.61 53.09 52.61 52.17 51.55 52.30 52.56 51.93
52.61 52.90 53.19 53.74 53.19 52.45 49.48 46.01 45.07 45.98 47.24 44.10 43.50 42.42 47.36 49.37 52.64 50.77 52.22 49.23 50.27 47.61 43.06 47.61 43.30 39.94 43.13 45.13 45.99 44.76 43.00 42.47 46.85 50.01 47.83 47.77 48.67 50.73 52.00 51.25 50.90 50.38 50.94 51.54 51.54
52.63 52.54 52.53 53.19 53.31 52.72 46.99 41.80 43.60 45.25 38.01 45.77 47.71 46.90 48.18 48.92 45.05 49.34 53.57 46.47 44.71 41.62 45.08 43.57 39.93 44.85 47.70 47.53 45.16 44.13 43.22 43.01 46.60 49.24 47.33 47.31 47.21 50.88 51.21 50.50 50.36 50.78 50.94 50.43 51.13
52.64 53.07 52.76 52.78 52.95 46.97 43.86 44.55 48.01 48.26 38.58 42.31 46.48 46.53 47.19 49.19 45.03 46.20 51.25 48.64 43.51 42.09 42.54 40.57 44.92 47.98 45.66 44.24 44.09 43.59 42.58 44.02 44.13 47.85 48.84 46.36 45.00 46.85 50.84 51.47 51.94 51.55 51.68 51.65 52.00
52.71 52.85 52.99 52.96 45.41 42.90 40.88 47.79 47.97 49.26 32.28 36.17 41.56 45.62 48.41 48.65 45.00 50.43 51.63 49.25 45.69 41.18 43.30 41.78 46.49 45.80 43.81 42.21 44.92 40.93 47.44 47.23 46.83 44.45 38.70 46.36 36.53 42.34 47.17 47.72 49.29 49.85 49.76 50.79 52.03
52.53 52.41 52.60 52.36 43.00 41.13 42.90 45.22 47.18 45.05 16.55 38.21 40.71 50.15 48.66 45.26 47.89 47.99 51.45 48.63 43.73 43.03 43.54 40.53 42.68 42.77 41.38 42.47 46.16 43.90 47.91 46.72 46.63 44.25 41.25 43.11 37.28 41.05 45.21 45.72 48.26 49.27 49.51 50.29 52.13
52.39 52.08 52.38 48.74 47.61 46.00 47.14 45.61 43.94 29.63 19.74 34.28 43.75 42.30 42.48 44.74 46.84 49.22 47.82 49.31 48.72 44.54 43.84 42.72 46.59 44.60 43.82 46.47 47.20 48.90 46.55 45.68 45.25 42.67 36.24 41.86 39.95 42.07 42.67 46.44 47.53 48.77 50.60 50.79 50.82
52.20 51.86 50.93 49.20 42.18 46.13 46.68 43.76 30.21 24.99 37.05 35.43 36.23 38.93 38.77 41.57 43.33 45.81 43.35 41.83 39.56 37.20 37.74 42.08 41.95 45.28 46.41 43.18 46.18 46.29 41.62 34.52 30.01 32.48 33.92 41.82 39.00 41.16 45.96 48.48 49.43 48.01 49.67 50.20 51.67
51.63 51.10 48.92 48.72 47.04 47.14 42.48 38.07 26.68 30.95 31.88 38.61 38.17 38.61 36.90 42.22 42.10 43.58 42.00 39.69 42.94 41.45 38.34 36.41 34.90 42.56 46.12 43.84 41.51 41.79 40.58 36.75 29.04 29.82 34.58 42.64 37.34 42.68 48.20 49.75 50.40 50.67 51.24 51.31 50.90
50.47 44.71 43.39 45.64 48.56 44.82 39.65 28.74 25.55 31.79 36.71 34.88 36.30 34.38 35.08 37.89 38.06 42.08 41.49 40.20 42.57 42.59 37.35 36.57 37.17 45.74 46.14 46.22 44.97 41.45 39.84 44.40 37.89 38.20 34.87 37.72 42.36 47.25 48.68 48.00 50.56 50.90 51.53 50.39 51.06
45.39 40.91 40.92 46.01 46.90 44.19 35.46 29.46 31.54 37.49 37.86 36.80 30.45 34.60 29.98 33.45 34.81 35.85 39.49 44.43 42.52 44.83 43.68 39.86 35.40 44.27 45.39 46.03 45.58 42.99 45.02 38.74 36.17 31.22 29.15 35.40 37.98 39.43 43.51 46.24 49.90 49.82 49.40 49.86 51.24
40.29 36.80 41.96 46.97 46.86 39.63 28.45 29.42 33.66 38.70 39.17 35.21 33.11 31.94 32.81 32.48 34.37 34.52 37.77 42.61 45.67 44.64 45.16 42.00 38.62 40.23 44.20 41.50 40.50 40.31 39.99 40.90 40.44 37.33 32.36 29.13 35.68 43.73 45.71 46.27 49.72 50.17 51.07 51.03 51.93
38.17 31.48 43.99 47.80 35.88 35.43 31.59 33.18 37.60 36.57 39.06 36.87 37.02 35.81 34.19 34.32 33.00 34.16 36.36 41.04 44.31 42.93 41.14 43.69 37.81 36.16 39.59 44.32 46.03 43.67 41.76 41.59 39.04 34.78 36.22 35.82 37.10 47.01 47.38 48.87 51.72 50.73 52.05 52.01 53.06
34.54 34.52 43.98 45.64 26.82 31.25 33.14 33.80 35.93 35.13 35.66 35.99 35.03 37.18 38.44 35.00 30.82 36.33 38.85 43.60 44.41 42.20 40.53 43.84 38.99 33.32 36.91 39.57 44.22 41.70 44.11 43.02 39.94 38.72 36.29 35.28 36.22 48.81 49.34 50.89 52.39 51.23 51.15 51.88 52.25
35.75 29.73 36.83 38.77 39.69 34.12 32.44 32.20 31.88 37.60 35.32 37.27 35.70 37.63 36.20 35.13 36.81 34.30 35.85 41.30 42.54 42.21 46.67 42.70 38.61 38.43 35.10 39.27 42.08 40.16 43.21 45.20 41.10 35.60 36.49 39.06 40.66 45.34 48.16 50.89 51.29 51.79 51.79 51.95 53.32
34.99 31.25 36.26 27.54 29.64 32.35 31.75 32.43 30.84 30.81 35.58 35.84 33.75 35.83 34.31 31.66 33.89 33.73 36.55 37.81 40.58 43.73 40.39 37.24 38.12 40.68 41.97 43.76 44.68 44.10 44.22 45.06 43.68 42.43 40.09 40.86 41.96 45.11 48.20 51.72 52.75 52.81 52.02 52.10 52.85
36.13 33.75 36.64 34.36 33.25 30.77 31.57 30.11 31.24 33.33 34.06 33.26 31.89 35.55 35.87 32.85 34.58 33.69 35.68 35.63 35.58 38.78 36.92 37.04 34.47 41.11 39.92 43.35 43.64 42.21 45.58 46.30 45.84 43.98 43.22 44.30 43.38 48.22 51.83 53.16 51.89 52.59 52.44 52.18 52.97
40.74 41.95 38.25 34.81 30.51 27.98 29.61 33.69 33.17 35.87 36.68 37.64 36.67 33.86 32.57 36.71 40.48 41.03 41.46 39.77 39.11 36.17 34.70 33.81 35.60 35.60 37.07 42.96 42.05 38.36 43.62 45.85 45.90 46.72 45.36 42.02 44.20 47.33 47.93 52.47 52.84 52.30 53.36 52.92 53.38

GFSSW_sfc_wetblb_003.txt.gz
Wetbulb
56.54 56.60 56.49 56.57 56.54 56.30 56.17 55.82 55.93 55.91 56.12 56.37 56.59 56.50 56.45 56.77 56.44 50.99 46.35 52.94 55.34 63.82 66.61 64.72 61.29 59.74 57.28 54.73 55.68 53.92 45.43 43.38 45.31 46.00 48.14 52.09 48.28 52.81 54.38 51.62 52.70 53.29 54.97 57.03 57.96
54.76 54.93 55.05 55.35 55.93 56.72 56.26 56.11 55.99 55.96 56.03 56.04 55.94 55.91 55.99 56.62 52.24 48.95 56.28 61.91 63.31 65.15 60.10 59.98 57.43 57.16 52.62 52.91 53.35 50.41 44.77 46.31 51.43 50.84 49.31 51.06 51.50 53.46 51.05 51.76 50.38 52.99 56.17 58.39 57.38
53.76 54.23 54.30 54.27 54.57 54.70 55.08 55.68 56.15 56.14 56.17 56.01 55.72 55.65 56.05 55.66 46.91 45.95 62.80 63.04 63.31 65.34 56.64 59.93 58.92 56.50 51.10 51.70 52.22 50.15 47.90 52.02 52.36 53.75 52.87 51.86 52.48 54.92 50.69 50.74 52.53 51.43 52.96 55.30 54.77
52.57 52.39 53.00 53.59 53.88 53.90 53.90 54.44 55.34 56.26 56.26 55.87 55.62 55.55 55.92 52.13 36.86 47.25 66.86 68.49 67.18 61.84 54.53 53.63 55.67 51.97 49.57 49.18 53.70 47.45 52.03 53.65 53.70 54.89 53.30 51.91 54.54 52.76 53.23 52.64 55.94 55.40 55.42 55.23 53.81
53.44 53.36 52.73 52.05 52.41 53.25 53.72 53.77 54.12 55.00 55.54 55.86 55.72 55.74 51.64 46.27 42.75 49.45 64.24 65.24 63.08 58.10 52.66 50.01 48.83 50.94 48.43 50.45 51.30 49.03 51.84 53.54 54.55 53.93 53.94 54.59 52.59 52.60 53.36 55.97 56.13 53.66 55.33 55.26 55.01
53.84 53.78 53.58 53.46 52.78 51.91 52.86 54.11 53.86 53.91 54.53 55.40 55.73 55.99 48.36 36.24 49.11 52.44 51.87 51.33 53.54 55.28 53.45 50.47 49.39 50.21 45.71 48.41 48.32 51.34 52.28 53.11 54.40 54.38 54.52 52.77 53.41 54.25 55.18 56.61 54.93 53.05 53.57 54.70 55.05
53.88 53.72 53.68 53.90 53.66 53.21 52.38 52.64 53.49 54.20 54.01 54.64 55.40 53.02 46.99 43.63 49.62 50.57 48.76 49.04 51.00 55.87 52.93 54.30 53.01 50.38 47.92 45.05 48.03 48.63 45.80 48.67 50.93 52.59 51.86 53.21 49.82 50.33 54.35 54.30 52.64 52.65 52.13 53.92 54.85
53.49 53.65 53.18 53.35 53.89 53.45 53.27 52.91 52.43 52.58 53.65 54.44 55.29 52.06 43.30 51.66 52.69 50.52 49.99 46.54 48.27 50.22 53.57 54.31 55.20 50.61 45.85 47.00 46.85 43.32 43.56 40.40 47.43 50.49 52.49 49.18 45.32 51.18 53.78 52.22 51.56 52.24 51.42 52.30 53.31
53.45 53.26 52.56 52.73 53.16 53.58 53.75 53.26 52.26 51.89 52.68 53.90 50.14 48.08 41.29 51.96 48.23 50.60 49.53 46.18 46.46 47.09 49.63 53.90 51.27 46.97 44.63 43.32 39.85 39.55 38.11 39.04 43.45 48.14 48.14 46.90 45.48 51.48 53.25 51.17 50.80 51.24 50.82 50.42 51.83
52.95 52.95 52.93 52.53 52.74 53.32 53.47 52.55 51.43 51.41 50.52 51.30 49.99 43.80 45.01 42.91 46.42 49.50 48.53 48.83 47.66 46.86 47.39 47.43 46.32 41.97 39.34 38.76 34.00 36.65 36.94 41.30 41.67 45.38 46.89 46.19 46.06 50.66 52.84 51.63 50.45 51.58 51.93 51.03 50.99
52.51 52.70 52.72 52.66 52.82 53.18 50.89 44.07 41.13 44.50 46.14 42.09 41.92 41.18 44.20 48.84 51.26 50.40 49.37 46.29 48.85 46.11 40.48 45.37 41.48 39.36 42.45 42.99 43.20 42.12 40.29 40.22 43.59 47.10 46.27 44.97 45.68 48.95 51.56 49.97 50.32 51.00 50.93 50.56 50.92
52.51 52.26 52.28 52.56 52.62 53.10 47.00 40.24 42.97 45.44 38.20 44.67 45.50 46.28 48.50 49.69 43.90 47.65 49.95 43.38 43.37 39.01 43.45 41.86 39.40 45.36 46.30 45.05 42.65 42.03 40.16 40.53 44.65 47.30 45.31 45.06 45.00 48.25 49.62 49.92 50.95 51.65 49.79 49.97 49.24
52.61 52.38 52.27 52.43 52.82 46.14 41.56 43.57 49.18 47.63 38.15 40.82 43.98 43.47 44.21 46.78 43.62 44.91 48.38 45.85 40.63 39.29 40.47 38.49 41.97 47.53 46.71 43.50 42.32 41.54 40.06 41.02 41.53 45.41 46.29 44.76 43.03 46.00 49.37 49.89 50.78 50.37 49.57 49.81 50.55
52.56 52.56 52.53 52.39 44.93 42.07 41.59 47.52 46.81 46.16 30.11 32.79 39.47 43.01 45.91 45.96 41.44 49.14 50.37 47.15 42.91 37.82 40.98 40.22 44.24 44.02 43.86 41.82 42.89 39.24 45.53 44.85 43.50 41.20 37.51 44.16 33.61 41.69 45.27 47.24 47.99 49.52 48.84 49.94 50.11
52.42 52.02 52.42 52.01 45.55 42.73 43.37 45.49 48.22 44.47 14.75 35.73 39.25 48.34 47.11 41.85 43.98 43.78 49.79 47.37 42.06 39.79 40.23 38.66 41.56 41.40 41.25 42.36 44.90 41.99 46.82 45.25 43.84 40.70 38.42 41.68 36.15 39.68 43.27 44.34 45.85 47.62 47.82 48.21 49.35
52.15 51.79 52.03 46.78 45.49 45.36 46.93 46.04 44.07 31.50 19.18 33.37 40.57 38.45 39.31 42.85 43.40 46.38 45.45 47.57 47.60 42.13 41.23 40.12 45.94 44.02 43.23 46.31 46.56 46.22 43.68 42.29 41.46 38.46 33.11 40.25 37.42 39.48 41.54 44.48 45.90 47.71 48.94 49.16 48.73
52.00 51.66 50.01 48.89 40.16 44.13 46.15 41.11 27.55 23.54 35.40 32.70 33.66 37.16 36.11 36.78 40.09 41.85 41.52 39.59 38.40 35.11 35.63 39.35 40.92 44.06 45.24 42.37 44.30 42.85 38.05 30.70 26.90 30.21 31.34 40.46 37.11 41.35 45.40 47.27 48.32 48.63 47.72 48.12 49.56
51.53 50.82 48.96 47.67 45.58 45.61 41.41 34.31 22.27 29.71 30.86 37.53 35.66 36.73 35.06 36.72 37.25 40.52 39.76 37.01 41.73 40.24 37.19 34.46 32.79 40.91 44.78 42.60 40.35 40.86 40.72 32.56 26.79 27.79 32.32 40.72 36.20 41.75 47.40 49.58 49.18 49.55 48.22 49.10 49.52
49.83 44.61 43.73 43.73 46.84 45.54 39.12 27.38 24.70 30.40 35.08 33.37 34.56 32.72 32.81 35.33 35.34 36.59 38.86 38.51 40.70 41.95 35.60 34.83 35.41 43.38 44.60 44.83 43.97 40.15 37.63 43.06 35.43 35.96 33.31 36.29 40.54 45.48 46.67 46.48 47.99 47.96 48.85 47.98 49.27
44.46 42.33 39.70 44.48 46.37 44.49 34.97 25.31 30.36 36.17 35.93 35.33 28.52 33.56 28.27 31.40 32.91 33.22 35.74 39.79 41.39 43.29 40.54 37.91 32.89 41.75 43.72 45.01 44.24 40.38 42.68 34.77 33.08 27.40 26.57 34.34 36.58 38.59 42.55 44.69 47.57 47.57 47.17 47.59 49.68
39.21 37.06 40.00 48.64 45.61 39.36 27.21 28.51 32.11 37.28 37.27 33.68 31.19 29.80 31.55 31.85 33.24 32.58 35.36 39.48 41.31 40.34 42.55 38.00 36.16 37.69 42.38 40.02 39.09 37.11 38.36 36.45 38.24 35.91 29.79 28.05 34.88 42.53 44.33 45.45 47.50 47.57 47.92 48.59 50.44
36.27 30.26 42.35 46.87 35.52 34.29 28.59 32.81 37.18 35.48 37.94 35.71 35.85 33.87 32.79 34.09 32.64 31.36 34.01 38.75 42.14 41.72 37.09 39.80 35.84 34.59 37.36 41.82 44.77 42.62 39.94 39.72 35.21 32.83 34.46 35.09 38.40 45.48 44.64 45.05 48.40 48.15 49.32 49.15 51.03
35.73 34.57 41.68 44.20 28.73 29.37 31.64 32.77 35.13 33.79 34.54 34.00 33.32 34.96 36.44 32.94 30.12 33.24 34.90 41.22 42.10 39.42 36.95 39.50 34.36 30.09 32.76 37.78 40.51 39.08 40.81 40.64 38.72 36.67 34.78 33.34 38.25 47.17 46.03 45.08 49.48 48.21 48.88 50.37 50.86
37.76 28.99 33.38 37.52 37.08 33.32 30.72 30.63 30.86 36.86 34.78 35.17 33.94 35.31 34.13 33.35 36.03 32.84 33.47 37.68 40.94 40.09 44.70 39.12 34.52 35.57 32.46 35.24 39.36 37.42 40.14 40.90 40.25 36.21 37.00 37.87 38.73 43.14 45.29 46.93 48.00 48.61 49.36 50.29 51.93
33.73 30.39 35.20 28.73 28.78 30.92 29.08 31.04 29.68 29.86 34.61 35.55 32.14 33.90 32.79 29.50 32.20 32.80 36.00 37.04 39.18 41.72 39.06 34.44 29.05 37.42 39.82 40.65 41.75 41.34 41.01 41.12 39.74 40.98 38.21 40.80 40.09 43.47 46.86 47.68 49.93 49.65 49.18 50.49 51.38
33.40 34.77 38.14 33.17 34.71 30.44 29.63 29.08 30.65 32.63 33.00 31.94 31.70 33.76 33.95 30.82 32.96 31.24 35.00 35.83 34.40 37.68 35.05 34.77 28.46 35.19 37.22 40.81 40.90 39.60 41.64 42.47 42.96 42.00 41.96 41.45 41.16 45.57 48.89 50.44 50.29 50.45 50.47 51.06 52.01
41.22 41.88 37.26 33.61 31.49 25.32 26.17 31.34 31.44 34.19 35.53 36.63 35.28 32.74 31.91 34.53 38.12 38.06 39.62 40.16 38.65 35.76 33.49 32.02 31.49 30.45 31.38 40.14 38.82 35.30 40.42 41.34 43.08 43.55 44.03 39.15 42.78 45.69 47.00 50.80 51.00 50.08 51.38 51.78 52.76

GFSSW_sfc_wetblb_006.txt.gz
Wetbulb
54.46 54.66 54.70 54.29 54.55 55.09 55.64 56.01 56.24 56.40 56.44 56.58 56.43 56.33 56.22 56.35 56.01 50.27 45.84 52.37 54.99 63.61 66.60 62.17 60.00 59.20 57.24 52.84 53.98 52.76 44.91 42.00 43.55 44.37 46.63 48.75 47.62 51.43 53.85 51.05 51.10 53.31 52.99 55.28 57.03
53.12 53.02 53.21 53.91 53.75 53.57 53.99 54.32 54.71 55.52 56.23 56.38 56.34 56.19 56.08 56.55 51.17 47.75 55.00 61.51 63.46 66.56 60.86 58.68 55.81 56.69 51.14 51.44 52.33 49.36 44.35 45.09 50.16 49.45 48.23 48.70 49.57 51.77 51.00 52.36 50.47 51.60 53.84 55.79 55.77
53.57 53.71 53.46 52.80 52.68 52.65 53.44 53.89 53.97 54.24 55.38 56.12 56.03 55.91 56.10 55.28 44.77 43.87 61.68 60.93 63.75 64.22 57.45 59.24 58.35 55.61 50.25 49.96 50.66 49.00 47.23 51.22 51.88 52.57 50.79 51.03 51.38 52.75 51.83 51.15 53.62 51.67 54.04 53.75 54.03
54.26 54.39 54.19 53.96 53.71 53.00 52.35 52.61 53.69 54.07 54.19 54.82 55.41 55.90 56.14 50.45 34.89 46.70 67.37 67.45 67.36 60.82 53.55 56.94 56.01 50.91 48.23 48.00 52.05 45.92 50.58 52.61 52.90 53.52 51.47 50.77 52.72 52.81 53.54 53.64 56.50 55.74 55.35 54.15 53.27
53.28 53.73 54.01 54.01 54.05 53.82 53.51 53.14 52.60 53.42 53.83 53.97 54.72 55.85 51.49 44.11 41.71 48.09 61.74 59.90 59.49 56.92 51.01 51.65 52.90 50.99 46.62 48.04 50.79 47.45 50.64 52.24 52.69 51.84 52.86 52.97 51.61 52.36 53.26 56.45 57.14 56.15 53.64 52.47 53.31
53.05 53.19 53.18 53.12 53.39 53.86 54.03 53.73 53.12 52.34 52.21 53.56 54.06 55.14 48.78 38.71 49.70 49.09 52.01 49.55 52.26 54.96 52.02 49.37 49.45 53.13 48.25 48.56 48.32 49.45 50.79 51.57 51.51 52.61 53.42 51.68 52.03 53.48 54.88 57.32 55.81 55.11 53.33 52.40 53.42
53.02 52.92 52.75 52.72 52.74 52.97 53.69 53.62 53.47 53.12 52.49 52.27 53.83 52.01 46.68 43.41 52.15 53.33 51.93 47.44 48.18 54.06 51.96 52.31 51.13 49.14 46.58 43.35 46.77 46.49 43.79 45.63 47.35 48.93 48.93 51.25 47.88 49.60 54.55 54.65 52.04 52.49 52.88 52.02 53.43
52.61 53.04 52.67 52.69 52.72 52.80 53.13 53.66 53.61 53.27 53.10 52.38 53.26 49.57 41.88 51.09 52.25 50.88 51.67 49.08 50.66 46.52 51.46 55.02 54.53 49.15 44.53 45.56 44.60 41.77 41.56 37.44 44.69 47.77 48.65 48.77 42.69 50.21 53.29 51.77 51.50 52.08 52.45 51.56 51.64
52.67 53.12 52.66 52.52 52.86 52.96 53.04 53.37 53.04 53.22 52.77 51.60 48.01 45.61 38.79 51.80 47.52 51.20 51.14 46.88 48.52 45.68 45.47 51.23 52.08 46.43 44.24 42.59 39.72 38.17 36.93 37.86 40.60 46.34 46.09 47.03 43.60 49.76 50.57 50.17 49.92 50.80 51.25 51.56 51.15
52.71 52.98 52.62 52.41 52.62 52.83 53.02 52.11 51.47 50.74 49.61 49.88 48.07 40.51 44.04 41.78 47.87 49.22 50.70 49.64 45.67 43.31 43.08 44.06 44.31 41.11 39.14 38.98 33.96 34.86 35.18 38.10 39.12 43.85 44.91 43.25 43.73 48.34 50.55 49.94 49.48 49.75 50.16 50.35 50.50
52.25 52.83 52.79 52.14 52.17 52.48 50.39 42.69 40.04 41.54 44.40 39.00 39.49 39.94 42.32 47.66 50.98 48.68 47.74 46.78 45.35 42.75 37.30 41.42 38.95 37.33 40.23 42.32 41.91 40.03 38.63 37.78 39.82 45.23 43.76 42.25 43.04 46.01 49.21 47.84 47.60 49.05 50.03 50.32 50.40
52.46 52.33 52.33 52.06 52.08 52.30 45.94 38.41 43.51 43.49 37.07 43.27 43.41 44.00 46.48 47.64 42.11 46.01 48.65 40.97 41.30 37.23 40.85 40.35 36.97 41.95 44.22 43.32 41.91 40.40 37.76 37.59 41.58 45.91 44.34 42.93 42.73 45.93 47.80 48.20 48.00 49.51 50.15 50.36 48.39
52.51 52.10 52.11 52.11 52.22 43.99 39.91 42.04 48.12 45.46 37.03 39.64 42.99 42.09 42.70 45.05 41.38 41.61 47.00 42.88 39.94 37.23 39.26 36.98 39.98 44.44 43.69 42.18 40.07 39.51 38.44 39.02 38.73 44.70 44.58 42.42 40.67 43.17 47.36 48.05 48.45 49.07 49.60 49.11 48.58
52.29 52.10 52.03 52.10 43.72 41.43 41.32 44.50 47.62 47.33 31.37 32.57 37.61 41.46 43.70 43.42 39.06 45.81 48.64 44.49 39.98 36.75 38.44 38.27 42.11 41.90 42.12 41.65 42.36 37.72 43.65 42.54 41.86 40.95 34.65 41.88 31.51 40.57 43.67 46.38 46.99 47.99 47.28 48.49 48.77
51.97 51.66 51.82 51.35 44.60 41.69 42.98 45.19 46.26 42.33 17.18 34.01 37.85 46.79 44.80 39.53 41.32 41.63 47.25 45.20 40.13 37.20 38.31 35.84 39.27 39.63 39.81 42.18 45.41 41.03 45.79 42.93 43.31 39.32 35.01 37.78 33.66 38.71 41.83 42.50 45.88 47.20 48.06 47.57 47.36
51.81 51.51 51.60 46.70 44.50 44.21 45.64 44.83 42.32 28.21 18.75 32.01 38.75 36.70 36.19 40.09 41.32 43.66 43.28 45.81 45.75 38.64 38.68 38.46 42.57 41.94 41.71 44.66 45.08 45.48 41.94 40.45 38.94 35.77 30.77 37.19 35.80 35.08 39.64 43.79 45.07 46.64 47.65 48.70 47.96
51.45 51.15 49.62 48.46 39.59 43.07 43.65 39.69 26.09 20.50 34.35 31.13 32.50 35.98 35.42 35.18 37.46 39.46 38.77 37.17 36.52 33.46 32.97 37.15 37.39 41.14 43.20 39.61 42.59 41.53 35.76 27.77 25.27 25.60 28.18 38.76 35.20 38.91 43.15 45.31 46.74 47.55 47.49 47.47 48.70
50.71 49.25 47.43 46.93 43.74 44.91 39.75 32.90 21.07 27.75 28.98 35.92 34.68 34.45 33.05 35.74 34.64 36.68 37.17 34.62 38.84 36.82 35.38 31.56 29.92 38.16 42.73 40.21 38.78 39.89 37.84 29.05 24.11 26.35 32.28 38.20 33.83 39.90 45.99 48.26 48.21 48.67 47.50 47.94 49.04
48.84 43.02 41.65 42.59 45.00 44.57 35.27 22.98 22.99 28.96 33.45 31.54 32.60 29.97 31.61 34.12 33.96 34.49 33.66 35.44 38.00 39.05 33.15 32.76 33.13 41.02 42.73 43.82 43.04 39.29 34.34 40.35 33.76 35.76 30.97 33.80 39.36 44.46 45.82 46.69 46.93 46.42 47.27 46.87 48.42
43.85 41.97 38.39 44.81 45.72 44.70 31.66 25.45 28.99 34.96 35.10 33.78 26.58 31.14 26.82 30.00 31.00 30.71 32.87 37.85 36.13 39.78 40.69 35.91 31.20 39.89 41.49 42.77 43.92 39.14 41.81 33.64 34.30 26.01 25.15 32.71 35.18 37.54 41.66 43.76 46.25 46.16 45.66 46.39 48.88
39.16 33.39 39.22 46.26 46.03 38.68 28.00 27.75 31.37 36.07 36.41 32.26 30.31 29.12 29.53 29.89 32.18 30.19 31.74 38.14 36.92 36.83 40.13 35.86 33.98 35.71 39.27 37.56 37.21 36.00 35.31 34.39 36.68 31.94 28.39 26.86 33.28 41.58 44.04 45.05 46.00 46.33 46.21 46.99 49.34
39.42 26.94 40.60 46.33 35.79 33.81 28.92 32.36 36.94 34.82 37.04 34.64 34.48 32.56 30.92 32.71 31.26 30.63 30.84 33.40 38.02 37.73 32.99 37.03 32.10 30.83 35.40 39.81 43.03 41.58 38.87 36.82 33.90 29.94 33.92 33.00 33.89 44.38 44.92 44.44 45.40 46.44 47.31 47.76 49.71
36.08 34.85 40.25 44.38 28.97 29.04 32.34 32.05 34.46 33.48 33.86 32.78 31.57 33.22 33.57 31.74 28.70 32.46 33.33 38.25 38.15 36.64 34.71 36.89 30.70 27.56 30.98 35.36 37.99 38.20 39.70 40.20 35.55 33.87 33.46 32.78 34.31 45.49 45.96 46.08 46.13 46.49 47.33 48.79 49.80
35.23 28.22 32.09 36.17 36.86 32.82 30.25 28.74 29.81 35.96 34.16 34.35 32.36 33.16 31.61 31.86 34.02 32.17 32.93 36.86 38.95 38.46 43.05 37.57 31.00 30.62 30.40 33.12 36.37 34.66 38.35 39.72 36.98 31.12 32.91 36.98 37.13 41.47 45.40 45.01 46.14 47.09 47.67 48.57 50.00
32.35 28.74 32.96 28.51 26.70 31.80 32.08 29.25 28.48 29.48 34.84 34.82 31.42 32.22 31.43 29.11 30.68 31.66 34.57 36.20 37.75 39.77 38.72 33.78 27.65 32.89 34.05 38.16 38.66 38.52 38.59 38.90 36.90 38.41 35.16 36.88 38.02 40.81 44.09 46.09 46.51 47.30 48.22 49.55 50.23
32.12 34.25 34.22 33.87 34.40 31.63 29.93 26.63 29.15 31.26 32.27 31.78 31.12 32.79 32.13 30.01 31.19 29.44 33.14 34.81 33.80 37.31 35.35 33.72 28.03 31.68 31.07 38.12 39.32 37.66 38.47 39.44 39.46 39.51 39.18 38.94 39.12 43.94 45.67 48.21 47.94 48.71 49.40 49.93 50.74
41.47 42.17 37.93 33.56 31.73 30.30 30.01 30.67 30.75 33.15 34.02 35.44 33.56 31.33 30.12 32.87 36.27 36.37 37.24 37.99 37.83 35.40 34.66 31.86 30.22 28.34 25.58 33.22 36.17 32.37 38.39 38.60 39.36 40.74 40.84 37.79 43.00 44.15 46.41 48.37 48.43 48.42 50.13 50.79 51.60

GFSSW_sfc_wetblb_009.txt.gz
Wetbulb
53.79 53.62 53.26 53.22 53.10 53.30 53.41 53.57 54.04 54.41 55.40 56.28 56.85 56.64 56.48 56.47 56.19 52.01 46.24 52.68 55.69 62.51 65.59 62.95 61.41 59.95 56.55 55.68 59.55 57.71 51.82 48.71 49.33 49.38 51.76 54.77 54.22 56.25 58.20 57.44 57.46 57.45 59.03 60.71 61.54
54.08 53.91 53.71 54.12 53.83 53.25 52.75 52.78 53.31 53.98 54.21 55.12 56.26 56.28 56.30 56.51 51.86 48.67 55.49 60.27 62.70 64.18 60.79 57.67 54.78 57.69 56.14 56.32 56.86 55.33 51.29 50.79 53.96 54.35 53.34 54.35 54.74 55.71 55.67 55.99 56.49 57.83 60.19 60.20 60.76
53.70 54.25 54.62 54.76 54.59 54.31 54.10 53.75 53.24 53.05 53.62 53.70 54.72 55.44 56.12 55.91 45.47 45.18 65.00 62.06 60.94 65.96 58.69 57.80 56.08 56.08 53.49 55.67 55.50 54.75 50.84 54.47 54.91 55.68 55.55 54.71 54.96 56.92 54.91 53.91 56.56 56.54 58.77 60.73 61.54
53.42 53.55 53.68 53.36 53.62 53.92 54.47 54.37 54.05 53.71 53.13 53.21 54.09 54.69 56.18 52.08 40.64 54.61 60.14 65.26 67.47 59.24 54.74 53.44 54.69 53.03 51.10 51.08 55.24 51.19 54.44 55.10 55.60 56.38 55.62 54.28 56.09 54.24 56.19 56.69 59.38 59.77 60.36 60.33 60.27
53.14 53.43 53.29 53.05 52.80 52.72 53.16 53.81 53.86 53.87 53.37 52.54 53.27 54.19 52.05 45.82 44.99 50.15 57.28 56.43 58.14 58.69 51.85 51.98 53.00 52.02 49.45 51.53 52.80 52.03 53.31 55.23 56.24 56.32 56.17 56.41 54.10 54.80 55.11 57.64 59.40 59.75 60.14 60.14 60.85
52.49 52.88 53.11 53.20 52.39 52.48 52.54 53.15 53.51 53.58 53.71 53.26 52.29 53.56 47.96 38.37 52.28 53.45 53.29 52.79 50.47 55.78 52.62 52.08 52.84 54.04 51.22 51.35 51.06 53.17 53.49 53.89 55.20 55.25 55.69 53.88 53.98 55.30 56.12 58.90 58.29 59.07 59.37 60.01 60.38
52.30 52.67 52.87 52.96 52.89 52.59 52.85 53.41 53.38 53.05 53.46 53.21 53.11 50.70 45.06 42.56 52.84 54.22 53.32 51.86 50.99 51.58 49.98 52.62 52.77 52.67 52.96 50.17 53.78 53.28 50.45 52.81 53.28 54.04 53.40 53.40 49.59 50.25 55.37 56.46 55.94 56.91 58.14 59.20 59.85
52.37 52.66 52.83 52.93 52.69 52.78 52.94 53.44 53.13 53.07 53.55 53.39 53.19 48.99 41.04 51.73 53.95 52.19 53.31 51.95 53.11 52.88 50.56 52.77 53.93 50.55 49.94 50.90 48.43 47.10 47.48 43.91 49.11 50.17 50.76 49.96 45.63 51.90 55.15 55.09 55.21 56.53 57.25 57.50 59.15
52.39 53.11 52.72 53.03 52.87 52.75 52.89 53.18 52.35 52.50 52.92 52.45 47.97 45.51 39.42 51.81 47.73 51.95 52.96 49.14 51.00 51.13 50.35 50.29 53.91 49.91 48.93 45.45 44.34 45.24 41.84 42.84 45.26 49.54 48.79 49.86 47.30 51.51 54.27 54.10 53.70 55.06 55.98 56.89 58.07
52.10 52.74 53.18 52.74 52.64 52.60 52.66 51.87 51.10 51.35 50.34 50.09 48.64 40.89 43.40 42.86 48.62 50.36 52.95 51.47 48.50 47.14 46.10 45.43 48.26 45.49 45.73 43.88 38.20 41.65 41.28 43.22 43.20 47.75 47.52 47.01 47.29 50.76 52.48 52.81 53.21 54.64 55.92 56.63 57.05
52.20 52.60 52.62 52.64 52.47 52.41 50.89 46.79 44.84 43.99 44.72 40.80 41.27 40.77 42.79 47.24 49.55 47.14 50.91 48.64 48.09 45.13 41.23 43.89 41.69 40.35 42.73 44.52 45.62 45.56 44.55 44.32 47.33 48.19 46.05 46.05 46.59 49.34 51.96 52.77 52.84 53.85 54.67 56.25 58.08
52.07 52.22 52.43 51.97 52.12 51.45 47.28 42.97 42.94 43.49 37.29 43.73 43.54 43.95 46.07 47.55 41.73 45.16 49.37 43.29 42.30 39.56 43.01 41.20 38.97 44.12 45.90 44.87 43.56 43.54 42.69 43.02 45.32 46.55 46.45 46.19 46.09 49.65 51.14 51.63 52.95 54.25 55.23 56.20 57.91
52.40 52.17 52.14 51.99 51.88 46.69 44.64 43.94 48.68 47.92 37.62 40.28 43.71 42.81 43.90 45.65 41.09 42.19 46.85 44.27 40.82 39.31 40.46 40.05 42.38 44.10 43.45 43.19 41.69 42.37 41.49 42.24 42.56 45.77 47.05 45.89 44.21 46.84 50.60 52.71 53.53 54.17 55.55 56.81 57.15
52.20 52.09 52.09 51.74 45.83 45.68 43.44 47.70 48.87 48.02 32.86 34.50 38.24 42.35 44.80 44.87 39.74 47.17 47.10 44.73 41.89 38.99 40.78 41.00 44.84 42.88 42.12 41.55 43.45 39.58 44.81 43.99 43.15 42.12 38.48 46.46 37.34 45.34 48.11 49.35 51.32 52.94 55.32 56.55 57.53
51.92 51.54 51.69 51.21 45.61 42.82 45.27 48.66 48.74 45.00 19.33 35.85 39.68 48.47 45.11 41.42 42.76 43.97 48.27 44.55 40.56 40.27 41.26 39.13 40.85 41.23 40.66 41.93 44.86 42.26 45.98 44.48 44.21 42.61 42.70 42.60 39.73 43.55 47.95 46.76 49.63 52.43 54.24 56.97 56.00
51.58 51.23 50.44 47.88 46.13 46.81 48.79 48.10 46.05 30.89 19.12 33.02 39.47 37.84 37.72 40.65 41.59 44.40 44.02 45.81 45.90 41.93 41.95 42.26 45.26 43.49 43.31 44.99 45.94 47.30 45.49 45.35 44.90 42.95 35.88 41.15 40.46 40.87 44.68 47.22 49.46 53.07 55.31 54.86 55.22
51.17 49.78 47.79 48.16 42.79 47.33 47.96 44.30 29.81 22.31 34.75 31.51 33.19 36.47 35.79 36.30 37.84 39.93 39.07 37.98 36.18 35.17 36.03 39.52 40.37 43.53 44.63 42.92 46.13 45.95 43.01 35.82 34.12 34.33 33.80 43.09 40.53 41.48 47.85 49.56 50.80 52.48 55.32 55.17 55.68
50.11 49.35 46.51 47.43 48.61 48.42 45.12 36.33 21.64 28.26 30.17 36.54 35.13 35.08 32.14 36.35 35.89 36.54 36.44 36.66 40.19 40.59 38.98 35.18 33.19 40.51 44.30 42.97 42.24 43.63 42.53 37.18 31.14 33.18 36.93 42.58 37.60 41.50 50.69 52.27 52.49 54.39 55.71 55.16 55.86
49.06 46.53 45.29 46.78 47.00 47.15 38.84 26.84 25.90 29.50 33.50 32.27 33.44 30.27 31.07 34.57 34.48 34.43 33.87 35.84 39.24 40.98 35.44 36.94 36.94 43.24 44.16 45.01 45.43 42.91 40.37 45.57 38.93 40.98 38.32 41.04 43.93 48.12 51.48 51.87 53.62 53.71 53.05 54.57 55.70
44.09 42.85 44.18 47.81 48.12 44.94 35.14 27.72 30.15 35.58 35.33 34.48 27.22 31.06 27.58 30.81 31.34 32.03 30.84 37.42 35.80 39.34 40.84 39.09 36.30 42.64 42.90 45.14 45.15 43.92 45.83 38.24 39.79 32.01 30.62 37.50 40.21 43.33 48.66 50.50 52.52 53.04 53.39 54.29 55.66
43.11 38.84 45.71 47.02 46.75 38.51 30.02 29.85 32.84 37.32 37.32 32.86 30.67 29.90 30.80 29.72 32.53 30.96 30.57 34.84 37.31 37.43 40.28 40.41 38.96 40.18 42.27 41.12 40.56 41.04 41.19 42.32 42.71 39.99 34.55 33.36 38.52 50.55 51.46 53.40 53.25 53.93 54.82 54.77 55.65
41.92 34.34 44.75 47.62 36.82 35.05 31.31 33.20 36.30 35.66 38.17 35.74 35.55 33.94 31.86 32.53 31.13 31.14 30.89 33.71 38.84 37.91 34.86 39.90 38.63 36.52 39.73 44.94 46.20 44.51 42.97 43.06 37.48 35.78 39.71 39.20 40.00 51.07 52.81 53.62 53.28 53.20 54.11 55.24 56.47
36.33 36.09 44.60 45.77 30.00 30.68 32.77 32.74 34.58 34.43 34.96 34.40 33.08 34.58 35.50 32.38 28.94 32.79 33.80 38.31 38.63 36.84 35.20 38.90 37.04 34.24 37.20 41.28 44.11 41.92 43.75 44.48 44.65 43.78 38.25 34.98 40.08 50.96 53.49 53.02 53.35 53.46 53.61 54.75 56.15
38.77 32.34 38.01 41.36 38.09 32.24 29.88 30.60 30.81 36.73 35.60 36.08 35.05 35.93 34.60 32.70 35.07 31.66 33.69 37.31 39.23 38.63 41.61 40.18 35.67 35.96 35.23 38.21 41.79 39.50 41.56 43.42 43.35 39.25 39.52 39.45 42.39 47.22 49.65 52.18 53.58 53.76 54.59 55.66 56.19
38.52 33.72 36.62 30.52 32.99 32.98 31.81 31.28 29.67 30.20 36.03 36.81 33.94 33.55 32.23 29.65 31.44 31.53 34.08 35.77 38.21 39.24 39.15 38.11 32.11 35.17 37.27 38.51 40.23 41.40 40.92 41.65 40.82 42.04 38.72 41.99 42.75 45.97 50.60 51.54 53.26 54.96 54.77 55.14 55.69
36.52 35.73 38.41 34.90 35.07 32.89 32.44 30.30 30.23 32.20 32.48 31.67 32.48 34.17 33.47 29.99 31.53 29.59 33.51 33.68 34.13 38.26 36.71 39.15 32.92 35.43 35.47 39.54 40.09 39.36 41.69 42.44 42.00 42.11 41.99 43.01 43.46 49.72 51.42 53.01 52.98 54.50 54.56 55.09 55.99
43.26 43.40 38.47 34.64 32.94 31.45 32.03 31.70 32.22 34.83 35.40 36.47 35.26 33.99 32.41 34.20 37.05 37.93 38.19 37.65 37.12 36.26 35.89 35.67 35.06 33.64 33.19 37.54 39.14 36.51 41.39 42.58 42.80 43.57 43.51 40.71 45.56 48.93 49.44 52.09 54.54 55.18 55.38 55.96 56.98

GFSSW_sfc_wetblb_012.txt.gz
Wetbulb
55.12 55.31 55.05 54.70 54.77 54.49 54.08 53.74 53.54 54.04 54.30 54.74 55.30 56.50 56.71 57.06 56.94 56.49 50.42 55.45 58.61 63.43 65.39 63.12 62.38 61.53 59.38 57.47 59.79 60.99 54.20 52.00 53.40 53.62 54.61 57.97 56.62 59.18 60.39 59.24 59.98 61.03 60.45 62.54 63.86
53.77 54.08 54.26 54.50 54.43 54.89 54.73 54.65 54.37 53.81 53.75 53.81 54.22 55.07 55.72 56.74 55.36 53.17 60.09 60.24 63.28 64.29 56.24 59.13 57.45 59.20 57.81 58.06 58.87 57.80 54.07 53.95 57.14 57.54 56.47 57.88 57.61 58.24 57.49 58.06 58.39 59.79 62.30 63.37 63.74
53.89 53.92 53.83 53.68 53.60 53.59 53.65 54.29 54.71 54.36 54.04 53.64 53.61 54.62 55.16 56.55 51.76 50.55 63.10 64.85 62.36 62.94 54.17 58.13 57.34 56.48 54.66 57.63 57.94 57.54 54.15 57.26 57.63 58.38 58.82 57.83 57.61 59.22 57.43 56.21 58.05 58.96 60.76 62.36 62.83
53.07 52.72 53.41 53.59 53.30 53.24 53.23 53.36 53.71 53.93 54.02 53.86 53.39 53.88 55.17 54.77 43.09 58.35 58.68 61.69 66.13 61.33 55.08 54.60 55.97 52.65 52.31 52.28 56.98 54.62 57.46 57.83 58.33 58.24 58.16 57.27 58.91 57.32 58.00 58.42 60.22 61.25 61.83 61.80 61.83
52.18 52.67 53.25 53.44 53.43 52.95 52.84 53.20 53.34 53.60 53.90 54.14 53.55 53.05 53.52 48.95 48.57 57.79 59.73 60.27 57.16 59.00 55.22 54.47 54.50 54.11 52.04 53.34 53.59 54.21 55.95 57.55 58.09 58.35 58.12 58.40 57.07 57.16 57.82 59.95 61.34 61.21 61.38 61.42 61.92
52.18 52.95 53.26 53.43 53.39 53.18 53.78 53.89 53.72 53.50 53.46 53.55 53.48 53.10 50.46 42.29 53.79 55.65 55.80 55.62 54.31 56.50 56.47 55.63 53.96 56.09 55.24 54.89 53.65 54.65 54.66 55.30 56.87 56.87 57.44 56.18 56.46 57.38 57.72 59.30 59.89 60.30 59.38 60.02 60.42
52.26 52.66 53.06 53.35 53.40 53.30 53.66 53.49 53.50 53.53 53.62 53.91 53.85 52.74 48.08 46.17 53.61 55.38 54.87 54.36 55.03 53.31 53.07 55.47 55.83 55.13 56.12 53.38 56.48 54.80 52.25 54.13 54.74 56.01 55.26 56.87 53.86 54.17 57.93 58.90 58.28 58.09 58.50 59.74 60.24
52.40 52.84 52.89 53.06 53.21 53.36 53.35 53.49 53.38 53.30 53.51 53.77 53.90 52.26 44.65 52.48 54.97 53.69 55.28 54.48 55.36 55.39 53.55 54.89 54.92 53.63 54.74 55.88 53.28 51.57 52.43 48.64 54.10 55.08 55.54 55.18 49.83 54.86 57.26 57.13 56.62 57.22 57.83 58.32 59.60
52.58 53.09 52.91 53.10 52.81 53.08 53.34 53.30 52.91 52.91 53.46 53.20 51.18 49.65 43.84 53.18 49.38 52.37 54.51 51.56 53.48 54.55 54.69 53.26 52.39 51.11 51.26 48.01 47.41 49.89 46.25 48.91 50.96 55.23 52.93 52.29 49.97 55.02 57.48 56.49 55.97 56.98 57.48 58.04 59.38
52.80 52.97 53.23 52.86 52.79 52.80 52.78 52.88 52.64 52.26 52.81 53.26 51.54 44.49 47.31 43.87 49.39 51.80 53.66 53.63 51.02 51.48 50.65 49.15 49.31 47.94 47.82 46.82 42.56 45.76 46.59 48.03 49.10 52.81 51.85 50.87 50.87 54.25 56.45 55.90 55.41 56.00 56.77 57.63 58.66
52.37 52.78 52.93 53.01 52.47 52.43 51.72 51.98 48.46 47.73 48.19 44.61 44.12 44.84 45.53 48.48 50.37 48.78 50.95 50.89 50.68 49.10 44.69 47.25 43.95 43.64 46.90 48.35 48.99 48.84 48.72 48.32 50.98 53.31 51.64 50.98 51.28 53.15 55.61 55.33 54.97 56.20 56.59 57.14 58.57
52.32 52.16 52.16 52.53 52.55 52.45 51.25 46.21 45.96 47.18 40.94 46.52 46.34 46.07 47.95 48.90 43.30 46.94 50.48 45.44 46.62 43.10 46.46 45.24 42.21 47.39 49.21 49.37 47.98 47.76 47.09 47.74 50.93 52.67 51.89 50.96 49.61 52.63 54.07 54.63 55.40 56.00 56.36 57.58 59.49
52.46 51.98 52.12 52.03 52.08 51.11 48.62 47.29 51.45 51.00 40.41 43.17 45.92 45.16 46.25 48.03 43.95 44.96 47.57 45.92 44.39 43.06 43.94 43.05 44.75 48.01 47.52 47.19 46.23 46.49 46.03 46.85 46.48 49.11 51.41 49.30 47.39 49.44 52.77 54.41 55.09 56.09 57.71 58.92 58.86
52.07 52.09 51.87 51.54 48.69 50.15 47.05 50.54 52.02 51.30 35.42 38.05 41.28 45.23 46.96 47.38 43.13 49.96 49.78 45.98 44.88 42.30 43.88 43.94 47.64 46.65 46.50 45.73 47.09 44.06 48.20 46.67 46.16 45.73 42.18 49.33 40.76 48.38 51.10 51.91 53.58 55.02 56.59 57.77 58.59
51.99 51.53 50.39 50.33 48.25 46.32 48.31 51.61 51.67 48.79 23.73 37.99 42.75 50.78 47.32 43.39 44.20 45.62 50.72 47.19 40.58 43.15 44.28 42.46 44.05 44.53 44.87 45.94 48.04 45.97 47.33 46.75 46.77 45.18 45.16 45.18 42.86 46.22 50.50 49.81 52.15 55.05 56.87 58.47 59.07
51.74 51.08 49.67 50.67 49.05 49.49 51.59 51.34 48.78 33.68 23.67 35.04 41.14 40.31 40.55 42.02 42.13 45.03 45.96 49.03 46.96 41.32 44.66 44.20 48.24 46.65 46.57 47.92 48.11 48.74 46.64 46.82 46.97 45.38 39.51 44.17 43.73 44.54 47.86 50.62 52.84 55.34 55.83 57.15 60.25
51.73 50.09 48.91 50.00 45.66 51.41 51.43 46.95 32.74 25.82 36.92 33.59 35.74 39.19 38.31 37.60 38.61 40.74 40.63 41.37 39.14 35.16 36.26 43.01 43.28 46.66 47.52 45.77 47.94 47.27 45.29 39.95 38.28 38.77 37.98 46.15 43.67 45.87 51.78 53.62 53.81 54.07 56.75 59.59 61.13
50.62 49.35 47.93 51.79 51.52 50.51 48.11 38.99 24.42 31.34 31.63 38.08 37.02 37.25 34.46 37.23 37.72 38.32 38.44 38.31 43.28 40.92 38.92 36.74 36.70 43.38 46.76 45.80 44.53 45.03 45.45 40.87 34.65 36.63 40.21 46.52 41.73 46.19 52.40 54.22 56.02 55.38 56.90 59.04 61.02
49.23 52.91 51.21 51.34 52.22 51.28 41.76 29.87 30.36 33.03 35.89 34.64 36.04 33.43 34.17 36.07 35.94 36.73 36.61 35.47 41.12 43.34 36.66 37.20 39.24 45.86 46.35 47.11 47.86 45.40 43.16 48.28 43.22 44.21 42.15 44.73 47.86 51.27 53.44 53.80 54.47 56.07 56.92 58.96 60.91
48.19 48.43 47.78 51.61 52.16 46.60 38.25 30.47 33.60 37.94 38.13 37.36 30.82 33.59 30.82 33.43 33.74 35.29 33.88 36.08 35.53 41.43 44.30 41.76 38.17 45.53 45.15 47.36 48.40 47.97 49.09 42.40 43.74 37.13 35.72 41.04 43.76 46.62 50.57 51.73 53.97 55.02 57.29 59.54 61.01
48.18 43.91 49.09 52.24 51.61 43.63 33.01 33.96 36.39 39.99 39.81 35.46 33.87 32.72 33.45 32.90 34.78 34.05 32.46 35.80 37.26 38.81 43.36 42.61 41.89 43.21 45.16 43.30 43.46 45.46 45.09 45.96 46.40 43.79 38.85 38.39 41.80 50.05 51.83 54.06 55.18 56.90 59.09 59.80 60.32
45.60 40.24 49.15 51.76 38.85 40.99 34.20 35.69 38.45 38.25 41.14 38.35 38.04 35.98 33.84 34.64 34.14 34.29 32.41 35.57 39.03 39.69 36.65 42.20 42.06 37.99 41.85 46.42 48.24 47.57 46.52 46.80 41.60 40.34 42.94 41.88 41.64 53.80 54.57 55.70 56.31 56.88 59.16 60.50 61.14
41.47 42.90 49.90 49.01 33.77 33.16 36.33 35.88 38.26 37.07 37.48 37.02 36.04 37.64 38.95 35.43 31.71 34.64 35.35 40.22 39.97 38.63 37.59 39.40 40.34 37.46 40.58 44.21 46.69 45.01 45.65 47.21 47.59 47.74 42.66 38.97 42.34 52.50 55.10 56.36 57.11 57.76 58.84 60.04 60.68
42.69 37.80 42.79 45.14 40.47 34.76 33.84 34.24 34.59 39.31 37.97 38.49 37.69 38.96 37.14 35.10 37.30 34.15 35.31 36.83 39.98 40.26 41.58 41.77 40.58 39.95 38.23 41.33 44.85 43.07 44.37 46.51 46.65 42.91 42.97 43.13 44.01 49.36 53.54 54.17 56.21 57.81 59.20 59.97 60.51
43.06 39.24 39.93 35.77 36.30 35.75 36.16 34.81 32.78 32.44 38.34 39.80 36.29 36.22 35.20 31.95 34.13 32.89 35.46 36.82 37.52 40.15 40.42 40.37 37.54 41.38 42.43 42.50 43.28 44.75 44.28 45.20 44.85 46.14 43.10 44.42 45.33 48.59 52.77 53.28 56.03 57.23 58.97 59.35 59.96
39.55 36.90 40.78 37.27 38.59 36.12 35.18 34.11 33.60 35.21 35.01 35.19 35.16 36.63 37.41 34.23 34.48 33.17 35.58 35.73 35.62 39.78 39.76 41.79 37.88 41.23 39.66 42.75 42.55 42.12 44.93 45.35 45.76 46.47 46.11 45.84 46.32 51.94 53.49 54.06 54.29 56.22 58.19 59.14 59.83
44.40 44.50 39.32 36.65 34.97 33.45 34.27 34.23 35.29 36.24 37.18 38.01 36.97 35.68 36.01 37.97 40.63 41.30 41.73 41.20 39.72 37.09 36.53 38.44 37.44 38.98 36.55 42.15 41.49 38.94 43.91 45.02 45.68 47.32 47.13 44.31 48.44 51.68 51.64 52.30 54.02 56.84 57.83 59.12 60.53

GFSSW_sfc_wetblb_015.txt.gz
Wetbulb
54.35 54.48 54.49 54.58 54.27 54.22 54.61 55.16 55.40 55.10 54.97 54.73 54.51 54.49 55.36 56.03 56.52 57.69 55.06 58.34 60.93 63.96 65.99 64.12 63.88 63.79 61.99 59.50 58.22 59.64 53.67 52.00 53.63 54.31 54.67 58.49 57.81 60.25 61.20 59.77 60.56 61.27 61.54 63.18 64.53
53.92 54.13 54.35 54.19 53.88 53.91 53.83 54.05 54.38 55.12 55.05 55.07 54.74 54.21 54.99 55.86 54.90 53.51 60.44 64.22 64.96 65.14 56.82 58.58 59.25 59.54 59.21 58.47 57.69 55.58 53.70 54.03 57.49 57.73 56.95 58.52 58.47 59.08 58.96 58.96 59.14 60.05 62.55 63.84 64.63
52.98 53.46 53.60 53.81 54.07 54.05 53.54 53.67 53.94 54.25 54.50 54.80 54.59 54.46 54.10 55.50 52.77 52.14 61.57 63.57 64.55 64.65 55.02 56.85 60.35 58.68 55.94 58.58 57.95 56.76 53.49 57.72 58.37 59.28 59.03 58.82 58.86 60.13 58.50 57.47 59.24 58.52 60.92 62.74 63.40
52.78 52.88 53.65 53.86 54.02 54.12 53.74 53.68 53.80 53.98 54.07 54.17 54.50 54.31 54.32 54.99 45.13 58.15 59.00 61.20 62.34 62.45 55.40 53.16 55.23 56.57 54.16 53.43 57.23 55.28 57.61 58.29 58.83 59.24 58.67 57.92 58.78 58.47 59.03 59.33 61.29 61.03 62.31 62.82 62.32
52.75 53.11 53.52 53.69 53.90 53.96 54.11 54.08 54.14 54.24 54.20 53.99 53.96 54.36 53.47 49.97 50.39 58.75 60.91 61.64 58.40 61.32 57.69 53.43 52.80 55.20 54.08 54.40 55.60 54.58 56.07 57.86 59.02 59.02 58.96 59.46 57.77 58.18 58.53 60.76 61.79 61.66 62.07 62.00 62.47
52.81 53.06 53.31 53.62 53.79 53.98 54.52 54.52 54.25 53.84 53.77 53.84 54.04 53.86 51.14 43.39 55.17 56.29 56.62 56.29 56.99 56.79 58.31 56.20 54.40 56.41 56.09 55.87 54.80 56.19 55.94 56.07 56.93 57.07 58.08 57.15 57.44 58.12 59.14 61.00 60.41 60.60 61.07 61.66 61.55
52.52 52.91 53.10 53.34 53.66 53.40 54.21 53.95 53.81 54.01 53.66 54.00 54.43 53.78 49.17 47.77 54.49 55.22 55.40 54.90 55.60 55.52 53.81 58.03 57.58 55.45 56.79 55.19 57.92 57.03 54.15 55.81 56.25 56.40 55.77 57.31 54.69 55.40 58.85 59.76 59.41 59.60 60.41 60.89 61.01
52.82 53.43 53.03 53.26 53.41 53.47 53.41 53.74 53.72 53.81 53.93 54.39 54.37 53.32 46.13 53.73 54.97 52.87 53.68 52.73 55.07 55.96 55.68 56.62 57.91 56.29 55.53 56.94 55.75 53.56 54.50 50.34 55.08 55.96 56.33 56.00 50.64 56.43 59.24 58.92 58.63 58.84 59.27 59.68 60.74
53.25 53.25 53.04 53.17 53.36 53.14 53.72 53.39 53.39 53.95 54.08 54.22 53.03 50.76 45.44 55.19 50.93 53.14 53.26 50.42 52.98 54.91 55.53 55.81 54.63 53.00 53.81 50.83 49.96 52.41 48.22 49.87 52.01 56.37 55.78 54.81 52.38 56.74 58.93 58.14 58.08 58.77 59.00 59.03 60.06
53.11 53.04 53.10 52.85 52.88 53.18 53.14 52.55 54.25 52.59 53.67 55.35 54.16 47.38 50.00 46.10 49.36 51.37 54.50 53.14 51.04 52.22 52.16 51.81 50.71 48.45 49.44 48.61 43.37 46.94 48.06 49.54 49.42 53.70 54.72 53.53 53.56 56.31 57.17 57.05 57.23 58.05 58.72 59.14 59.30
52.69 52.87 52.63 52.77 52.85 52.54 52.31 53.51 50.19 49.24 52.20 47.42 46.18 46.91 47.19 49.84 50.74 48.66 51.10 50.10 51.80 50.06 46.20 50.03 45.49 43.62 46.53 49.35 50.37 50.10 49.54 49.06 51.68 54.51 52.70 52.23 52.80 55.01 56.43 56.75 56.65 57.60 58.47 59.21 59.40
52.46 52.13 52.46 52.60 52.91 52.42 52.37 48.36 48.24 49.34 42.70 48.18 47.60 47.41 48.85 49.69 44.92 47.49 50.83 46.10 46.69 44.06 47.12 46.95 43.37 47.67 49.17 49.60 49.02 48.53 47.72 48.22 51.57 53.86 52.62 52.52 52.15 55.08 56.34 56.59 56.99 57.05 57.71 58.48 59.35
52.61 52.32 51.98 52.15 51.81 52.00 50.53 49.41 53.17 52.42 42.59 44.39 46.94 46.37 47.12 49.05 45.52 45.90 48.52 46.45 43.67 43.78 44.94 43.72 46.41 49.02 47.51 47.22 47.15 48.09 47.23 48.07 48.56 52.13 52.72 52.20 50.43 52.23 54.92 56.15 56.52 57.04 57.82 58.42 59.12
52.29 52.29 51.73 50.87 48.81 51.70 48.81 52.22 53.23 52.78 36.80 39.62 43.31 45.64 47.73 48.79 44.60 51.01 51.05 46.97 43.94 40.81 45.23 44.83 48.09 47.56 46.69 45.99 47.47 44.91 50.30 49.74 49.23 48.39 44.88 51.58 43.80 50.28 52.88 53.45 54.97 56.37 57.38 58.10 59.32
52.04 52.34 51.90 50.21 50.12 48.43 50.54 53.21 53.05 50.13 24.93 40.10 42.46 51.72 47.59 44.49 45.21 46.46 51.76 48.26 41.35 42.09 42.63 42.78 44.93 45.20 45.58 46.25 48.72 47.20 50.67 50.26 49.75 47.64 47.19 47.21 44.76 47.97 51.97 50.94 53.25 55.63 56.76 58.27 59.09
51.89 51.59 50.40 52.11 51.75 52.15 53.82 52.79 49.35 34.28 24.98 37.27 42.10 41.60 41.88 43.20 43.49 45.37 46.15 49.90 48.54 43.15 43.57 44.14 48.73 47.70 46.95 48.93 49.37 50.20 49.20 49.65 49.95 47.82 41.79 45.97 45.43 45.89 48.89 51.32 53.53 55.98 57.09 58.32 59.42
51.67 51.00 50.92 53.26 48.69 54.06 53.37 47.81 32.89 28.07 38.09 34.13 36.30 39.53 39.23 39.08 40.04 41.41 40.43 40.95 40.46 36.98 36.87 41.19 43.36 47.76 49.13 46.01 49.17 49.11 47.35 41.24 39.69 39.95 40.22 47.56 45.43 47.33 52.18 53.65 54.73 55.42 56.95 57.98 61.34
50.87 49.68 50.64 52.80 53.38 53.25 49.57 40.34 27.97 34.48 34.83 39.57 38.55 38.59 36.17 38.54 39.00 38.95 39.61 37.70 41.50 41.30 39.55 35.84 34.75 43.46 48.08 46.80 45.73 46.73 47.06 42.08 36.09 38.98 41.69 47.52 43.23 47.62 53.80 55.54 55.94 56.61 57.41 61.14 62.57
49.31 53.56 51.31 53.46 53.99 52.11 42.26 32.85 30.98 35.16 38.12 36.52 38.13 34.43 35.83 37.59 38.20 38.06 37.96 38.24 40.95 41.25 36.02 37.76 37.09 44.88 46.99 48.39 47.86 46.19 44.69 49.07 45.42 47.06 44.01 46.20 48.94 52.39 54.69 55.09 55.25 56.45 57.17 60.41 62.34
50.71 50.41 50.82 53.87 53.73 50.07 41.29 32.93 36.06 39.91 39.57 38.98 32.25 35.61 32.08 34.96 35.67 37.25 36.27 39.45 38.76 40.82 42.86 42.17 37.07 43.33 46.60 48.05 48.34 47.85 50.13 43.47 46.40 39.40 38.61 43.96 46.10 45.77 51.42 52.88 54.59 56.41 57.14 59.69 62.47
50.29 46.29 51.32 54.00 53.39 45.54 35.81 36.07 38.46 41.05 41.14 37.18 35.04 34.69 35.46 34.33 35.83 35.58 35.51 39.49 39.91 40.82 42.80 42.30 38.81 42.20 45.42 44.87 43.73 45.22 45.56 46.79 47.59 46.03 41.27 40.43 43.22 52.23 53.11 54.52 54.84 55.99 58.37 61.16 62.25
49.19 42.18 51.12 54.46 41.52 42.27 36.62 38.80 39.65 40.00 41.46 39.94 39.27 37.29 36.01 36.06 34.80 35.55 34.53 38.00 41.20 41.83 38.90 44.18 40.12 37.52 42.07 48.03 48.56 47.81 47.05 47.70 43.98 43.32 45.43 45.02 45.44 54.96 54.75 55.75 57.47 58.24 60.26 62.04 62.55
45.81 46.56 52.01 49.99 36.42 36.39 40.21 39.20 40.23 39.42 39.19 38.66 36.91 39.68 40.68 36.70 33.15 36.73 37.96 41.03 40.50 40.15 38.83 41.55 39.73 34.00 39.30 44.98 46.90 45.80 47.36 49.10 49.11 49.72 44.52 42.63 45.31 54.80 55.87 56.62 57.59 58.40 60.71 61.50 62.12
46.19 41.41 46.45 48.76 42.44 37.72 36.38 37.39 36.69 41.67 40.27 40.58 39.14 40.39 37.68 36.11 38.59 35.66 36.53 39.52 40.75 40.14 42.25 41.59 39.98 38.52 36.02 41.43 45.02 43.89 46.15 48.56 48.47 45.00 45.52 45.28 47.34 51.81 54.55 55.33 57.42 59.33 61.03 61.18 61.51
47.64 42.48 42.73 38.30 39.16 36.87 37.14 37.55 35.42 35.21 39.03 40.67 39.19 38.68 37.10 33.74 35.99 36.05 37.92 39.52 39.58 40.47 39.81 40.30 36.04 39.97 39.41 42.59 45.77 45.20 45.67 46.99 46.89 47.95 45.68 47.44 47.24 50.55 54.50 55.51 56.56 59.60 60.56 60.50 60.97
42.30 40.45 43.68 40.27 39.99 36.89 38.53 36.74 35.64 36.95 37.37 36.93 36.59 38.73 39.28 35.95 36.38 35.03 37.77 38.28 36.46 40.38 39.74 41.43 36.54 38.40 35.55 40.90 44.30 44.42 45.99 46.49 47.34 48.14 48.35 48.57 48.19 52.13 54.20 55.86 55.87 57.90 59.51 60.00 60.76
48.38 46.60 42.12 39.26 38.38 36.44 37.33 37.18 36.30 38.27 40.36 40.34 38.78 37.81 38.15 39.56 42.54 43.15 43.54 42.81 41.87 39.02 38.44 38.46 37.46 37.34 31.74 39.99 41.78 40.77 45.68 46.41 47.36 49.37 49.36 46.22 49.44 53.36 53.30 54.59 56.78 57.60 58.74 60.23 61.30

GFSSW_sfc_wetblb_021.txt.gz
Wetbulb
53.48 53.75 54.06 54.17 54.35 54.29 54.69 54.72 54.75 54.82 54.99 55.26 55.42 55.50 55.60 55.69 55.95 51.04 48.29 53.57 57.79 62.38 63.85 61.36 60.12 59.01 59.44 59.40 60.48 56.78 42.69 40.95 45.36 48.06 51.48 56.15 54.67 57.78 59.54 57.66 58.51 59.62 59.14 60.15 61.39
53.60 53.72 53.52 53.80 54.25 54.67 54.68 54.77 54.80 54.87 54.94 55.11 55.14 55.15 55.43 55.72 50.40 47.79 55.24 62.85 63.19 65.83 57.51 52.62 51.22 58.05 57.35 57.26 57.81 55.63 43.68 44.44 50.06 51.37 51.87 54.61 54.85 56.16 56.55 56.56 57.38 58.94 60.95 62.26 62.26
53.42 53.69 53.51 53.93 53.99 54.42 54.50 54.49 54.45 54.81 54.75 54.60 54.80 54.75 55.11 54.57 47.30 48.16 64.29 63.32 62.25 65.12 56.02 54.47 53.60 53.60 54.04 54.67 55.83 55.63 50.29 51.62 51.62 53.10 54.12 54.32 55.15 57.54 56.25 53.92 56.52 56.98 59.14 60.48 60.34
53.29 53.53 53.80 53.83 54.03 54.19 54.37 54.50 54.56 54.39 54.74 54.56 54.39 54.37 54.83 50.74 37.73 52.40 64.77 65.12 66.09 60.64 54.42 51.87 49.04 46.37 45.04 50.89 53.82 50.13 53.51 54.55 54.05 54.07 53.64 52.77 55.94 55.15 55.89 55.20 57.74 58.18 59.00 59.01 58.41
53.48 53.75 53.72 53.71 53.88 53.95 54.30 54.43 54.47 54.35 54.21 54.02 54.28 54.26 50.42 43.06 43.15 51.51 64.14 63.80 56.41 54.32 51.34 49.04 45.91 44.81 42.65 46.78 52.93 50.42 51.75 53.85 55.30 54.93 54.40 55.35 54.26 54.58 55.19 57.96 58.92 58.51 58.45 57.85 57.94
53.88 53.58 53.47 53.57 53.45 53.82 54.34 54.42 54.46 54.20 53.88 54.04 53.91 53.73 47.33 38.00 50.01 51.50 51.91 53.25 55.73 53.05 50.67 49.49 47.26 48.38 46.10 45.99 46.55 51.91 52.58 52.55 53.41 53.83 54.86 54.14 54.45 54.51 55.38 56.95 56.60 56.96 56.51 57.02 57.92
54.21 53.87 53.31 53.44 53.81 53.79 54.22 53.86 53.74 53.97 53.72 53.95 54.32 51.99 45.19 42.25 50.48 51.23 50.36 48.99 49.91 51.29 50.59 53.22 54.48 51.53 48.13 45.56 49.51 49.32 46.95 50.46 52.94 52.95 51.94 54.13 50.93 51.84 55.43 56.36 55.81 55.88 56.61 56.99 57.82
53.97 53.76 53.14 53.04 53.09 53.58 54.11 53.90 53.55 53.92 53.77 54.47 55.01 50.35 41.02 50.73 51.29 49.66 49.80 49.16 50.61 50.29 49.85 50.66 51.09 47.90 47.19 49.39 48.77 45.82 46.36 42.18 48.06 51.48 53.36 52.45 46.79 52.69 55.43 55.49 54.96 56.43 57.04 57.16 57.14
53.56 53.49 53.00 53.19 53.14 53.42 53.74 53.47 53.98 54.04 54.66 54.87 50.64 47.06 39.81 53.62 48.58 50.65 50.43 47.97 49.22 49.56 49.52 51.20 48.81 45.14 46.37 42.73 41.37 44.33 39.13 41.43 44.68 50.36 50.50 50.28 48.02 53.23 55.75 55.37 54.88 55.82 56.31 56.78 57.39
53.35 53.26 53.16 53.02 52.93 53.18 52.87 52.73 53.08 53.86 53.18 53.35 52.12 44.76 47.21 46.10 50.93 51.96 52.10 51.19 49.33 47.42 46.03 45.31 43.44 41.58 41.30 39.69 34.64 38.73 40.60 42.94 42.75 47.75 49.84 48.79 48.72 52.22 54.40 54.40 54.32 55.25 55.72 56.27 56.35
52.85 52.89 52.77 52.91 53.00 52.53 50.57 46.56 44.46 43.52 47.19 43.63 44.61 46.04 47.65 51.75 53.72 49.12 51.36 48.30 47.00 45.09 38.40 42.19 37.30 36.39 39.49 41.78 43.45 43.95 43.44 42.70 45.73 49.25 48.44 47.92 48.47 50.66 53.27 52.58 52.35 53.01 54.01 54.83 55.43
52.21 52.81 52.96 52.90 52.98 52.47 49.03 44.76 46.05 44.52 37.89 45.12 45.29 45.13 47.73 48.85 43.64 46.33 49.10 42.65 41.52 36.89 40.92 39.32 35.51 41.24 44.49 44.11 43.01 42.56 40.50 41.06 45.78 49.28 47.83 47.61 47.27 50.90 52.82 52.21 53.11 53.46 53.22 53.90 54.22
52.18 52.35 52.86 53.07 52.53 49.69 47.15 47.52 50.43 48.00 37.48 40.66 44.54 44.09 44.54 46.09 42.50 43.17 46.01 43.54 39.94 37.06 37.72 35.45 39.68 44.12 43.39 42.49 41.56 41.16 40.35 40.57 41.24 46.00 47.13 45.57 43.75 46.34 49.83 51.93 53.32 53.85 53.50 54.51 54.51
51.72 51.79 52.31 52.45 48.14 48.47 46.03 50.32 50.34 48.29 29.78 35.98 42.01 45.14 46.43 45.08 40.40 47.03 47.73 43.93 40.56 36.43 37.69 36.58 41.72 42.55 41.02 40.92 42.88 37.97 44.57 44.21 43.83 42.20 37.38 45.22 36.33 44.13 47.28 49.00 51.60 53.25 53.54 55.06 54.54
51.33 51.77 51.93 51.12 46.28 45.88 48.96 50.35 49.26 44.30 20.09 39.05 40.99 49.35 46.33 42.32 44.15 45.22 49.36 44.92 39.42 39.12 38.09 35.11 37.66 38.11 38.54 40.50 44.11 40.91 45.71 43.90 43.73 41.02 40.13 41.48 37.73 42.48 46.90 46.31 47.92 50.72 52.20 52.65 53.76
50.99 51.53 51.50 49.96 47.36 49.12 50.55 48.81 46.41 32.54 22.33 34.51 41.06 39.38 39.22 40.96 41.85 44.39 45.48 47.54 46.01 40.67 40.42 38.88 42.79 40.42 39.05 41.78 44.24 45.21 43.70 43.12 42.47 39.86 33.08 39.52 39.60 40.29 43.14 46.10 48.93 51.04 52.29 53.53 53.60
51.03 50.89 49.42 50.21 45.00 49.97 49.45 44.88 31.89 24.01 37.44 34.05 34.61 38.80 38.17 37.47 39.38 40.81 39.60 39.19 35.58 32.41 33.24 38.67 39.43 41.31 42.21 38.11 40.74 41.54 37.31 30.83 29.93 31.20 31.22 40.72 39.20 42.01 45.89 49.49 50.85 50.78 51.82 53.78 56.41
50.41 49.65 49.98 51.75 51.70 49.70 45.83 35.87 25.79 32.01 32.70 38.23 36.54 37.67 34.16 37.12 36.24 37.40 36.93 33.80 38.37 37.67 32.69 31.06 29.79 39.90 44.20 38.67 35.95 36.41 37.75 31.58 25.04 28.88 33.11 41.41 36.01 41.42 48.97 51.34 52.06 52.56 51.29 57.92 58.65
49.15 49.48 48.22 50.06 51.16 48.82 39.74 26.69 27.67 32.73 35.35 34.92 35.71 32.28 32.53 35.96 35.40 35.60 34.79 34.21 38.00 39.01 32.66 31.40 32.43 42.49 42.21 43.13 40.97 36.72 33.97 41.15 35.51 37.69 34.20 37.35 41.98 46.36 48.56 49.50 51.13 51.74 52.56 56.31 58.27
45.64 45.92 47.58 50.93 51.13 45.54 35.73 31.72 34.90 37.81 37.84 36.87 29.71 33.56 29.40 31.99 32.73 33.26 33.15 38.03 38.00 41.51 40.10 36.43 29.09 38.52 40.20 41.96 42.88 39.49 41.26 34.13 35.85 28.19 27.46 36.06 38.33 39.79 46.08 47.97 50.43 50.37 55.13 56.31 58.28
45.43 43.26 48.49 50.45 49.46 41.89 29.56 33.34 36.88 41.20 40.75 36.16 31.92 32.27 32.31 32.27 33.26 32.25 33.76 38.14 40.44 39.19 39.91 37.11 32.76 33.29 37.94 35.44 35.37 37.22 35.83 36.82 37.73 35.72 31.18 30.28 36.42 46.89 47.81 50.06 49.60 51.02 56.31 56.85 57.69
44.71 38.92 48.52 49.64 36.92 38.23 31.96 37.34 39.82 39.16 41.61 39.22 37.92 36.10 34.63 34.71 33.05 32.89 32.33 35.88 40.92 40.87 35.01 37.71 34.01 29.63 33.07 39.61 42.09 40.32 37.76 38.10 33.26 33.32 37.03 35.67 37.69 50.62 51.20 51.24 50.03 53.00 57.15 57.55 58.66
41.18 43.26 49.74 47.61 32.27 32.57 37.68 37.54 38.93 38.73 37.91 37.74 36.43 37.95 37.70 34.31 31.09 34.94 35.24 40.84 41.52 39.94 35.99 37.58 31.26 26.73 30.17 35.10 40.32 38.20 41.48 40.21 38.84 38.36 35.67 34.72 37.40 48.65 49.95 52.89 54.86 56.14 57.27 58.21 58.60
42.56 37.21 41.22 42.92 41.14 36.58 34.16 34.99 35.33 41.50 39.51 39.28 37.67 38.43 36.44 33.55 35.98 33.85 34.42 39.84 42.12 40.45 42.81 39.74 32.46 29.98 26.73 32.29 36.15 34.37 36.74 39.28 38.49 34.73 36.66 39.42 41.61 44.71 48.93 51.51 55.28 56.57 57.35 57.84 58.53
43.42 38.02 40.03 32.63 35.14 37.07 38.14 37.24 35.27 34.57 39.79 40.03 36.68 36.65 34.68 31.12 32.71 32.39 35.92 37.93 40.62 41.69 40.29 37.68 31.81 33.40 35.31 37.54 37.60 35.34 35.38 36.70 34.94 38.78 37.16 40.53 42.13 46.86 50.41 52.37 55.56 56.68 57.34 57.45 58.03
41.58 39.28 40.57 38.58 38.71 37.39 38.04 35.94 35.45 36.82 37.34 35.71 34.79 37.17 36.28 33.31 34.11 31.93 34.85 34.83 34.03 39.25 38.20 39.08 33.37 35.05 32.77 37.25 37.27 33.99 36.42 36.83 37.01 38.07 41.30 42.86 43.82 51.31 51.89 54.91 56.18 56.77 57.28 57.09 58.10
44.93 46.04 42.00 38.74 36.83 35.06 35.10 36.93 36.92 39.00 39.29 40.09 38.35 37.15 35.86 37.86 40.07 40.14 39.41 38.84 38.12 35.84 34.67 34.17 34.09 32.21 29.84 36.59 35.56 30.20 34.72 36.46 38.48 40.46 42.02 40.32 45.48 52.88 52.76 53.93 53.71 55.09 57.11 57.51 58.77

GFSSW_sfc_wetblb_024.txt.gz
Wetbulb
53.54 53.50 53.26 53.59 53.84 54.00 54.65 54.83 54.73 55.03 55.16 55.35 55.37 55.36 55.50 55.30 55.53 50.64 45.80 51.88 54.42 61.20 64.52 57.56 61.17 58.27 55.44 54.85 58.30 54.04 41.79 39.20 43.55 46.31 48.70 53.57 53.98 58.21 58.66 57.08 57.57 59.09 57.86 59.76 61.66
53.45 53.30 53.49 53.71 53.77 53.69 54.35 54.57 54.70 54.59 54.74 55.12 55.11 55.10 55.09 55.30 50.08 46.83 53.43 59.91 61.90 64.25 55.51 53.50 51.16 55.06 53.33 54.65 55.72 52.21 44.59 43.16 48.39 50.13 48.32 50.91 52.55 53.87 54.49 54.97 55.82 58.08 60.20 60.49 60.92
53.63 53.43 53.89 54.07 54.06 54.18 54.18 54.39 54.65 54.73 54.51 54.61 54.83 54.71 54.89 53.89 44.52 45.63 62.38 61.00 61.77 62.96 56.64 54.40 52.68 50.94 48.93 54.14 54.16 52.64 49.38 50.88 50.66 52.56 52.47 50.99 52.02 54.25 52.97 51.86 55.01 56.03 57.54 58.96 59.22
53.70 53.87 53.92 53.93 53.96 53.83 54.01 54.18 54.47 54.52 54.27 54.22 54.07 54.20 54.57 50.07 31.78 50.25 63.76 63.59 65.50 59.95 56.43 51.69 48.54 45.40 43.06 45.27 53.25 49.89 54.10 55.66 55.92 56.51 54.05 51.46 53.26 52.35 53.15 53.40 57.04 57.44 57.88 58.10 57.93
53.66 53.93 53.89 53.78 53.74 53.74 53.84 53.97 54.24 54.28 54.05 53.86 53.98 53.95 49.78 42.35 43.25 48.17 58.44 55.50 52.96 60.53 52.07 49.24 46.12 44.19 40.26 43.26 45.65 46.10 51.61 53.48 54.54 54.70 54.73 55.04 53.05 52.60 52.99 55.85 57.86 57.81 57.23 56.22 56.09
53.52 53.56 53.71 53.73 53.61 53.99 54.17 54.31 54.03 53.70 53.77 53.56 53.83 53.18 45.86 36.68 48.18 49.84 50.18 49.98 49.38 48.45 51.18 47.74 46.03 46.59 44.26 42.91 43.34 46.26 47.41 50.41 52.45 51.74 52.77 51.94 52.67 53.84 54.90 57.53 57.21 56.12 55.22 55.32 54.83
53.27 53.76 53.46 53.70 54.05 54.03 54.21 53.71 53.74 53.78 53.70 53.93 54.13 51.74 45.26 41.35 49.92 49.11 47.62 45.91 47.64 47.90 45.36 50.04 49.58 47.16 45.17 42.41 46.70 46.60 42.72 45.68 47.23 49.20 50.67 52.71 49.14 50.12 54.83 56.07 54.91 54.87 55.41 55.23 55.32
52.45 53.63 52.98 53.08 53.15 53.27 53.80 53.67 53.45 53.88 54.30 54.81 54.45 50.06 41.62 50.06 50.12 48.83 48.97 47.70 49.21 49.06 48.03 48.89 48.35 46.00 44.32 46.76 46.66 42.73 42.52 39.66 45.93 47.79 48.72 50.41 45.16 52.21 54.48 53.64 53.25 54.34 55.23 56.11 55.86
53.29 53.16 52.95 52.77 52.75 53.04 53.32 53.29 53.78 54.48 54.81 54.38 49.60 46.70 40.47 52.53 48.46 50.50 49.61 46.31 47.85 48.39 47.95 50.17 46.18 42.96 43.08 39.88 37.60 39.94 37.25 38.94 42.32 47.37 47.73 47.63 45.40 51.37 54.18 53.70 52.16 52.96 54.22 55.44 56.30
52.66 52.64 52.81 52.54 52.97 53.20 53.29 52.76 53.04 53.47 52.80 53.31 51.49 44.33 45.28 44.76 50.17 52.19 51.19 49.37 46.59 46.42 45.04 43.34 40.45 38.35 36.78 36.38 32.80 35.12 37.50 40.29 40.16 45.08 47.18 46.08 45.70 49.44 51.54 51.87 51.89 52.87 53.86 54.62 55.23
51.83 52.33 52.38 52.65 53.12 53.19 50.65 45.49 42.77 39.84 42.25 39.80 41.44 42.42 43.77 47.02 49.16 48.87 51.22 48.04 46.73 43.57 36.14 38.97 34.06 33.49 37.09 39.58 40.27 41.46 40.41 39.73 42.72 46.29 45.23 45.32 45.87 48.04 50.59 51.21 50.26 51.30 52.47 53.71 54.49
51.47 51.49 52.27 52.65 53.04 52.70 48.39 42.79 44.03 43.00 36.02 44.35 44.22 44.54 46.44 46.65 41.26 44.41 48.66 41.87 40.70 35.20 38.93 36.30 33.10 38.41 41.32 41.39 40.50 39.42 37.96 37.97 41.75 45.22 45.22 44.81 44.55 48.13 50.07 50.74 51.62 52.06 52.34 52.42 52.83
51.51 51.69 51.94 52.45 52.04 47.75 45.08 45.61 48.08 45.00 35.38 39.68 44.35 45.28 45.41 45.16 40.89 41.54 45.14 42.52 38.56 35.92 35.82 33.35 36.91 42.16 40.18 38.84 38.62 38.76 37.10 38.11 38.44 42.56 43.84 42.05 40.76 43.55 47.41 48.71 49.79 50.81 52.45 52.00 52.39
51.24 51.38 51.76 51.47 46.11 45.28 44.60 49.09 46.49 44.59 29.39 36.04 40.95 43.59 45.70 44.41 39.85 46.35 46.51 43.06 39.18 35.17 36.24 34.57 38.57 37.81 37.44 37.62 39.08 35.06 41.87 41.43 40.39 38.74 34.17 42.46 33.57 41.49 44.53 46.25 48.01 49.23 49.11 50.18 52.55
51.20 51.62 51.74 50.88 44.26 42.65 47.17 47.44 45.82 41.58 17.38 38.32 40.94 48.54 46.14 41.84 43.20 43.97 49.34 43.99 36.74 37.06 36.07 33.56 35.97 35.58 35.37 37.41 41.40 37.16 43.46 41.54 41.17 37.93 37.10 37.89 33.48 39.92 43.74 44.05 46.42 48.59 50.31 50.19 51.45
51.19 51.60 51.34 47.00 44.58 46.16 48.65 45.69 43.19 27.96 17.10 34.30 40.41 38.67 38.83 41.07 41.38 44.03 43.73 47.17 45.33 38.73 38.25 36.85 40.69 38.70 37.37 39.45 39.91 41.31 40.69 40.23 39.68 35.32 29.49 36.62 35.46 35.26 40.06 43.57 45.47 48.07 49.66 51.38 51.43
50.96 50.70 49.56 48.82 42.11 47.03 45.57 41.03 26.55 20.05 36.21 32.41 33.52 37.20 36.25 36.14 37.67 39.58 38.46 37.24 34.41 32.10 31.39 36.72 38.03 40.87 41.44 37.02 39.06 36.88 31.27 26.26 24.52 26.68 28.70 38.21 35.31 38.48 42.13 45.47 47.02 47.95 49.68 50.94 51.64
50.19 49.74 47.97 48.85 46.72 46.97 41.99 32.94 19.21 31.28 31.84 37.65 36.58 35.98 32.67 35.86 35.73 37.07 35.82 33.01 38.68 37.19 31.01 28.51 27.03 38.07 42.90 38.26 33.78 33.05 31.72 26.10 21.38 23.78 29.02 38.60 32.33 36.94 45.22 47.81 48.96 49.93 51.06 54.49 55.97
49.21 43.50 44.67 47.35 48.31 44.90 36.56 24.38 25.34 32.07 35.92 34.11 35.22 31.20 31.02 34.73 35.28 35.10 33.94 33.50 37.05 37.44 30.50 29.88 31.09 40.08 40.95 41.08 38.79 34.28 30.59 34.76 30.35 34.05 28.83 33.79 38.18 42.47 45.63 46.28 47.51 48.16 53.49 54.82 55.65
43.57 41.70 43.35 48.69 47.02 42.51 32.67 29.85 32.70 38.35 38.32 37.36 29.52 31.44 27.71 30.29 31.34 32.08 32.89 37.57 36.81 39.71 38.08 34.07 27.37 37.19 39.46 40.44 39.87 37.38 39.40 29.68 29.05 23.97 22.63 31.36 34.09 35.72 42.39 44.22 46.88 46.75 52.50 54.54 56.45
41.40 39.94 45.80 46.59 46.23 37.22 25.17 30.65 35.69 40.18 40.16 35.76 32.63 31.30 32.40 31.73 31.95 31.60 32.28 36.86 38.93 38.46 39.89 34.37 30.77 31.57 36.76 34.80 32.69 33.36 32.33 32.58 32.31 30.69 27.58 25.55 31.35 41.89 42.58 45.55 47.75 46.84 54.43 55.76 56.86
39.44 35.52 46.07 46.08 34.28 33.40 28.00 35.80 39.68 38.24 41.10 38.58 37.36 34.96 33.09 33.67 31.58 32.25 31.78 35.47 41.09 39.51 33.73 36.22 31.64 28.20 30.71 37.97 40.79 36.88 34.12 33.65 26.88 26.98 31.98 31.17 33.75 45.81 45.04 46.88 48.23 53.58 56.02 56.36 57.18
37.91 38.06 46.13 43.72 27.09 27.32 33.87 36.65 38.82 37.80 38.36 37.52 35.35 36.93 36.04 32.42 29.72 33.76 35.57 40.15 40.87 38.97 35.03 35.70 28.57 23.85 25.33 32.00 38.78 34.74 37.82 37.56 34.99 33.25 31.29 30.53 32.66 45.94 45.74 47.79 50.89 54.20 55.39 56.57 56.78
37.43 33.64 36.32 36.72 35.83 31.21 31.76 34.18 35.01 40.74 38.99 39.23 37.09 37.21 34.68 32.47 34.20 32.18 33.49 38.85 41.28 40.40 42.28 39.40 30.44 27.81 20.94 28.93 33.97 32.34 35.52 36.88 34.34 29.38 32.41 33.80 37.38 42.43 44.46 47.35 53.04 54.29 55.73 56.41 57.75
38.09 33.33 35.75 29.29 33.50 34.64 34.26 35.53 34.72 34.53 39.38 38.83 36.11 35.67 34.00 30.91 31.59 31.69 34.62 35.94 39.45 41.54 39.41 37.61 29.96 32.31 32.94 34.59 35.43 35.68 35.19 35.70 33.76 34.74 31.16 36.06 37.70 42.03 44.70 46.31 53.44 55.28 56.23 56.48 57.30
35.37 36.35 39.86 37.24 36.43 33.69 34.29 32.47 34.81 36.26 36.50 35.15 34.08 36.35 35.70 33.18 34.49 32.30 34.86 33.35 32.70 37.38 36.33 38.54 29.21 34.15 30.68 34.74 35.49 33.93 36.28 36.22 36.22 36.42 35.83 36.69 37.20 45.34 52.93 52.91 54.15 55.75 56.19 56.43 57.06
39.47 40.12 40.26 38.12 36.35 34.69 32.16 35.89 36.05 38.04 38.33 39.64 37.26 35.57 34.83 37.45 40.02 39.82 39.45 38.57 36.33 33.10 32.20 34.15 32.43 31.26 26.81 34.67 35.28 30.03 34.60 36.01 36.67 39.27 38.99 34.67 40.28 46.07 52.32 53.35 52.04 55.19 56.58 56.63 57.58

GFSSW_sfc_wetblb_027.txt.gz
Wetbulb
53.26 53.44 53.68 53.91 54.00 54.05 54.23 54.34 54.38 54.83 54.90 54.95 55.00 55.14 55.11 54.98 55.07 49.78 43.90 49.41 52.87 59.57 63.06 57.56 61.06 58.35 54.28 51.40 56.41 49.90 40.79 38.34 42.10 44.64 47.20 52.51 52.87 56.34 58.18 55.54 55.71 57.26 57.20 59.61 61.15
53.42 53.36 53.32 53.98 53.89 54.16 54.06 54.23 54.41 54.62 54.73 54.74 54.74 54.69 54.60 54.64 49.50 45.61 51.46 56.88 59.66 62.42 54.61 49.55 49.29 55.68 47.36 48.30 53.72 48.40 39.97 41.73 46.46 48.47 47.59 49.79 50.07 54.05 55.70 54.59 54.25 54.70 58.90 60.03 59.94
53.04 53.35 53.50 54.11 54.08 53.89 54.05 54.05 54.08 54.21 54.26 54.30 54.31 54.29 54.08 53.19 41.50 41.36 62.09 60.86 60.89 61.56 57.42 53.96 51.22 50.35 47.08 52.05 50.47 50.97 47.48 48.47 48.80 49.65 50.51 51.32 50.42 52.23 51.63 49.96 52.27 53.13 55.88 57.33 57.53
53.18 53.61 53.94 53.84 53.96 53.87 53.89 53.92 54.16 54.17 54.12 54.00 53.76 53.81 53.50 48.47 30.24 44.40 62.61 59.65 58.97 55.73 55.69 52.04 49.42 44.62 42.06 45.38 51.71 48.26 52.19 53.73 53.12 53.50 54.26 52.88 54.47 52.83 51.45 52.03 54.74 55.18 56.28 56.58 57.26
52.72 53.50 53.64 53.56 53.56 53.56 53.70 53.87 54.02 54.08 53.95 53.56 53.41 53.30 48.41 40.83 40.14 47.55 55.65 52.57 50.14 54.77 53.65 50.13 46.22 44.77 40.36 42.17 45.21 45.14 50.00 52.48 53.66 54.11 55.24 56.92 55.07 54.32 53.72 55.12 56.44 56.26 56.43 56.08 55.73
52.58 52.67 53.18 53.08 53.26 53.61 53.73 53.91 53.70 53.52 53.59 53.07 53.12 52.70 45.48 36.85 47.67 48.86 48.46 48.32 46.94 45.28 44.76 49.10 45.95 46.55 42.80 41.91 44.21 44.50 46.87 47.43 49.49 50.80 51.76 50.88 51.43 52.52 53.45 56.20 55.75 56.18 55.77 55.67 54.91
52.97 52.78 52.80 52.84 52.99 53.42 53.77 53.50 53.39 53.50 53.55 53.95 53.54 50.76 44.54 41.40 49.15 49.17 47.67 45.79 46.60 46.04 43.43 46.29 49.93 46.26 44.35 40.57 44.56 44.27 41.05 44.50 45.54 44.38 46.61 51.04 47.59 48.79 53.63 54.95 54.19 54.85 54.08 54.22 54.05
52.20 52.65 52.51 52.55 52.43 52.51 53.83 53.95 53.89 54.34 55.03 54.66 53.25 49.50 41.09 49.60 49.28 48.02 48.18 46.79 47.75 47.55 46.55 47.64 46.92 43.86 42.71 44.67 44.47 40.83 39.91 36.94 44.06 46.04 46.70 47.81 42.86 49.90 53.22 53.03 52.67 53.25 54.24 54.34 54.10
52.38 52.44 52.03 52.30 52.44 52.86 53.66 53.71 54.07 55.29 54.74 54.53 48.39 44.97 40.05 52.13 48.29 50.78 49.55 46.66 47.08 46.81 46.93 49.49 44.78 41.44 41.31 38.18 35.98 37.73 34.84 36.45 40.30 46.41 46.72 45.91 44.10 49.72 51.84 51.94 52.01 52.89 52.91 53.51 54.39
51.46 52.05 51.76 52.07 52.55 52.86 53.00 53.01 53.36 52.31 52.76 53.02 50.95 41.33 42.92 41.49 46.19 48.35 49.25 48.46 45.29 44.62 43.48 42.22 39.24 35.91 34.83 35.46 31.42 33.98 35.31 37.90 37.32 42.67 45.47 43.78 43.74 48.01 49.75 50.03 49.93 50.06 51.22 51.81 52.64
51.27 51.55 51.91 52.03 52.49 52.64 50.16 44.80 41.69 39.20 40.80 38.70 40.77 40.54 42.26 46.15 48.63 46.24 48.50 46.09 44.59 42.10 35.22 37.85 32.75 31.86 36.13 38.45 39.19 37.68 37.17 36.37 40.92 44.31 43.60 42.64 43.34 45.66 47.98 48.54 48.96 50.06 50.83 51.67 52.80
51.31 51.11 51.44 52.32 52.31 52.30 46.05 41.93 43.20 42.40 35.31 43.40 43.37 43.09 45.42 46.55 41.51 44.91 48.59 40.26 39.04 33.38 36.71 33.74 31.95 37.56 39.55 39.21 37.98 36.87 35.04 34.80 39.76 43.56 41.56 41.66 42.01 45.41 47.11 47.92 49.08 49.53 49.83 50.72 51.41
51.02 51.16 51.56 51.75 51.71 46.29 43.02 45.04 46.71 43.22 34.13 38.78 43.07 43.40 43.53 44.33 40.98 41.19 44.13 41.04 37.00 34.13 33.96 31.30 35.09 40.66 38.50 36.47 35.91 35.39 34.64 35.70 35.90 40.84 42.30 39.66 38.69 40.77 44.78 47.28 49.05 49.98 50.63 50.71 50.24
51.01 51.34 51.48 51.08 45.50 43.83 43.17 47.69 46.29 42.80 27.02 34.68 39.65 43.16 44.61 43.60 39.63 46.51 46.57 42.11 37.71 33.54 34.35 32.60 37.07 36.48 35.41 34.95 36.63 31.55 39.04 39.51 38.70 36.00 31.16 39.70 30.32 38.95 42.49 43.37 45.37 47.09 47.76 47.58 49.91
50.70 50.77 51.17 50.71 43.22 42.43 46.02 45.49 45.85 39.96 14.80 37.05 39.34 46.40 44.58 40.20 41.57 43.45 47.95 43.65 36.31 35.77 34.40 31.60 33.97 33.23 33.29 34.85 37.58 34.63 39.69 38.80 38.31 35.37 32.32 34.67 30.47 37.52 40.41 40.56 43.51 46.07 46.84 48.79 49.93
51.08 50.98 50.65 45.94 43.56 45.92 47.02 45.20 40.96 25.84 14.87 32.91 38.86 37.41 37.21 39.03 40.10 43.23 43.24 45.83 44.41 38.97 36.78 35.06 39.46 36.95 35.41 38.22 38.83 40.02 37.99 36.54 35.99 33.09 25.78 33.76 32.53 34.57 37.80 40.55 42.29 45.20 46.82 48.61 48.75
50.93 50.55 49.08 48.11 40.98 44.78 44.10 39.10 25.64 19.49 34.96 31.96 32.79 36.40 35.45 34.68 36.40 38.70 37.70 36.94 33.96 30.02 30.36 35.30 34.83 38.28 39.17 34.14 37.36 36.15 28.98 22.95 22.20 23.88 25.78 35.86 33.49 35.99 39.90 42.62 43.43 44.32 46.14 47.55 48.07
50.35 49.72 46.99 47.98 45.56 45.06 39.66 31.70 18.06 30.60 31.17 37.01 36.04 35.44 31.20 33.94 34.46 36.15 35.18 32.69 38.43 36.69 31.84 28.83 26.65 36.02 41.97 36.62 32.98 31.43 29.91 23.44 20.51 22.97 26.54 36.62 30.46 35.67 42.58 45.14 46.58 47.01 47.00 46.75 49.54
48.89 42.33 42.41 45.73 47.52 43.20 34.67 24.01 24.35 31.12 35.51 33.77 34.57 30.04 29.25 33.28 33.40 33.64 32.16 33.66 37.12 37.55 31.34 30.15 29.97 39.05 40.26 40.60 37.85 32.87 27.60 33.46 27.13 29.77 25.62 30.25 34.99 40.90 44.05 44.82 44.87 44.84 45.20 47.14 51.73
41.37 40.58 42.46 46.70 45.61 40.14 31.49 28.96 31.08 37.39 37.79 36.52 28.43 31.28 26.95 29.71 29.70 29.89 31.17 37.07 36.23 39.44 37.64 33.30 26.36 35.93 38.78 39.07 38.95 35.07 37.34 27.54 25.29 21.71 20.97 27.95 30.79 33.61 38.66 42.26 43.32 44.12 44.51 48.16 54.30
40.07 38.75 44.63 45.38 44.12 35.73 25.45 28.90 34.65 39.73 38.98 35.67 32.22 30.17 30.73 30.13 31.67 29.39 32.04 35.78 38.58 37.64 38.27 33.51 29.39 30.51 35.50 32.33 29.94 33.09 30.99 31.55 30.27 27.78 22.94 23.40 28.29 38.99 41.07 41.77 42.76 44.88 45.98 51.69 55.31
37.09 33.95 45.21 43.75 33.37 30.46 26.64 34.03 39.26 37.85 40.66 38.44 37.39 34.06 32.19 32.47 30.52 30.49 31.34 35.29 39.62 38.42 32.20 35.42 30.26 27.25 29.52 35.84 38.40 36.13 32.56 32.64 25.01 25.62 27.48 27.73 29.85 43.00 40.42 42.22 44.17 49.50 49.54 54.70 56.22
37.70 36.65 44.36 41.39 24.65 25.21 31.98 35.12 37.65 37.22 37.55 36.88 35.34 37.00 35.28 31.53 28.35 32.55 34.34 38.97 38.75 37.46 33.94 34.50 27.79 23.08 24.28 30.90 35.91 32.43 35.78 34.41 33.38 30.82 27.77 25.55 29.39 42.38 42.65 42.87 47.29 50.19 52.62 55.39 56.96
39.29 32.47 34.77 35.02 34.28 29.60 31.58 32.87 34.09 39.64 38.37 38.87 36.59 37.03 34.11 31.69 33.22 30.86 32.88 37.58 39.53 38.77 42.14 38.72 28.97 26.50 20.89 26.35 31.73 29.84 34.24 35.70 32.94 27.14 29.51 31.58 33.53 39.05 40.87 41.57 44.46 51.72 53.74 53.40 57.30
36.68 32.50 34.35 28.97 31.18 33.88 34.49 32.79 33.17 33.24 38.58 38.37 35.62 35.46 34.34 32.14 32.01 30.71 33.83 35.32 38.23 40.66 38.06 34.80 28.82 30.27 31.12 33.04 33.80 32.90 32.90 34.58 32.65 33.29 29.61 32.80 33.75 39.29 40.77 43.47 44.79 52.00 54.20 55.75 56.72
33.66 33.39 36.94 33.46 36.55 35.36 35.08 33.51 33.85 34.90 35.89 34.64 35.13 36.01 35.10 31.50 32.98 31.95 34.77 34.17 33.50 36.10 34.43 38.02 28.67 32.00 29.61 33.51 33.33 32.69 33.73 34.64 35.48 35.39 34.81 35.14 34.75 43.41 45.37 49.97 51.73 53.03 55.01 55.81 56.54
37.32 37.46 38.66 33.75 32.17 30.75 32.38 35.14 35.09 37.14 37.66 39.19 37.75 36.34 33.92 35.47 38.73 38.75 38.74 38.39 37.55 35.01 33.00 33.45 31.44 28.07 24.62 31.64 31.46 28.30 32.88 34.15 35.84 36.72 36.12 32.05 38.98 44.62 43.85 46.46 51.88 52.60 55.79 56.32 56.86

GFSSW_sfc_wetblb_030.txt.gz
Wetbulb
53.28 53.30 53.36 53.94 53.92 54.02 54.16 54.18 54.20 54.33 54.60 54.69 54.74 54.63 54.56 54.58 54.48 48.89 42.70 47.54 52.18 59.37 61.23 53.19 59.89 58.38 53.84 53.16 54.47 48.57 39.99 37.44 41.73 43.92 45.89 50.10 48.12 53.76 56.23 55.10 55.03 56.69 56.06 58.16 59.73
53.48 53.57 53.44 53.94 54.06 53.97 53.94 53.98 54.11 54.24 54.16 54.42 54.46 54.28 54.28 54.22 48.30 44.85 49.69 54.70 56.69 59.32 53.51 49.06 49.67 55.00 47.70 47.37 52.80 46.35 38.90 40.54 45.83 47.82 47.61 49.08 48.26 50.27 51.32 50.80 52.47 54.58 57.15 58.52 58.66
52.83 53.24 53.57 53.84 54.00 53.84 53.86 53.97 54.06 54.32 54.24 54.24 54.11 53.88 53.84 52.38 39.09 38.49 60.31 58.15 58.02 57.88 54.87 52.98 51.78 50.19 46.21 48.26 48.09 49.65 44.78 45.52 45.93 48.54 49.50 49.36 49.46 52.25 50.86 48.79 51.20 51.51 53.48 55.28 55.98
52.82 53.28 53.46 53.53 53.59 53.45 53.74 53.94 54.03 54.27 54.19 53.96 53.51 53.16 53.26 46.67 29.69 43.10 60.01 56.31 56.06 54.62 53.55 51.38 48.90 43.71 41.60 45.42 49.72 46.36 51.27 51.73 50.31 51.33 51.20 49.23 52.76 51.91 52.62 51.44 54.15 53.68 54.41 54.03 54.78
52.67 53.20 53.11 53.03 53.15 53.35 53.47 53.85 53.95 54.15 53.97 53.26 53.32 53.18 46.88 39.01 38.56 47.60 54.40 51.96 48.44 46.67 50.68 50.24 45.48 44.48 38.66 41.66 46.78 48.41 49.11 52.38 54.54 54.76 53.85 55.64 53.84 53.79 54.39 57.05 56.62 56.88 56.71 55.03 53.94
51.90 52.29 52.42 52.72 52.89 53.09 53.69 53.87 54.14 53.97 53.77 53.60 53.33 52.90 43.90 34.73 47.20 48.81 48.85 48.99 46.04 43.45 41.55 47.15 45.08 45.81 42.26 40.83 44.51 43.37 46.74 48.25 50.40 50.23 51.49 50.91 51.03 50.68 52.27 55.44 55.47 55.73 54.82 54.81 54.34
52.25 51.95 52.16 52.34 52.51 52.80 53.67 53.89 53.95 54.24 54.98 54.09 53.68 51.28 42.88 39.60 48.61 49.67 48.25 46.00 46.07 46.69 42.20 44.09 49.45 45.60 42.28 39.63 43.33 43.45 40.00 42.23 43.54 45.19 46.97 50.48 47.01 48.02 53.38 54.58 53.74 53.99 54.36 54.55 55.16
51.95 51.84 51.97 52.15 52.51 52.80 53.44 53.99 53.87 54.87 55.66 54.38 53.75 47.56 39.34 48.70 48.87 48.22 47.29 46.21 47.65 46.93 45.31 45.45 45.28 42.52 41.67 42.98 42.41 39.55 38.94 36.86 43.78 43.59 45.53 48.15 42.57 49.59 52.72 52.78 52.53 53.46 53.53 53.89 53.72
51.72 51.94 51.71 51.96 52.42 53.03 53.35 53.45 54.24 55.29 54.98 54.62 47.27 44.14 38.80 50.62 47.23 50.03 48.61 46.51 46.29 46.12 45.61 48.16 43.41 39.70 40.29 36.73 33.89 36.40 35.07 33.87 38.29 44.10 45.27 45.28 43.47 48.10 51.55 50.62 49.86 50.56 51.01 52.27 52.94
51.53 52.03 51.53 51.82 52.61 52.94 52.74 53.21 53.49 52.87 53.10 52.75 50.44 40.10 41.83 41.50 45.46 47.83 48.99 47.93 44.77 43.18 41.93 40.45 38.28 34.72 34.00 34.28 29.05 31.83 32.17 36.00 35.96 40.97 44.38 42.08 43.05 47.06 49.22 49.75 49.72 49.21 50.30 50.74 50.64
51.34 51.65 51.74 52.08 52.30 52.52 49.29 43.88 40.62 38.82 40.38 37.86 39.50 39.78 41.55 44.86 47.83 45.65 47.86 45.33 43.10 40.40 33.39 36.41 31.41 30.20 34.70 38.06 37.62 36.10 34.65 34.10 37.88 42.15 40.85 41.07 42.11 44.34 46.08 46.14 47.05 48.14 49.32 50.36 51.40
51.13 51.26 51.28 51.66 51.95 51.82 44.26 40.77 42.12 42.20 34.63 42.70 42.38 41.87 44.50 44.52 40.85 44.17 47.13 38.95 37.86 32.94 35.01 32.02 29.01 35.56 38.02 37.72 36.63 35.07 32.47 32.35 37.63 41.30 39.66 38.96 38.48 41.61 43.84 45.18 46.61 47.66 48.07 48.34 49.12
51.14 50.55 50.80 51.29 51.50 45.62 42.14 43.79 45.15 41.55 33.37 37.83 41.46 41.40 42.98 42.64 39.96 40.71 42.68 39.75 35.74 32.97 32.62 29.34 33.06 38.39 37.38 35.31 34.37 33.44 32.56 33.04 34.16 39.12 40.92 38.19 37.31 40.03 42.90 44.24 45.88 47.14 48.07 49.17 49.45
51.13 50.37 50.53 50.41 44.67 42.53 42.21 46.02 45.32 42.26 26.79 32.71 38.11 41.40 43.00 42.39 38.09 45.87 45.31 40.49 36.68 32.96 33.63 31.20 35.73 34.86 33.73 33.96 35.02 29.34 37.25 37.39 37.41 34.46 29.91 37.36 27.93 37.15 40.96 42.14 43.61 44.96 46.38 47.66 48.16
50.41 50.47 50.21 49.70 41.99 41.27 44.15 44.90 43.38 38.68 14.58 35.38 37.78 44.96 43.53 37.69 39.80 41.71 47.62 41.32 35.23 35.72 36.11 31.98 32.62 31.71 31.06 32.89 36.64 32.86 38.35 36.11 35.62 32.78 30.19 32.74 28.71 35.79 38.58 38.28 40.54 43.77 45.54 46.57 47.14
50.49 50.37 50.06 45.26 44.85 44.22 45.65 42.80 40.00 25.67 14.67 32.23 37.97 36.65 36.32 38.09 38.35 41.20 41.44 44.14 42.79 38.14 37.47 35.40 37.77 35.76 34.32 36.71 36.93 38.34 35.81 34.85 33.30 30.89 24.18 31.13 30.58 32.51 35.87 38.84 39.79 43.19 44.39 45.86 46.17
50.77 50.48 48.24 46.89 40.29 43.70 42.77 37.66 25.26 18.02 33.44 30.87 31.87 35.64 34.43 32.88 34.62 37.10 35.58 34.86 33.46 29.70 30.15 34.01 33.23 37.84 37.74 32.54 34.96 33.79 28.45 21.19 20.61 21.35 23.22 33.38 30.64 34.51 37.95 41.02 41.59 42.38 44.09 45.59 46.30
50.12 47.64 47.46 47.15 44.20 44.39 38.20 30.01 16.76 29.39 29.99 36.41 35.02 34.60 30.27 32.31 32.36 34.32 32.85 31.45 38.05 35.34 31.54 28.08 25.09 34.18 38.93 33.89 30.59 29.58 28.37 22.11 19.59 20.85 23.48 34.53 27.87 33.25 41.10 43.58 44.28 44.51 44.27 44.46 44.84
47.68 42.23 42.01 44.11 46.55 41.59 34.05 23.19 23.24 29.40 34.91 33.27 33.75 29.68 27.82 31.86 32.19 31.59 30.09 31.87 36.00 36.80 29.45 29.56 29.07 38.81 38.97 39.00 36.88 31.42 26.05 31.80 25.47 27.11 23.07 27.69 32.40 38.50 42.51 42.27 43.04 43.15 44.35 44.01 44.32
40.34 40.08 41.97 45.35 44.11 38.80 31.07 29.00 29.25 36.47 37.19 35.27 28.01 31.26 25.79 28.25 28.35 28.78 28.89 34.98 34.99 37.98 38.47 33.68 26.85 35.82 38.39 39.78 38.39 33.54 35.35 25.21 23.29 20.08 19.85 25.35 28.34 30.94 36.93 38.87 41.92 42.50 42.85 44.17 46.85
38.57 37.99 43.43 43.58 42.77 35.33 24.68 27.84 33.30 38.75 38.78 34.98 31.71 31.80 30.06 29.53 29.27 28.35 30.02 34.92 37.33 36.69 37.12 33.86 29.79 29.95 34.51 31.62 29.38 31.92 29.17 29.79 26.87 25.04 22.06 22.11 26.14 36.38 38.86 39.90 40.51 41.83 45.92 49.88 50.15
36.54 33.35 43.73 41.99 32.46 27.50 24.98 32.28 38.43 36.81 39.76 37.98 36.48 34.82 31.91 31.82 29.49 29.26 29.86 34.11 38.59 37.66 32.42 34.52 30.06 27.14 29.26 34.42 36.42 32.73 30.55 31.29 24.19 24.52 25.77 24.27 26.20 38.94 39.23 40.37 41.25 44.04 52.13 53.24 54.87
38.60 37.39 42.98 39.89 23.23 23.48 30.94 34.07 36.09 36.11 36.35 36.20 35.13 36.49 36.36 32.46 29.58 31.51 33.14 38.49 38.24 35.83 33.12 33.52 27.50 22.97 24.69 30.92 34.06 30.53 33.41 31.89 30.81 29.48 24.85 22.91 26.83 39.55 40.58 41.22 42.96 42.71 52.45 54.38 56.70
39.15 30.73 34.43 34.28 32.58 28.81 32.82 32.87 32.86 38.76 37.28 37.85 35.73 37.09 35.24 31.85 33.94 31.32 32.07 36.76 38.32 37.25 42.05 37.69 27.68 25.14 19.66 25.40 30.42 28.48 31.78 32.93 31.76 26.04 26.67 28.30 30.86 37.34 39.82 39.92 42.73 45.55 51.04 53.98 57.17
34.72 31.30 34.75 27.09 28.17 30.36 35.15 34.07 32.35 33.80 37.92 38.42 34.93 35.54 34.97 30.57 31.86 30.84 33.67 34.50 37.56 39.45 36.07 32.82 27.99 28.24 30.07 31.46 32.24 31.30 31.62 32.07 31.05 32.79 28.49 30.97 31.90 37.10 39.08 40.62 43.22 47.29 49.83 55.24 56.71
28.48 31.04 33.95 30.41 32.04 30.35 31.95 29.78 33.25 34.82 34.98 34.12 33.50 35.50 36.07 32.79 33.06 31.37 34.03 34.73 34.32 36.87 34.66 34.91 28.28 30.11 28.25 31.60 32.15 30.58 32.05 32.08 32.27 32.91 32.80 34.30 33.20 40.66 42.33 43.11 44.25 48.26 52.40 55.21 56.54
39.11 35.59 33.89 31.16 29.16 26.19 27.69 32.53 32.64 35.33 36.75 38.25 37.29 35.67 34.40 35.45 38.72 38.41 38.40 37.66 37.54 35.27 33.62 33.26 31.64 28.31 22.38 30.21 29.72 24.02 28.81 30.67 31.91 35.20 34.57 30.80 35.92 41.06 41.18 43.49 44.86 49.94 53.16 55.56 56.94

GFSSW_sfc_wetblb_033.txt.gz
Wetbulb
53.18 53.18 53.68 54.16 53.85 54.21 54.33 54.39 54.45 54.64 54.71 54.69 54.80 54.65 54.40 54.44 54.73 50.19 44.55 48.46 53.06 59.37 60.20 52.52 53.08 56.35 58.55 57.65 55.95 53.34 46.62 43.92 44.40 44.84 46.59 52.77 52.69 56.94 57.88 57.61 57.99 59.35 60.00 61.39 64.39
52.65 53.44 53.58 53.72 53.69 53.62 53.70 54.02 54.18 54.37 54.54 54.63 54.52 54.21 53.84 54.17 49.46 45.75 51.66 56.44 57.18 59.17 53.31 49.88 46.18 55.07 54.27 53.71 56.47 51.14 47.27 46.39 48.88 49.06 49.00 50.39 52.24 54.05 54.39 55.15 55.46 57.72 59.93 60.81 61.55
52.84 53.40 53.48 53.43 53.53 53.47 53.61 53.70 53.89 54.22 54.20 54.18 54.04 53.62 53.60 53.22 43.12 42.00 59.97 56.50 57.83 56.26 53.69 52.76 51.71 50.56 50.81 50.97 53.94 53.46 47.74 50.40 49.87 50.06 51.03 50.99 51.50 53.55 53.19 52.74 55.83 55.78 56.49 58.91 59.93
52.75 52.82 53.11 53.15 53.35 53.30 53.61 53.90 54.18 54.66 54.57 53.94 53.72 53.68 53.54 48.66 34.90 48.53 56.64 56.29 56.03 52.47 53.83 53.12 50.02 45.67 45.85 47.86 51.74 48.44 52.37 52.90 52.02 50.72 50.17 49.10 51.09 50.85 52.24 53.46 56.63 57.88 59.76 59.22 59.33
52.10 52.37 52.76 52.82 53.00 53.25 53.56 54.01 54.44 54.21 53.92 53.93 53.95 53.70 49.46 43.51 43.06 49.34 55.09 53.66 51.76 49.88 45.97 49.65 46.78 46.16 43.64 45.97 49.25 49.05 50.46 53.06 54.35 54.28 52.34 53.30 52.56 52.90 54.71 57.65 60.05 60.62 60.50 60.11 60.14
52.25 52.42 52.45 52.68 52.77 53.08 53.51 54.10 54.18 54.45 54.59 53.95 53.90 53.04 46.21 38.78 49.29 51.25 51.36 51.61 49.94 48.44 46.91 47.22 49.26 48.11 45.88 45.64 45.80 49.29 50.43 51.11 52.60 54.36 54.90 53.57 54.04 55.52 56.12 58.75 58.22 58.41 58.50 59.11 59.16
52.06 52.18 52.24 52.41 52.60 52.95 53.59 54.12 54.12 54.26 55.46 54.27 54.06 51.50 44.86 43.66 50.93 52.64 51.69 50.60 50.06 48.78 45.92 46.97 46.94 48.00 46.64 43.79 47.74 47.04 44.72 47.48 49.62 51.58 52.04 53.99 50.54 51.41 55.83 56.95 56.14 56.68 57.52 58.45 59.36
51.75 51.78 52.03 52.24 52.47 53.03 53.61 54.12 54.08 54.86 55.67 54.96 54.53 49.82 42.87 50.99 52.95 51.65 51.97 50.18 50.98 50.20 48.37 48.75 46.96 44.44 47.14 48.25 45.57 43.57 44.29 40.49 47.10 47.77 49.85 50.16 44.94 52.29 54.92 54.56 54.15 55.48 56.81 57.72 58.99
51.83 51.97 51.63 52.05 52.49 52.91 53.26 53.45 54.45 55.12 55.36 54.63 50.34 47.64 43.07 53.12 48.10 50.52 51.97 47.93 49.19 48.76 48.69 48.91 46.63 42.51 44.64 41.88 39.66 41.99 38.47 40.60 43.04 48.42 47.88 47.42 46.05 51.57 54.29 54.17 54.65 55.90 56.94 56.98 57.74
51.63 51.91 51.38 51.49 52.24 52.66 52.88 53.18 54.48 55.45 54.09 52.94 51.17 43.16 45.68 43.92 47.98 49.18 51.29 50.16 46.47 46.37 45.24 44.02 43.31 40.40 40.97 40.12 33.72 36.38 37.25 40.22 40.96 45.69 46.62 45.84 46.31 50.39 52.85 52.85 53.46 54.77 55.36 55.94 56.60
51.51 51.47 50.78 51.03 51.74 52.27 50.88 49.59 46.04 44.66 45.66 41.51 42.16 41.58 43.89 47.45 49.63 47.54 49.92 47.23 45.95 43.53 39.49 41.25 37.18 34.58 38.33 40.85 41.57 40.78 39.13 39.51 42.93 46.37 45.43 44.75 45.72 48.26 50.75 51.26 51.41 52.61 53.75 54.52 55.68
51.17 50.80 50.94 51.08 51.43 51.68 49.14 45.61 45.52 46.17 39.62 44.89 44.28 43.95 46.11 46.95 41.68 45.98 48.74 42.13 40.70 37.46 39.92 37.89 34.34 38.92 40.07 40.22 39.45 39.42 37.90 37.98 41.28 44.24 43.78 44.90 44.37 47.42 48.87 49.56 50.82 51.55 52.29 53.23 54.62
50.46 50.50 50.73 50.85 51.12 48.56 47.08 47.08 49.59 46.56 39.48 41.33 44.10 42.91 44.70 45.99 41.42 42.80 45.66 43.23 39.23 36.71 37.45 36.07 38.08 39.96 38.73 38.10 37.15 38.28 37.14 38.06 37.87 41.92 43.95 42.61 41.40 44.52 48.27 49.67 50.35 51.48 52.57 53.22 54.00
50.53 50.05 50.40 50.51 47.26 46.69 46.47 49.47 49.66 47.39 34.80 35.48 40.00 42.80 44.92 45.03 39.66 46.23 47.42 43.92 39.90 36.13 37.28 36.78 40.60 37.73 37.41 35.99 38.38 34.45 40.32 39.96 39.34 38.54 35.18 42.76 34.73 43.01 46.14 46.76 48.40 49.76 51.23 52.06 53.34
50.12 50.21 50.19 49.51 46.08 45.52 47.32 49.42 48.09 45.19 23.45 37.06 39.57 47.75 45.37 40.44 41.56 41.74 47.91 43.96 38.45 38.45 38.76 35.66 36.88 35.98 35.35 36.31 38.87 36.24 40.81 39.13 38.38 37.30 37.27 38.25 35.60 39.94 45.18 43.74 46.57 49.17 50.34 51.84 53.19
50.79 50.63 50.14 47.79 47.13 48.21 49.07 47.74 45.89 32.33 21.97 33.38 39.56 38.43 38.65 40.28 39.95 42.10 42.89 45.29 44.64 39.62 40.19 38.69 42.80 39.43 38.39 39.35 39.11 40.24 38.80 38.77 38.73 37.10 30.30 36.04 35.78 37.64 41.24 44.12 46.03 48.37 49.83 51.14 52.08
50.73 50.05 48.54 47.69 45.87 48.60 47.48 44.88 32.31 25.87 35.67 32.51 33.96 37.71 36.94 35.38 36.78 38.12 37.37 36.78 35.52 31.33 32.59 36.73 37.46 40.92 41.03 36.43 39.23 37.88 35.17 28.88 27.05 27.91 28.02 37.56 35.08 38.15 44.35 45.79 46.88 47.92 49.73 51.74 53.51
50.08 47.00 49.36 49.02 49.94 49.24 44.88 37.48 24.72 30.46 31.58 37.59 36.56 36.66 33.03 35.49 36.02 36.24 35.22 33.38 38.55 36.29 33.12 30.47 27.69 35.73 40.33 37.77 35.20 35.93 35.12 29.83 22.86 26.14 29.46 36.55 32.28 38.49 45.69 47.95 48.99 49.43 50.88 52.37 53.36
47.75 47.63 47.67 49.26 49.77 47.46 42.30 31.54 29.61 31.81 36.01 34.77 35.70 31.94 31.65 34.04 34.75 34.55 34.11 33.45 37.02 37.86 30.10 29.94 30.15 39.67 40.87 41.42 39.36 35.65 32.15 38.24 32.05 33.56 31.36 34.07 37.84 42.37 44.71 45.89 47.68 49.04 51.27 53.66 55.14
44.63 45.30 47.28 48.51 48.43 46.18 38.84 31.86 33.56 37.55 38.38 37.22 30.32 33.20 29.40 32.40 32.33 32.76 32.60 36.56 36.19 39.04 40.14 34.64 28.06 36.89 37.84 41.21 40.87 38.10 40.19 31.19 32.92 25.29 25.02 32.18 33.89 36.70 41.44 43.85 46.61 48.65 51.36 54.42 59.18
44.50 44.49 48.21 47.50 47.90 42.30 34.24 33.24 35.46 39.73 39.65 35.91 33.87 32.39 32.93 32.32 32.77 32.14 32.11 36.20 38.64 38.31 40.03 37.74 32.98 32.73 36.83 34.47 31.78 34.43 33.25 36.02 35.69 33.95 29.04 29.41 34.57 43.77 43.89 45.12 45.74 47.61 51.56 56.50 58.69
42.94 39.93 47.74 46.89 39.80 35.48 34.72 35.08 38.28 37.86 40.72 38.21 38.63 36.65 34.38 34.48 32.58 32.31 31.90 35.15 40.54 39.77 34.89 38.06 34.69 29.03 31.51 38.24 39.66 37.65 34.84 36.26 31.32 30.28 33.13 32.33 33.61 44.92 45.58 45.86 46.95 47.42 49.50 55.29 58.25
38.94 39.63 47.46 45.37 34.30 34.21 35.48 35.46 36.88 36.61 37.65 36.83 36.33 37.68 38.13 34.38 31.33 34.07 34.74 39.50 40.46 38.38 36.28 38.24 32.86 26.82 29.34 35.01 37.77 34.35 36.26 37.07 36.99 36.18 31.79 29.88 33.62 45.10 45.42 45.94 47.29 47.61 48.85 52.24 58.33
40.84 36.05 40.56 40.60 38.22 34.76 32.86 33.59 33.23 39.28 38.27 39.03 37.14 38.50 36.26 32.91 36.44 33.47 33.99 37.95 39.99 39.56 41.60 40.46 34.43 30.25 26.05 29.57 33.88 31.77 34.40 36.33 34.75 31.72 32.74 33.39 35.51 40.60 42.86 44.08 46.07 47.61 49.96 52.69 58.90
38.00 36.01 37.81 32.94 34.20 33.44 34.09 34.47 32.93 33.31 38.59 39.05 36.01 35.61 36.06 32.21 32.02 32.30 35.21 36.80 38.85 40.05 39.92 38.17 30.96 33.08 33.53 34.30 34.49 33.49 33.24 34.66 33.32 34.56 31.20 35.20 36.07 40.06 42.94 44.51 46.03 48.76 50.18 51.37 57.16
35.87 34.96 38.06 34.57 34.74 34.88 33.87 33.05 33.39 35.12 34.68 34.10 34.54 36.48 36.41 32.54 33.59 31.76 34.05 34.72 34.97 38.00 37.38 38.25 31.78 33.07 29.66 33.67 33.63 31.38 33.95 34.65 34.77 35.33 35.29 35.96 35.45 43.25 44.75 46.36 46.97 47.85 48.81 50.62 55.99
40.15 39.25 37.97 34.68 33.61 32.64 33.19 33.40 33.26 35.02 36.20 38.73 37.10 35.46 34.38 36.90 38.86 39.66 40.14 39.48 37.87 36.01 34.88 35.02 33.85 30.98 26.47 32.03 31.84 28.00 32.97 34.37 35.47 37.42 36.92 33.02 38.04 42.27 42.87 45.06 47.21 49.60 51.59 52.18 56.23

GFSSW_sfc_wetblb_036.txt.gz
Wetbulb
53.23 53.76 53.97 54.07 54.15 54.12 54.16 54.33 54.50 54.54 54.88 55.05 55.05 55.05 55.00 54.82 54.95 53.55 48.18 51.60 54.58 59.84 59.93 54.17 52.06 58.35 59.90 59.94 59.61 58.47 51.17 49.18 49.40 49.16 48.74 52.41 52.04 56.21 59.66 59.62 60.69 61.81 62.53 64.15 68.66
53.39 53.80 53.77 53.93 53.92 53.85 53.95 54.22 54.37 54.67 54.90 54.88 54.97 54.74 54.43 54.34 53.24 50.86 55.06 56.56 57.72 59.37 53.74 50.92 49.00 54.36 54.91 55.50 57.37 54.58 51.46 51.82 54.06 53.25 49.68 51.15 53.55 55.01 56.44 58.63 59.36 60.23 62.57 63.52 67.46
53.20 53.39 53.55 53.58 53.73 53.74 54.07 54.36 54.69 55.02 55.10 54.94 54.74 54.56 54.27 54.47 48.75 49.88 59.41 58.74 57.42 57.75 54.10 53.56 53.15 50.10 52.24 55.62 54.85 55.18 51.13 54.98 55.33 55.34 53.02 51.34 52.81 55.04 54.50 56.06 60.00 59.63 60.61 61.36 62.05
52.97 53.31 53.54 53.43 53.61 53.75 54.08 54.35 54.85 55.24 55.13 54.93 54.81 54.67 54.58 52.60 40.26 50.95 56.36 56.89 57.27 55.27 52.57 53.60 52.41 48.42 48.54 50.43 54.68 51.66 55.63 55.64 55.53 55.77 52.45 51.02 53.65 53.48 54.13 54.82 60.32 60.44 61.06 61.64 62.15
52.80 52.99 53.18 53.19 53.29 53.49 53.85 54.40 54.85 55.07 54.95 55.13 54.87 54.35 53.83 47.68 45.36 52.06 55.23 57.22 54.63 52.77 49.40 47.83 50.09 49.49 46.35 49.20 51.83 51.57 52.79 55.33 56.61 56.51 55.25 53.95 52.22 53.50 54.61 56.84 57.88 58.48 58.90 60.88 62.18
52.48 52.48 52.60 52.72 53.06 53.24 54.02 54.42 54.50 54.56 54.45 55.43 54.85 53.73 51.14 43.28 52.08 54.00 54.62 54.67 53.73 52.27 50.06 49.29 48.98 51.14 49.03 48.53 48.54 51.29 52.20 53.30 54.60 54.50 55.32 54.05 54.88 55.80 57.23 59.47 59.52 60.62 61.14 61.58 61.26
52.29 52.34 52.41 52.43 52.76 53.11 53.95 54.13 54.27 54.52 55.33 56.25 54.65 54.10 49.67 46.66 53.85 55.67 55.25 53.87 53.77 52.23 50.06 50.97 50.35 49.36 50.04 47.26 50.58 49.74 47.22 49.72 51.79 53.57 52.84 54.96 52.43 53.66 57.74 59.52 59.44 60.04 60.72 61.08 61.86
52.49 52.57 52.30 52.46 52.61 52.98 53.65 54.29 54.07 54.85 55.86 55.82 55.01 53.76 47.70 53.73 55.78 53.94 54.36 53.07 53.78 54.01 52.10 52.52 51.06 48.01 47.10 50.59 48.73 45.62 46.78 43.30 49.27 51.35 52.55 51.95 47.47 55.22 58.04 57.86 58.11 58.85 59.63 60.10 61.24
51.97 52.60 51.85 52.02 52.31 52.82 53.29 53.37 54.11 55.20 55.98 55.46 54.29 51.66 45.36 54.15 49.75 52.27 53.06 50.57 51.91 52.14 52.36 51.71 49.45 46.43 45.49 43.23 42.80 45.09 40.73 43.40 45.34 50.69 50.64 49.97 48.52 54.02 56.92 57.18 57.12 58.03 58.54 59.12 60.20
51.77 51.31 51.16 51.46 51.96 52.42 52.67 53.54 55.51 55.68 55.44 55.11 54.17 48.04 48.24 45.54 50.01 51.12 52.96 52.16 49.64 49.41 48.28 47.98 46.49 43.17 43.08 40.89 36.02 39.86 41.67 43.01 43.27 48.07 49.39 48.28 48.29 52.02 55.21 55.27 56.04 57.18 57.92 58.69 59.82
51.23 51.22 50.95 51.35 51.81 52.28 53.17 54.00 50.97 48.71 49.76 46.14 46.08 45.31 46.35 50.31 51.69 48.95 51.19 49.88 49.15 47.18 42.49 46.32 41.54 39.07 41.35 42.63 42.33 42.33 42.64 42.67 45.32 48.24 47.34 47.85 47.90 50.00 53.16 54.01 54.70 55.88 57.19 58.23 59.34
51.16 50.78 50.87 51.33 51.73 51.97 53.59 49.35 48.39 49.59 43.51 48.47 47.72 47.58 49.20 49.67 44.52 47.12 50.61 45.36 44.63 41.09 43.65 42.09 38.79 42.84 43.19 42.10 41.13 41.23 40.55 41.52 45.22 47.00 47.49 46.88 46.74 50.11 51.67 52.89 54.21 55.11 55.93 56.84 57.90
51.43 50.64 50.76 51.04 51.63 53.12 51.82 50.15 54.17 52.85 44.48 44.20 46.56 45.83 46.41 47.97 44.07 44.82 47.31 45.58 42.89 40.77 41.03 38.76 40.96 43.47 41.17 40.22 38.84 39.38 38.76 40.23 41.18 45.18 47.33 46.26 44.89 47.62 51.15 52.89 53.93 54.85 55.81 56.45 56.80
51.43 50.73 51.03 50.88 49.94 53.19 50.78 53.16 54.38 53.25 40.33 39.30 42.69 45.38 46.39 47.13 42.77 47.95 48.18 45.76 42.86 39.83 41.17 40.49 42.60 40.85 40.66 39.14 40.00 36.25 41.61 41.17 40.97 40.99 37.51 46.21 37.31 45.62 48.68 49.81 51.75 53.24 54.46 55.32 56.44
51.44 50.92 50.95 49.76 51.61 51.75 51.84 54.75 53.99 50.47 29.70 39.61 41.97 48.98 47.20 43.11 43.42 43.50 48.59 45.97 40.34 40.62 41.54 38.95 40.38 39.98 38.73 39.43 41.21 38.36 42.10 41.01 41.67 40.51 40.29 40.81 38.83 43.67 48.19 47.26 50.08 52.70 53.82 55.13 56.20
51.33 50.96 50.08 50.32 53.26 53.30 54.74 54.12 50.83 37.75 25.47 36.80 41.68 41.33 41.79 43.13 42.52 43.78 44.24 47.00 45.91 42.23 42.89 41.51 45.50 43.68 42.18 42.64 41.88 42.61 40.08 39.42 40.58 39.13 33.54 39.86 39.83 40.87 44.51 47.19 49.65 52.13 53.23 54.17 55.01
50.95 49.85 51.09 53.71 51.37 55.20 54.98 50.02 37.77 31.51 39.18 36.10 37.38 41.21 40.77 39.57 40.44 41.10 40.52 39.60 37.69 34.02 35.35 39.60 40.61 44.17 44.52 39.93 42.35 40.44 36.27 28.93 27.81 30.23 30.08 40.67 38.77 41.48 47.64 48.76 49.21 50.11 52.14 54.00 55.48
50.22 48.18 50.46 54.61 56.24 54.63 52.20 42.45 29.94 34.92 35.65 40.90 40.17 40.54 37.46 39.33 39.37 40.08 38.78 36.90 40.47 39.35 35.94 32.41 29.62 39.23 42.90 40.78 37.33 38.06 35.89 30.14 23.65 28.26 32.28 39.57 35.39 41.05 48.16 50.22 51.05 51.82 53.48 54.49 55.69
48.84 55.18 55.01 54.90 55.88 54.10 46.71 35.89 35.74 35.95 38.74 37.99 39.37 36.18 36.68 38.64 38.69 39.16 38.34 36.88 39.07 40.30 33.56 32.73 31.18 40.72 42.44 43.81 41.97 37.97 33.25 40.31 33.50 35.08 33.53 37.26 40.87 45.09 48.28 48.71 50.26 51.00 53.91 56.17 59.07
50.61 53.07 52.57 53.83 55.18 51.46 42.88 34.36 37.32 40.17 40.64 40.18 33.35 36.61 33.95 36.57 36.31 37.09 36.62 39.09 37.88 40.62 42.42 37.00 30.64 39.00 39.81 40.53 42.65 39.80 41.33 30.42 34.52 25.34 26.98 34.90 37.47 39.00 44.46 45.55 48.50 49.95 52.94 55.53 60.98
51.04 48.06 51.29 53.08 53.37 47.29 37.80 37.08 38.57 41.77 41.92 38.21 36.97 35.18 36.23 35.22 36.89 36.05 35.38 39.50 40.46 40.52 42.30 39.78 35.85 35.33 39.81 36.91 35.47 37.45 35.70 37.03 36.71 34.88 28.94 31.94 36.50 46.13 46.40 48.59 49.27 50.39 52.24 53.90 59.82
48.46 43.97 52.56 52.57 43.03 44.45 38.79 37.88 39.18 40.18 42.94 40.97 41.13 39.61 37.81 37.85 35.35 35.63 35.09 37.87 42.92 42.25 37.60 40.78 37.26 32.27 35.48 40.80 41.79 37.71 36.11 34.95 31.88 31.59 35.67 34.24 38.45 49.09 49.54 49.62 50.24 50.88 52.11 54.06 60.50
42.51 45.20 53.18 49.98 38.13 37.31 39.20 38.24 40.11 39.44 40.07 38.85 37.76 39.70 40.82 35.98 33.10 36.89 37.69 41.51 42.58 41.34 38.61 40.78 35.87 30.13 33.06 38.20 40.62 36.79 38.76 37.44 37.73 37.13 33.99 33.15 38.70 49.22 49.10 48.67 50.35 50.50 51.64 53.20 57.72
42.99 40.73 46.24 46.52 44.07 37.86 37.12 36.78 36.75 41.01 40.49 41.00 39.62 41.14 38.75 36.65 39.23 34.26 36.90 40.05 41.91 41.22 42.84 41.46 37.39 33.84 29.52 33.60 37.72 34.82 36.62 38.88 38.48 33.24 34.31 36.61 39.32 44.70 47.07 47.28 49.15 50.69 51.37 52.40 54.37
42.86 40.91 41.85 38.95 41.39 39.46 39.55 37.90 35.51 35.79 40.58 41.68 38.42 37.99 36.78 32.80 35.62 35.87 37.87 37.97 39.91 41.70 41.52 39.55 34.05 36.20 37.34 37.98 37.83 36.62 36.20 37.18 36.31 37.75 34.38 36.88 38.54 43.36 46.24 47.42 49.10 50.31 50.54 51.13 53.11
40.79 38.54 41.38 41.02 40.10 38.53 37.80 36.97 35.45 36.96 37.78 36.65 36.00 38.00 38.66 35.03 35.41 33.10 36.36 36.92 35.48 39.01 38.17 38.92 34.21 36.28 33.98 36.85 37.14 35.06 37.11 37.19 37.43 38.15 38.67 39.07 38.75 45.17 46.81 47.55 47.54 48.76 50.04 50.63 53.13
43.83 41.54 38.11 38.67 38.16 35.44 35.76 36.46 36.80 38.18 39.25 40.41 38.72 37.78 36.57 38.94 41.40 43.34 42.15 41.72 39.69 36.15 35.25 36.09 33.78 33.09 30.52 36.03 35.34 31.83 36.56 37.81 38.38 39.97 39.83 36.33 41.16 45.08 44.82 45.73 47.28 48.48 50.15 51.67 53.08

GFSSW_sfc_wetblb_039.txt.gz
Wetbulb
54.00 54.22 54.30 54.31 54.32 54.50 54.60 54.76 55.05 55.31 55.67 55.90 56.08 55.88 55.69 55.61 55.31 56.86 52.39 54.05 55.69 60.82 59.74 54.23 54.65 54.06 59.31 57.59 60.05 60.21 52.62 50.26 51.42 50.87 51.07 55.15 53.90 56.69 59.46 57.86 60.83 63.12 63.65 65.42 68.37
53.78 53.92 54.02 54.16 54.19 54.18 54.42 54.81 55.16 55.69 55.90 55.98 55.90 55.91 55.53 55.37 55.36 52.87 56.50 57.94 58.57 59.85 54.06 52.42 51.33 53.11 54.20 55.95 57.79 56.14 53.14 52.80 55.61 55.31 53.45 54.23 54.36 55.19 55.29 56.74 59.47 61.90 63.67 66.01 69.05
53.47 53.69 53.81 53.88 54.04 54.00 54.41 54.61 55.33 55.77 56.03 56.22 55.92 55.85 55.46 55.77 53.07 53.56 59.96 61.68 58.62 58.72 55.09 54.04 53.66 52.93 50.57 55.18 55.19 55.82 52.98 56.00 56.65 57.01 57.10 55.08 54.06 56.06 54.83 55.24 59.31 60.51 62.49 64.56 67.90
53.22 53.57 53.67 53.68 53.71 53.91 54.13 54.65 55.15 55.79 55.82 55.85 55.95 55.77 55.41 56.22 44.08 53.04 58.81 57.62 58.82 57.64 53.46 52.97 52.83 49.82 48.90 49.16 54.73 52.21 54.95 56.24 56.84 57.43 57.28 54.89 55.18 54.28 55.57 56.01 58.71 62.92 63.70 63.73 63.88
53.12 53.36 53.46 53.22 53.33 53.70 54.09 54.50 55.13 55.37 55.53 55.57 55.92 55.98 55.76 52.13 48.34 54.60 56.72 59.37 57.02 54.39 51.29 49.85 49.21 50.98 48.25 49.69 51.42 52.03 53.60 55.17 56.44 56.86 57.37 57.57 54.66 54.57 55.22 57.88 59.27 60.96 63.06 62.71 62.78
52.88 53.07 53.18 53.09 53.13 53.46 53.70 54.43 54.62 54.68 55.05 55.59 56.41 55.18 54.85 47.75 53.59 55.27 55.34 55.21 54.62 53.52 52.37 51.45 49.16 50.96 49.92 49.89 49.54 51.46 52.43 53.00 54.68 55.10 56.29 55.64 55.94 56.39 57.01 58.60 58.39 58.05 58.67 61.32 62.22
52.48 52.48 52.65 52.71 52.91 53.06 53.26 54.08 54.26 54.43 55.23 56.27 57.01 56.05 53.64 48.53 54.62 55.56 55.35 54.21 54.73 53.66 50.83 52.81 52.27 49.18 49.96 48.97 51.78 51.03 48.47 50.17 51.76 53.36 53.57 55.74 52.31 52.75 57.74 59.35 58.51 58.55 59.14 59.94 61.43
52.52 52.66 52.20 52.40 52.73 52.97 53.39 53.96 54.08 54.33 55.82 56.76 55.81 57.07 51.03 53.81 55.53 53.51 53.99 52.73 54.22 54.45 53.58 53.94 53.60 50.19 48.36 49.14 47.85 46.71 48.04 44.49 49.85 51.29 52.30 52.02 48.40 54.21 57.25 57.75 57.99 58.74 60.10 60.91 62.49
52.27 52.59 51.83 52.14 52.54 52.89 53.32 53.42 53.96 55.65 56.06 55.94 56.10 55.13 49.08 55.54 50.76 52.52 52.97 50.67 51.88 52.82 53.02 53.12 52.09 48.47 47.89 43.72 41.75 43.86 41.22 44.48 46.08 50.68 50.62 50.37 48.82 53.55 56.06 56.63 57.50 58.79 59.41 60.35 61.62
52.39 52.32 51.66 51.72 52.34 52.86 52.95 52.51 55.78 55.43 56.64 57.54 55.78 49.78 51.84 47.02 50.70 51.53 53.04 52.36 50.07 50.47 49.62 49.59 48.90 45.55 45.41 42.75 36.76 39.89 41.03 43.33 43.81 48.11 49.48 48.23 49.14 52.27 54.50 55.12 55.47 57.16 58.95 59.82 60.71
52.34 52.39 51.93 51.36 51.99 52.33 52.88 56.18 52.88 52.04 53.12 47.89 48.34 47.84 47.72 51.02 52.23 50.01 51.58 50.14 50.27 48.53 44.26 47.42 43.75 41.89 44.05 45.04 44.74 43.50 41.74 41.36 45.04 48.74 48.07 47.26 48.67 50.23 53.16 53.74 54.10 56.44 58.09 59.35 60.12
52.30 51.65 51.38 51.51 51.84 52.31 53.63 51.42 50.50 51.75 45.50 50.58 49.74 48.77 49.94 50.80 45.99 48.28 50.97 46.04 45.90 42.36 45.26 43.55 40.70 44.59 45.63 44.93 43.07 41.94 40.79 41.04 44.14 46.53 48.10 47.70 47.20 50.11 52.30 53.02 53.80 55.03 56.41 58.16 59.43
51.91 52.03 51.49 51.72 52.24 53.24 53.18 51.85 55.37 54.75 46.35 47.02 48.43 47.50 48.06 48.77 45.78 46.39 48.63 46.68 43.78 42.10 42.40 40.49 42.64 44.86 43.26 42.37 41.02 41.28 39.78 40.26 40.71 44.92 46.90 46.84 44.91 47.73 51.23 52.85 54.10 54.78 55.90 57.16 58.26
52.27 52.12 51.87 51.39 50.14 55.31 53.03 55.09 56.06 55.09 42.07 42.87 44.42 46.93 47.72 48.36 44.99 48.89 49.16 46.50 44.33 41.07 42.10 41.65 44.32 42.38 41.34 40.50 41.85 38.51 43.04 41.81 41.11 40.02 36.84 45.68 38.40 45.93 49.33 50.41 52.39 54.01 55.07 55.79 57.31
52.04 52.09 51.40 49.76 55.03 53.70 53.81 56.62 56.04 53.34 33.35 42.56 44.12 50.60 48.34 45.56 45.98 46.13 49.22 46.56 41.91 41.91 42.03 39.30 41.11 41.31 40.51 41.34 43.28 40.10 43.74 41.98 41.50 39.92 39.62 40.23 38.97 43.45 48.80 48.24 50.44 53.15 54.51 55.85 57.14
51.84 51.78 50.92 52.04 56.30 55.11 56.58 56.20 53.52 41.34 30.83 39.91 44.00 43.12 44.01 45.83 45.25 46.77 46.16 48.60 47.08 42.56 42.85 42.51 46.17 44.67 42.83 43.86 44.07 45.13 41.71 41.43 41.48 39.75 33.65 38.77 39.13 40.25 44.56 47.50 50.42 53.14 54.66 55.83 56.89
51.76 51.06 51.24 55.97 54.16 56.78 56.64 52.13 40.74 35.45 42.61 39.35 40.35 43.51 43.17 42.66 42.61 43.41 42.34 42.09 39.41 35.49 35.99 40.47 41.08 43.81 45.62 41.89 44.50 42.81 38.45 31.60 30.55 30.92 31.07 40.00 38.45 41.01 47.31 49.49 50.75 51.89 53.63 55.69 56.82
51.08 49.73 53.16 56.39 58.19 57.00 54.15 46.19 33.40 38.95 39.20 43.51 42.34 42.82 40.61 41.30 41.40 41.70 41.22 39.00 41.42 40.30 37.92 33.35 32.35 40.26 43.00 42.81 40.46 40.08 38.32 32.11 25.05 27.32 31.07 39.07 34.49 40.43 49.06 51.48 52.86 52.86 53.72 54.72 56.52
49.75 56.04 55.55 57.83 57.50 55.81 48.21 39.19 39.76 40.00 40.76 40.13 41.63 39.42 39.67 41.36 40.89 41.00 39.95 39.14 40.26 41.39 35.18 33.78 33.85 42.34 43.45 45.12 43.14 40.18 36.10 41.15 34.63 35.16 30.75 34.10 38.25 45.14 47.56 49.54 51.01 52.19 53.57 54.73 56.79
50.90 53.61 55.13 56.74 57.61 52.94 45.27 39.31 40.98 42.62 42.49 42.33 37.00 39.44 36.47 38.78 39.07 39.23 39.32 41.32 40.03 42.48 43.39 38.88 32.47 40.23 42.39 44.81 44.57 41.79 43.57 32.58 36.39 27.34 25.70 33.18 36.02 37.66 43.57 46.34 50.12 51.31 53.61 54.83 56.95
51.89 48.50 53.58 57.01 55.08 48.58 40.44 41.16 41.23 43.68 43.30 40.71 39.81 38.32 38.97 37.71 39.00 38.07 38.49 41.72 42.54 41.85 43.55 40.99 37.84 36.98 41.06 39.51 38.75 38.86 36.68 39.80 37.46 34.45 29.49 28.37 33.80 44.94 46.12 47.60 49.25 51.48 53.30 54.64 58.55
50.45 45.54 54.60 54.77 44.47 46.33 42.11 40.77 41.01 42.62 44.92 43.00 43.15 40.62 38.84 39.23 38.10 38.32 37.69 40.72 44.45 43.44 37.88 42.36 38.84 33.09 36.35 42.45 44.38 41.55 38.02 38.46 32.07 28.54 35.20 34.43 34.86 46.32 47.95 52.16 51.58 52.46 53.05 54.97 61.17
46.52 46.54 54.02 52.27 41.47 41.67 44.53 42.77 42.07 41.79 42.70 41.49 39.76 41.67 42.73 38.71 34.25 39.73 40.90 43.88 44.28 42.46 39.07 41.35 37.20 30.80 34.10 38.41 41.11 37.60 40.08 40.53 40.11 36.48 32.93 29.40 33.00 46.12 50.29 51.50 52.08 51.99 52.67 53.80 57.03
46.53 42.76 47.95 48.04 46.11 42.38 42.13 41.04 39.37 43.20 42.36 42.81 41.35 41.73 40.56 39.33 40.99 37.71 38.72 42.85 43.36 41.71 43.86 41.97 38.05 34.11 30.13 34.23 33.91 32.24 37.22 40.00 39.36 33.46 33.83 34.38 35.40 36.94 42.83 48.88 50.59 51.81 52.53 52.78 55.31
49.78 44.66 44.42 40.69 42.20 42.95 41.75 41.85 39.44 39.16 42.60 43.24 40.17 39.81 38.02 35.50 38.13 36.98 39.97 41.08 42.61 42.89 41.85 39.37 33.43 36.19 37.88 39.26 38.42 37.58 38.19 38.32 37.44 37.46 34.44 36.54 36.46 39.35 42.48 44.99 49.39 51.23 51.14 52.26 53.94
44.03 42.16 44.19 41.88 44.25 40.36 40.03 39.40 39.17 40.41 41.08 39.65 38.78 40.70 39.00 35.82 37.21 36.23 38.10 39.19 37.71 41.00 39.21 40.71 34.77 37.46 35.18 38.83 39.13 37.19 39.07 39.09 38.95 39.17 38.79 38.43 38.01 44.16 46.37 48.12 48.39 49.64 50.10 50.37 53.32
44.80 43.14 41.59 39.62 42.89 40.80 39.08 38.09 38.43 39.60 41.28 42.89 41.31 39.87 40.07 41.58 44.28 45.45 44.92 45.15 43.64 38.50 37.17 38.44 37.05 34.51 31.46 37.40 37.09 33.77 38.37 39.36 39.49 40.96 40.44 36.70 41.46 45.60 45.54 46.72 48.36 49.39 50.27 50.51 52.45

GFSSW_sfc_wetblb_042.txt.gz
Wetbulb
53.98 54.29 54.51 54.67 54.52 54.70 54.88 55.04 55.51 56.08 56.40 56.76 56.96 56.76 56.67 56.73 56.27 55.49 52.93 54.16 56.75 61.92 59.79 53.69 53.13 53.93 54.20 53.31 57.01 57.72 51.70 49.51 50.33 50.53 51.63 55.54 53.65 56.41 57.89 55.87 57.60 59.85 61.64 65.18 67.65
53.95 54.14 54.27 54.44 54.43 54.48 54.74 54.88 55.40 55.91 56.24 56.69 56.86 56.85 56.63 56.50 53.70 53.40 57.99 59.11 60.40 60.71 53.49 51.90 50.92 52.43 50.49 51.78 54.15 52.08 49.98 51.05 54.73 54.97 53.81 55.25 54.79 54.79 54.71 54.65 56.24 58.20 63.10 65.70 66.95
53.65 53.98 54.04 54.05 54.21 54.14 54.30 54.61 55.08 55.76 56.07 56.27 56.52 56.45 56.68 56.04 53.36 52.77 60.51 61.91 61.76 59.12 55.10 54.17 51.89 51.74 49.32 50.91 51.96 52.53 49.58 53.87 55.25 56.65 57.12 55.74 55.54 56.72 54.01 52.73 55.38 56.95 61.31 63.87 66.18
53.63 53.89 54.01 53.88 53.89 54.05 54.23 54.52 54.97 55.60 55.91 56.06 56.24 56.51 57.25 55.10 45.13 54.23 61.22 61.25 61.98 58.25 54.96 51.84 50.50 48.55 47.52 47.48 50.56 48.79 52.61 54.16 55.28 56.80 56.36 55.61 57.63 56.00 55.63 54.74 57.44 58.78 62.08 63.71 63.93
53.36 53.48 53.58 53.63 53.71 53.93 54.06 54.38 54.63 55.16 55.40 55.64 56.34 56.66 55.80 53.57 50.93 56.24 61.55 60.03 57.96 56.30 52.55 50.45 48.13 48.40 46.95 48.36 49.60 48.16 50.24 52.93 54.33 54.89 55.19 56.54 55.52 55.75 55.79 57.55 58.67 58.76 59.23 62.61 63.69
52.94 53.02 53.00 53.15 53.19 53.37 54.04 54.14 54.28 54.67 54.92 55.65 56.64 57.08 54.24 49.23 54.26 55.37 55.64 55.31 54.60 53.29 51.96 51.74 50.02 50.06 46.75 46.73 47.86 49.82 49.85 50.27 52.21 53.39 54.37 53.36 54.29 56.08 57.50 59.18 58.22 58.36 58.61 62.49 62.86
53.03 52.62 52.58 52.62 52.95 53.14 53.94 53.95 54.13 54.56 54.98 55.85 57.09 56.46 52.53 51.77 54.17 54.95 54.82 52.99 53.76 53.31 50.89 52.22 52.12 49.47 48.99 45.81 49.41 49.31 46.45 48.74 49.71 50.58 51.29 53.98 50.84 52.40 57.44 58.95 58.47 58.88 58.39 59.28 63.40
53.73 53.35 52.72 52.64 52.72 53.16 53.61 54.17 53.91 54.52 55.69 56.72 57.24 55.24 51.04 54.37 54.60 53.21 53.25 52.03 53.61 53.14 52.21 53.01 53.04 50.03 48.02 49.02 46.56 44.02 45.14 42.46 47.96 49.40 50.57 50.24 46.16 52.65 55.69 56.52 56.86 58.26 59.15 59.41 60.47
53.72 53.27 52.94 52.75 52.72 53.19 53.58 53.60 53.89 56.03 56.89 56.84 54.62 54.41 49.56 55.43 51.47 52.73 52.79 50.22 51.65 52.44 52.91 52.78 51.14 47.67 47.55 43.60 41.58 42.99 38.03 40.41 43.22 49.08 48.85 48.56 46.71 51.95 54.77 54.75 55.39 57.13 58.09 59.60 60.19
53.46 52.86 52.40 52.28 52.57 53.00 53.11 53.13 55.31 55.07 56.09 57.42 56.09 49.94 52.16 48.70 51.08 51.65 53.29 52.10 49.55 50.27 49.60 49.62 48.20 45.34 45.47 42.48 35.38 38.86 39.81 41.25 40.89 44.98 46.69 46.74 47.42 51.10 53.18 52.87 54.04 55.90 57.41 58.48 60.31
52.84 52.88 53.06 52.59 52.17 52.73 52.67 55.55 52.11 51.17 53.93 49.92 48.60 48.99 49.69 51.14 52.64 50.20 52.01 49.98 49.92 48.55 43.79 46.82 42.85 40.80 43.69 45.49 44.79 43.54 41.91 40.85 43.42 45.84 44.77 44.83 47.11 49.39 52.26 52.60 52.49 54.65 56.61 57.20 58.02
52.48 52.90 52.98 52.92 52.82 52.80 52.16 52.54 50.79 51.71 45.37 50.58 50.04 49.81 50.61 50.60 46.22 49.29 51.59 46.31 45.51 41.59 44.35 42.84 40.16 44.52 45.45 44.84 43.49 42.69 40.58 40.07 42.98 44.92 44.66 44.42 44.27 48.15 51.26 51.99 53.64 54.89 55.13 56.27 58.58
52.26 52.63 52.92 52.72 52.59 52.12 54.27 52.42 55.46 54.94 45.62 47.67 49.51 47.90 48.58 49.71 45.99 46.99 49.37 46.99 43.50 41.56 42.13 39.87 42.00 44.78 43.46 42.16 40.95 41.47 40.07 40.17 39.84 42.98 44.08 42.89 41.86 45.70 49.02 52.01 53.29 54.38 56.09 57.23 57.30
51.95 52.24 52.70 51.93 49.88 54.77 53.41 55.81 55.97 55.31 41.05 43.59 44.95 47.29 48.26 48.18 45.22 49.92 49.92 46.34 43.68 40.72 41.97 41.30 43.78 42.02 41.44 40.55 41.34 37.35 42.41 41.58 41.10 39.42 34.66 42.70 34.44 43.14 46.78 48.88 51.54 52.77 54.30 55.95 57.19
51.90 52.43 52.32 50.91 52.69 53.62 53.98 56.27 55.71 52.81 33.28 44.23 45.16 51.20 48.24 45.54 46.56 47.71 50.48 46.68 41.73 41.76 41.94 39.09 40.87 40.78 40.00 40.44 42.94 40.05 43.64 42.17 41.13 39.11 38.29 38.22 35.67 39.78 44.84 45.15 49.03 52.65 54.25 55.71 57.04
51.54 52.24 52.05 54.32 53.79 55.83 55.92 56.16 54.49 41.02 32.25 40.94 44.75 43.59 44.12 46.34 46.16 47.32 47.14 48.95 47.74 43.37 43.42 41.90 45.52 43.84 43.06 44.44 44.67 45.07 42.15 41.70 40.92 39.21 32.27 36.46 36.55 37.47 41.16 44.48 47.47 51.57 54.23 55.19 56.26
51.29 51.34 50.75 54.86 52.50 56.50 55.71 52.31 39.82 35.36 43.67 40.42 41.32 43.77 43.37 42.82 43.51 44.03 42.62 42.03 40.01 36.17 36.11 39.88 40.94 43.91 44.89 40.85 43.47 43.24 38.80 31.05 29.52 30.56 29.92 38.52 36.25 39.41 44.49 46.08 47.88 49.85 52.69 54.58 56.19
50.15 50.18 52.69 53.27 56.76 56.74 52.77 45.38 34.35 41.30 41.56 44.10 42.78 42.76 40.95 43.55 42.63 42.49 41.18 39.56 42.72 40.52 36.70 33.45 31.63 39.72 43.35 40.44 38.92 38.95 35.43 29.80 23.33 25.96 30.40 37.89 32.54 37.80 45.76 47.83 50.10 51.38 52.73 54.79 56.34
48.86 55.90 54.40 56.52 57.44 55.73 47.31 38.27 38.44 40.32 42.60 40.58 41.47 39.90 40.20 42.29 41.68 41.26 40.85 40.09 41.50 41.85 35.35 33.93 33.86 42.05 42.31 43.47 43.26 39.62 35.61 38.76 33.16 35.40 30.34 34.23 37.56 42.03 45.28 46.10 47.84 50.26 52.08 54.26 55.42
49.86 52.83 53.63 57.96 57.35 52.13 44.03 39.35 42.35 44.27 43.26 42.14 36.54 40.62 37.14 39.21 39.02 39.68 39.69 42.93 41.34 43.95 44.13 39.26 32.67 40.21 41.37 43.01 42.70 41.47 42.79 34.78 34.89 25.15 23.87 31.33 33.15 35.16 41.44 44.72 46.68 49.11 51.72 53.38 56.53
51.22 49.98 54.90 56.71 54.38 47.68 40.32 42.04 43.34 44.67 43.70 40.39 39.72 38.65 39.37 38.23 39.52 38.43 38.88 42.24 44.13 43.21 44.55 41.69 37.52 36.60 40.81 38.47 37.53 39.25 37.77 37.87 36.52 33.64 26.60 26.45 32.01 43.87 43.19 43.66 42.93 48.41 51.73 54.90 55.50
50.83 44.08 55.28 54.60 43.55 46.35 41.74 43.51 43.51 43.07 45.09 43.64 43.73 41.76 39.06 39.51 37.98 38.09 37.68 41.21 45.21 44.08 39.23 42.34 38.13 32.84 35.29 41.64 43.02 41.76 38.88 37.95 31.65 29.92 33.75 32.90 32.75 45.29 43.88 42.37 42.99 42.85 52.21 53.66 56.74
47.51 48.47 55.19 52.84 41.37 41.36 44.21 44.31 45.08 42.44 42.68 41.88 41.21 42.57 43.10 39.11 35.48 39.39 40.70 45.14 45.16 42.99 39.90 40.89 35.60 29.15 31.99 38.02 40.83 37.27 38.62 39.57 39.52 37.54 32.14 29.50 32.52 44.75 42.54 40.91 43.18 43.90 50.05 52.96 54.32
48.24 43.58 48.57 49.16 48.14 44.22 42.00 41.18 41.72 46.10 43.04 43.51 42.13 42.96 40.67 39.15 41.14 38.01 39.23 43.26 44.09 43.02 42.55 41.29 36.20 32.06 27.97 32.60 34.51 32.32 34.79 38.19 37.94 32.89 33.27 33.82 35.50 40.19 39.62 40.48 42.90 45.02 46.89 52.13 53.46
49.07 44.34 45.70 39.93 41.91 43.70 43.28 41.46 40.43 40.36 44.17 44.61 41.58 40.96 39.61 36.61 37.98 36.80 40.29 41.21 43.92 44.15 43.26 39.00 33.36 36.13 36.88 37.55 37.94 36.78 35.74 37.74 36.51 37.43 33.14 35.28 35.44 39.44 41.60 41.67 43.01 44.83 47.49 50.89 51.88
43.15 41.76 43.88 41.01 44.41 43.12 42.35 40.92 39.24 41.04 40.85 39.21 38.85 40.55 41.01 37.62 38.60 36.77 39.67 40.48 40.29 43.11 40.90 41.20 35.34 36.73 34.71 37.88 37.73 35.97 37.96 38.67 38.64 38.17 37.70 37.74 37.07 43.02 45.12 45.58 45.67 47.80 48.98 49.66 50.99
47.21 47.80 41.35 40.12 43.28 41.67 41.51 40.71 39.75 40.70 41.46 42.90 41.33 39.53 39.11 40.98 44.18 44.92 45.62 45.56 44.34 40.90 37.44 36.98 36.64 34.37 30.29 36.29 35.42 32.31 37.54 38.66 39.48 40.31 39.33 35.29 40.15 44.70 43.54 44.75 47.36 48.28 49.36 49.82 50.87

GFSSW_sfc_wetblb_045.txt.gz
Wetbulb
54.33 54.35 54.57 54.58 54.59 54.60 54.76 54.90 55.23 55.59 56.29 56.61 56.94 57.13 57.31 57.16 56.54 51.89 47.85 53.84 55.42 61.06 60.85 52.21 50.91 50.71 51.25 49.41 51.13 52.91 44.47 45.80 47.69 48.56 50.58 54.80 52.45 55.71 56.47 53.03 54.28 56.12 56.96 63.81 66.34
54.13 54.36 54.44 54.41 54.46 54.38 54.58 54.66 54.99 55.44 55.98 56.36 56.76 56.96 56.91 57.13 51.95 49.78 57.97 61.45 62.02 60.79 51.77 49.38 48.79 49.27 45.77 46.94 46.93 47.24 43.32 45.38 52.26 53.01 51.79 53.71 53.53 54.36 54.41 52.43 52.85 54.79 59.42 64.82 65.34
53.86 54.05 54.13 54.10 54.28 54.12 54.31 54.57 54.82 55.22 55.75 56.05 56.40 56.40 56.72 56.30 49.46 49.58 61.55 62.85 61.62 58.61 53.42 51.84 50.96 47.56 44.19 46.23 46.40 47.03 44.72 49.10 50.89 53.30 54.44 54.16 54.63 56.53 54.89 51.15 52.04 52.62 55.07 61.53 63.42
53.42 53.64 53.83 53.67 53.92 53.93 54.01 54.51 54.69 55.07 55.31 55.65 55.99 56.40 57.28 53.53 41.54 52.79 61.84 63.70 62.69 58.15 54.15 51.22 47.56 41.29 40.46 41.92 46.09 42.84 47.52 50.27 50.78 52.66 52.49 51.58 54.30 53.66 54.61 54.48 55.51 55.74 57.08 57.49 58.99
53.47 53.40 53.40 53.25 53.37 53.66 53.96 54.25 54.41 54.58 54.98 55.20 55.64 56.59 53.49 49.28 49.93 54.44 63.35 63.39 58.96 55.47 52.80 50.02 44.19 41.86 39.39 43.18 44.78 43.51 45.92 48.14 50.72 52.47 52.48 53.56 51.89 52.07 52.97 56.39 58.27 57.92 57.65 56.57 56.93
53.65 53.59 53.58 53.48 53.26 53.36 53.63 53.99 54.15 54.30 54.60 55.12 55.75 56.69 51.71 45.26 51.93 55.58 59.40 55.63 55.06 51.63 48.36 47.91 45.10 46.63 42.53 41.61 40.22 43.20 44.64 46.02 47.69 48.16 49.13 50.05 51.56 52.59 53.51 56.14 57.16 57.16 56.37 56.70 56.33
54.07 53.58 53.31 53.31 53.52 53.32 53.79 53.76 53.84 54.05 54.65 55.55 56.40 55.11 49.06 46.41 51.88 51.14 51.24 47.38 49.71 51.10 49.07 49.83 49.38 46.10 44.66 41.58 44.85 44.33 40.32 43.54 45.35 46.59 47.12 49.19 46.29 48.46 53.30 55.08 54.85 56.62 56.79 56.66 56.28
53.41 53.12 53.00 52.82 53.04 53.39 53.44 53.96 53.76 53.88 54.96 56.98 56.78 52.19 45.44 55.16 50.49 50.30 49.61 49.03 50.53 50.72 50.02 49.81 49.83 45.72 42.83 44.77 43.64 39.86 39.84 34.15 40.29 45.26 46.96 45.99 40.83 47.89 50.81 52.29 53.21 55.41 56.58 57.24 56.96
53.19 52.65 52.67 53.10 53.46 53.17 53.45 53.25 53.51 54.39 56.04 57.47 51.73 48.56 45.54 54.79 50.03 51.42 50.35 49.43 49.71 50.03 50.28 52.09 47.48 43.36 43.35 38.45 34.86 36.77 31.70 34.11 37.98 43.12 43.83 43.59 42.09 47.65 50.17 50.83 51.08 52.88 55.09 56.65 56.98
52.63 52.75 52.29 52.81 53.00 53.33 53.11 53.25 54.08 53.93 54.77 55.02 54.06 46.45 50.78 48.99 49.84 52.05 51.18 51.58 48.45 47.86 47.78 46.62 43.09 39.27 37.90 35.64 27.91 32.61 33.79 37.04 37.09 40.33 41.88 40.47 41.10 46.01 49.13 49.53 49.99 50.65 52.45 55.48 56.39
53.21 53.00 52.46 52.27 53.18 52.94 50.83 49.15 47.46 46.31 48.25 48.13 49.82 49.24 48.80 50.02 51.79 49.57 52.34 49.97 48.06 44.98 38.60 42.16 36.38 33.21 37.77 40.10 40.90 39.97 38.80 37.84 40.73 43.50 40.89 39.78 40.67 43.19 45.82 46.13 47.94 49.73 50.57 52.05 55.11
52.83 53.00 52.92 53.08 53.37 52.80 48.99 46.03 47.61 46.78 41.35 48.69 49.13 48.52 50.21 49.18 45.12 48.20 52.28 44.73 43.39 37.88 41.02 37.99 33.87 40.60 42.60 41.73 40.29 38.92 36.68 36.49 40.63 43.38 41.27 39.98 39.40 42.53 44.16 45.09 46.74 48.10 49.97 50.85 53.29
52.69 52.40 52.67 53.03 52.50 49.75 47.87 51.53 51.92 50.47 39.95 45.30 49.34 47.79 47.68 47.89 45.18 45.65 48.45 45.23 41.09 38.41 38.57 35.06 38.56 43.10 41.18 38.98 37.96 37.45 35.92 36.33 36.62 40.58 41.68 39.64 37.07 39.55 43.33 44.95 46.81 48.40 49.82 50.96 51.72
52.18 51.87 52.24 52.06 49.31 50.46 50.04 52.45 51.63 50.71 34.25 42.58 44.31 46.30 47.43 46.74 43.29 49.49 49.66 45.23 41.49 37.67 38.94 37.40 41.38 40.53 39.02 38.16 39.23 34.08 40.56 40.15 38.93 36.15 30.07 38.84 28.73 36.64 40.37 41.62 44.26 46.33 47.81 48.43 49.81
51.76 51.78 51.80 51.27 46.72 47.55 50.38 51.64 51.21 47.63 27.78 43.98 43.82 49.63 46.89 43.13 45.29 46.68 49.55 45.53 39.77 39.74 39.02 36.39 38.61 37.92 37.31 39.09 41.65 37.35 42.25 39.91 39.19 35.55 34.13 34.63 29.56 34.73 39.34 39.38 41.36 43.72 45.94 48.11 49.74
51.07 51.38 51.28 51.27 49.01 50.88 53.54 51.93 49.45 36.61 29.28 39.47 44.30 42.92 41.88 44.26 45.04 47.08 46.34 47.18 45.49 40.98 40.90 39.20 42.95 42.18 40.59 42.68 42.97 42.10 39.15 38.30 37.58 33.87 27.05 33.12 32.37 32.81 35.64 38.83 41.67 44.12 46.19 47.82 49.38
50.67 50.36 49.17 51.34 48.35 53.88 52.88 48.08 35.22 31.52 44.01 39.11 39.79 42.23 40.65 40.27 42.69 43.97 42.26 38.98 35.27 31.84 31.29 36.90 37.66 40.87 43.66 38.03 40.18 38.16 32.23 27.36 22.29 22.37 24.30 35.15 32.64 34.22 38.74 41.94 43.41 43.83 45.48 47.30 48.08
49.72 49.32 51.08 51.24 51.43 52.15 49.23 40.20 29.91 40.14 39.04 43.00 40.85 40.73 38.61 41.76 41.22 41.70 39.64 35.94 42.03 37.88 31.43 27.60 27.55 37.51 42.68 38.49 34.68 34.24 33.73 25.18 20.20 23.11 25.88 33.46 28.98 33.53 41.50 43.31 45.53 46.74 46.54 47.44 48.28
48.95 50.53 51.00 53.11 54.28 52.40 43.79 33.69 35.54 39.68 41.20 39.17 39.40 37.25 38.06 40.95 39.91 39.39 37.70 38.44 40.12 39.52 31.17 29.45 31.08 40.96 41.59 41.71 40.32 34.09 31.37 38.13 29.76 31.17 26.51 29.27 34.23 39.16 42.28 42.23 43.05 43.18 45.05 44.47 45.27
45.55 48.37 50.57 55.25 53.95 48.01 37.89 36.84 40.42 42.83 42.09 40.58 33.63 38.68 34.48 36.83 36.52 36.36 36.57 41.29 40.34 42.50 41.63 36.15 29.45 38.92 40.35 41.87 41.00 36.15 38.39 27.50 31.16 22.73 20.83 27.19 29.18 30.95 37.36 38.15 40.69 41.02 42.56 44.94 47.70
46.05 46.05 51.01 53.70 50.98 42.69 34.64 38.22 42.12 44.67 43.68 39.72 37.29 36.47 37.16 35.77 36.02 35.15 36.39 40.01 42.62 41.26 41.20 37.15 32.85 33.49 37.89 35.44 33.42 35.37 33.02 33.89 32.44 29.55 23.70 21.03 25.84 41.35 38.18 38.92 39.15 40.91 43.44 44.96 47.62
45.77 40.68 51.53 50.78 38.03 41.97 37.84 41.68 43.93 43.50 44.77 42.53 42.50 40.70 37.97 37.51 35.19 34.93 34.89 39.51 44.26 42.94 37.10 38.11 33.70 28.85 32.01 38.97 41.17 39.32 36.35 33.49 28.24 27.25 29.79 28.12 27.67 41.49 39.83 40.98 41.61 41.97 44.18 45.29 47.78
42.55 44.49 52.02 49.68 35.89 35.55 41.00 41.61 43.14 42.71 42.22 40.66 39.71 41.36 40.17 35.97 32.05 37.68 38.20 43.51 43.95 41.27 38.20 37.94 31.80 26.43 28.21 33.55 36.94 33.90 35.82 35.17 34.36 32.30 27.79 25.31 27.82 43.15 41.65 41.32 42.32 41.97 44.53 46.38 47.80
44.17 39.43 44.71 44.29 43.07 39.18 37.99 38.58 38.26 44.75 43.69 42.97 41.03 41.34 38.76 36.02 37.69 36.22 36.74 41.41 43.94 42.59 43.89 40.57 34.84 30.24 25.46 29.11 32.56 31.25 33.95 36.04 34.42 26.58 29.40 30.81 33.27 38.20 39.72 40.48 42.29 43.98 45.19 46.24 46.68
44.24 40.42 41.35 35.47 36.09 38.30 39.61 39.93 38.41 37.67 42.74 42.00 38.62 38.00 36.62 31.76 34.29 33.94 37.06 38.77 41.55 44.17 42.52 39.70 32.70 33.97 34.87 36.05 36.21 35.10 34.58 35.88 33.18 33.86 29.74 32.88 34.24 37.01 39.61 41.40 43.21 44.76 45.65 46.12 46.32
38.92 37.01 39.15 36.37 40.31 39.14 39.54 38.63 37.67 38.72 38.66 36.63 36.17 38.55 37.24 32.96 34.39 32.78 35.69 36.18 35.30 40.27 36.80 40.16 33.00 34.93 32.01 36.01 36.25 34.38 35.85 35.96 36.65 37.33 36.10 36.42 35.71 42.43 42.46 43.35 42.64 44.35 45.02 45.43 46.40
44.39 44.11 40.74 37.03 37.84 35.82 35.37 37.66 38.22 38.81 40.31 41.34 39.30 36.52 35.30 37.40 40.43 41.17 41.02 40.73 39.73 37.56 36.34 33.12 33.55 31.61 26.17 35.34 34.50 27.81 35.02 36.67 37.26 37.99 36.93 32.31 36.91 42.80 42.83 42.98 42.72 43.58 44.79 45.14 47.15

GFSSW_sfc_wetblb_048.txt.gz
Wetbulb
54.42 54.53 54.48 54.58 54.63 54.64 54.74 54.69 54.92 55.29 55.64 56.17 56.55 56.77 56.88 56.92 56.76 51.23 46.49 52.32 54.40 60.45 60.57 52.38 49.95 49.14 48.78 48.08 49.21 50.36 42.10 43.70 47.53 48.46 50.04 53.82 52.14 55.32 56.06 53.58 55.18 54.91 55.96 62.41 64.55
53.89 53.89 54.20 54.15 54.14 54.39 54.40 54.46 54.77 55.01 55.47 55.81 56.22 56.53 56.49 56.97 52.17 48.79 54.59 61.89 62.24 61.04 50.24 47.80 46.88 48.55 42.98 45.41 46.27 44.56 39.15 43.37 49.50 52.52 51.54 52.99 52.84 54.02 54.31 53.69 54.30 55.33 56.97 60.19 64.76
53.73 53.75 53.77 53.85 53.75 53.69 54.08 54.33 54.52 54.91 55.05 55.48 55.86 56.06 56.36 56.27 48.56 49.75 61.58 63.04 62.85 60.65 51.91 50.10 49.09 46.64 40.61 42.91 44.13 43.77 41.60 47.09 49.04 51.04 51.97 51.23 51.60 54.14 51.95 50.94 53.57 53.57 54.39 56.65 58.53
54.16 54.39 54.39 54.32 53.93 53.89 53.81 54.04 54.37 54.75 54.80 54.99 55.48 55.81 56.92 53.23 38.82 51.68 63.08 63.79 63.70 56.64 52.97 50.19 45.97 39.11 37.52 39.01 43.94 40.49 44.80 45.83 48.33 50.62 50.42 49.27 51.47 50.47 51.93 52.44 55.47 56.41 56.54 56.17 55.67
53.78 54.09 53.96 53.65 53.73 53.85 53.82 54.05 54.23 54.35 54.50 54.76 55.44 55.92 52.40 47.36 49.20 54.77 64.24 63.52 60.85 55.08 51.65 48.72 43.40 38.87 34.70 39.66 41.75 40.14 43.34 45.17 46.44 47.16 50.01 51.28 50.06 50.44 51.19 54.50 56.06 56.52 56.78 56.45 56.05
53.41 53.53 53.59 53.45 53.19 53.13 53.53 53.79 53.58 53.87 54.14 54.68 55.61 56.24 50.57 42.28 54.69 53.82 59.72 57.64 56.23 51.36 47.37 47.42 42.62 43.71 40.08 39.02 38.04 40.98 42.03 42.38 43.64 43.95 45.40 45.58 47.01 49.24 51.49 54.59 54.31 55.21 55.50 56.25 56.71
53.46 53.36 52.87 52.70 53.13 53.56 53.97 53.83 53.72 53.44 54.18 55.08 56.70 54.60 47.83 43.92 52.63 51.59 55.83 50.29 48.13 51.11 47.92 48.30 47.32 44.63 41.94 40.02 42.09 42.42 38.32 40.91 42.01 42.94 43.73 46.63 44.06 45.00 49.66 51.48 51.75 53.57 54.94 55.74 56.90
53.69 53.40 52.82 52.78 53.01 52.88 53.29 53.95 53.48 53.60 54.31 55.35 56.63 51.71 42.45 53.75 52.55 50.26 47.83 47.58 48.57 48.51 48.41 48.74 47.35 43.84 40.95 42.10 41.84 38.08 36.65 31.20 37.68 41.92 44.35 44.55 39.53 46.43 49.18 49.01 49.61 51.20 53.51 54.95 55.92
53.87 53.44 53.06 53.25 53.01 53.20 52.90 52.90 53.66 54.43 55.39 55.77 50.34 46.95 44.04 55.71 48.67 50.22 48.98 48.35 48.65 48.45 48.35 50.70 46.43 42.37 41.06 36.18 32.91 33.25 28.78 31.22 35.24 39.99 40.83 41.37 39.10 45.11 47.39 47.69 47.91 49.16 50.27 53.04 53.89
54.11 53.56 53.40 52.98 52.88 52.71 52.09 52.87 53.19 53.78 53.65 54.50 52.74 44.62 48.23 48.51 48.64 50.64 50.24 50.38 47.53 46.46 45.61 45.12 40.85 37.04 35.03 33.25 27.09 30.94 30.82 34.08 34.00 38.72 39.69 38.04 38.47 42.10 44.33 44.67 44.60 46.22 48.39 50.81 52.99
53.46 53.56 52.95 52.94 52.76 52.30 49.98 46.88 42.96 43.91 46.86 46.02 48.19 47.82 50.21 49.63 50.54 48.40 51.12 48.71 46.80 43.12 36.38 39.64 33.96 31.21 35.44 37.46 39.19 37.87 36.12 34.22 37.31 41.30 39.26 38.08 38.82 41.37 42.51 42.95 42.71 43.81 45.99 47.46 50.07
53.60 53.21 52.74 52.66 52.90 52.51 47.97 44.45 46.62 45.46 39.17 47.35 48.65 48.97 50.85 49.52 44.44 47.35 51.22 43.37 42.03 36.07 38.92 35.35 31.38 37.96 41.05 39.79 37.87 36.24 33.70 33.05 37.26 40.61 39.27 37.97 38.30 41.59 41.97 41.75 42.42 43.40 44.69 46.11 48.40
52.12 51.87 52.16 52.33 51.93 48.94 45.83 49.11 51.53 46.94 37.90 43.85 47.80 47.07 47.39 47.40 43.96 44.45 47.19 43.78 39.88 36.66 36.02 32.31 36.65 41.43 39.84 37.22 36.50 34.87 32.89 34.87 35.06 39.63 39.74 36.73 35.36 37.92 41.87 42.36 43.69 43.87 44.66 45.90 47.12
51.24 51.29 51.64 51.44 48.26 45.94 47.06 51.69 49.22 47.01 32.91 40.93 42.87 45.47 46.28 45.29 42.22 48.33 48.48 44.26 39.85 36.55 37.07 35.58 39.88 39.08 37.18 36.39 38.21 32.49 39.86 38.81 37.25 34.16 27.52 36.64 26.55 35.38 38.65 40.01 41.44 42.45 42.12 43.67 45.76
50.94 51.18 51.48 50.84 44.30 43.10 49.37 50.93 48.77 47.10 26.63 43.89 43.22 48.39 45.68 41.81 44.04 45.67 48.65 43.81 38.38 38.44 37.31 35.01 36.87 36.46 35.04 37.88 40.33 35.59 40.84 37.87 37.51 33.66 30.05 33.04 27.07 33.57 36.80 37.04 39.70 41.91 43.33 43.96 44.81
50.77 51.00 50.86 48.31 46.21 46.97 49.92 48.20 47.53 35.46 27.15 39.22 43.60 42.41 40.94 42.10 42.80 45.58 44.52 45.48 43.86 38.80 38.10 37.42 40.89 39.95 39.30 41.67 40.95 41.94 37.17 35.57 33.98 30.89 23.79 31.10 29.64 31.00 34.64 36.77 40.20 42.99 44.10 45.44 46.62
50.53 50.59 49.61 49.38 44.02 48.15 47.47 44.61 33.02 29.10 42.62 37.71 38.20 41.11 39.78 39.09 40.92 42.51 41.67 37.86 33.31 29.17 29.10 34.88 35.46 39.92 42.46 36.17 38.58 36.16 28.93 21.82 21.39 20.62 21.68 32.68 29.22 32.09 37.48 39.98 40.75 42.05 43.34 44.88 46.14
49.81 49.56 48.90 50.13 46.60 47.86 44.97 37.97 29.25 37.97 36.68 41.97 39.87 39.86 38.00 40.17 39.53 40.70 38.04 34.69 39.09 36.26 29.73 26.08 26.44 35.64 41.75 37.04 33.15 31.76 29.84 21.49 17.31 20.53 24.43 33.24 25.87 30.92 40.34 43.04 43.70 44.22 43.49 44.85 44.94
48.79 45.58 47.57 49.49 50.99 46.87 39.55 30.35 32.51 36.00 39.88 38.43 39.17 36.17 37.17 39.49 38.71 38.09 36.37 36.27 38.84 37.79 29.76 28.03 29.65 40.01 40.70 40.22 37.55 32.41 28.33 34.00 24.44 29.83 27.27 27.47 31.48 36.68 41.06 40.81 41.88 42.01 43.40 43.05 44.18
42.46 44.21 46.52 51.78 49.73 43.82 35.81 35.04 38.08 43.04 42.14 40.88 32.82 37.45 33.33 36.09 35.78 35.11 35.48 40.12 39.46 40.42 37.92 33.82 27.72 37.42 39.76 40.56 39.46 35.51 36.19 25.09 26.15 21.04 20.73 25.59 27.76 27.96 36.14 37.48 39.75 40.31 40.74 42.44 44.21
43.55 42.42 48.27 49.29 47.12 40.80 32.12 35.51 40.08 44.34 43.07 39.84 36.01 34.71 35.91 34.91 35.24 34.02 35.31 38.62 41.60 39.83 39.24 34.67 31.49 32.26 36.43 33.62 32.28 31.46 29.89 32.59 31.25 30.36 24.00 21.82 23.86 37.30 37.43 38.37 37.58 39.44 41.14 41.98 43.85
40.52 38.22 48.66 46.56 36.05 36.37 34.27 39.27 42.24 41.94 43.89 41.02 39.63 38.83 36.76 37.33 35.18 33.82 33.49 38.41 42.63 41.17 35.40 36.52 31.89 27.66 31.51 38.41 39.80 35.79 32.92 32.71 26.06 27.41 30.65 29.04 26.26 38.97 38.89 39.18 39.41 39.57 42.16 43.87 44.97
38.53 40.02 47.72 45.07 29.42 31.33 37.04 40.15 41.25 40.46 41.67 39.26 37.78 39.07 38.39 33.70 30.04 36.05 37.31 41.97 42.11 39.88 36.81 36.24 29.08 26.56 26.87 32.07 36.08 32.51 35.06 35.14 32.88 30.41 26.66 24.50 25.43 39.93 40.13 40.33 40.23 39.89 42.67 44.50 45.38
39.14 34.50 38.59 39.04 36.63 33.85 33.65 36.07 37.41 43.30 41.73 40.79 38.70 38.65 35.89 34.11 34.79 32.96 34.81 39.90 40.98 41.00 45.14 39.81 34.04 29.30 25.24 29.92 34.25 30.18 33.21 35.13 31.76 25.30 26.64 28.03 29.94 35.32 38.27 39.48 40.27 41.47 43.07 43.56 44.77
37.37 34.17 34.97 30.71 32.45 33.65 34.00 36.73 36.04 35.96 39.95 38.90 35.87 37.12 33.98 29.24 31.68 31.68 34.45 36.30 39.54 41.67 39.73 38.26 32.84 33.45 34.36 35.48 35.39 34.05 33.67 34.51 32.26 31.94 27.73 30.92 31.68 35.54 37.13 39.75 40.62 42.93 44.67 44.54 45.12
34.52 33.33 35.26 33.21 35.42 34.91 34.96 32.81 35.43 37.22 36.31 35.24 33.57 36.73 34.44 30.15 32.26 30.73 33.29 32.55 32.73 36.85 39.25 39.73 32.74 35.70 32.91 35.04 34.99 32.64 34.99 35.20 35.21 35.03 34.46 34.22 33.06 40.33 40.93 42.34 41.94 43.07 44.01 44.44 45.64
39.02 38.39 38.19 33.63 33.16 30.95 30.62 33.13 35.38 35.89 37.37 39.31 36.72 34.31 33.27 35.56 37.94 38.05 38.51 37.86 36.81 34.89 34.29 34.35 33.28 31.02 27.31 33.39 33.23 28.58 34.61 35.93 36.26 38.04 35.28 30.23 34.59 39.17 40.37 41.09 42.01 42.40 44.77 47.79 49.33

GFSSW_sfc_wetblb_051.txt.gz
Wetbulb
53.95 53.99 54.00 54.16 53.94 54.12 54.28 54.55 54.61 54.86 55.17 55.49 55.93 56.22 56.56 56.64 56.29 50.98 45.02 48.88 53.05 59.78 60.04 51.01 48.74 47.63 46.61 44.85 48.39 49.98 42.06 42.31 45.72 47.46 47.98 53.07 50.93 53.57 55.14 53.37 54.57 55.71 54.72 57.72 67.13
54.37 54.46 54.28 54.42 54.27 54.03 54.01 54.15 54.37 54.52 54.81 55.16 55.54 55.86 56.10 56.42 51.80 48.93 54.80 58.50 60.99 60.50 48.28 45.44 44.90 46.78 41.46 42.70 44.30 42.75 39.35 43.14 49.35 51.19 49.78 51.07 50.31 51.71 51.89 51.54 51.90 54.36 56.64 57.95 66.22
54.50 54.41 54.32 54.44 54.07 53.98 54.07 54.17 54.21 54.48 54.56 54.84 55.20 55.50 56.01 55.79 48.02 49.23 61.40 61.04 62.76 60.17 50.25 48.10 47.58 45.15 38.63 40.99 42.11 41.05 40.66 46.49 48.45 49.30 50.67 49.80 49.75 51.56 49.60 48.35 51.05 51.11 53.82 55.13 58.99
53.90 54.11 54.24 54.18 53.86 53.60 53.47 53.91 54.13 54.31 54.29 54.46 54.87 55.58 56.09 52.53 37.95 50.65 62.41 63.87 62.47 56.11 51.24 48.78 44.31 37.64 35.49 36.60 41.86 38.40 43.38 44.42 45.86 48.16 48.23 47.26 49.72 48.62 49.67 49.72 52.91 54.26 55.10 55.15 55.08
53.13 52.88 52.93 53.17 53.12 53.38 53.47 53.70 53.72 53.97 53.98 54.25 54.74 55.75 51.22 44.58 47.90 56.05 64.49 62.94 59.27 54.80 49.79 46.92 41.46 37.73 34.43 36.54 39.56 38.40 41.00 43.48 44.52 44.02 44.66 47.90 47.63 48.57 49.26 52.12 53.58 54.46 54.91 54.73 54.68
53.71 53.53 53.47 53.34 53.03 53.04 52.86 52.80 53.03 53.31 53.79 54.06 54.89 56.15 48.47 37.20 52.69 55.36 57.64 56.89 56.74 51.73 46.13 46.21 41.63 42.41 38.48 37.42 36.32 39.48 40.08 41.53 42.25 42.65 43.26 43.86 45.12 46.44 48.06 50.79 50.73 51.27 52.28 54.19 54.85
53.69 54.04 53.44 53.11 52.87 53.13 53.11 52.57 52.59 53.11 53.95 54.43 55.38 54.48 46.88 41.19 50.87 50.97 55.37 51.04 51.19 51.69 47.84 47.16 45.86 42.78 40.85 37.94 40.07 40.70 36.34 38.87 40.64 42.18 43.03 45.08 41.81 43.26 48.32 49.89 49.44 50.17 50.94 52.79 55.13
53.61 53.17 53.40 53.27 52.89 52.89 53.01 52.78 52.59 53.31 54.35 54.76 56.40 51.15 40.49 51.01 51.66 51.17 49.43 49.07 46.88 50.35 48.08 47.32 45.91 42.26 39.26 40.57 40.19 35.82 34.38 29.51 37.09 40.39 42.63 42.53 37.47 44.33 47.21 46.87 47.52 48.89 49.95 51.38 53.50
53.15 52.80 52.78 52.84 52.97 52.63 52.67 52.90 53.29 54.00 54.67 54.89 49.09 45.28 42.53 55.36 48.91 49.34 47.50 46.89 46.68 46.98 47.01 49.58 45.03 40.54 39.50 34.59 31.91 32.67 27.58 29.02 34.47 38.59 39.03 39.96 36.29 42.35 44.24 44.36 44.42 45.27 46.51 48.40 50.09
52.78 52.84 52.76 52.26 52.51 52.34 52.06 52.29 52.22 52.94 53.78 54.62 52.47 43.52 46.42 47.47 48.79 49.49 48.62 48.68 46.19 45.16 43.96 43.08 38.60 35.67 33.33 31.92 25.69 29.63 29.22 31.95 32.72 37.74 37.69 36.80 37.80 41.38 43.39 43.21 43.09 43.96 44.80 45.82 47.17
52.94 52.28 52.16 51.95 52.24 52.52 49.52 45.25 41.95 40.91 46.84 42.81 46.26 45.92 48.57 51.28 50.63 47.21 49.42 47.06 45.28 41.85 34.97 37.38 32.78 29.93 33.92 35.52 36.87 35.21 33.52 31.75 35.08 38.77 36.41 35.49 37.15 39.52 41.53 41.62 41.35 42.18 43.63 44.37 46.05
51.73 51.23 51.65 52.35 52.24 51.97 47.06 45.11 45.50 44.27 38.44 45.47 46.51 48.23 51.05 49.47 44.20 46.17 49.26 41.85 40.54 34.86 37.09 34.06 29.75 36.60 39.04 37.97 36.03 34.25 31.25 31.26 35.65 40.11 38.57 37.14 36.90 40.14 39.71 40.29 41.14 41.84 42.52 43.57 44.58
51.36 51.02 51.31 52.02 51.98 46.71 43.30 46.40 50.47 45.52 36.77 42.18 46.05 45.75 45.88 46.86 43.55 43.33 45.96 42.37 38.56 35.03 34.51 31.20 35.61 39.82 38.28 35.48 35.73 33.55 32.45 33.24 33.53 37.82 38.18 35.85 34.68 36.33 39.48 40.42 41.99 42.24 42.63 42.79 43.43
51.03 51.13 51.45 51.41 46.00 43.54 45.19 49.77 48.46 45.61 33.25 40.72 41.86 45.52 45.25 43.92 41.16 47.28 47.39 43.42 38.40 35.29 35.29 33.99 38.17 37.73 35.48 34.71 36.55 30.43 38.22 37.40 35.72 32.52 25.99 35.82 25.22 34.39 37.89 38.49 39.39 40.49 40.54 41.21 42.35
50.74 50.68 50.64 50.81 43.21 44.31 48.31 47.41 46.31 45.50 23.60 43.50 42.55 48.09 45.28 41.03 42.45 44.12 47.22 42.40 37.33 37.13 35.95 34.35 35.44 34.95 33.26 35.75 38.64 33.94 39.19 35.98 35.36 31.47 28.17 30.29 25.80 32.66 35.65 35.49 38.23 40.59 41.52 42.87 43.75
50.61 50.50 50.74 47.64 44.65 47.31 48.07 46.08 46.17 33.95 26.14 38.16 43.00 41.98 40.92 40.79 41.46 43.54 43.17 44.25 42.55 37.34 36.66 36.16 39.42 38.42 37.30 39.94 39.22 40.05 35.33 32.86 31.76 28.70 21.67 28.74 27.80 28.91 30.74 33.84 37.11 41.34 43.05 44.50 44.49
50.50 50.51 48.87 48.53 43.36 45.50 46.16 43.71 32.35 26.28 39.99 36.10 37.17 40.43 39.51 38.86 40.01 41.69 39.70 36.86 33.22 28.95 28.50 33.84 34.08 38.65 40.99 34.50 36.54 34.58 27.34 20.07 19.26 19.99 21.39 30.59 27.57 29.68 36.68 39.78 40.65 41.00 42.05 43.05 43.63
49.81 49.35 48.69 48.65 45.78 46.39 43.16 37.44 28.35 35.55 34.82 40.15 39.16 39.29 36.74 39.41 39.53 40.44 38.09 33.20 38.37 34.89 28.53 25.12 25.61 34.37 40.21 35.57 31.60 30.28 28.59 19.26 14.02 18.04 21.79 30.57 24.18 29.27 39.82 42.06 42.86 43.44 42.73 43.46 43.23
48.45 45.13 46.36 48.46 49.39 44.47 39.14 30.17 30.70 35.21 39.12 37.49 38.37 34.83 35.88 37.86 37.64 37.27 34.79 34.96 37.64 36.47 29.01 26.83 29.00 38.69 39.61 38.98 36.53 30.73 27.33 31.19 21.55 25.74 21.81 25.39 30.24 35.09 39.44 40.20 41.04 40.87 41.89 41.13 41.78
41.99 43.95 45.42 49.79 46.88 42.83 35.74 34.36 36.09 41.24 41.03 39.34 31.39 35.41 30.79 34.09 33.65 33.20 34.28 39.39 38.02 39.20 36.84 32.86 26.82 35.87 38.37 38.83 38.28 33.57 34.96 23.91 24.44 19.53 18.71 23.80 26.00 27.89 33.10 35.91 39.52 39.87 39.67 40.38 41.81
42.62 41.66 47.05 46.45 45.88 40.30 31.43 34.26 38.21 42.80 42.05 38.18 34.69 32.82 33.87 33.09 33.63 32.27 33.87 38.25 40.44 38.53 37.67 33.66 30.07 31.14 34.88 32.61 30.20 29.76 28.08 29.92 29.23 27.67 20.79 20.25 24.25 33.94 35.13 37.43 37.89 39.49 40.49 39.69 41.69
39.09 36.68 47.30 45.36 36.20 33.45 32.22 36.72 41.62 40.69 42.90 40.41 38.11 37.40 34.86 35.17 32.94 32.64 32.39 36.99 40.78 39.74 34.16 35.23 30.62 27.06 30.45 37.47 38.35 34.60 31.52 32.33 25.79 23.63 27.40 26.47 25.99 39.10 38.98 37.82 38.25 39.45 41.13 41.45 43.32
37.18 38.38 46.33 42.81 26.76 28.87 34.37 38.17 39.86 39.22 39.76 38.32 36.96 37.33 36.68 32.43 29.03 34.12 35.98 40.42 40.59 37.42 35.00 35.20 28.42 26.05 26.08 30.07 33.96 32.41 35.18 35.52 33.88 31.72 26.77 21.92 25.27 38.13 37.74 38.90 40.24 39.85 41.67 42.41 43.09
38.30 32.99 36.61 36.89 34.57 31.42 31.67 34.10 35.79 42.03 39.82 39.15 37.43 37.01 34.48 32.26 33.31 31.49 33.28 38.50 39.30 38.65 43.76 39.23 30.74 27.83 25.04 27.64 31.68 30.52 33.03 35.39 33.07 28.26 26.52 27.26 28.98 34.48 36.88 37.32 39.11 40.87 41.57 42.23 42.99
35.36 32.09 33.66 27.05 30.32 32.00 32.13 34.53 33.83 34.12 38.34 37.53 34.26 35.05 32.68 28.44 30.30 30.46 33.45 34.35 37.40 40.18 37.99 35.85 31.02 32.41 32.99 34.08 34.27 33.65 33.44 33.89 32.04 31.72 28.66 30.23 30.44 34.24 36.74 36.71 39.43 41.93 43.06 43.79 46.60
34.21 32.66 33.97 31.97 33.87 32.51 32.22 30.75 33.62 34.75 34.72 33.72 31.97 34.93 33.84 29.60 31.00 30.02 31.88 31.00 31.23 34.60 35.17 38.07 31.03 32.35 30.81 33.73 33.27 31.68 34.37 34.75 34.35 34.22 33.45 33.60 32.81 38.33 38.46 39.64 39.61 39.87 41.28 41.97 47.28
37.42 36.89 36.89 31.72 31.63 29.24 28.86 31.61 33.00 34.55 36.27 37.58 34.64 32.25 32.12 34.35 36.48 37.06 36.90 35.91 35.01 32.79 31.83 30.48 31.74 32.06 26.45 33.12 32.23 28.11 32.84 34.92 35.47 37.59 35.73 31.30 35.04 38.21 37.11 38.19 38.30 38.73 40.07 42.64 44.29

GFSSW_sfc_wetblb_054.txt.gz
Wetbulb
54.52 54.59 54.35 54.45 54.27 54.03 54.00 53.74 54.24 54.56 54.79 55.02 55.25 55.53 55.87 56.06 55.34 49.90 45.61 48.52 53.25 58.17 59.03 49.67 46.92 46.17 45.32 43.61 46.95 49.71 42.90 40.50 44.75 46.24 46.74 51.94 50.23 53.11 53.68 51.55 52.28 54.40 53.59 55.25 65.92
54.00 54.14 54.26 54.36 54.34 54.03 53.85 53.49 54.03 54.11 54.43 54.74 55.02 55.38 55.64 55.77 50.03 48.11 54.74 56.85 58.80 59.38 46.96 43.48 43.05 44.95 39.93 41.48 44.60 44.09 39.14 42.74 48.72 49.58 47.93 49.82 50.01 50.46 49.79 49.21 49.65 51.81 54.01 56.09 64.78
53.79 53.51 53.19 53.38 53.43 53.40 53.41 53.43 53.45 54.01 54.31 54.44 54.68 55.10 55.55 55.30 46.63 47.31 61.10 60.45 61.67 58.72 48.48 46.62 46.07 43.63 36.93 38.93 40.37 39.36 38.94 45.20 47.17 47.95 49.05 47.80 47.76 49.52 48.18 47.32 49.05 48.67 51.20 54.05 54.43
53.88 54.32 54.23 53.87 53.57 53.24 53.30 53.43 53.45 53.85 54.07 54.04 54.32 54.96 55.82 50.93 37.84 48.39 63.85 62.18 61.86 54.13 50.18 47.60 42.73 36.30 34.17 35.45 39.49 37.31 42.40 44.04 44.62 46.31 45.77 45.44 47.57 46.62 47.56 48.03 51.29 51.76 52.54 52.91 53.66
53.88 54.09 54.12 53.75 53.35 53.29 53.23 53.32 52.92 52.96 53.28 53.72 54.23 54.70 50.01 41.02 45.71 55.15 64.66 61.62 57.46 52.98 47.89 45.62 39.63 36.61 33.68 35.32 38.10 35.89 38.72 42.14 43.51 43.27 43.20 45.14 44.43 45.27 46.33 49.68 51.88 51.83 52.38 52.59 52.64
54.05 53.79 53.78 53.60 53.41 53.12 52.97 52.87 52.53 52.22 52.43 53.65 54.04 54.68 46.08 33.35 48.55 52.83 56.47 56.80 54.88 51.52 44.88 45.65 40.18 41.04 37.76 36.26 35.58 38.23 38.45 39.97 41.55 42.24 42.74 42.76 43.99 44.81 46.82 49.31 49.33 49.47 50.22 51.01 52.22
53.66 53.39 53.01 52.74 52.95 52.88 52.86 52.47 52.12 52.12 52.45 53.80 54.53 53.54 45.10 39.11 49.70 50.77 53.60 50.26 51.21 50.91 46.14 46.84 44.45 41.42 39.70 35.85 38.62 39.10 34.93 37.44 39.09 39.17 39.98 42.80 40.30 41.93 46.78 48.53 47.85 48.35 48.59 49.37 51.26
53.30 52.76 52.31 52.33 52.70 53.16 53.12 52.64 52.55 53.25 53.38 54.30 55.47 50.03 39.26 48.50 49.94 51.17 49.18 48.88 49.36 49.50 48.53 46.55 44.99 41.26 38.11 39.17 38.36 33.78 32.67 28.33 34.64 38.11 40.57 40.71 35.16 42.77 44.64 44.77 45.53 46.45 47.07 47.88 48.12
53.13 52.07 52.09 52.16 52.47 52.99 53.11 52.56 53.17 53.65 54.13 54.73 48.19 43.51 41.35 53.86 49.32 49.91 48.14 46.18 45.18 45.69 45.72 48.84 43.73 38.55 38.54 33.69 30.75 31.49 26.62 28.07 33.32 37.11 37.13 36.75 35.12 41.99 44.68 43.80 43.54 44.85 45.82 46.77 46.56
51.80 52.05 51.68 51.76 52.24 52.74 52.46 52.15 52.20 53.92 54.20 54.11 52.43 42.23 45.28 46.47 49.00 48.71 47.22 47.06 44.80 43.78 42.52 41.53 37.30 34.03 32.12 31.13 24.30 27.06 27.59 30.69 30.65 35.95 37.55 35.29 35.97 40.21 42.44 42.85 42.53 43.10 44.17 45.47 46.53
51.17 51.76 51.87 51.66 52.20 52.46 49.36 44.49 41.19 40.06 46.03 40.66 43.85 44.21 45.94 49.71 49.92 45.92 48.00 45.74 43.94 40.80 33.71 36.09 32.17 28.67 32.65 34.43 34.89 33.22 31.39 30.00 33.57 37.45 36.31 35.38 36.22 38.86 40.87 40.74 40.66 41.67 42.19 43.77 45.76
51.11 50.75 51.06 51.19 52.00 52.26 44.95 44.06 44.42 42.52 37.71 44.42 45.43 46.42 49.20 48.65 43.88 46.64 48.24 40.79 39.24 33.94 35.59 32.75 28.97 35.24 37.45 36.23 34.70 33.06 30.11 30.33 34.71 38.16 36.37 34.94 35.24 38.74 39.70 39.76 40.67 41.35 41.98 42.36 43.68
51.15 50.40 50.62 51.14 51.75 45.66 42.98 45.96 47.58 44.14 35.91 41.23 44.86 44.61 44.58 47.26 42.98 43.32 44.86 41.02 37.38 33.97 33.05 30.12 34.04 38.70 36.89 33.91 34.07 31.83 30.86 31.29 32.01 35.99 36.21 34.15 31.45 33.79 38.04 39.99 41.29 41.93 42.24 42.50 41.96
50.74 50.30 50.51 50.68 45.06 43.40 44.63 48.13 46.30 43.64 32.69 39.32 41.50 44.53 45.25 44.28 40.78 46.98 46.12 42.46 37.10 34.45 33.85 32.62 36.63 36.30 33.48 33.37 34.85 28.73 36.90 36.00 34.12 30.48 23.79 34.29 22.47 30.25 33.87 35.75 38.71 39.97 39.68 40.28 42.28
50.77 50.63 50.83 49.98 42.49 43.87 46.82 45.83 44.90 44.58 22.09 41.80 41.00 46.65 43.89 40.07 41.05 43.29 46.87 41.87 36.95 35.86 34.68 33.02 33.94 33.39 31.91 33.86 37.06 32.54 37.69 34.39 33.53 28.75 26.69 28.56 23.86 27.88 34.27 32.84 34.67 37.55 39.53 41.99 43.77
50.84 51.10 50.77 47.17 43.85 46.51 46.79 44.67 45.28 32.40 24.71 36.36 41.04 39.83 39.26 40.73 41.13 43.57 43.30 43.89 42.03 36.56 35.39 34.98 37.93 36.30 36.00 38.37 37.89 38.04 33.64 30.79 28.73 26.68 20.35 26.20 25.67 23.92 29.63 32.39 36.32 39.86 41.78 43.27 43.47
50.54 50.58 48.36 47.17 41.77 44.09 44.56 42.95 31.63 25.12 38.10 34.77 35.33 38.11 36.47 37.58 40.04 41.21 39.70 37.00 33.27 29.27 28.41 32.90 33.34 37.55 39.53 33.39 34.96 32.48 26.41 19.19 18.38 18.43 19.37 28.66 25.34 28.69 34.54 38.04 38.46 39.68 41.26 42.45 42.89
49.67 49.04 48.49 47.60 45.70 45.85 42.76 36.75 26.74 34.21 33.33 38.72 37.76 37.31 34.77 37.46 37.46 38.47 35.95 32.63 37.77 35.20 29.62 27.10 27.19 34.21 39.41 34.39 30.87 28.17 27.72 18.26 13.34 17.24 18.66 28.36 22.76 27.37 36.59 39.88 41.52 42.41 42.12 42.64 42.54
48.35 45.07 45.62 47.59 48.44 43.12 39.03 29.27 29.11 33.70 38.70 36.57 36.66 32.91 33.13 36.46 35.91 34.85 33.08 34.17 36.89 36.09 29.85 28.45 29.57 38.20 38.68 37.86 36.14 29.30 25.28 28.80 19.44 22.02 20.86 23.88 27.96 34.47 38.05 37.91 40.49 40.18 41.51 40.95 41.39
41.87 43.21 44.61 46.36 45.26 42.22 35.32 33.68 34.77 39.95 39.85 37.86 30.25 33.83 29.17 31.48 31.98 31.56 31.65 37.84 37.39 39.17 37.31 32.91 27.08 35.57 37.79 37.51 36.45 32.73 34.04 22.72 23.00 16.86 17.62 22.11 24.01 26.40 32.38 34.80 37.34 37.87 38.71 39.72 41.24
42.17 40.40 45.46 45.69 44.69 39.19 30.02 32.50 37.20 41.51 40.63 36.90 33.49 31.59 32.24 31.76 31.76 30.69 33.22 37.09 39.03 37.19 37.64 33.36 29.41 30.70 34.47 31.65 29.59 29.16 27.06 28.52 25.60 24.73 21.78 19.66 23.72 32.35 33.47 35.00 35.48 37.71 40.28 40.87 42.06
39.27 36.29 45.81 43.64 34.98 31.24 30.60 34.99 40.90 39.33 41.48 39.01 36.94 35.32 33.67 33.90 31.39 31.39 31.47 35.17 39.26 38.73 33.76 34.60 29.44 26.70 29.88 35.18 36.55 33.00 30.20 28.99 22.29 19.46 27.38 19.28 25.09 37.08 36.72 35.89 37.64 37.69 39.39 41.87 43.58
36.48 37.55 45.30 41.91 27.01 27.22 32.57 36.27 38.24 38.14 38.12 37.00 35.75 36.16 35.60 31.05 28.59 32.93 34.23 38.63 38.49 36.12 34.45 34.49 27.35 23.64 24.86 28.75 32.50 30.46 33.21 33.66 34.02 32.37 27.09 23.67 24.96 36.72 37.48 38.33 39.92 39.11 39.66 41.87 42.95
36.16 31.39 34.45 35.32 33.30 30.56 30.86 32.40 34.69 39.88 38.30 37.81 35.84 35.77 32.91 30.65 32.29 31.69 32.50 37.77 38.62 37.86 42.50 39.24 28.64 26.98 21.74 26.20 28.23 27.76 31.55 33.26 32.74 28.26 27.10 27.68 28.92 33.82 36.08 36.82 37.58 38.53 40.33 40.72 41.84
33.80 29.86 32.12 26.12 28.51 29.92 29.55 32.61 32.56 33.06 36.25 35.75 33.04 33.72 31.80 27.80 29.07 29.49 32.12 33.29 36.78 38.76 36.59 34.51 30.27 30.83 31.92 33.16 33.45 32.25 31.92 32.61 31.25 32.81 29.10 30.38 29.87 33.94 36.45 36.74 37.99 39.17 40.07 40.63 41.10
32.79 30.49 32.41 29.63 32.40 30.35 30.35 28.13 31.07 33.16 33.00 32.19 30.25 33.15 31.81 28.18 30.39 30.36 30.38 29.72 30.32 33.85 33.34 35.74 28.00 30.57 28.35 32.39 32.48 30.66 32.80 33.21 33.39 33.50 33.67 33.80 33.43 39.23 39.89 39.53 39.22 39.40 39.64 39.84 41.39
35.72 34.53 36.07 30.28 29.61 27.53 27.23 30.29 31.79 33.14 34.88 36.02 33.65 31.39 30.28 33.09 35.47 35.68 35.92 35.47 34.48 31.82 31.85 32.62 28.86 28.53 25.27 31.25 30.46 26.51 31.36 33.31 34.57 37.47 35.74 31.06 34.46 38.33 38.17 39.32 39.02 39.03 39.95 40.16 41.39

GFSSW_sfc_wetblb_057.txt.gz
Wetbulb
54.03 53.60 53.65 53.71 53.92 54.17 53.91 53.72 53.59 54.04 54.47 54.83 55.18 55.33 55.61 55.97 55.59 52.65 49.75 53.57 55.58 56.99 58.30 51.65 50.11 49.85 49.71 49.36 52.03 54.16 48.84 45.79 47.23 46.62 48.75 53.94 52.23 55.46 56.62 54.51 55.53 56.37 56.39 57.26 64.71
54.73 54.58 54.41 54.11 53.89 53.58 53.44 53.65 53.68 53.96 54.19 54.68 54.70 55.07 55.39 55.65 52.64 50.47 56.67 56.97 59.73 59.27 50.28 47.24 47.73 48.44 46.70 47.51 50.03 50.16 46.42 46.66 51.28 52.12 51.50 52.72 51.58 52.98 52.05 52.51 52.99 54.50 56.60 57.62 58.03
54.86 54.97 54.91 54.56 54.35 53.76 53.52 53.67 53.65 53.63 54.07 54.27 54.35 54.60 55.16 55.25 49.79 50.36 60.32 59.56 59.84 59.70 51.36 50.51 50.26 48.51 44.80 47.21 47.25 47.21 44.80 48.93 50.41 49.75 50.42 50.10 51.20 51.44 50.53 49.52 52.55 51.46 53.40 55.20 57.19
54.73 54.68 54.58 54.28 54.15 54.06 53.56 53.56 53.84 53.37 53.42 53.33 54.01 54.06 54.93 53.29 42.18 53.77 62.99 61.93 61.92 55.86 53.46 51.28 48.83 44.94 43.51 43.30 45.53 43.47 46.02 47.15 49.66 48.56 46.97 47.08 49.29 47.85 49.37 50.32 52.73 53.05 54.26 55.14 55.40
54.27 54.46 54.20 53.89 53.63 53.61 53.33 53.39 53.14 53.18 52.46 52.49 53.37 53.89 52.65 45.77 48.15 57.09 63.73 61.47 58.07 54.42 51.18 49.93 46.60 45.10 42.41 43.54 44.56 43.66 44.13 45.28 46.40 46.28 46.32 46.24 46.78 48.32 47.86 50.28 51.58 53.30 53.28 53.25 54.41
54.01 53.97 53.60 52.99 52.72 52.88 53.11 52.93 52.68 52.25 51.92 52.28 53.42 54.13 50.17 39.73 51.36 55.55 59.51 57.93 56.39 53.74 50.82 51.10 47.24 47.23 44.89 43.98 43.70 44.29 44.44 44.98 45.60 46.09 46.57 44.33 45.45 46.61 48.28 50.28 50.22 51.47 52.61 53.70 54.65
53.87 53.23 52.75 52.32 52.45 52.63 52.94 53.08 52.07 51.98 52.46 53.26 53.67 53.25 47.65 43.25 52.71 54.37 56.86 54.55 55.75 53.86 49.75 51.07 49.92 46.77 46.15 42.82 45.07 44.08 41.46 43.09 44.02 44.47 44.11 45.76 41.50 43.10 47.39 48.84 48.85 49.93 51.00 52.02 52.73
52.39 51.60 51.92 52.30 52.13 52.55 52.90 52.54 52.42 52.23 53.04 53.84 54.70 52.82 43.21 50.33 53.25 54.23 54.35 53.48 53.91 54.38 52.46 51.73 50.13 47.49 45.98 46.08 43.44 41.24 40.43 37.93 42.36 43.03 43.96 44.10 38.55 44.21 46.72 46.84 46.77 48.75 49.68 50.67 52.39
52.32 52.38 51.77 52.17 52.06 52.44 52.65 52.65 53.47 53.68 54.06 54.86 52.41 48.74 46.08 56.38 52.34 52.37 53.64 49.36 48.41 48.94 50.35 49.80 48.71 45.03 44.80 41.91 39.85 39.73 36.93 36.94 39.09 43.82 43.74 42.73 39.77 44.43 46.81 46.08 46.05 47.44 48.89 49.78 51.38
52.46 52.12 51.08 51.33 51.96 52.09 52.57 52.50 55.19 55.28 54.30 54.84 53.20 46.21 50.04 48.30 53.03 53.10 50.97 49.47 47.51 47.27 45.94 45.80 45.22 43.16 42.31 40.96 34.40 34.86 35.58 36.84 36.83 41.09 43.21 41.46 41.21 43.96 45.74 45.40 45.46 46.35 47.35 49.10 50.28
51.69 51.20 50.95 51.40 51.50 52.01 51.45 50.57 47.80 46.01 50.77 45.37 46.14 45.85 47.40 51.84 52.30 48.89 50.00 48.31 47.49 45.67 40.93 42.11 40.31 38.00 39.37 40.75 39.87 38.75 37.17 36.24 39.18 41.86 40.87 40.64 40.79 42.64 44.95 45.07 45.38 46.17 46.48 48.02 49.82
51.06 50.95 51.21 51.21 51.69 52.21 49.23 48.87 47.99 48.53 43.35 46.83 47.42 47.74 50.02 50.85 45.89 48.80 50.52 45.10 43.63 40.28 40.80 39.73 37.23 40.92 41.02 40.28 38.98 38.40 36.64 36.38 39.77 41.82 40.64 40.05 39.36 42.43 44.17 44.86 46.02 46.72 47.16 47.81 48.58
50.82 50.76 51.17 51.27 51.66 49.30 48.73 49.27 51.24 49.43 42.73 44.55 46.26 46.22 47.17 49.41 45.25 46.61 48.28 45.30 42.45 39.72 39.12 37.12 38.92 41.41 40.09 39.07 38.16 38.33 36.86 36.61 36.01 39.44 40.88 39.41 37.39 39.17 42.67 44.61 45.86 47.05 48.02 48.38 48.26
50.85 51.08 51.32 50.99 48.60 48.49 49.39 50.81 50.52 49.25 40.42 41.43 43.83 46.66 47.64 47.80 43.65 49.31 48.90 46.13 42.17 39.59 38.96 39.05 40.94 39.83 39.10 37.84 39.58 35.18 40.92 38.72 37.16 35.84 31.85 38.77 30.51 37.51 40.43 42.01 43.71 45.21 47.12 47.82 49.02
50.67 51.52 51.57 50.28 48.58 49.54 50.78 50.46 50.64 49.86 29.52 43.18 43.31 49.85 46.74 43.72 44.33 44.94 48.51 45.33 41.11 40.04 40.32 38.06 39.04 38.61 37.62 38.19 41.08 37.02 41.15 38.82 38.00 36.05 34.57 35.08 32.47 36.66 39.96 39.59 41.56 44.91 46.80 48.70 50.22
50.73 51.19 50.68 49.98 49.31 51.16 50.00 49.90 51.01 39.06 28.71 38.50 42.91 42.00 42.51 43.27 43.45 45.54 45.09 46.35 44.83 40.64 40.17 39.90 42.24 41.34 40.53 41.69 41.44 41.13 38.86 37.49 36.22 35.36 29.48 33.26 32.92 34.54 37.63 39.66 41.84 44.89 47.21 48.92 49.89
50.25 50.53 50.01 49.27 48.04 50.13 49.85 49.51 38.88 33.00 40.08 36.91 38.47 41.03 40.13 40.34 41.82 42.85 41.21 39.88 37.82 34.40 34.72 37.60 37.77 41.57 42.92 39.17 40.47 39.32 36.22 30.00 28.36 28.75 28.30 34.94 32.25 35.17 40.49 42.36 43.10 43.89 46.42 49.12 50.32
49.58 49.32 50.33 50.40 51.90 50.78 49.67 43.79 32.88 35.91 36.16 41.12 40.11 40.47 37.32 40.29 40.14 40.40 39.30 37.74 40.83 38.17 35.16 32.83 30.86 38.53 42.01 39.73 37.34 37.02 36.10 30.30 21.08 25.18 28.98 34.34 29.48 36.49 41.76 44.00 45.58 46.76 48.14 49.46 49.96
48.56 50.78 51.22 52.02 51.65 49.39 46.48 37.18 35.71 36.81 40.12 38.77 39.57 36.06 36.55 38.79 38.95 38.82 37.68 37.72 39.72 40.72 34.75 33.03 32.26 40.08 40.99 42.06 41.08 35.83 33.75 36.74 30.94 31.50 28.07 32.17 35.71 40.16 42.84 43.12 44.24 45.52 46.88 47.73 48.05
47.74 48.77 50.46 50.62 50.35 49.21 43.42 37.15 38.92 41.71 41.38 40.31 34.24 36.97 33.35 35.67 35.89 36.84 36.74 40.34 39.36 41.65 42.19 37.39 31.12 38.07 39.82 41.58 40.80 39.20 40.47 31.52 33.46 23.58 22.21 30.02 31.70 33.19 38.75 40.32 42.71 43.60 45.10 46.27 47.99
48.00 46.59 50.51 49.15 50.26 46.28 38.87 37.94 40.37 43.14 42.81 39.58 36.86 35.84 36.47 35.44 37.07 35.88 36.05 39.36 41.44 40.85 42.12 39.23 35.59 34.71 37.68 36.65 36.07 35.61 34.50 35.02 34.23 32.44 26.11 25.15 31.33 40.35 40.04 42.02 42.14 43.96 45.33 46.02 47.48
45.83 42.53 50.05 48.14 42.09 37.43 38.71 38.44 40.68 41.53 43.37 41.71 40.88 38.30 36.93 37.25 35.52 35.48 35.30 38.30 42.09 42.86 37.25 39.62 36.71 31.19 33.50 39.74 40.22 38.63 36.68 36.52 30.45 28.49 31.66 30.21 30.11 42.83 43.14 42.95 44.04 44.53 45.67 46.69 48.16
42.32 42.69 49.05 47.19 37.96 36.23 37.84 38.22 40.06 39.97 40.40 40.01 38.77 39.60 39.62 36.66 33.63 36.33 37.18 40.18 41.36 40.22 38.51 40.12 34.44 28.27 30.13 35.22 37.93 35.76 37.04 37.71 37.31 34.28 30.23 26.85 30.64 42.49 43.67 43.68 44.62 44.45 45.61 46.48 47.59
42.01 37.62 40.17 40.59 38.72 36.03 34.37 35.44 36.78 41.32 40.02 39.83 38.83 39.73 37.49 35.48 37.96 35.16 35.81 39.36 40.60 40.25 42.08 41.27 36.41 32.15 27.31 31.03 35.49 32.46 35.40 37.27 35.89 29.89 31.35 31.84 34.10 38.89 41.11 42.00 43.96 44.97 46.01 46.60 46.93
39.11 35.83 36.68 32.79 34.70 35.68 35.62 35.24 34.73 35.16 38.93 39.56 37.15 36.12 34.68 32.89 33.80 33.89 36.24 36.98 39.43 41.02 40.54 39.96 32.75 34.93 35.06 35.59 35.86 35.34 35.08 35.83 34.32 34.87 30.11 33.93 35.01 38.99 41.80 42.91 44.23 45.04 45.61 45.61 45.60
38.43 36.75 37.99 35.26 34.85 34.35 34.67 33.99 33.01 34.71 35.44 34.62 34.67 35.94 36.31 33.34 34.44 32.25 34.69 34.94 34.63 38.51 39.37 39.67 32.54 33.78 30.84 35.22 35.73 33.39 36.04 36.64 36.40 36.37 36.08 36.23 35.97 42.82 44.56 45.00 43.79 44.36 43.59 43.58 44.60
39.94 40.37 39.22 33.25 33.55 33.50 33.44 34.00 33.76 35.20 36.87 38.32 36.73 35.61 34.27 36.21 38.89 39.83 39.82 39.15 38.54 36.72 36.24 36.51 34.56 30.96 26.69 33.64 33.90 30.62 35.81 36.80 37.60 39.31 38.37 34.43 39.77 43.74 42.40 42.61 42.51 42.49 43.22 42.98 44.18

GFSSW_sfc_wetblb_060.txt.gz
Wetbulb
55.79 55.68 55.74 55.44 55.02 54.36 54.26 54.21 54.23 54.44 54.71 55.02 55.21 55.23 55.45 55.92 55.90 56.72 54.13 56.52 56.97 57.45 57.74 54.03 53.26 53.09 52.84 52.59 55.34 57.50 51.93 49.19 49.96 50.61 52.10 55.72 53.46 56.78 58.93 56.84 57.78 58.56 58.78 60.30 61.09
55.27 55.51 55.61 55.46 55.32 55.07 54.48 54.30 54.29 54.23 54.51 54.49 54.88 54.87 55.05 55.55 55.36 54.82 59.37 58.13 58.93 59.22 54.65 51.46 49.66 51.41 50.18 50.59 52.31 52.51 49.92 50.46 54.09 54.36 53.74 55.31 55.55 54.75 54.96 55.76 56.22 57.22 59.94 59.97 60.12
54.99 55.09 55.27 55.22 55.06 54.66 54.53 54.36 54.19 54.27 53.91 54.21 54.20 54.63 54.76 55.98 54.41 52.28 60.77 59.45 60.70 60.65 52.18 51.34 52.29 50.54 48.13 50.49 50.67 51.02 48.61 52.33 53.17 54.79 56.03 55.07 54.90 55.69 54.13 53.04 56.24 55.92 56.54 58.03 58.74
54.64 54.88 54.82 54.54 54.44 54.24 54.40 54.33 54.13 54.21 53.75 53.24 53.24 54.29 54.83 56.12 45.79 56.20 62.31 61.04 61.63 58.54 56.01 52.10 50.84 48.33 46.75 46.47 50.21 46.96 50.40 51.37 51.99 53.97 53.08 52.42 54.51 53.51 53.95 55.20 56.47 56.25 56.54 56.84 57.33
54.25 54.39 54.37 53.69 53.55 53.29 53.68 54.15 53.94 53.31 53.01 52.47 52.86 54.08 55.20 50.16 50.83 59.61 63.28 62.05 59.05 55.97 53.21 51.41 49.19 48.06 45.88 46.61 47.79 46.80 48.39 49.28 51.16 51.91 51.90 52.56 50.64 51.39 50.79 54.11 53.34 53.72 55.01 55.42 56.43
52.94 52.17 52.13 52.52 52.58 52.75 53.07 53.40 53.63 52.77 52.33 52.37 52.96 53.98 53.49 43.89 55.72 58.93 60.87 58.70 56.05 54.91 52.56 52.46 49.68 50.02 47.62 47.05 46.42 47.72 48.09 48.48 49.56 49.82 50.23 48.61 49.24 49.96 50.83 52.84 52.89 53.62 53.72 54.88 55.67
53.18 52.49 52.49 52.52 52.63 52.81 53.21 53.62 53.35 52.78 52.47 53.20 53.60 55.32 51.18 46.50 55.53 57.73 60.00 57.17 55.97 54.46 50.64 52.07 51.86 49.39 48.87 46.07 48.51 47.47 44.69 46.91 47.65 48.51 48.19 49.40 46.52 47.31 50.86 50.94 50.43 52.34 53.29 54.24 54.91
52.82 52.80 52.18 52.16 52.53 52.82 53.29 53.37 53.13 52.76 52.68 53.49 54.22 55.13 47.81 52.70 56.01 56.15 57.51 56.08 56.13 55.70 53.75 53.15 52.65 50.19 48.53 49.35 46.96 44.85 45.04 41.82 46.09 46.23 47.43 46.38 42.85 47.10 49.56 49.14 49.02 49.67 51.15 52.58 54.31
51.80 52.61 51.84 51.96 52.36 52.61 52.84 53.29 54.30 53.63 53.78 54.36 55.32 53.24 47.95 57.56 53.77 54.98 56.21 51.15 51.28 52.14 52.94 51.85 51.21 48.57 47.97 44.87 43.39 44.58 40.45 41.28 43.12 46.92 46.20 46.11 43.82 47.80 49.50 48.81 47.78 48.82 50.91 51.37 52.81
51.76 51.84 51.80 51.75 52.19 52.36 52.33 53.46 54.79 55.38 55.85 57.06 55.73 50.19 52.27 49.49 53.84 54.45 54.32 52.83 49.66 49.65 48.84 48.83 48.48 45.91 45.67 43.84 38.42 40.83 40.42 41.14 41.47 45.01 45.48 44.59 44.60 47.51 49.09 48.83 48.69 48.48 49.51 50.48 51.67
51.40 51.69 51.86 51.67 52.17 52.36 54.24 55.83 52.87 51.78 53.76 49.63 48.70 48.84 50.10 53.40 54.89 52.37 52.56 50.78 50.14 48.46 44.30 46.57 43.30 41.57 43.67 44.61 43.70 42.17 40.96 40.50 42.73 45.04 44.17 44.26 44.74 46.33 48.33 48.76 48.66 49.35 49.55 50.34 51.18
51.46 51.78 52.01 52.01 52.11 52.39 54.98 52.81 51.22 52.25 47.59 51.39 50.38 50.45 52.02 52.76 48.21 50.54 52.88 47.41 46.67 43.56 44.94 43.47 40.69 44.25 44.30 43.65 42.55 41.95 40.79 40.98 43.08 44.59 43.68 43.62 43.13 45.64 47.27 47.45 48.50 49.06 50.22 50.54 51.13
51.28 51.58 52.20 52.19 52.18 53.83 54.75 52.53 55.93 54.27 48.21 47.73 49.62 48.87 49.85 51.59 47.67 48.27 50.78 48.48 45.37 43.29 43.43 41.34 42.57 44.58 42.80 42.13 40.76 41.83 40.47 40.52 39.92 42.53 44.01 42.68 41.83 43.78 45.54 47.14 47.91 49.17 50.26 50.58 50.24
50.89 51.60 52.20 51.69 51.62 56.85 54.21 55.67 56.40 54.93 45.02 44.12 46.36 48.71 50.39 50.58 46.50 50.97 51.63 48.54 45.42 42.59 43.03 42.88 44.63 42.44 42.17 40.92 42.12 39.21 42.85 40.86 39.85 39.28 36.89 42.00 35.92 42.17 44.33 44.78 46.35 47.09 47.68 49.39 50.70
51.18 51.86 51.88 50.30 56.29 54.73 54.42 57.04 56.63 53.42 35.21 44.92 45.78 52.28 49.61 46.77 46.94 47.55 51.58 48.64 44.04 43.62 42.94 40.89 41.97 41.71 40.76 41.48 42.54 40.13 42.56 41.57 41.09 39.67 39.49 39.65 36.81 40.99 43.41 42.28 45.15 46.48 48.38 50.55 52.56
50.99 51.65 51.14 55.17 57.77 55.44 57.20 56.54 55.17 43.89 33.46 41.66 45.40 44.53 45.09 46.36 46.10 47.59 47.69 49.57 48.19 44.78 44.88 42.76 46.35 44.03 43.50 44.04 44.03 43.95 42.13 42.32 42.47 40.24 34.05 38.93 37.58 39.78 41.64 42.96 44.74 46.58 47.62 49.69 52.16
50.29 50.65 52.93 55.38 53.80 57.97 57.25 54.08 43.52 37.38 43.56 40.70 41.65 43.89 43.93 43.38 44.49 45.44 44.93 44.51 42.18 38.67 39.26 42.80 41.61 44.59 44.85 41.97 44.30 43.02 40.44 34.76 33.42 33.62 34.18 39.28 36.40 41.30 43.84 44.72 45.57 46.24 47.74 49.69 52.29
49.78 49.66 53.22 57.29 58.17 57.42 55.02 47.97 36.94 40.43 40.42 43.89 43.28 43.81 41.68 43.68 44.39 43.92 43.39 41.94 45.52 43.53 40.13 36.39 34.26 41.44 44.61 42.21 40.73 41.33 40.33 34.54 26.32 30.65 34.71 39.25 34.31 40.31 45.28 46.46 47.49 48.16 49.41 50.91 51.91
48.75 57.55 57.64 58.05 56.91 56.31 50.56 41.04 40.80 41.38 42.73 41.62 43.16 40.51 40.98 42.32 41.81 41.71 41.77 41.37 43.41 44.26 38.71 36.79 36.85 43.26 43.57 43.86 43.06 39.43 37.10 42.03 35.41 36.72 33.32 36.90 39.84 43.84 46.08 45.71 46.27 46.85 47.90 49.62 50.98
54.00 55.03 55.56 55.76 57.15 54.64 47.20 40.36 42.40 44.52 43.91 43.47 38.48 40.70 37.96 39.87 38.99 39.83 39.95 42.68 41.91 44.71 45.92 41.21 35.27 41.48 42.83 43.48 43.83 42.03 43.54 35.62 36.85 27.21 27.95 34.95 36.80 38.68 42.43 43.72 45.38 45.98 47.16 49.42 51.21
54.61 51.05 54.32 55.08 55.85 50.44 43.06 42.72 43.65 46.25 45.27 42.05 40.44 40.04 40.38 39.43 40.40 39.66 39.05 41.98 43.58 43.37 45.28 43.25 39.47 38.38 41.51 39.92 38.15 39.04 38.70 38.83 38.66 37.02 30.93 30.71 36.28 44.54 43.60 44.92 45.08 46.13 48.00 49.47 50.13
52.02 46.60 54.67 54.42 46.46 48.24 43.59 42.67 41.21 43.19 45.75 44.03 43.81 42.65 41.11 41.14 39.81 39.90 38.58 40.80 44.48 44.66 39.60 42.51 39.81 34.61 36.86 42.65 43.51 42.43 40.08 40.04 33.55 32.33 35.68 34.33 34.77 46.36 46.22 46.72 46.83 47.82 48.98 50.00 51.32
46.26 49.29 54.45 52.36 42.34 41.92 43.56 41.85 42.38 41.72 42.86 42.78 41.82 42.85 43.33 40.64 36.82 39.46 40.26 43.46 44.09 43.33 40.91 43.29 37.67 32.27 33.51 39.05 41.38 39.08 40.49 40.84 39.99 38.46 34.64 32.02 36.20 46.73 46.71 47.05 48.45 48.20 49.14 49.96 50.77
46.12 42.83 46.42 48.27 46.25 40.52 39.15 39.20 39.31 43.79 42.79 42.95 42.27 43.09 41.65 40.07 42.20 38.41 38.58 41.86 43.14 43.19 42.51 42.74 39.60 35.71 31.16 34.93 38.71 35.35 38.24 39.76 38.07 33.36 35.40 36.63 38.80 43.17 45.34 46.12 47.74 48.67 49.71 49.95 50.09
45.28 43.03 42.36 39.75 41.88 40.68 40.54 39.59 37.71 37.38 41.91 43.15 40.98 39.87 39.04 36.07 38.20 38.01 40.13 40.88 42.13 43.20 42.72 42.41 35.56 38.05 38.63 39.29 38.99 37.77 37.61 38.02 35.76 37.07 33.96 38.17 39.04 42.71 45.33 46.54 47.82 49.34 49.73 49.32 49.32
43.51 40.94 44.62 41.36 40.46 39.76 37.95 39.19 36.81 37.64 38.20 37.84 38.09 39.79 40.07 37.42 37.99 36.50 38.97 39.05 38.02 41.65 41.35 43.20 35.26 37.55 34.54 38.30 38.25 36.61 39.23 39.97 40.11 40.47 40.38 40.53 40.01 46.45 47.93 48.46 46.60 46.01 47.07 47.90 47.82
47.28 47.21 43.67 39.41 38.82 38.13 39.10 37.42 36.70 38.21 39.39 40.89 40.75 38.99 37.51 39.18 42.01 42.70 43.45 43.13 41.92 38.52 37.77 38.11 37.15 33.15 31.03 36.68 36.88 34.11 39.55 40.45 41.49 42.74 41.97 38.15 43.07 46.67 46.13 45.81 44.58 46.33 47.30 47.12 47.59

GFSSW_sfc_wetblb_063.txt.gz
Wetbulb
55.65 55.67 56.02 56.09 56.10 55.97 55.72 55.11 55.04 55.29 55.13 55.17 55.24 55.73 55.75 55.99 55.94 56.97 55.59 57.56 57.99 58.14 58.08 54.19 55.22 54.45 54.87 54.26 56.77 57.68 51.80 49.88 51.34 51.89 53.59 57.00 55.47 57.56 58.77 58.13 59.01 59.65 59.58 61.11 62.17
55.18 55.33 55.39 55.61 55.61 55.32 55.18 55.17 55.21 55.08 55.12 55.01 54.89 55.03 55.52 55.65 55.32 55.57 60.19 60.51 58.10 59.64 56.85 53.15 51.06 52.56 51.88 52.51 54.30 52.90 50.40 50.89 54.60 55.41 54.76 56.08 56.28 56.44 55.50 56.56 57.96 58.94 60.86 61.99 61.34
54.83 54.79 54.99 54.93 54.81 54.66 54.56 54.74 55.06 55.13 55.00 54.79 54.55 54.60 55.11 56.19 55.38 55.50 61.12 61.01 61.14 60.10 56.24 52.73 53.14 52.16 50.12 52.33 52.51 52.28 49.07 52.84 54.43 55.76 56.52 55.87 56.02 57.85 56.15 53.99 56.27 57.67 59.72 60.02 60.08
54.67 53.64 53.66 53.37 53.53 53.93 54.05 54.33 54.62 54.87 54.33 54.12 53.89 54.27 54.95 56.23 48.71 57.96 61.52 60.55 61.16 62.17 56.93 52.96 50.96 49.94 48.54 48.54 52.28 49.50 52.12 52.68 53.52 55.19 54.86 54.17 57.02 56.20 56.82 56.98 57.76 58.87 60.58 59.59 58.38
53.60 53.55 53.40 53.23 53.23 53.31 53.48 53.81 54.10 54.19 53.76 53.38 53.47 54.02 55.69 53.17 52.16 61.58 62.64 61.69 60.54 57.90 55.37 53.47 51.03 50.18 47.67 48.90 50.24 49.74 51.08 52.41 53.13 53.24 53.88 55.05 54.36 54.30 54.97 57.46 58.36 57.97 59.79 59.13 58.85
53.84 53.46 53.08 52.96 52.95 52.91 53.48 53.88 54.06 53.27 53.25 53.23 53.82 54.11 55.48 48.36 57.58 61.15 59.82 58.91 57.95 55.39 54.51 54.01 51.77 51.93 49.43 49.23 48.16 50.01 49.85 50.20 51.56 51.21 52.44 51.90 52.27 52.70 53.69 56.01 55.59 55.87 57.16 58.55 58.39
52.70 52.27 52.53 52.55 52.85 53.14 53.47 53.94 54.04 53.34 53.31 53.51 54.37 56.05 54.11 50.72 55.97 59.50 59.66 57.28 56.35 55.04 52.48 53.34 53.68 50.71 51.01 48.30 51.05 49.68 46.92 48.82 49.45 50.39 50.02 51.41 48.30 48.86 52.76 54.21 53.79 53.88 55.84 57.58 58.79
53.20 52.84 52.42 52.77 52.89 53.04 53.35 53.55 53.75 53.93 53.57 53.73 54.51 57.10 51.58 54.43 56.19 56.53 58.52 56.49 55.97 55.48 53.95 54.30 53.65 51.62 50.55 51.61 48.80 46.51 46.88 43.28 47.95 49.04 49.40 49.21 44.38 49.96 52.97 52.83 52.05 52.72 53.57 54.71 57.12
52.41 52.57 52.53 52.77 52.66 53.14 53.13 53.28 54.99 54.72 54.29 54.65 56.13 56.39 51.88 56.00 51.75 56.14 56.87 53.20 53.75 54.03 54.32 53.75 52.03 49.72 50.06 46.18 44.92 46.16 42.07 43.88 45.50 48.30 47.61 47.64 45.06 49.64 52.12 51.52 51.14 52.50 52.72 53.63 55.15
52.55 52.68 52.43 52.43 52.81 52.84 53.09 54.18 54.61 54.43 55.94 57.81 58.37 52.39 54.47 50.86 53.42 54.61 56.18 54.49 51.41 51.34 50.40 50.13 49.38 47.15 47.08 45.24 39.88 43.03 43.50 44.41 44.05 47.32 47.55 46.31 46.35 49.26 51.24 50.99 50.92 51.69 52.39 52.88 53.92
52.18 52.57 52.55 52.43 52.86 52.92 53.65 57.71 55.50 55.10 56.10 53.18 51.76 52.08 51.90 54.36 55.86 53.97 54.86 52.48 51.84 49.85 46.05 49.30 45.14 43.17 45.26 47.28 46.47 45.64 44.22 44.04 45.74 47.74 45.27 45.90 46.52 48.30 50.43 50.86 50.46 51.26 52.07 52.61 53.52
51.82 52.22 52.57 52.94 53.13 53.09 54.75 54.49 53.10 54.59 49.52 53.69 51.77 51.80 53.20 54.14 49.59 52.01 54.29 49.01 48.64 45.08 48.03 45.98 42.80 46.15 47.11 46.26 45.00 44.41 42.63 42.79 45.44 47.01 46.03 45.74 45.40 48.31 49.72 50.14 51.04 51.36 51.85 52.23 52.94
51.67 51.92 52.49 53.13 53.34 54.19 56.90 54.49 57.71 57.06 50.23 50.19 50.96 50.32 51.03 53.19 49.64 50.49 52.33 50.18 46.98 45.38 45.70 43.34 45.41 46.94 44.42 44.11 42.77 43.18 42.23 42.86 42.89 45.54 46.27 44.72 43.05 45.49 48.40 50.08 50.60 51.34 52.30 52.78 53.27
51.76 52.11 52.83 53.06 50.07 59.03 56.33 57.73 57.78 57.70 46.00 47.25 47.92 50.38 51.29 51.90 48.24 52.88 53.51 50.60 47.55 44.40 45.68 45.04 46.93 43.70 43.56 42.77 44.17 40.94 45.69 44.29 42.61 41.28 38.20 44.97 37.06 44.66 46.56 46.76 48.33 49.65 51.03 51.92 52.79
51.41 51.65 52.46 51.65 58.64 56.25 56.65 58.56 58.24 56.56 37.94 47.16 47.97 53.95 51.72 49.37 49.15 49.57 53.00 50.56 45.53 45.83 45.71 43.44 44.48 43.03 41.71 43.44 45.06 42.17 44.78 43.52 43.18 41.71 41.28 41.51 39.19 42.78 46.78 45.03 46.66 49.03 50.56 51.89 53.34
50.99 51.42 52.03 57.34 59.12 57.44 58.37 57.84 57.38 45.78 36.88 44.70 47.50 46.39 47.09 48.06 48.03 49.61 49.17 51.31 50.60 46.55 46.92 45.94 48.73 46.48 44.85 45.34 45.89 46.07 43.75 43.62 43.59 42.05 36.09 40.78 40.15 40.89 43.69 45.11 47.11 48.64 49.45 50.51 52.50
50.53 50.54 52.25 57.89 55.31 59.20 58.35 55.44 45.24 39.70 46.98 43.36 44.22 46.25 46.04 45.64 46.68 47.84 46.84 46.45 43.80 40.49 41.03 44.57 44.89 47.25 47.11 42.55 44.62 44.49 41.71 35.57 34.76 35.44 35.12 42.54 40.24 42.43 46.19 46.94 47.59 47.68 48.92 50.44 53.31
49.65 49.19 54.95 57.87 59.68 59.48 56.72 49.88 39.41 43.89 43.71 46.85 45.49 45.98 43.52 46.02 46.43 46.36 45.51 43.85 46.81 45.03 42.23 39.20 37.42 44.69 47.99 44.37 41.81 41.81 41.09 35.07 28.80 31.59 34.31 41.93 36.82 41.91 47.69 49.21 48.50 49.20 50.18 51.10 52.58
48.21 57.78 58.84 60.37 59.19 58.43 51.91 43.49 43.55 45.18 45.05 43.82 44.98 42.57 43.53 45.38 44.13 44.64 43.98 43.50 45.04 45.40 39.83 39.02 38.69 45.49 46.83 46.99 45.68 41.46 38.20 43.38 36.86 39.32 36.01 39.16 42.26 46.47 47.71 47.11 48.20 48.79 49.55 49.80 52.00
53.59 56.47 57.16 59.21 59.86 56.01 49.46 42.99 45.97 47.13 46.42 45.49 40.61 43.73 40.85 43.12 42.87 43.08 42.50 44.92 44.03 46.32 47.55 42.95 36.43 44.07 45.18 46.18 46.20 43.97 44.97 36.99 38.45 29.16 28.45 35.54 37.58 38.08 44.21 45.84 47.62 47.88 48.78 50.12 51.87
55.03 52.16 57.28 60.04 58.46 51.98 45.10 46.44 46.60 48.14 47.25 43.31 42.50 42.23 42.91 42.18 43.06 41.83 41.58 44.13 45.73 44.92 46.45 44.17 41.04 40.45 43.59 41.59 40.56 40.87 40.27 40.26 40.51 38.13 30.93 30.73 35.82 45.10 45.26 46.88 47.03 48.00 49.29 50.71 51.79
53.82 47.17 57.95 57.41 47.72 50.22 45.09 45.60 42.72 44.72 46.64 45.25 45.89 44.55 43.13 43.60 42.20 41.09 40.86 42.37 46.31 46.31 41.18 44.57 41.44 36.49 38.75 44.90 46.55 44.74 41.74 41.81 34.40 33.68 37.00 35.46 35.66 46.73 48.09 48.45 48.46 48.78 50.55 51.81 52.51
49.41 49.84 56.33 53.15 44.85 44.82 45.95 44.40 44.91 43.86 44.52 44.38 43.91 45.49 45.91 42.84 38.90 41.56 42.01 45.75 46.06 44.56 42.13 43.82 38.08 32.94 35.70 41.38 43.48 40.51 41.01 42.46 40.88 39.76 35.67 32.56 36.21 47.65 48.08 48.61 49.34 49.48 50.71 51.57 52.23
48.91 46.02 50.47 52.35 49.25 44.05 43.24 43.06 41.92 45.37 44.05 44.63 44.03 45.29 43.63 41.98 43.59 39.59 41.73 43.40 45.56 44.42 43.86 44.49 39.91 36.15 31.49 34.50 37.38 36.43 39.27 41.94 40.85 35.80 36.15 37.28 39.13 44.02 46.13 46.95 48.90 49.94 51.22 51.63 51.95
51.18 47.17 46.75 42.87 44.51 44.07 44.36 43.09 41.18 40.62 44.27 44.82 42.82 42.84 41.30 38.23 39.85 39.14 41.57 42.84 44.07 46.19 44.31 43.01 36.26 38.48 39.77 40.71 40.64 39.29 39.14 39.84 39.05 39.92 35.68 39.39 40.14 42.98 45.75 47.15 48.67 50.68 51.14 51.00 50.98
45.95 45.07 47.19 44.97 45.62 43.51 41.06 42.43 40.14 40.92 41.07 40.12 40.14 41.76 42.57 39.53 40.10 38.32 40.92 41.53 40.86 43.42 42.65 43.85 36.96 38.60 37.07 40.49 39.80 37.68 39.63 40.39 40.55 41.05 41.07 41.49 41.22 47.07 48.84 49.07 49.11 48.67 50.28 49.75 49.94
49.19 50.40 46.79 44.79 44.53 42.15 42.10 41.50 39.97 41.03 42.05 42.35 42.21 41.97 40.79 42.19 44.55 45.07 45.60 45.22 44.17 41.14 40.50 39.71 39.31 35.72 32.93 38.56 38.66 34.97 39.70 40.96 41.84 42.22 40.96 38.64 44.20 47.07 46.51 47.62 48.66 49.21 49.32 49.19 49.97

GFSSW_sfc_wetblb_066.txt.gz
Wetbulb
55.59 55.76 55.84 55.92 55.74 55.85 56.03 55.21 54.89 55.20 55.21 55.31 55.88 55.69 55.75 56.06 56.06 54.89 52.48 58.88 59.59 60.93 58.19 52.81 54.41 55.03 55.02 53.08 55.10 55.40 48.58 47.28 48.45 49.57 52.03 56.27 55.14 57.26 57.89 56.73 58.29 59.39 59.32 60.50 62.08
55.01 55.24 54.90 55.12 55.41 55.24 55.01 54.47 54.50 55.18 55.05 55.25 55.64 55.37 55.53 55.39 53.69 52.19 61.84 62.84 61.87 60.70 52.23 51.92 50.07 52.29 50.52 51.43 52.40 51.31 48.19 47.80 51.58 52.97 52.82 55.03 55.51 56.50 55.48 55.52 56.03 58.07 60.88 61.37 61.58
54.76 54.21 53.92 53.74 53.57 53.48 53.91 54.11 54.64 54.66 55.21 55.12 55.12 55.05 54.92 54.96 52.97 55.67 63.36 63.45 61.86 59.60 56.39 54.90 52.98 52.03 48.94 50.84 51.11 50.81 48.14 50.88 51.62 53.50 54.48 53.91 54.72 57.08 55.53 53.79 55.95 56.32 59.26 60.77 61.16
54.61 54.59 54.41 54.07 53.55 53.37 53.55 53.85 54.37 54.82 54.80 54.73 54.38 54.59 54.83 54.08 48.20 55.99 63.39 62.97 61.90 59.68 59.38 54.16 50.55 47.97 48.04 47.91 51.02 47.83 50.72 51.33 51.99 52.71 52.62 52.92 55.15 54.43 55.82 56.69 58.90 59.11 59.61 59.97 59.93
53.37 53.90 53.69 53.62 53.18 53.18 53.28 53.56 53.97 54.20 54.23 54.13 54.06 54.28 54.56 52.78 52.31 58.43 63.79 61.36 58.74 58.41 55.60 53.97 51.31 49.65 46.65 48.61 49.64 48.60 49.92 51.44 52.49 52.42 52.32 53.13 52.71 53.08 54.12 58.50 59.82 59.82 58.94 58.81 60.48
52.83 52.82 52.76 53.10 53.33 53.25 53.27 53.53 53.89 54.20 53.74 53.91 53.83 54.36 53.05 48.54 60.08 58.83 57.15 57.24 57.57 55.84 54.47 53.85 52.22 52.36 49.34 48.79 48.10 49.58 49.42 50.13 51.26 51.24 52.20 50.56 50.88 52.44 53.90 57.45 56.90 56.98 57.26 57.92 58.75
52.97 52.84 53.04 53.25 53.36 53.16 53.16 53.17 53.47 53.85 54.36 54.06 54.37 55.13 52.74 52.02 54.46 60.06 57.76 57.15 57.14 55.51 52.77 54.00 53.73 51.19 50.67 47.94 50.58 49.54 46.45 48.15 48.77 49.37 49.34 51.11 47.57 48.56 53.43 55.51 54.59 54.78 55.84 56.20 57.62
52.74 53.10 53.16 53.39 53.38 53.30 53.61 54.17 53.82 54.25 54.82 54.60 54.38 55.26 50.54 57.17 57.47 55.91 58.53 56.88 57.38 55.83 54.28 54.41 54.10 50.95 49.45 50.76 48.92 46.49 46.80 42.41 47.26 48.76 49.17 49.14 43.87 49.59 52.38 52.20 51.75 52.76 54.00 54.44 55.62
52.90 53.08 53.14 53.45 53.21 53.52 53.99 54.04 54.74 56.28 55.60 54.74 54.11 54.20 51.78 57.25 51.42 54.28 56.37 54.52 55.26 54.96 54.76 54.40 52.46 48.50 48.87 45.15 43.47 45.13 40.76 42.49 44.17 48.63 48.08 47.29 44.48 48.95 51.59 51.73 51.46 52.95 53.37 53.62 54.82
52.81 52.56 52.87 53.31 53.43 53.64 53.88 53.61 55.16 54.31 54.49 55.94 57.02 53.00 54.95 52.20 52.29 53.42 56.47 55.53 52.35 51.47 50.48 50.03 48.88 45.62 45.78 43.61 37.91 41.21 41.70 43.65 43.53 47.40 47.28 45.78 45.47 48.38 50.26 50.83 50.88 51.85 52.33 53.04 53.98
52.42 52.60 52.29 53.49 53.45 53.86 53.21 56.37 53.81 53.83 56.69 53.69 53.56 52.65 53.39 55.15 55.77 53.70 54.95 52.99 51.88 49.70 44.97 48.51 44.40 42.12 44.43 46.32 45.89 44.82 43.49 43.14 45.98 48.62 46.63 45.86 46.07 47.56 49.87 50.82 50.28 51.17 52.26 53.42 54.38
52.00 52.15 52.81 53.49 53.88 53.80 53.28 54.67 53.66 54.37 48.77 54.34 55.20 52.44 53.90 54.68 50.10 51.85 54.88 49.43 48.24 44.52 47.40 45.51 42.59 46.92 47.44 46.43 45.37 44.70 42.92 42.57 45.45 47.88 46.74 45.71 44.83 47.58 49.20 50.27 51.37 52.30 52.35 53.03 54.20
52.09 51.87 52.51 53.47 53.52 53.33 56.31 55.11 57.96 57.32 49.36 51.97 53.26 51.25 51.53 52.54 49.66 50.53 52.42 50.01 46.89 44.89 45.40 43.28 45.49 47.99 46.17 44.86 43.14 43.15 41.82 41.93 41.88 45.27 46.63 45.12 42.97 45.10 48.09 50.04 51.47 52.17 53.43 53.64 54.38
51.58 51.77 52.41 52.51 51.39 58.32 56.42 58.63 57.78 58.65 44.84 48.92 48.39 50.51 51.40 51.96 48.53 53.62 54.06 50.74 48.11 44.41 45.35 44.72 47.35 45.91 44.37 42.81 43.65 40.02 44.86 44.17 43.35 41.64 37.75 45.17 36.19 43.77 47.08 47.76 49.44 50.75 51.92 52.38 53.64
51.33 51.62 52.10 51.90 54.94 55.89 57.09 58.29 57.67 56.66 36.90 48.87 48.99 54.35 52.01 49.11 50.39 50.07 53.74 50.56 45.50 45.47 46.15 43.44 44.54 44.35 42.78 42.95 45.06 41.68 45.82 44.05 43.29 41.23 40.47 40.52 37.72 41.14 45.94 44.93 46.73 49.05 50.12 51.58 53.00
51.18 51.32 51.29 56.25 56.57 59.59 58.69 57.89 56.95 45.36 37.16 45.84 48.32 46.70 46.82 48.37 48.61 50.19 49.75 51.47 50.12 46.11 46.72 45.47 48.54 47.02 45.58 46.43 45.93 46.38 43.30 43.09 42.79 40.49 33.86 38.83 38.58 39.31 42.56 45.57 47.23 48.74 49.89 51.19 52.36
50.56 50.49 50.03 56.40 54.19 59.21 58.58 54.45 44.35 39.78 48.99 44.82 44.91 46.95 46.32 45.49 46.69 47.90 46.71 45.71 43.38 40.20 40.36 44.77 44.89 47.64 48.00 43.98 46.00 44.18 40.35 32.13 30.67 32.89 32.73 41.36 39.17 41.88 46.41 48.04 48.37 48.25 49.00 50.66 52.36
49.34 49.13 52.98 57.18 58.63 59.28 56.22 48.89 38.47 45.20 46.26 49.09 46.56 45.85 43.46 45.93 45.88 46.32 45.53 43.38 46.54 44.58 40.38 36.51 36.00 44.19 47.11 45.11 41.17 42.17 40.83 33.84 26.40 28.98 32.49 39.61 36.25 41.48 47.99 49.08 49.53 49.83 50.28 50.79 51.81
48.37 57.19 56.70 59.57 60.14 57.98 51.40 42.08 42.77 46.20 47.98 45.22 44.80 41.76 42.93 45.60 45.52 45.06 44.58 43.68 45.56 46.35 39.32 38.80 38.37 43.98 45.94 47.82 45.19 41.27 38.47 43.68 36.66 36.63 33.30 36.23 40.92 46.54 47.60 47.76 48.14 48.46 49.56 50.07 51.32
49.02 55.14 56.41 60.87 59.71 55.60 47.90 42.55 46.39 49.78 48.09 46.42 40.33 42.63 39.95 42.69 42.56 43.03 42.75 45.94 43.99 46.84 46.84 42.51 36.65 43.18 45.29 46.82 46.04 43.94 45.20 36.77 38.42 28.72 27.04 33.89 36.12 37.10 43.58 45.47 47.29 47.76 48.57 49.81 51.72
52.27 52.41 58.03 60.19 57.71 50.54 43.46 45.88 48.04 49.57 47.28 43.34 41.77 40.83 41.64 41.52 42.84 41.94 41.84 44.86 46.22 45.53 46.81 41.98 40.74 39.92 43.83 40.50 37.70 40.45 39.57 40.59 40.27 37.34 29.23 28.69 34.11 44.28 44.25 46.35 46.71 47.96 49.63 50.26 51.17
51.57 47.75 58.24 56.53 45.13 48.38 46.88 46.27 45.83 46.03 47.43 45.37 45.25 43.75 42.82 43.42 41.50 41.28 40.53 42.00 46.92 45.46 38.89 43.27 40.84 34.94 37.77 44.57 45.78 43.54 41.55 40.04 33.66 32.62 36.71 35.54 35.44 46.82 47.28 46.73 48.22 48.62 49.66 50.53 52.05
47.89 50.21 57.69 54.86 43.84 44.49 46.35 45.15 46.18 45.04 45.06 44.72 43.41 44.84 45.22 42.09 38.51 41.35 42.60 46.29 45.92 44.61 42.44 44.04 38.83 32.10 33.14 40.10 42.66 38.86 40.08 42.48 41.43 41.20 34.86 30.36 34.30 47.35 47.80 46.89 48.51 47.67 49.26 51.40 52.45
49.37 45.57 51.05 51.23 50.22 46.08 43.55 42.42 42.94 46.87 44.98 45.22 44.19 44.48 43.25 41.62 43.23 40.15 41.22 44.47 46.03 45.56 45.40 43.89 39.28 35.43 30.21 34.18 37.41 33.39 36.71 39.53 39.90 35.35 34.93 35.98 37.99 43.18 44.12 44.13 46.76 46.83 48.13 50.99 51.93
50.61 47.51 48.63 42.79 44.95 45.76 45.19 43.64 41.58 42.38 45.24 45.37 42.15 42.57 41.39 38.07 39.94 39.46 41.98 42.94 44.78 46.62 44.75 43.38 35.77 38.07 38.37 39.59 39.82 37.97 38.32 39.56 38.43 39.27 35.48 37.87 38.57 42.04 44.92 45.53 46.57 46.24 47.61 50.32 51.15
46.13 44.68 46.82 45.21 47.33 45.07 44.20 43.01 42.41 42.52 41.74 39.85 39.71 41.55 42.02 39.64 40.24 37.97 40.72 41.28 40.68 44.18 42.61 44.02 36.61 38.74 36.20 39.79 40.15 38.52 40.33 40.65 40.02 40.29 39.76 39.82 39.51 45.38 47.96 47.68 47.91 48.08 48.26 48.14 49.26
49.38 48.98 45.85 43.01 44.16 44.25 43.56 42.17 41.00 41.79 42.24 43.66 42.06 40.89 40.73 42.87 44.60 45.18 45.28 44.76 43.98 41.97 40.94 40.10 38.51 35.80 32.14 38.53 37.98 34.21 38.64 40.70 41.43 42.01 40.67 36.71 41.03 45.62 44.60 45.06 46.67 47.36 48.03 47.39 49.11

GFSSW_sfc_wetblb_072.txt.gz
Wetbulb
54.50 54.63 54.22 54.62 54.34 54.14 54.25 53.97 54.18 54.43 54.56 54.90 55.27 55.48 55.29 55.54 54.73 50.10 46.01 50.21 53.59 59.58 61.29 53.60 50.80 49.03 48.20 45.63 48.03 46.82 39.63 38.47 41.32 42.90 45.54 50.93 49.45 51.91 54.01 51.71 54.96 56.45 55.88 57.24 57.82
54.09 54.00 53.94 53.84 54.14 53.87 53.77 53.61 53.75 53.94 54.23 54.61 55.07 54.90 55.12 54.94 49.81 47.10 52.69 59.36 62.04 64.00 53.36 49.44 45.17 45.19 42.79 44.57 45.22 42.16 36.28 39.93 45.39 46.32 45.77 48.62 49.44 49.13 50.13 50.75 51.75 54.36 58.03 58.49 57.63
53.39 53.56 53.48 53.73 53.67 53.52 53.29 53.44 53.89 54.00 54.21 54.32 54.60 54.80 54.78 53.85 46.55 50.04 62.56 60.71 64.01 63.09 50.45 49.52 49.43 47.96 40.12 41.95 42.96 41.80 40.39 43.57 45.32 46.99 48.33 48.66 49.17 50.90 48.87 48.00 50.59 52.23 54.67 56.41 56.42
53.20 53.50 53.84 53.54 53.86 53.60 53.47 53.64 53.88 54.05 54.24 54.11 54.14 54.34 54.53 50.57 41.10 51.99 65.02 61.87 63.95 54.76 50.77 51.41 49.42 41.15 38.27 38.63 42.45 38.97 43.64 45.57 46.44 48.04 47.95 47.09 49.87 48.91 48.66 49.28 53.94 55.38 56.26 56.04 55.05
52.83 53.50 53.68 53.65 53.65 53.73 53.50 53.52 53.59 53.39 53.30 53.43 53.73 54.50 50.78 44.63 47.02 56.85 64.76 63.58 58.34 54.79 53.56 51.76 48.15 42.09 35.82 38.83 40.47 39.05 42.35 44.89 46.99 47.52 47.65 48.78 47.58 47.86 48.38 51.39 54.84 56.19 56.54 55.20 53.65
53.04 53.04 53.26 53.40 53.26 53.49 53.36 53.24 52.99 53.00 53.25 53.28 53.81 54.42 48.00 37.48 50.96 60.42 58.95 57.61 54.24 51.60 49.64 50.43 47.71 46.23 42.24 40.28 39.33 42.76 42.97 43.37 44.45 44.71 45.16 45.54 46.54 45.91 48.70 51.69 54.26 55.88 56.11 55.79 55.11
53.20 52.93 53.04 53.26 53.19 53.46 53.54 53.86 54.00 54.29 53.74 53.42 53.97 52.68 47.31 43.00 54.55 57.70 55.08 51.73 52.53 52.64 51.14 51.96 48.74 45.58 43.08 41.41 42.80 43.63 39.96 41.91 42.29 42.16 42.71 44.67 42.03 43.93 47.61 49.90 49.47 51.60 53.29 55.65 55.11
53.32 53.05 52.79 52.97 53.26 53.43 53.92 54.79 54.51 54.57 54.51 53.50 54.49 50.33 42.74 53.36 52.27 51.80 52.74 51.48 52.64 52.93 52.43 51.61 49.02 44.62 41.52 42.55 42.64 39.19 38.12 32.89 39.16 42.91 44.27 42.70 38.67 44.92 46.39 46.52 47.28 48.45 51.58 53.09 53.81
53.14 53.15 52.84 52.99 53.42 53.84 54.39 54.57 54.63 55.59 55.90 55.07 48.32 46.78 44.28 57.78 53.78 54.00 53.37 52.28 53.09 53.13 52.16 53.28 47.54 43.04 42.33 37.19 33.73 34.67 31.00 33.84 37.51 42.20 42.11 40.79 39.80 44.56 46.25 46.22 45.87 46.60 47.36 48.85 49.81
53.05 52.87 52.45 52.95 53.26 53.92 54.21 54.43 53.92 53.65 54.55 53.80 52.15 44.91 49.78 51.48 51.20 51.97 51.44 53.04 50.58 50.22 48.14 45.95 41.75 38.16 36.09 33.58 27.32 31.35 32.03 35.30 35.95 41.70 40.92 40.22 40.09 44.42 46.53 45.35 45.46 44.51 46.80 48.14 48.17
52.25 52.57 52.60 52.68 53.11 53.56 51.18 48.42 46.68 47.09 48.66 46.45 48.73 47.75 51.72 55.15 52.09 49.00 50.90 50.71 49.80 46.22 39.10 42.28 36.02 33.25 36.95 38.76 39.88 38.41 36.89 36.06 39.75 43.11 40.22 39.53 39.87 41.93 45.23 44.00 43.14 43.32 45.68 46.42 47.87
51.97 51.70 52.24 52.66 52.52 52.51 48.60 46.55 50.09 47.25 41.97 50.85 52.23 50.94 54.45 55.22 50.07 49.79 53.05 46.32 44.53 39.45 41.52 38.09 34.37 40.86 42.79 42.39 41.04 39.82 37.27 36.60 39.50 42.71 40.52 39.37 39.13 41.43 43.65 43.47 43.68 44.92 44.61 44.85 44.73
51.90 51.90 52.12 52.54 52.07 49.72 47.60 51.13 55.47 51.58 42.20 47.52 51.24 51.32 52.14 53.13 49.81 48.00 50.16 47.25 43.13 40.00 39.78 36.19 39.84 44.43 43.11 41.21 40.09 39.64 37.79 36.29 36.80 40.90 40.92 38.41 36.52 38.53 43.17 44.37 45.00 45.36 45.98 46.23 46.14
51.73 51.63 51.81 51.67 48.76 48.59 47.90 53.55 51.66 50.85 36.84 43.64 47.35 49.99 50.85 48.94 45.66 51.02 51.56 47.38 43.17 40.17 40.47 38.55 42.79 42.45 41.30 39.78 40.81 35.14 41.04 40.79 40.06 35.78 29.79 40.19 28.12 35.75 40.09 41.57 43.03 44.19 43.39 44.61 46.51
51.35 51.47 51.52 50.53 44.31 45.72 52.07 52.45 52.13 49.70 28.58 48.81 46.85 50.94 48.38 45.29 47.21 48.09 51.60 47.10 42.34 41.72 40.48 38.83 40.29 39.54 38.88 40.50 44.00 38.85 42.87 40.59 39.25 33.91 30.65 34.40 29.54 34.27 38.29 38.71 40.28 42.94 43.77 44.61 46.04
50.82 51.34 51.23 48.78 46.10 49.25 52.13 51.24 48.43 38.60 31.33 45.18 46.60 44.70 43.22 44.98 46.05 47.85 47.72 48.54 47.45 42.59 41.25 40.54 44.55 42.48 42.07 45.29 45.06 45.11 40.36 37.04 35.13 31.32 25.05 33.13 30.88 32.42 35.11 37.46 39.79 43.37 46.20 46.43 45.79
50.62 50.73 49.21 49.00 45.44 49.63 50.07 46.93 35.55 31.70 47.31 43.64 42.76 44.70 41.84 41.39 42.67 43.98 43.25 40.71 38.86 32.66 32.78 40.28 40.99 44.29 46.64 41.88 43.61 42.32 36.82 27.76 23.05 22.85 25.46 34.33 32.39 35.06 39.64 43.50 44.16 44.95 45.18 45.44 46.39
49.82 49.46 49.32 48.91 46.94 50.06 47.98 40.89 29.27 40.41 42.17 46.39 43.89 43.23 40.22 41.62 40.97 42.64 40.70 37.61 42.03 40.29 35.46 33.93 30.85 41.03 45.16 42.90 39.55 37.61 35.11 26.96 23.65 20.53 26.69 35.42 29.22 33.47 42.99 45.75 46.48 47.36 44.42 45.45 46.95
48.65 45.63 48.27 50.95 49.52 50.23 43.20 33.36 34.46 41.36 45.29 42.03 41.86 38.30 38.00 40.84 40.30 40.12 38.80 39.58 41.53 41.24 35.33 35.02 34.99 43.39 44.74 45.11 43.54 38.39 32.79 37.00 32.27 33.27 29.35 30.26 34.18 39.78 43.26 43.99 46.07 46.63 46.18 43.39 45.29
43.56 45.49 48.42 54.36 53.00 47.66 39.31 36.54 39.61 46.81 45.14 42.95 36.69 39.29 34.66 37.53 37.84 38.59 38.09 43.20 42.07 43.35 41.41 37.85 30.98 40.29 43.19 44.31 43.85 41.27 41.84 29.56 34.18 25.90 24.35 27.85 29.92 30.78 38.05 41.15 44.21 44.99 44.96 45.78 46.51
43.47 42.97 52.31 55.37 51.17 43.27 35.23 38.28 43.25 46.52 45.17 41.88 38.70 37.00 37.59 36.76 36.96 36.19 37.56 40.78 43.91 41.96 41.73 37.51 33.91 34.19 37.96 37.71 35.95 37.02 34.96 34.63 34.16 33.74 27.25 23.98 26.05 37.94 39.08 41.31 43.49 45.10 46.95 44.97 46.12
40.18 36.73 51.23 52.03 40.73 39.79 36.89 43.12 43.72 44.04 45.36 43.50 42.25 40.25 38.41 38.19 36.79 36.65 36.61 39.69 45.20 43.31 36.86 37.76 33.15 28.00 31.88 38.86 43.18 39.57 36.25 35.83 29.28 28.24 31.92 29.52 27.28 40.94 39.73 41.70 44.21 44.90 47.36 47.36 46.50
37.65 39.30 51.11 49.61 36.04 36.66 40.77 42.91 44.27 43.14 43.01 42.22 41.58 41.82 40.36 36.42 31.60 38.30 39.00 43.73 44.10 41.41 38.06 37.97 29.27 23.37 26.78 32.86 37.80 35.11 37.03 36.64 34.69 33.94 28.75 27.16 27.70 41.53 42.93 43.59 43.83 44.71 46.93 47.71 48.25
37.49 38.85 43.23 44.22 43.24 39.52 38.52 40.39 40.97 46.22 42.21 42.50 40.74 41.48 37.95 36.45 36.91 34.99 37.46 42.99 44.83 43.39 46.90 40.87 30.01 27.75 23.96 28.38 31.47 31.14 35.78 37.36 34.16 28.22 31.20 31.44 33.57 38.74 39.81 40.48 42.12 43.82 45.45 46.57 47.97
40.29 37.68 39.45 35.47 37.65 38.63 40.00 40.32 38.68 37.64 41.82 40.94 38.42 39.67 36.88 32.23 34.51 33.88 37.35 38.71 41.73 46.00 40.09 36.08 29.36 32.42 34.02 36.26 36.47 35.03 35.33 36.84 34.44 34.35 29.72 32.42 34.50 36.22 38.54 39.81 41.01 43.13 45.06 46.24 46.36
37.11 35.24 38.36 36.88 39.64 39.90 39.35 39.27 38.64 39.12 38.18 37.85 36.70 38.90 37.59 32.48 34.74 32.71 34.78 34.34 34.22 36.78 34.29 35.27 28.92 32.57 31.47 35.41 36.28 33.28 36.19 37.14 37.00 37.20 36.65 35.99 33.52 39.59 40.79 42.09 42.36 42.50 43.93 44.21 45.57
41.98 43.72 39.70 37.39 38.34 37.64 37.39 37.87 38.65 39.98 39.79 40.33 38.91 37.40 35.77 37.40 39.73 38.62 38.12 37.54 37.09 33.11 32.08 31.53 29.13 27.43 25.52 33.99 33.15 27.97 35.07 36.31 36.81 38.21 36.43 30.63 37.31 41.18 39.34 40.28 39.99 41.78 42.22 42.60 44.61

GFSSW_sfc_wetblb_075.txt.gz
Wetbulb
54.04 53.95 53.78 53.92 53.96 54.24 53.73 53.69 53.41 53.81 54.45 54.21 54.81 54.83 54.82 54.83 54.46 48.57 43.27 47.96 51.04 57.88 59.10 52.63 51.11 49.54 46.28 43.15 45.55 46.83 38.54 35.29 39.52 41.33 44.69 48.34 46.22 49.84 52.93 50.80 52.52 54.30 54.66 56.19 56.55
53.41 53.68 53.91 54.15 54.17 54.07 53.77 53.25 53.39 53.61 53.64 54.45 54.26 54.36 54.16 54.52 49.00 46.00 51.65 56.16 58.57 60.97 53.05 49.92 46.59 44.90 41.56 42.43 43.54 41.95 35.94 38.71 44.15 45.79 44.48 46.78 46.32 46.56 47.64 48.60 49.00 50.50 56.10 56.88 56.32
53.31 53.64 53.89 54.17 54.16 54.05 53.79 53.72 53.56 53.50 53.60 53.96 54.00 53.68 53.75 53.32 45.30 49.08 60.51 58.51 60.14 60.43 52.59 48.97 46.75 47.14 39.61 41.03 42.17 40.90 38.56 41.49 43.45 45.70 46.87 46.50 47.19 48.77 46.52 45.45 47.43 49.30 52.79 55.54 54.49
53.10 53.35 53.89 53.92 53.86 53.92 53.55 53.60 53.52 53.64 53.43 53.15 53.25 53.10 54.30 50.29 40.24 50.54 64.81 60.61 61.75 58.63 48.59 47.10 47.15 41.31 36.10 37.65 41.09 38.33 42.55 43.47 44.17 45.53 45.89 44.76 47.68 47.26 47.45 48.42 50.18 51.05 53.38 55.59 54.17
53.44 53.28 53.17 53.44 53.24 53.28 53.55 53.33 53.06 52.91 52.70 52.65 52.65 53.58 49.32 42.43 44.95 53.05 63.34 61.17 58.78 50.76 49.36 49.66 46.06 41.61 35.72 37.32 38.89 38.59 41.06 43.08 44.43 44.20 44.16 45.99 45.15 45.50 46.71 49.81 51.22 51.71 52.63 54.70 53.78
53.18 53.29 52.93 53.11 53.31 53.07 53.13 53.15 52.92 52.78 52.95 52.69 52.73 53.77 46.49 35.60 45.53 58.26 58.40 56.92 52.39 50.05 49.47 50.09 47.65 45.93 41.29 38.84 37.68 40.77 41.56 41.96 42.58 42.86 42.58 43.27 45.03 44.43 46.81 49.24 49.81 50.75 53.85 53.69 53.63
53.10 52.99 52.89 53.10 53.02 53.10 53.13 53.63 54.22 54.14 53.58 52.95 53.10 52.22 45.93 39.23 51.34 57.93 55.23 51.14 50.74 51.84 49.81 50.90 49.75 43.96 41.91 39.35 41.38 41.77 38.24 40.24 40.57 40.81 41.05 42.70 40.75 42.53 46.15 48.43 48.18 48.65 50.29 53.70 53.96
53.10 52.61 52.86 53.07 53.59 53.60 53.94 54.53 54.59 54.36 54.37 53.49 54.25 49.30 40.66 50.00 50.90 52.20 51.53 51.15 51.37 51.02 50.86 51.51 48.52 43.59 40.51 41.63 40.89 37.36 36.33 31.58 36.87 40.65 42.44 41.79 37.09 43.49 45.48 46.06 46.38 47.34 47.92 49.38 50.98
53.36 53.05 52.64 53.01 53.42 53.96 54.20 54.28 54.67 55.31 55.81 54.57 47.31 45.08 43.63 55.83 52.86 52.91 52.29 50.63 51.50 51.09 51.01 53.48 46.16 41.56 40.80 35.45 32.60 32.95 29.07 31.26 35.27 40.12 40.49 39.74 37.69 42.99 45.05 44.22 43.66 44.73 46.53 48.51 49.68
53.42 52.84 52.53 52.59 53.15 53.42 53.51 53.98 54.35 53.76 54.62 53.44 51.57 43.24 47.96 49.64 52.95 52.41 51.83 52.33 50.50 48.85 46.63 45.08 40.23 36.50 34.19 32.99 26.75 29.87 30.16 33.62 33.33 38.64 38.85 38.03 38.64 41.89 43.65 43.47 43.53 44.62 44.90 46.31 47.35
53.69 52.90 52.74 52.41 52.70 52.79 50.08 47.48 45.29 44.28 47.60 45.56 46.46 46.14 49.15 53.44 53.73 48.96 50.38 49.71 47.89 44.79 38.42 40.18 35.50 32.21 35.53 36.76 38.10 36.32 34.54 33.89 37.86 41.60 37.81 38.59 39.07 40.54 42.23 42.18 42.37 42.63 42.38 44.92 46.49
53.40 52.93 52.68 52.57 52.20 52.38 48.23 44.65 48.57 46.67 42.66 48.77 50.13 48.60 51.69 53.26 49.63 52.12 49.91 43.88 43.37 38.63 40.01 36.75 33.18 38.96 40.60 39.96 38.46 37.18 34.81 34.79 38.59 41.16 38.09 37.79 37.26 40.72 40.97 41.79 42.45 42.32 42.19 43.97 44.02
52.99 52.53 52.49 52.66 51.86 48.67 46.55 49.20 52.30 49.48 41.20 45.58 49.81 49.33 49.85 51.24 48.16 49.52 48.35 45.49 41.83 38.70 38.19 34.88 38.46 42.56 41.20 39.09 37.82 36.65 34.58 35.50 35.74 39.50 39.58 36.81 34.98 37.28 40.80 42.49 44.00 44.07 43.16 43.84 44.69
52.71 52.28 52.12 52.06 47.15 46.90 46.85 51.84 50.83 48.94 36.18 42.81 45.43 49.13 50.56 50.13 45.18 52.83 50.46 46.61 41.85 39.14 38.58 37.31 41.90 40.73 39.18 37.77 38.94 33.59 40.13 39.64 37.92 34.72 29.19 37.36 28.53 35.54 37.76 39.44 41.13 42.22 41.98 43.18 44.22
52.33 52.32 51.86 51.47 42.15 44.48 50.28 49.80 49.13 48.61 27.34 47.10 45.72 51.47 47.96 44.85 45.48 46.78 49.93 45.76 40.74 40.41 39.06 37.40 38.68 38.38 37.38 38.64 42.65 38.33 42.58 38.62 37.47 33.72 29.37 31.85 27.08 32.21 36.46 36.88 39.32 41.10 42.70 42.75 42.95
51.99 51.89 51.38 48.26 45.71 47.22 50.63 49.23 48.31 38.07 30.38 43.94 45.18 43.10 41.93 43.55 44.39 46.27 46.22 47.09 46.12 40.88 39.49 39.46 43.93 41.21 39.68 43.78 43.83 44.16 39.55 36.45 32.96 29.84 23.90 31.40 29.51 31.29 35.63 36.51 38.83 42.27 45.02 45.65 46.18
51.76 50.82 49.63 48.69 44.35 47.77 49.04 46.50 35.56 30.95 45.58 41.78 41.57 43.74 40.59 39.83 41.35 42.95 41.48 38.62 36.10 31.39 31.33 38.35 39.38 42.90 44.97 39.52 42.09 40.22 35.41 25.42 23.79 22.71 26.02 32.96 29.67 33.65 37.46 40.82 42.22 43.07 44.14 44.33 45.26
50.46 49.43 49.12 48.99 45.36 49.27 48.17 41.11 30.06 39.13 40.30 44.89 42.50 41.18 38.29 39.29 38.90 40.99 39.15 36.19 41.05 38.33 33.75 31.68 30.61 39.29 44.25 41.31 36.90 36.49 35.22 27.30 24.16 23.55 25.40 33.22 27.36 32.75 40.68 43.91 44.27 44.40 42.83 43.31 42.99
48.89 43.49 45.26 49.37 49.28 48.56 43.91 32.96 32.76 40.12 43.36 40.86 40.58 36.73 35.93 38.97 38.72 38.83 36.54 37.54 39.83 39.23 33.01 32.45 33.46 42.20 43.63 43.98 41.35 36.48 32.36 39.56 31.21 30.98 27.01 28.01 32.97 39.21 42.24 41.78 43.57 43.53 44.15 43.13 43.33
42.92 41.84 44.96 51.53 50.51 46.84 39.83 35.86 39.50 45.96 43.52 42.41 36.32 38.43 33.41 35.58 35.59 35.42 35.07 41.24 40.30 42.00 39.81 36.12 29.74 38.75 41.60 42.68 42.18 37.89 40.20 31.83 32.77 24.24 22.37 26.48 28.07 30.17 36.87 39.68 41.97 42.11 40.70 42.93 44.01
39.79 38.55 47.07 51.94 49.98 43.38 34.63 37.18 42.43 46.05 44.07 41.19 39.18 37.60 37.84 36.20 36.49 36.13 37.06 39.98 43.25 41.06 40.25 36.61 32.67 32.53 35.90 34.45 33.28 33.20 34.69 36.85 35.15 32.58 22.76 20.34 26.52 38.35 39.31 40.63 40.89 41.94 43.53 42.90 44.32
37.60 35.59 46.47 48.78 39.97 38.67 36.94 41.26 43.85 44.26 45.11 42.56 42.59 40.82 38.13 37.69 36.11 36.00 35.97 38.91 44.15 42.43 36.45 37.06 32.39 27.54 30.85 36.61 39.52 38.47 35.13 36.16 29.06 27.87 31.98 29.16 26.54 41.36 41.54 41.81 40.94 41.77 44.47 46.13 45.08
36.16 35.82 46.48 46.31 32.47 34.15 40.63 41.47 44.35 42.86 42.75 41.62 39.53 41.32 39.82 35.67 32.27 37.12 38.63 42.53 43.33 40.98 37.68 37.48 28.65 23.25 25.69 30.06 34.66 33.26 36.37 36.22 34.51 33.27 28.34 23.85 26.75 41.70 42.88 42.21 40.97 40.87 43.19 45.88 47.59
36.59 36.00 38.48 40.09 38.65 36.22 35.99 38.76 39.52 44.31 41.45 41.22 39.61 40.45 37.85 36.26 36.60 34.23 36.67 41.52 42.80 42.51 46.42 40.26 28.66 27.02 22.55 27.49 29.66 29.57 33.40 35.04 34.33 29.12 28.02 30.77 32.24 37.53 39.21 39.97 41.17 40.90 42.50 43.86 45.18
38.28 34.34 35.21 30.62 35.55 34.83 38.15 39.18 38.54 38.47 41.58 40.74 38.33 38.88 36.61 32.64 34.80 33.95 36.58 37.78 41.58 43.69 38.91 34.02 28.39 29.73 31.30 33.79 34.55 33.42 33.68 34.29 31.80 33.43 29.36 32.52 32.67 36.72 38.95 39.33 40.42 41.07 42.12 43.54 44.88
36.08 35.37 36.72 34.27 35.39 35.97 38.23 37.58 37.77 39.48 38.72 36.67 35.39 37.51 37.56 32.88 34.16 32.97 34.63 33.94 33.93 36.21 33.36 33.24 28.47 31.12 30.32 34.58 33.95 32.25 34.81 36.15 36.81 37.00 35.99 35.56 34.41 39.08 40.60 40.26 39.91 40.10 41.23 41.59 42.50
37.49 38.67 38.47 37.06 36.95 37.13 37.43 37.96 37.81 39.56 39.62 40.82 39.27 36.91 35.86 36.99 39.26 38.92 38.35 37.20 36.62 34.24 31.29 30.51 28.55 26.55 25.04 32.19 31.28 27.53 34.08 35.37 36.08 37.67 36.40 30.10 34.24 37.99 38.01 39.11 38.79 39.08 41.01 41.54 42.51

GFSSW_sfc_wetblb_078.txt.gz
Wetbulb
53.63 53.91 54.41 54.59 54.49 54.39 54.49 53.63 53.51 53.43 53.71 53.92 54.06 54.56 54.66 53.84 53.71 47.31 42.61 46.14 50.11 58.07 58.08 50.88 50.26 48.59 45.36 42.55 45.00 45.69 37.23 35.04 38.30 40.92 43.37 47.11 45.09 47.21 51.00 49.61 50.44 51.47 50.97 53.65 56.50
53.75 53.71 54.10 54.49 54.59 54.44 54.57 53.66 53.35 53.27 53.49 53.41 53.55 53.97 53.70 53.31 48.43 44.41 51.05 55.29 58.68 59.89 51.23 47.30 45.36 44.20 41.05 41.42 42.31 41.02 35.00 38.83 42.85 44.41 43.95 44.84 44.53 44.58 45.89 46.77 47.93 49.22 52.66 55.34 57.72
53.70 53.62 53.81 53.88 54.08 54.03 53.65 53.49 53.32 53.32 53.57 53.55 53.31 53.26 53.44 52.37 43.41 48.22 58.75 57.42 58.55 58.47 51.80 48.63 45.83 43.37 37.62 40.09 40.88 38.68 36.51 40.42 42.94 45.59 45.98 44.29 43.93 47.42 45.05 44.07 46.17 47.50 50.11 52.99 54.53
53.76 53.79 53.47 53.50 53.70 53.50 53.35 53.34 53.32 53.21 53.16 53.04 52.38 52.71 53.65 49.41 38.38 47.64 64.03 61.03 59.89 57.41 48.38 45.19 45.58 40.10 36.38 37.52 40.66 37.60 41.59 42.92 43.09 44.82 45.11 44.46 46.16 45.54 46.22 46.24 49.10 49.61 50.26 50.83 52.30
53.65 53.78 53.55 53.05 53.16 53.19 53.02 53.19 53.05 52.84 52.63 52.46 52.31 52.68 47.45 38.75 41.56 53.00 62.50 60.37 56.76 49.41 45.33 47.79 43.84 39.58 34.76 36.68 38.15 37.01 39.91 41.70 43.27 41.97 41.51 43.82 42.96 43.96 45.08 47.92 49.24 49.63 50.37 49.61 51.83
53.48 53.26 53.38 53.46 53.23 53.06 52.92 52.97 52.95 52.72 52.49 52.45 52.08 52.96 44.34 32.27 43.67 56.62 57.14 54.63 52.14 48.81 47.12 48.65 46.08 45.12 39.86 38.18 37.20 39.70 39.58 40.54 41.45 41.94 41.87 41.54 42.84 41.87 44.16 47.70 47.95 48.10 47.94 48.67 51.54
54.46 53.45 53.00 53.31 53.52 53.68 53.30 53.16 53.02 53.70 53.47 52.88 52.24 51.73 43.66 37.32 49.58 55.08 55.02 50.00 50.35 50.77 48.69 49.97 49.08 43.25 40.41 37.91 39.94 40.09 36.69 39.22 39.66 40.65 41.36 42.23 40.19 40.84 44.71 45.87 45.89 46.93 47.70 49.43 53.05
54.80 54.08 53.02 53.06 53.47 53.78 54.21 54.31 54.35 53.94 53.55 53.13 53.13 48.05 39.42 46.58 50.04 53.09 51.19 49.20 49.55 50.26 49.14 49.45 47.26 41.68 38.64 39.98 39.66 35.64 34.55 30.74 36.90 39.42 42.06 39.76 36.92 42.52 44.48 43.83 44.28 46.13 46.67 47.20 47.54
54.57 54.25 53.37 53.04 53.37 53.66 53.63 53.57 53.88 54.41 55.13 53.90 46.05 43.10 42.84 54.85 51.73 53.73 51.85 49.25 49.79 49.57 49.25 52.52 45.62 39.59 39.10 34.37 31.35 31.54 27.01 28.61 34.45 38.12 38.59 37.32 35.66 41.77 44.49 42.88 42.57 43.56 44.86 46.00 47.47
54.55 54.14 53.86 53.18 53.10 53.08 52.73 53.88 54.83 54.94 54.00 53.02 51.15 41.51 46.20 47.50 51.91 52.88 50.63 51.04 48.90 48.23 45.31 43.03 38.86 35.54 32.85 32.33 25.89 28.54 28.69 31.21 32.07 37.68 37.47 36.76 36.87 40.27 42.44 42.34 42.48 41.82 42.67 44.23 45.66
54.55 53.96 53.61 53.51 53.06 52.77 49.86 46.92 44.43 42.53 46.66 44.30 44.66 44.31 47.04 51.45 54.09 47.78 50.81 49.04 47.38 43.37 37.42 38.71 35.06 31.70 34.62 35.57 36.20 34.35 32.20 31.91 35.67 40.16 36.03 36.27 37.67 39.02 41.05 40.70 40.63 41.97 41.52 41.97 43.53
53.98 53.92 53.69 53.41 53.20 52.26 48.75 44.45 47.10 46.98 41.54 47.99 48.73 47.37 49.94 51.15 47.07 50.38 49.46 43.15 41.63 36.94 38.40 35.79 32.46 37.84 38.95 38.02 36.83 35.25 32.83 32.50 36.05 39.57 36.84 36.05 36.29 38.90 39.25 40.23 41.01 41.35 42.20 41.64 42.08
53.33 53.33 53.32 53.06 52.21 48.42 46.16 48.67 50.60 48.27 40.71 44.52 48.12 47.65 47.83 49.58 45.93 47.24 45.70 42.83 40.24 37.55 37.11 34.06 37.11 40.97 39.48 37.31 36.18 34.53 32.45 33.12 33.84 37.91 37.58 35.69 34.80 36.31 39.37 40.93 42.94 43.27 42.96 42.72 42.99
52.82 52.87 52.85 51.83 46.88 46.10 45.84 51.06 49.77 48.36 36.13 41.22 44.26 48.07 49.66 49.27 44.89 51.97 48.16 45.13 40.43 37.99 37.54 36.22 39.73 39.67 36.74 36.33 36.84 32.07 38.15 38.27 37.33 33.19 28.22 35.87 28.25 35.37 36.85 38.15 40.48 41.85 41.16 41.55 42.40
52.55 52.93 52.50 50.89 43.22 43.69 48.97 48.49 48.11 48.43 27.79 45.47 44.62 50.37 48.71 44.78 44.21 45.46 48.97 45.02 40.21 39.58 37.82 36.39 37.06 36.10 35.47 37.00 40.50 36.84 41.31 38.57 36.27 32.05 28.06 30.56 26.31 32.78 35.05 35.02 37.38 40.69 42.49 42.10 43.46
52.26 52.73 51.98 47.51 44.25 45.62 48.90 48.68 48.19 37.83 30.42 43.30 44.10 42.37 41.80 42.32 42.90 44.72 45.04 46.09 44.68 39.60 38.05 37.43 41.63 39.70 38.60 41.79 42.37 42.83 38.33 36.19 31.49 28.75 24.41 31.96 29.73 32.43 35.94 35.39 37.15 39.85 42.09 44.87 44.67
51.89 51.61 49.70 48.29 41.08 45.31 46.81 46.66 35.24 31.06 43.85 40.60 41.15 42.88 38.68 37.95 40.12 41.45 40.13 37.30 35.34 30.71 30.65 35.89 37.25 41.25 43.35 38.47 40.66 38.97 33.25 26.86 23.58 22.22 25.51 32.01 28.05 33.51 37.40 39.66 39.16 40.04 42.57 42.93 42.93
50.92 49.71 47.50 47.75 44.93 45.45 46.22 40.71 31.05 37.48 39.14 43.27 42.50 41.56 37.72 39.27 38.47 40.50 37.89 35.23 38.97 35.85 31.92 29.88 28.21 38.36 42.92 39.37 35.79 35.18 33.82 25.98 20.35 21.74 25.54 32.17 28.21 31.85 39.71 42.59 43.22 43.64 42.58 43.26 43.15
49.27 42.22 42.68 47.41 48.01 45.77 42.30 33.36 32.56 39.52 42.47 40.56 40.49 37.59 36.11 38.66 38.16 38.56 36.07 36.42 38.81 37.98 31.30 30.93 32.20 40.93 42.26 42.34 40.12 34.61 30.76 34.21 25.27 29.61 27.52 27.47 31.26 37.14 39.99 41.56 43.01 42.55 43.33 42.55 42.89
43.16 39.63 44.00 49.29 47.87 44.82 36.68 33.81 39.25 44.92 43.17 41.58 35.84 38.78 34.17 35.74 35.27 34.38 34.50 39.92 39.29 40.45 37.64 34.13 28.79 37.02 40.18 41.52 40.77 36.61 38.70 26.27 31.04 23.60 23.43 26.01 27.10 28.71 35.00 38.21 40.59 41.41 41.30 42.32 43.42
39.07 38.88 45.77 46.38 47.08 40.59 32.02 35.49 40.98 45.33 44.21 40.81 38.38 37.16 37.66 36.61 35.74 34.33 35.38 38.35 42.06 39.67 39.05 35.19 31.21 31.22 34.54 33.67 31.87 31.25 31.17 33.17 34.65 31.76 25.56 24.19 25.62 37.22 37.32 39.48 40.45 40.49 41.68 41.62 42.41
37.79 36.06 45.24 47.14 38.67 34.14 32.77 39.07 43.47 43.20 44.76 42.68 41.64 40.30 38.56 38.05 35.67 35.99 35.92 38.16 42.15 41.81 36.13 35.97 31.74 27.93 30.66 35.33 37.63 33.72 31.44 31.84 24.07 23.01 29.38 29.42 27.74 40.33 39.03 39.56 40.97 41.76 42.93 43.33 43.33
35.44 35.18 44.69 44.24 31.67 32.17 36.81 39.79 42.37 42.40 41.89 40.01 39.33 39.93 39.51 36.56 32.74 36.50 38.26 41.84 42.54 40.72 37.47 37.37 29.06 24.69 26.48 29.29 33.10 31.40 34.18 33.90 31.85 31.59 27.52 25.02 24.89 39.51 40.18 40.67 42.18 40.73 42.08 42.49 44.08
37.41 33.73 36.45 37.43 36.31 34.07 34.18 36.18 37.61 43.83 41.59 42.93 39.33 40.63 37.46 34.91 37.17 34.33 36.07 40.52 42.37 41.74 45.59 40.01 28.74 27.91 23.27 26.73 28.49 28.07 31.60 33.68 30.91 25.55 26.88 27.98 30.37 35.93 37.83 38.76 40.38 40.92 41.36 41.25 42.37
36.64 32.85 34.01 30.40 33.16 34.31 32.97 37.06 36.71 37.58 41.51 41.73 37.87 38.71 37.13 31.10 33.28 33.86 36.79 37.06 40.27 42.55 37.60 34.07 28.41 28.90 29.94 31.50 31.95 31.67 32.17 32.51 29.99 31.39 28.58 31.03 31.04 34.96 37.75 38.09 38.68 40.28 41.22 41.46 41.56
36.14 34.96 35.62 34.01 34.88 34.04 35.94 34.83 36.91 39.15 39.16 37.94 36.53 37.53 37.67 31.95 34.01 31.19 34.74 33.70 33.25 35.39 33.27 33.10 28.83 30.34 29.60 33.66 33.15 30.95 32.65 33.33 34.81 35.30 33.92 33.70 33.21 37.93 39.07 39.09 39.07 39.37 40.17 40.11 40.98
36.72 36.84 37.16 35.40 36.90 35.38 37.15 38.35 38.24 39.05 40.42 40.74 40.21 38.46 36.24 37.73 39.94 39.10 37.90 36.21 35.39 34.07 30.98 29.98 28.35 26.49 24.86 30.55 29.77 25.69 31.31 34.09 34.45 35.97 35.11 31.45 33.84 37.03 36.44 37.49 37.72 38.44 39.64 39.71 40.52

GFSSW_sfc_wetblb_081.txt.gz
Wetbulb
54.39 53.98 54.31 54.43 54.76 54.64 54.86 54.66 54.16 53.61 53.63 53.77 53.95 53.77 54.00 53.86 53.18 49.93 45.80 50.36 52.60 57.21 58.00 54.26 53.06 51.73 50.10 48.97 50.10 50.04 46.05 42.79 44.05 44.80 46.21 49.62 49.27 52.12 53.69 52.02 53.09 54.20 54.48 56.32 59.58
54.21 53.95 53.90 54.10 54.33 54.49 54.39 54.23 53.88 53.46 53.16 53.38 53.97 53.73 53.46 53.41 49.72 46.67 52.43 54.19 57.12 58.75 51.29 51.36 49.39 48.97 47.29 47.60 48.53 47.82 44.16 44.00 47.17 48.54 47.77 49.55 49.39 50.02 49.58 50.23 51.00 52.34 55.39 56.45 58.33
54.40 54.16 53.81 53.80 53.93 53.66 53.72 53.45 53.49 53.67 53.45 53.29 53.16 52.96 52.74 52.52 46.10 51.97 59.67 57.13 58.89 60.44 53.57 52.82 49.09 47.05 45.36 47.52 46.92 45.53 43.68 45.98 46.67 49.12 49.47 48.33 48.61 50.83 49.04 47.95 50.39 50.08 53.19 55.03 55.54
54.63 54.25 54.07 53.77 53.59 53.52 53.26 53.21 53.42 53.28 53.07 52.92 52.35 52.13 53.07 50.21 43.99 49.54 63.79 58.94 59.35 58.13 51.77 50.46 49.80 46.07 44.07 44.44 46.72 43.93 46.08 47.23 47.87 48.72 48.46 47.09 48.81 47.21 48.35 49.24 52.03 52.79 53.74 54.11 54.16
54.67 54.30 53.99 53.51 53.55 53.37 53.29 53.31 53.09 53.01 52.92 52.42 52.25 51.73 50.63 44.60 44.89 59.98 62.58 60.09 58.55 56.33 50.10 48.69 48.69 45.73 43.29 43.50 44.37 43.89 44.67 45.92 47.45 46.64 46.64 47.35 46.12 47.05 47.83 50.54 52.17 52.87 53.08 53.20 54.28
55.05 54.25 54.28 53.79 53.36 53.38 53.64 52.99 52.84 52.85 52.79 52.37 51.92 52.01 48.99 39.90 49.40 60.15 58.62 57.80 54.64 51.40 49.90 53.25 51.22 50.43 47.27 45.34 44.59 44.72 44.54 45.28 46.34 47.03 46.99 45.94 47.12 46.73 48.61 51.19 51.30 52.16 52.54 53.35 53.96
55.39 54.98 54.38 54.11 53.72 53.62 53.46 53.78 53.28 53.47 53.51 52.79 51.96 51.90 46.21 41.71 52.10 58.39 56.68 53.64 53.19 53.68 50.77 54.49 53.26 48.41 47.53 44.94 46.34 45.13 43.08 44.07 45.58 46.28 45.70 46.95 44.45 44.95 49.31 49.99 49.73 50.73 52.21 53.41 54.35
55.37 55.00 54.47 54.48 53.93 53.74 53.84 53.67 53.10 53.41 53.73 52.94 52.51 51.49 44.64 49.53 53.86 57.60 56.09 52.57 53.20 53.52 52.92 53.45 52.21 48.92 47.03 46.88 44.46 42.73 42.25 40.14 44.17 44.12 45.67 44.68 40.83 46.63 48.68 48.42 48.81 49.62 50.92 52.11 53.58
55.08 54.65 54.67 54.41 53.95 53.64 53.43 52.98 53.55 53.30 54.04 53.80 50.78 48.64 46.52 56.73 53.09 55.81 56.14 50.90 51.83 52.05 52.54 53.07 50.89 46.23 45.90 43.22 41.55 40.68 38.14 38.43 41.27 44.95 44.28 43.93 41.90 46.45 49.62 49.07 48.60 49.42 50.15 50.94 52.46
54.80 54.37 54.33 54.25 53.74 53.38 52.52 54.27 55.06 54.91 53.59 53.50 52.03 45.94 50.32 50.23 54.38 54.31 54.87 53.06 51.28 51.28 48.78 47.96 46.72 45.24 43.09 41.97 35.59 36.75 37.39 38.18 38.95 43.93 44.29 42.86 42.96 46.19 48.03 48.14 48.15 49.31 49.82 50.33 51.05
54.65 53.94 53.98 54.04 54.10 53.06 51.36 51.27 49.03 47.57 50.46 49.18 48.06 46.53 49.37 53.75 55.64 51.39 52.50 51.12 50.52 48.12 44.27 44.61 42.75 40.66 42.59 43.10 41.80 40.21 38.67 38.31 41.69 44.80 41.99 43.03 43.67 45.38 48.10 48.05 48.28 49.61 50.56 50.64 51.24
54.04 53.88 54.02 54.02 53.32 52.64 50.70 48.64 50.87 51.10 45.32 49.76 50.02 49.72 51.46 52.60 48.27 50.97 53.10 47.97 46.68 42.89 43.99 42.99 40.51 44.70 43.85 42.35 40.97 40.44 39.18 39.61 42.36 44.19 42.54 43.57 43.14 46.13 46.83 47.66 48.81 49.39 50.02 51.30 52.22
53.12 53.10 53.55 53.65 52.30 49.94 48.57 50.65 53.59 53.13 45.72 46.92 49.39 49.14 50.31 51.96 47.93 48.79 49.94 47.04 44.29 41.76 42.26 40.81 42.12 43.45 42.44 41.56 40.11 41.06 39.12 39.88 39.78 42.98 44.85 43.13 41.36 43.96 46.56 47.38 48.49 49.64 51.01 51.77 52.12
52.69 52.69 53.02 52.22 48.48 48.96 48.73 53.05 52.98 52.48 41.67 43.46 46.47 49.62 50.79 50.91 46.94 52.82 50.15 47.69 44.83 42.34 42.39 42.32 44.84 42.63 41.58 40.51 41.88 38.52 42.69 41.83 41.09 40.62 36.30 42.91 34.17 42.01 44.92 45.78 47.19 48.30 49.90 50.89 51.81
52.30 52.63 52.56 51.42 47.91 46.54 51.46 52.01 52.59 51.82 32.54 46.73 46.57 53.65 51.35 48.45 47.47 48.57 51.41 48.30 43.64 43.10 43.13 41.73 41.65 41.50 40.89 41.71 43.04 41.03 44.58 43.40 42.66 40.46 38.88 39.57 35.84 39.85 44.44 42.80 45.56 47.77 49.11 50.72 51.77
52.07 52.42 51.78 49.05 48.75 49.56 50.90 51.68 52.75 41.22 32.80 42.84 46.23 45.13 45.32 46.97 46.33 47.47 48.52 49.90 48.14 44.17 43.80 42.93 45.41 44.20 43.45 44.50 45.04 45.46 43.65 43.15 40.77 39.63 32.55 38.04 37.24 37.22 40.80 43.26 44.98 47.30 48.45 49.50 51.54
51.72 51.29 49.79 50.09 47.07 49.84 50.57 51.68 39.91 34.40 44.94 40.08 41.77 43.95 42.62 41.81 43.33 44.55 43.44 43.05 41.73 37.83 38.49 41.72 42.12 44.97 46.41 42.82 45.17 43.85 40.36 33.20 31.56 32.04 30.72 38.21 35.71 37.94 43.68 45.22 46.46 47.10 48.68 50.42 51.79
50.49 49.61 48.40 50.14 50.99 50.18 52.13 46.19 33.15 39.03 40.25 44.40 42.66 42.61 39.89 41.46 41.60 42.44 41.32 39.85 43.08 40.38 38.27 35.82 34.26 42.03 45.77 43.25 40.43 40.80 38.99 32.19 24.86 26.96 30.30 37.06 31.65 37.40 45.03 47.63 48.16 48.70 49.46 50.59 51.35
48.91 46.98 48.64 51.49 51.54 51.37 49.16 38.74 36.80 40.74 42.56 40.87 41.86 38.73 38.06 40.43 40.58 40.97 40.27 39.99 42.76 43.77 37.81 37.12 36.11 43.73 44.71 45.60 44.28 39.40 36.42 40.67 34.71 34.73 30.14 33.48 37.74 42.93 45.22 46.33 47.28 47.58 48.74 49.34 50.47
44.94 44.16 48.51 50.53 51.99 50.69 43.41 36.65 41.05 44.47 43.65 42.84 36.83 40.04 36.49 38.40 38.13 38.29 38.40 42.66 42.05 44.08 44.13 40.05 34.04 40.22 42.28 45.28 44.32 41.90 43.36 33.76 35.83 24.09 23.31 31.17 33.33 35.18 40.70 43.01 45.62 46.42 46.91 48.29 50.31
44.98 45.89 49.63 50.62 51.65 47.11 39.79 39.96 42.43 45.94 44.84 41.52 39.86 38.88 38.27 37.27 38.08 37.84 38.72 41.57 43.97 42.96 44.05 42.15 37.95 36.16 40.06 38.56 37.24 38.84 37.66 38.30 36.10 32.23 26.77 25.72 32.03 42.17 41.46 43.58 43.75 45.63 46.94 47.19 48.02
43.03 42.52 49.37 50.81 45.43 41.15 40.52 41.09 42.98 44.48 46.09 44.08 42.84 40.44 39.97 40.14 38.07 37.94 37.61 40.53 44.95 45.03 40.16 41.56 39.14 33.75 35.74 40.02 41.03 39.92 37.63 37.70 31.48 28.91 33.08 31.56 30.91 43.78 44.95 44.79 45.55 46.06 47.13 47.87 47.73
40.81 40.38 49.42 49.28 39.66 39.21 41.67 41.33 43.63 43.15 43.20 41.34 41.96 42.40 41.56 38.07 35.49 38.48 39.77 43.24 44.01 43.70 41.58 41.67 36.73 31.26 32.49 36.68 38.70 37.56 39.33 39.59 37.79 35.68 30.27 27.63 31.08 43.97 45.33 44.83 45.85 46.00 47.04 47.22 47.28
42.71 38.95 42.60 43.31 42.02 39.40 37.03 38.61 39.41 44.19 42.21 43.04 41.95 42.20 40.03 37.59 39.51 36.57 37.42 41.55 43.91 44.56 45.46 44.62 37.54 35.16 30.19 33.28 36.67 33.84 36.40 38.53 37.27 31.53 31.65 32.27 34.29 39.76 42.32 43.18 45.16 45.97 46.40 46.44 46.99
41.90 37.26 38.57 36.23 39.09 38.91 38.03 38.70 37.81 38.20 43.47 43.28 39.58 39.95 38.44 35.80 36.53 36.21 38.41 39.84 42.01 45.54 41.54 41.35 35.39 36.62 37.02 37.64 36.59 35.93 35.84 36.55 35.01 35.90 31.14 34.76 35.55 40.00 42.75 44.01 44.49 45.24 45.77 45.34 45.74
41.41 40.48 40.71 39.09 38.91 37.68 37.77 37.94 37.30 38.64 38.83 38.32 38.13 39.97 39.61 35.46 35.74 33.96 36.91 37.81 36.74 40.42 40.64 39.30 35.56 36.17 33.90 37.10 36.92 34.24 36.54 36.90 36.94 37.07 36.48 37.27 37.36 43.17 44.10 45.03 44.42 44.69 44.57 44.31 44.97
41.13 41.90 41.37 38.35 37.75 36.05 37.08 37.75 37.57 38.48 40.18 40.82 40.19 38.37 37.12 38.81 41.25 41.83 42.62 41.61 40.20 38.54 38.37 37.39 36.46 33.20 28.83 34.04 34.61 31.37 35.98 36.60 37.04 39.33 39.26 34.95 40.02 43.42 42.50 42.49 42.89 42.70 43.26 43.28 43.88

GFSSW_sfc_wetblb_084.txt.gz
Wetbulb
55.27 55.01 54.46 54.80 54.67 55.02 54.92 55.05 54.72 54.76 54.43 54.32 53.98 53.93 54.40 54.44 54.08 53.96 49.54 53.99 55.64 58.83 57.03 56.33 54.16 53.54 55.33 53.55 54.14 54.24 48.53 46.08 47.56 46.36 48.71 52.32 51.53 55.32 55.74 54.04 55.07 56.30 57.01 58.81 60.40
55.29 55.01 54.71 54.39 54.55 54.37 54.38 54.28 54.23 54.25 54.44 53.99 53.92 53.78 53.50 53.41 52.58 51.32 57.60 56.15 57.40 59.10 55.85 53.28 50.88 52.22 51.56 51.97 52.29 50.36 47.29 47.40 50.05 50.90 49.98 51.41 51.78 52.54 52.21 52.71 53.02 54.51 56.94 58.48 59.32
55.80 55.42 54.85 54.44 54.12 54.08 54.06 54.09 53.91 54.05 54.02 53.77 53.63 53.15 53.02 53.83 51.78 54.31 62.23 57.79 58.19 60.46 55.71 54.99 53.36 51.67 49.78 51.40 51.06 50.20 47.28 50.22 50.68 51.91 52.39 51.23 50.74 52.65 51.02 50.19 52.97 52.89 55.15 56.88 57.81
55.36 55.59 55.15 54.77 54.25 53.86 54.02 53.81 54.15 54.13 53.97 53.72 52.91 52.71 52.58 53.87 46.59 57.86 64.18 58.91 60.98 58.70 55.13 53.26 51.87 49.25 48.77 48.13 51.11 47.26 50.04 50.57 50.89 51.24 50.78 49.88 51.69 51.16 51.55 51.98 54.60 54.88 55.60 56.05 56.48
55.55 55.78 55.31 54.55 54.32 53.99 53.74 53.98 53.65 53.63 53.19 52.76 52.66 52.20 53.15 49.87 49.02 62.33 60.81 60.15 59.57 56.58 53.60 52.51 51.26 50.31 47.79 49.30 49.62 48.36 49.31 50.14 51.21 51.09 50.70 51.07 49.46 49.76 50.78 52.95 54.19 54.88 55.28 55.50 56.33
55.90 55.54 55.02 54.98 54.74 54.29 54.20 53.53 53.61 53.38 53.53 53.31 52.49 52.09 52.35 46.21 54.93 60.47 56.63 57.30 57.09 56.50 53.71 52.36 51.19 51.47 48.92 48.05 48.08 49.09 48.46 48.78 49.54 50.05 50.45 48.73 49.59 50.42 50.90 52.99 53.26 53.90 54.54 55.25 55.83
55.57 55.51 55.33 55.17 54.92 54.49 54.34 54.35 53.37 54.13 54.22 53.67 52.60 53.69 50.14 46.87 56.04 60.69 58.59 56.45 57.19 53.84 52.29 56.31 54.59 51.65 51.43 48.00 50.20 48.98 46.48 48.54 49.20 49.92 49.30 50.24 47.35 48.51 52.27 52.99 52.02 52.71 53.80 54.77 55.37
55.43 55.04 54.90 54.83 54.63 54.59 54.06 54.08 53.94 53.22 54.39 53.71 52.88 53.81 48.83 51.43 57.10 59.64 57.59 54.56 55.42 56.65 56.45 57.01 55.54 51.97 50.79 51.11 48.40 46.60 46.64 44.07 48.44 48.10 48.61 47.52 43.81 49.07 51.12 51.37 51.23 52.40 52.98 53.75 55.16
55.08 54.67 54.73 54.57 54.52 54.28 54.04 53.28 54.59 53.88 54.55 54.39 53.59 52.89 49.37 57.39 53.30 57.07 58.68 52.80 53.88 54.48 55.27 55.09 54.64 51.04 49.82 46.90 45.08 45.78 41.94 42.74 43.86 48.17 47.48 47.29 44.88 48.55 51.47 51.64 51.38 52.34 53.09 53.47 54.47
54.71 54.41 54.34 54.55 54.31 54.04 53.36 53.34 54.30 55.01 55.11 55.31 54.74 50.62 52.65 49.24 54.37 56.58 59.28 55.34 53.24 53.77 52.32 52.10 51.35 48.05 47.52 45.52 40.04 41.60 41.73 42.87 42.93 46.41 47.63 46.64 46.60 49.41 51.33 51.37 51.38 52.19 52.63 53.36 53.92
53.94 53.87 53.85 54.06 54.36 53.32 52.74 55.79 53.62 52.02 53.90 51.58 51.81 50.59 52.16 55.79 58.02 55.76 56.74 54.36 53.67 52.43 47.27 49.56 46.18 43.97 45.97 46.37 45.67 43.90 42.91 42.62 45.20 47.85 46.67 46.44 46.71 48.58 50.89 51.53 51.37 52.07 52.66 53.41 54.28
52.60 53.46 53.67 53.81 53.67 52.01 54.04 52.82 54.29 54.40 48.99 53.92 53.04 53.02 54.33 55.18 51.37 53.00 56.01 50.37 49.36 46.10 48.09 46.32 43.63 47.01 47.14 46.52 44.70 44.29 42.94 43.29 45.84 47.38 46.78 46.54 46.11 49.13 50.43 50.84 51.57 51.89 52.40 53.21 54.22
52.10 52.60 53.30 53.46 52.53 52.65 53.43 54.76 58.19 56.92 50.11 49.34 51.82 51.49 52.51 54.42 50.76 51.55 53.89 51.21 48.23 46.44 46.26 44.73 45.58 46.89 45.48 44.84 43.40 44.29 43.31 43.57 43.31 46.53 47.78 46.72 45.29 47.58 49.96 51.21 51.73 52.77 53.54 53.65 53.94
51.78 52.31 52.81 51.87 51.16 54.63 52.97 57.06 57.92 56.99 46.62 46.48 48.63 50.94 52.22 53.20 49.21 54.47 53.87 50.84 47.73 45.35 46.29 45.95 48.42 45.83 45.22 43.95 45.16 42.37 46.25 44.75 44.14 43.73 40.64 47.20 38.24 45.66 48.32 48.70 50.34 51.67 52.74 53.31 54.24
51.41 52.43 52.50 51.37 54.01 52.75 55.36 56.55 57.95 55.92 37.76 48.79 48.73 55.02 52.24 49.82 50.64 50.99 54.30 50.53 46.43 46.21 46.62 44.87 45.02 44.76 44.26 44.95 46.07 44.14 46.92 46.03 45.52 44.01 43.73 43.48 41.14 44.41 47.94 46.63 48.23 50.53 51.76 52.46 53.71
51.27 52.04 51.38 52.88 54.19 54.81 55.55 56.85 56.55 44.78 36.85 44.63 49.05 48.00 47.31 49.21 47.40 50.82 51.13 52.68 50.84 47.32 47.86 46.86 49.31 47.31 46.78 46.88 46.84 47.85 46.22 46.37 46.33 44.60 37.99 42.49 41.38 42.84 44.07 45.10 47.25 49.81 51.25 52.82 54.58
51.31 51.17 51.39 55.04 52.27 55.16 56.64 55.02 43.89 38.88 47.37 43.36 44.56 46.71 46.51 45.29 46.02 47.06 46.86 46.52 44.65 41.31 42.15 45.91 46.45 48.54 48.15 45.65 48.27 47.10 44.34 38.04 37.08 37.66 36.79 42.48 39.25 41.49 45.84 47.93 48.93 49.33 51.39 53.19 54.84
50.48 49.58 51.33 55.60 57.26 56.61 56.50 48.67 37.23 42.22 43.33 46.24 45.26 45.39 43.59 44.68 44.44 44.38 44.04 43.36 46.40 44.97 42.13 39.82 39.04 44.75 47.85 46.08 44.37 44.44 43.94 37.46 29.70 32.82 35.68 40.65 35.58 41.62 47.58 49.30 50.55 51.23 52.35 53.35 54.09
49.06 56.47 56.53 55.59 57.07 57.48 51.74 41.58 41.77 43.42 44.75 44.05 45.36 42.93 43.26 44.65 44.44 43.19 43.04 42.36 43.91 45.50 39.93 39.99 39.49 46.25 46.92 47.50 46.34 43.88 40.29 44.88 37.83 38.29 34.50 38.07 41.04 45.27 48.05 47.97 48.95 49.88 51.15 51.94 53.52
51.75 53.64 53.26 56.18 57.72 55.37 47.77 40.31 44.00 46.25 46.00 45.42 40.94 42.89 41.18 42.74 41.60 40.85 40.60 44.81 43.39 46.58 47.41 43.52 38.21 43.80 45.31 47.07 46.67 43.94 46.07 37.56 39.65 28.39 27.63 35.33 36.51 38.38 43.42 45.08 47.42 48.28 49.24 51.23 52.54
53.10 51.67 53.69 56.56 56.78 51.51 44.17 44.20 45.18 47.75 47.89 44.20 42.54 42.29 42.52 41.18 42.90 41.50 40.71 43.62 45.76 45.66 47.53 45.19 41.53 40.07 42.86 41.80 40.74 42.42 40.40 40.69 40.09 38.17 30.33 29.35 35.52 44.85 44.14 45.67 46.62 48.30 48.83 50.91 51.75
51.59 48.50 54.70 55.62 50.05 49.61 46.13 44.72 43.95 46.69 48.79 47.05 46.78 43.73 42.95 43.55 42.13 41.25 41.13 43.39 46.81 46.45 42.35 45.45 42.21 37.42 39.69 44.15 44.75 43.56 41.34 41.96 36.07 33.52 36.11 35.15 35.30 46.43 47.18 48.23 49.09 48.64 49.65 51.61 52.46
48.61 48.97 55.23 54.17 45.64 46.89 46.63 45.25 46.06 45.77 46.08 45.47 44.68 46.23 46.48 42.67 38.80 42.81 43.36 46.52 46.33 44.99 42.92 45.32 39.83 35.07 37.11 40.69 43.30 40.39 42.10 42.15 41.59 40.35 34.98 31.83 35.25 45.73 47.06 47.17 49.01 49.08 50.39 51.16 51.71
48.97 45.95 49.99 49.95 48.61 44.15 42.90 43.89 43.31 46.71 45.63 46.02 45.44 46.22 44.16 42.38 44.35 40.62 41.21 44.33 45.56 45.15 46.69 47.31 41.16 38.29 34.28 37.73 40.80 37.78 39.88 41.89 41.35 36.29 36.74 37.26 39.12 43.12 45.11 46.24 48.17 49.65 50.60 50.80 51.43
48.99 44.60 45.03 44.04 46.05 43.38 43.63 42.98 41.82 40.70 44.69 45.73 43.14 42.59 40.95 37.99 39.49 40.30 42.29 42.89 44.05 46.14 44.92 44.24 38.50 40.36 40.95 41.04 40.92 39.90 39.59 40.01 38.87 39.86 36.27 38.78 39.29 42.80 45.11 46.91 48.05 49.49 50.03 49.86 49.92
46.88 45.88 49.05 46.73 43.10 41.40 40.86 41.76 40.04 40.21 40.16 40.37 40.02 41.23 40.91 38.09 39.63 37.77 40.88 41.29 40.33 42.79 42.52 44.75 36.85 39.47 37.43 40.53 40.56 38.28 39.97 40.24 40.20 40.43 40.49 40.80 40.32 46.40 48.38 49.08 47.94 48.41 48.24 47.50 47.97
50.33 50.07 46.95 42.82 40.99 39.58 39.90 38.73 38.93 39.79 42.41 43.88 41.31 38.53 37.62 40.25 42.29 43.17 43.68 43.00 43.99 42.02 40.48 41.05 38.87 37.12 33.22 38.39 37.69 34.69 40.13 40.79 41.31 42.59 41.95 38.38 43.64 47.04 46.21 46.00 46.42 46.81 47.21 46.68 47.37

GFSSW_sfc_wetblb_087.txt.gz
Wetbulb
56.44 56.27 55.90 55.11 54.87 54.85 55.13 55.14 55.07 54.78 54.93 54.49 54.55 54.54 54.70 54.71 54.56 55.06 51.94 55.67 57.61 59.76 59.53 57.94 54.60 55.16 55.61 54.62 55.56 55.60 49.47 47.56 49.25 51.44 53.13 55.98 55.16 56.50 58.85 56.49 57.38 58.38 58.63 60.97 61.40
56.43 56.26 55.69 55.31 54.97 54.71 54.71 54.61 54.70 54.61 54.55 54.30 54.54 54.81 54.62 54.08 53.39 52.26 58.92 58.60 58.70 61.24 56.03 54.90 51.86 53.31 52.58 53.19 53.61 51.74 48.37 48.53 52.05 52.19 52.32 53.14 54.23 55.19 55.72 55.53 55.70 56.64 58.58 59.86 60.34
56.45 56.41 56.21 55.63 55.42 54.87 54.65 54.63 54.43 54.82 54.51 54.39 54.15 54.11 53.60 54.29 53.83 56.41 65.53 61.11 58.72 59.21 58.32 55.95 54.59 52.89 51.42 52.86 52.52 51.45 48.36 50.91 51.36 52.21 52.91 52.88 52.21 54.20 52.89 52.03 54.67 54.95 56.98 58.51 58.98
56.25 56.20 56.22 56.15 55.82 54.80 54.66 54.59 54.96 54.67 54.59 54.20 53.58 53.26 53.32 54.88 48.00 60.70 62.94 61.71 58.92 58.04 57.73 54.98 53.45 50.89 50.28 49.70 52.73 49.18 51.55 51.60 52.29 52.58 52.19 50.57 52.65 51.36 52.20 53.10 55.57 56.29 56.99 57.22 57.56
55.86 55.97 55.76 55.89 55.93 55.39 54.79 54.93 54.71 54.32 54.29 53.76 53.18 53.14 53.67 52.49 53.01 62.58 61.21 59.80 58.66 57.96 54.50 53.49 51.81 51.52 49.33 50.76 51.49 50.15 51.33 52.11 52.60 52.54 52.22 52.35 50.72 51.15 51.85 54.21 55.34 55.50 56.11 55.99 56.52
56.03 55.63 55.39 55.54 55.68 55.39 55.34 54.78 54.52 54.18 54.11 54.45 54.18 52.74 53.91 49.21 58.65 58.69 57.74 57.14 57.50 56.52 55.05 54.82 52.91 53.67 51.26 50.66 50.53 52.15 51.41 51.75 52.09 52.15 52.28 50.28 50.43 51.13 52.14 54.11 53.93 54.60 54.94 55.99 56.68
55.64 55.70 55.30 55.17 54.88 55.10 55.17 54.87 54.88 54.22 54.25 54.98 54.73 54.27 52.77 51.39 58.50 58.90 58.02 57.78 57.26 56.88 53.65 54.75 55.42 52.25 52.78 49.99 52.34 51.08 48.58 49.89 50.66 51.42 50.70 52.02 48.84 49.55 53.30 54.22 53.59 54.13 54.70 55.62 56.58
54.63 55.17 55.25 54.92 54.95 55.22 55.00 54.99 54.30 54.22 54.23 55.05 54.43 55.67 51.72 53.40 58.88 59.52 58.60 55.63 57.12 56.05 56.49 57.79 56.88 54.03 52.89 53.05 50.37 48.53 48.90 45.41 50.35 50.77 51.00 49.34 45.13 50.38 53.37 52.28 52.41 53.42 54.15 54.46 55.53
53.88 53.85 54.74 54.54 54.51 54.72 54.14 54.11 54.48 55.59 54.62 55.01 54.00 55.31 52.36 56.40 54.46 59.70 58.25 53.76 55.18 56.83 57.22 56.35 55.29 52.48 51.59 48.59 46.73 47.69 44.06 45.54 47.17 50.70 49.31 48.39 46.67 50.23 52.27 52.44 52.39 53.35 54.00 54.39 55.52
53.55 53.21 53.51 54.05 54.19 54.23 53.70 53.64 54.19 54.76 55.12 56.31 56.38 52.73 55.27 49.60 55.32 56.75 59.12 55.96 53.89 54.06 53.67 52.70 52.20 49.51 49.26 47.03 42.15 44.30 44.48 45.26 44.92 48.26 48.90 47.65 47.65 50.47 52.47 52.45 52.61 53.29 53.86 54.37 54.78
53.11 52.86 53.06 53.66 54.11 53.74 52.94 57.03 56.12 54.46 55.16 53.76 53.21 52.85 51.60 55.80 57.21 55.44 57.98 54.93 54.64 53.15 48.75 51.23 47.67 45.67 47.54 48.42 48.04 46.68 45.82 45.04 47.18 48.94 47.95 47.69 48.05 49.84 51.97 52.46 52.39 53.35 53.92 54.62 55.35
52.88 52.81 52.81 53.41 53.72 52.96 54.05 54.41 56.49 57.04 51.04 56.59 54.54 53.70 55.05 56.23 51.85 54.25 57.32 51.54 51.13 48.28 50.31 48.81 45.11 48.84 49.56 48.79 47.13 46.64 44.99 44.85 47.33 49.03 48.53 47.95 47.79 50.46 51.93 52.36 53.15 53.45 53.86 54.48 55.24
52.64 52.23 52.42 53.12 52.81 53.16 56.14 55.61 60.39 59.48 52.03 51.95 53.35 52.71 53.05 54.68 52.24 52.66 54.22 52.55 49.75 47.86 48.22 46.40 48.22 48.84 47.34 46.71 45.30 45.73 44.67 45.21 45.30 47.87 49.17 47.85 46.66 49.52 52.47 53.35 53.56 53.96 54.91 55.33 55.54
52.46 51.88 52.00 52.38 50.99 58.95 54.70 57.76 60.46 59.56 48.49 48.37 50.66 52.86 53.67 53.76 49.82 55.60 55.31 52.41 49.76 47.24 48.47 47.70 49.82 46.79 46.30 45.58 46.84 43.98 48.13 47.13 45.64 45.11 42.17 49.35 40.71 47.87 50.49 51.13 52.31 53.27 54.20 54.79 55.42
51.96 51.90 52.13 51.18 54.24 55.40 57.44 59.37 59.70 58.18 37.54 50.55 50.76 56.56 54.65 51.32 51.40 51.03 54.87 52.20 47.24 47.46 48.13 46.46 46.96 46.89 45.64 46.74 48.14 45.92 49.09 47.24 47.17 45.49 45.39 45.61 43.59 46.95 50.38 48.82 50.08 51.61 52.62 53.92 55.00
51.44 51.94 51.60 54.16 55.50 58.09 58.62 58.85 58.16 46.36 37.72 46.84 50.80 49.90 49.32 51.06 49.47 52.09 51.40 52.46 52.09 48.01 49.34 48.40 50.85 48.86 48.34 49.13 48.83 49.61 47.58 47.43 47.48 46.00 40.10 44.97 44.55 44.78 47.45 47.59 49.14 51.51 52.80 53.73 55.22
51.06 51.32 53.17 57.95 54.94 58.34 59.50 57.14 46.98 41.09 49.14 45.73 47.12 49.20 48.51 48.10 47.63 49.56 48.18 46.99 45.51 42.24 41.61 46.47 47.11 49.84 50.34 47.17 50.06 48.55 46.21 39.98 38.99 38.71 38.00 45.65 42.29 44.29 47.88 49.18 49.78 50.29 52.20 53.94 55.30
50.33 49.79 53.49 58.44 60.25 59.75 58.10 51.38 41.28 44.81 45.75 48.55 47.66 47.55 46.07 47.77 47.97 47.47 46.82 45.17 48.70 47.19 43.04 40.29 39.95 47.43 49.18 47.43 46.07 46.58 45.72 40.49 33.14 35.64 39.45 45.49 39.13 44.63 48.49 50.37 51.51 51.78 52.76 53.98 54.26
48.79 59.77 59.75 59.75 60.78 60.47 54.01 45.55 45.02 46.20 46.84 46.01 47.36 44.84 46.01 47.02 46.80 46.29 46.60 45.73 47.34 47.18 41.29 40.02 39.77 47.76 48.31 48.97 48.02 44.84 42.36 47.11 41.37 42.04 37.50 40.30 43.86 47.38 49.67 49.21 49.86 50.47 50.80 51.55 53.06
53.40 57.86 56.87 59.95 62.19 58.19 50.83 42.46 46.48 48.25 47.97 47.88 43.66 45.91 43.17 45.55 45.06 45.27 44.35 47.82 46.43 47.84 49.00 45.08 39.12 47.21 48.09 48.60 48.78 46.08 47.39 40.55 42.10 31.47 31.64 38.00 39.16 40.70 45.46 46.32 48.09 48.55 49.71 50.96 52.12
54.54 54.47 57.25 60.80 60.70 54.18 46.59 47.72 47.47 49.67 49.39 46.21 45.66 44.95 45.68 45.16 45.26 43.76 43.73 46.44 48.02 47.51 48.74 46.08 43.11 43.56 45.74 43.29 42.63 43.74 42.83 42.86 42.73 40.52 33.07 32.37 37.87 46.44 45.97 47.47 47.70 49.26 50.82 51.52 52.48
56.04 51.05 58.33 60.91 51.95 53.09 48.18 47.99 44.52 48.36 50.60 48.91 49.02 47.80 46.08 45.95 44.17 44.31 43.57 45.88 49.26 48.40 44.23 47.38 43.75 39.18 41.02 47.37 47.00 45.67 43.24 43.76 37.97 36.88 39.28 38.32 37.87 48.78 47.83 48.65 49.39 49.18 50.59 52.05 52.68
52.05 53.24 59.23 58.05 47.86 49.68 49.63 48.03 48.41 47.86 48.47 47.74 47.35 48.12 48.63 44.70 41.50 45.12 45.23 49.26 49.79 48.24 44.39 46.34 42.05 36.08 38.25 42.88 46.20 42.49 43.34 43.83 43.94 42.97 37.19 34.68 37.68 48.47 48.73 48.59 49.45 49.57 50.84 51.63 52.92
51.94 48.52 53.27 55.80 53.34 48.41 46.77 46.48 45.83 49.68 47.61 48.24 48.00 49.02 45.84 44.12 45.41 42.00 43.55 46.37 47.79 47.47 47.30 47.44 44.01 40.26 35.88 38.45 43.43 40.69 42.23 43.55 43.26 37.47 38.58 39.33 41.32 45.12 46.69 47.36 48.74 49.92 51.46 51.48 52.02
53.20 50.28 49.10 47.91 48.86 47.77 47.37 46.74 44.71 44.36 47.43 48.01 45.87 44.24 42.60 39.91 41.93 41.24 43.75 45.24 46.94 47.39 46.25 44.92 39.71 41.74 42.50 43.67 43.12 42.35 41.65 42.17 41.13 42.02 38.39 40.88 41.08 44.24 46.56 47.67 49.24 50.69 51.03 50.82 50.91
48.67 48.47 51.66 48.82 47.03 46.09 42.80 45.69 43.27 43.08 43.26 43.12 41.31 41.99 43.67 40.46 41.43 40.03 42.36 43.24 42.66 46.17 44.60 44.78 39.15 40.97 38.54 42.22 42.30 40.26 41.89 42.19 42.31 42.58 42.23 42.39 41.87 47.51 49.27 50.38 49.47 49.89 49.69 49.10 49.35
53.75 53.46 49.70 45.69 46.32 44.50 46.63 43.62 42.12 42.87 44.91 44.78 43.22 41.55 41.45 43.20 43.86 45.92 47.13 46.95 45.24 43.09 41.95 41.74 40.31 38.28 34.14 40.19 41.04 36.70 40.59 41.87 42.37 43.88 43.71 40.56 44.79 48.46 47.80 48.22 48.34 48.34 48.42 47.86 48.10

GFSSW_sfc_wetblb_090.txt.gz
Wetbulb
57.28 57.07 57.01 56.50 55.99 55.60 55.32 55.17 55.19 55.22 55.41 55.04 55.06 54.99 55.39 55.39 55.13 53.86 50.72 54.68 57.64 61.30 62.15 53.84 53.76 52.17 53.90 53.29 54.30 55.04 48.81 47.24 48.99 50.52 52.74 56.79 56.23 59.02 58.72 56.45 57.88 58.51 58.32 59.78 61.50
56.95 57.08 56.93 56.48 56.14 55.94 55.47 55.30 55.00 55.26 55.11 55.06 55.37 54.98 55.27 54.88 52.03 50.82 57.98 63.47 61.84 61.19 52.87 51.65 51.60 51.40 50.64 51.45 52.27 50.61 47.84 48.04 52.03 52.78 51.96 53.51 54.07 56.52 55.29 55.49 56.84 57.49 59.33 59.87 60.18
56.63 56.68 56.86 56.53 56.61 56.57 55.75 55.46 55.26 55.17 55.30 55.18 54.77 54.69 54.42 54.03 52.15 56.46 66.90 63.48 61.69 59.47 53.17 54.92 55.03 51.71 49.46 51.01 50.97 50.27 47.42 50.37 51.15 52.65 53.55 52.22 52.53 54.55 53.14 52.22 55.82 55.82 56.82 58.91 59.15
55.73 56.50 56.37 56.07 56.07 55.92 55.90 55.71 55.52 55.34 55.22 54.73 54.51 54.28 54.21 53.35 47.74 59.35 63.31 63.52 62.76 55.74 51.43 53.27 54.27 49.40 48.48 48.06 51.60 48.25 50.54 50.95 51.74 52.41 52.07 51.12 52.89 51.24 52.15 52.74 55.45 56.00 56.56 56.96 57.37
54.81 55.72 56.03 55.90 55.75 55.90 55.80 55.80 55.47 55.05 54.83 54.75 54.59 54.21 52.81 52.41 53.67 61.90 63.01 60.78 57.47 51.50 51.46 53.87 51.49 50.19 47.65 49.61 50.75 49.40 50.45 51.67 51.95 52.29 52.07 52.56 50.63 50.21 50.82 53.80 55.23 55.68 55.68 55.46 56.29
54.87 54.56 55.14 55.48 55.72 55.88 55.67 55.12 55.35 54.92 54.64 54.54 54.72 54.90 51.35 48.59 58.17 59.04 56.51 54.11 51.96 51.33 54.53 55.17 52.40 52.70 50.58 50.22 49.75 51.34 50.98 51.07 52.03 51.71 51.88 50.27 50.37 50.98 51.44 53.74 53.38 54.45 54.30 54.95 55.99
54.40 54.46 54.18 54.63 55.17 55.64 55.55 54.63 54.84 54.84 55.00 54.96 55.22 54.41 51.14 51.57 56.74 58.19 57.61 55.76 56.60 56.11 54.45 55.24 55.23 52.33 52.22 49.97 52.48 51.56 48.43 50.29 50.64 51.37 50.47 51.80 48.32 48.72 52.61 53.59 52.90 53.49 54.75 55.37 56.25
54.20 53.96 53.74 53.73 54.28 54.89 55.19 55.13 54.59 54.45 54.61 55.03 55.59 53.74 50.25 56.76 57.54 59.07 57.80 57.03 57.51 57.72 56.53 56.12 57.09 54.08 52.26 53.33 50.91 48.32 48.69 44.52 49.53 50.29 50.79 50.31 44.64 50.62 53.59 52.95 52.30 53.10 53.74 54.69 56.06
54.11 53.65 53.78 53.19 53.70 54.17 54.79 54.48 54.34 55.58 55.77 55.27 52.88 52.02 51.45 56.10 52.37 59.08 58.05 53.78 54.83 55.46 57.67 57.45 55.89 52.31 51.85 48.65 46.30 47.06 42.56 44.32 46.37 50.87 50.04 49.03 46.01 50.88 53.20 52.39 51.81 53.17 53.66 54.21 55.60
54.49 53.91 53.53 53.50 53.24 53.79 53.97 53.65 55.46 54.35 55.20 56.47 55.34 50.81 55.21 53.11 51.88 57.29 58.56 56.10 53.36 54.17 53.31 52.31 51.45 48.60 48.69 46.38 40.81 43.29 43.66 45.25 45.50 48.87 49.19 47.22 46.78 49.62 51.67 51.74 51.95 52.87 53.64 54.64 55.21
54.97 54.28 53.40 53.28 53.17 53.30 53.06 55.11 54.13 53.45 55.58 52.83 53.79 52.26 51.65 53.54 56.41 54.56 57.57 54.42 53.86 52.10 47.68 50.59 46.46 44.72 47.24 48.30 47.75 47.03 45.50 45.08 47.06 49.03 47.67 47.19 47.53 49.32 51.43 51.96 51.87 52.67 53.97 55.16 56.11
54.93 54.54 53.77 52.94 52.76 52.95 52.29 52.56 56.08 57.09 50.59 56.54 55.20 54.83 55.97 56.00 51.11 52.96 57.17 50.80 50.08 47.11 49.88 48.49 44.42 48.70 49.84 49.01 47.60 46.46 44.68 44.79 47.34 48.68 48.01 47.26 46.83 49.57 51.17 51.71 52.74 54.09 54.28 55.06 55.94
54.34 53.91 53.42 52.67 52.61 51.78 53.49 55.88 59.71 59.49 50.63 53.59 55.57 53.34 53.35 54.18 51.21 51.09 53.87 51.96 49.46 47.71 48.38 45.80 48.35 49.84 48.01 47.10 45.71 46.07 44.65 44.53 44.26 47.55 49.11 47.37 45.38 48.03 51.11 53.07 54.06 54.57 55.19 54.92 56.16
53.96 53.57 52.55 52.38 50.50 58.25 55.56 58.93 58.38 59.56 46.39 48.58 49.94 52.58 53.86 53.32 49.70 56.00 55.45 51.73 49.57 46.83 47.94 47.67 49.84 47.97 46.75 45.38 46.28 42.79 47.50 46.84 46.13 44.84 40.52 47.98 39.24 46.84 49.91 50.92 52.58 53.67 54.94 54.45 55.80
53.73 53.56 52.16 51.30 53.15 56.06 57.61 59.04 59.26 57.53 35.76 50.75 50.74 57.30 54.43 50.66 52.09 51.54 55.55 51.75 46.72 47.11 47.18 45.85 47.09 46.55 45.36 46.10 48.20 45.36 48.99 47.41 46.57 44.85 44.25 44.33 41.63 45.51 50.07 48.91 50.82 51.86 52.92 53.87 54.84
53.59 53.19 51.70 55.74 54.95 58.46 59.03 58.91 57.61 45.09 37.84 47.50 50.86 48.85 49.30 50.30 51.09 52.40 51.59 52.73 51.68 46.88 47.57 47.03 50.85 49.35 48.22 49.21 49.21 49.60 47.32 47.18 46.74 44.71 38.29 43.28 43.17 43.57 46.62 47.73 49.55 51.30 52.38 53.39 54.13
53.18 51.85 50.41 56.53 56.18 59.35 59.59 56.71 45.70 40.83 51.07 46.35 47.38 48.89 47.93 47.30 48.65 49.47 47.84 46.44 43.70 41.40 41.55 45.26 45.91 48.91 50.05 46.46 48.90 48.19 45.16 38.38 37.66 37.99 37.08 45.91 43.08 45.20 48.91 49.55 50.07 50.24 51.18 52.99 54.41
51.91 49.71 55.06 58.08 60.42 60.69 58.31 51.66 41.34 46.16 46.52 49.59 48.34 48.51 45.88 48.34 48.13 48.07 47.42 45.24 48.43 46.33 43.41 41.15 39.71 46.71 50.03 47.54 45.27 46.25 45.47 39.12 32.66 34.92 38.33 44.92 38.98 44.38 49.20 50.73 51.90 51.82 52.64 53.34 53.69
49.47 59.10 59.12 60.65 61.14 60.89 53.85 45.24 44.03 46.77 48.03 46.64 47.64 45.37 45.49 47.80 47.03 47.58 46.73 45.83 47.81 49.05 42.67 41.48 41.04 48.24 49.05 49.90 47.59 44.18 41.05 46.75 40.96 42.08 38.01 40.79 43.90 47.79 49.42 49.55 50.76 50.94 51.58 51.55 52.58
50.74 55.35 58.84 60.52 61.79 58.83 50.90 45.51 46.88 49.48 49.12 48.30 43.70 46.81 43.00 45.43 45.26 45.99 45.73 49.13 47.98 49.37 49.74 45.61 39.44 47.02 48.88 49.59 48.78 45.93 47.59 39.93 40.90 31.90 30.79 37.62 39.47 40.55 45.44 46.66 48.23 48.59 49.20 51.06 52.32
52.87 54.14 58.25 61.74 60.83 54.42 47.06 47.65 48.33 50.92 49.86 46.78 45.56 44.85 45.57 44.74 45.93 45.80 45.53 48.44 49.35 48.85 49.61 47.56 43.66 43.29 47.02 44.27 42.04 42.98 41.57 42.86 42.65 40.92 32.92 31.16 36.86 47.01 46.34 47.19 47.12 48.14 49.51 50.49 51.51
53.85 50.29 59.04 60.84 51.44 53.41 47.92 49.61 45.93 48.60 50.44 49.15 48.98 47.39 45.84 46.21 45.17 44.78 44.29 46.29 50.73 49.55 45.17 47.53 43.58 38.90 42.24 48.22 48.47 46.12 42.96 43.74 37.17 35.87 39.07 37.55 37.11 49.48 48.95 48.48 48.92 48.85 49.90 50.79 52.48
49.53 51.99 59.06 57.54 47.06 48.38 51.15 48.76 49.13 48.13 48.33 47.81 46.88 48.55 49.04 45.51 42.03 45.54 46.47 49.67 49.96 48.63 45.95 47.16 42.26 36.46 38.88 43.76 46.59 43.46 43.87 43.95 43.51 43.31 37.20 34.59 36.76 48.10 48.85 49.45 49.66 49.40 49.71 50.52 52.46
49.87 47.62 53.45 53.80 52.71 48.85 47.72 47.35 46.75 50.66 48.20 48.66 47.72 48.81 46.81 44.98 46.59 43.63 44.99 47.78 49.34 48.68 51.15 47.32 43.43 39.84 35.71 38.87 42.87 40.91 43.20 43.88 42.19 37.49 37.61 38.18 40.41 45.03 47.89 47.70 48.27 49.78 50.94 51.30 52.13
50.72 49.23 50.85 45.35 49.02 49.43 48.78 47.44 45.68 45.19 49.00 48.84 46.22 45.91 44.45 41.22 42.70 42.62 44.12 45.96 47.94 48.00 47.15 46.17 39.15 41.37 41.90 43.64 42.95 41.87 41.98 42.88 41.15 41.46 37.89 40.17 40.96 44.10 46.30 47.46 49.23 50.64 50.41 49.96 49.71
48.35 46.15 48.98 47.94 49.04 47.49 45.01 46.27 45.54 46.21 44.92 44.49 43.47 44.98 44.32 41.76 42.13 40.52 42.81 42.52 43.06 46.91 44.90 46.64 38.78 41.28 38.92 42.42 42.80 40.63 42.97 43.27 42.75 42.46 41.70 41.86 41.36 47.07 48.72 49.55 48.92 49.06 48.67 48.05 48.86
52.83 52.64 48.78 46.19 47.19 45.87 45.81 46.24 44.40 45.21 45.88 46.62 44.88 43.06 41.28 43.06 45.00 46.60 47.39 46.78 44.71 43.45 42.57 41.96 41.03 38.52 34.86 40.92 40.59 36.02 41.11 42.12 42.83 43.92 42.67 39.05 43.63 47.56 47.32 47.62 47.62 48.28 48.68 47.69 47.55

GFSSW_sfc_wetblb_093.txt.gz
Wetbulb
57.30 57.40 57.21 56.99 57.07 56.84 56.25 55.39 55.31 55.31 55.26 55.15 55.42 55.63 55.29 54.94 55.22 51.42 46.79 51.47 54.20 59.14 61.03 53.01 51.37 50.94 49.59 46.97 48.77 50.88 42.35 41.00 43.69 46.50 49.25 53.49 53.98 57.54 58.13 54.87 56.49 56.32 56.70 57.73 58.52
56.34 57.09 57.26 57.04 56.79 56.74 56.38 55.99 55.26 55.12 55.23 55.57 55.35 54.82 54.81 54.71 49.92 47.09 54.14 60.85 61.31 63.46 54.61 49.62 47.18 49.25 44.06 44.68 45.98 45.16 42.11 43.11 48.59 50.30 49.84 51.51 50.99 54.28 53.81 53.81 54.43 56.07 58.30 58.95 57.95
55.29 55.78 56.69 56.76 56.78 56.29 55.98 56.36 55.74 55.46 55.36 55.35 55.38 55.06 54.71 53.52 47.52 51.50 65.69 61.22 63.42 62.83 51.49 50.19 49.34 47.61 41.91 44.52 45.30 44.98 42.09 46.36 49.22 51.21 51.72 50.53 50.33 51.58 49.98 48.85 51.76 53.04 54.26 55.04 55.61
54.60 54.90 55.26 56.14 56.35 56.20 55.98 55.76 55.65 55.62 55.13 55.11 55.10 55.00 54.58 50.59 43.75 56.18 64.81 65.72 64.03 55.09 51.29 48.36 46.88 43.83 41.98 41.57 46.04 41.59 46.66 47.60 47.65 50.46 50.44 48.66 51.14 51.74 50.38 49.45 52.81 52.88 54.26 54.80 54.07
54.16 54.34 54.25 54.67 55.44 55.98 55.91 55.70 55.08 55.49 55.30 54.69 54.55 54.60 51.17 46.40 48.33 61.05 62.93 63.26 57.13 52.58 47.70 45.91 44.76 46.05 41.36 43.46 44.85 44.00 45.97 48.40 48.91 48.55 47.06 50.07 48.51 49.17 49.19 51.99 53.49 53.72 53.85 53.25 52.85
54.64 54.10 54.01 54.13 54.91 55.51 55.85 55.63 55.33 54.20 55.04 55.07 54.45 54.76 49.08 43.91 56.86 60.87 57.79 55.67 54.07 49.08 45.28 46.91 48.50 50.03 45.06 44.76 43.33 46.33 46.90 47.45 47.94 47.94 46.86 47.28 48.01 48.61 49.72 52.30 51.99 51.96 51.92 51.58 52.96
55.02 54.80 53.95 54.12 54.42 54.86 55.31 55.07 54.77 54.56 54.56 54.82 54.68 54.05 47.29 45.93 56.49 57.37 52.83 49.06 50.05 49.07 47.73 50.75 52.19 49.64 47.10 44.15 48.46 47.93 43.62 46.22 46.68 46.15 46.51 48.15 45.04 46.28 50.25 51.30 50.17 50.51 50.51 52.34 53.10
55.50 55.13 54.63 54.26 53.99 54.30 54.70 54.71 54.62 54.53 54.52 54.66 54.93 52.29 44.59 56.50 55.50 54.21 53.91 53.09 53.91 50.82 50.76 53.54 54.20 50.55 46.61 48.19 48.10 43.97 43.21 38.17 44.22 47.05 47.89 46.59 40.01 48.05 50.29 49.97 49.58 50.98 51.48 52.34 51.95
55.66 55.19 55.17 54.61 53.72 53.46 53.91 53.93 54.36 56.08 55.43 55.04 51.12 48.27 46.79 57.68 52.13 54.47 55.42 54.03 53.71 54.14 54.41 56.77 52.54 47.91 48.12 42.24 39.91 40.78 35.26 37.68 41.82 46.20 46.30 44.08 41.15 48.06 49.89 49.27 48.93 49.73 50.79 51.75 51.43
55.78 55.17 54.99 54.91 54.20 53.38 53.09 53.52 54.39 54.52 54.65 54.88 53.91 47.24 51.48 52.68 50.80 53.22 57.50 56.09 51.53 51.63 52.15 50.58 47.08 42.82 41.70 39.05 33.14 37.69 37.62 40.05 40.70 45.51 46.17 42.55 42.73 46.55 48.41 48.65 48.32 48.68 49.73 50.43 51.20
55.84 55.19 54.93 54.75 54.30 52.26 51.40 49.57 50.29 49.27 51.72 48.09 50.11 49.91 52.09 56.40 53.12 52.78 57.00 54.07 51.73 49.54 43.01 46.25 39.41 37.34 41.30 43.76 44.33 43.37 41.57 40.67 43.70 46.24 44.38 42.76 42.47 44.67 46.89 47.26 47.00 47.55 48.29 49.39 50.52
55.50 54.89 54.42 54.50 53.58 52.80 50.35 46.74 52.06 52.64 47.33 53.80 54.03 52.72 55.83 55.38 49.49 52.26 56.18 49.06 47.72 42.63 45.75 42.80 38.71 44.89 47.58 47.16 45.77 43.86 41.25 40.04 44.08 46.59 43.42 42.74 42.44 45.51 46.46 46.91 47.40 47.99 48.59 49.50 49.48
54.30 54.05 54.50 54.20 52.63 50.08 47.79 50.47 55.46 56.00 46.11 50.55 54.16 53.43 52.83 52.88 50.49 49.88 52.46 50.46 46.70 43.84 44.49 41.25 44.94 48.56 46.75 44.66 44.31 41.88 40.39 41.24 40.92 44.51 44.88 42.79 40.20 43.10 47.28 48.37 49.56 49.73 50.18 50.05 49.97
54.13 54.18 54.04 53.31 49.12 52.96 51.02 55.42 55.39 55.89 41.08 47.94 50.20 52.33 52.56 51.90 48.11 54.44 53.79 50.86 47.59 44.39 45.46 44.09 47.81 47.23 44.48 44.01 44.09 38.97 45.19 44.63 43.38 40.89 34.43 43.46 31.43 40.68 44.85 46.33 48.32 48.64 48.54 49.28 50.70
54.16 54.14 53.79 52.19 47.71 49.90 53.87 55.07 54.94 53.41 35.63 49.01 49.36 54.80 52.19 48.01 50.23 51.30 54.77 50.79 45.41 45.44 44.99 42.63 44.73 44.76 43.12 43.95 45.52 41.97 47.24 45.12 44.10 39.16 37.61 39.48 33.97 38.54 44.07 44.32 45.91 47.09 48.94 48.72 49.67
53.72 53.99 53.32 51.73 50.11 51.84 55.99 54.79 53.09 40.56 35.37 46.86 49.87 48.16 46.75 48.43 49.45 51.27 50.85 52.07 50.38 45.90 45.34 44.37 48.77 47.27 46.19 47.82 47.33 48.30 44.57 43.20 41.32 37.64 30.19 38.39 36.64 37.40 41.90 44.39 45.42 47.08 48.71 49.76 50.41
53.45 53.20 51.24 52.04 51.29 56.56 56.03 51.29 41.44 37.01 49.95 45.78 45.25 47.09 46.07 45.57 46.75 47.66 46.14 43.33 40.74 36.85 38.22 42.62 43.63 47.15 48.85 45.21 46.49 44.44 37.74 29.74 28.22 28.69 29.78 41.27 38.46 39.32 46.40 46.91 47.18 46.28 47.89 49.15 49.58
52.48 51.03 51.21 53.37 55.75 56.62 54.13 45.62 38.14 45.49 45.75 49.32 48.09 47.43 43.86 45.98 45.42 46.62 44.89 41.23 44.56 42.71 39.18 37.22 36.34 45.31 48.91 46.54 42.65 42.90 40.83 34.33 26.54 26.96 31.81 41.99 35.47 41.92 46.83 47.98 48.38 49.20 48.42 49.02 47.55
50.79 51.70 54.00 56.50 57.05 55.95 48.99 39.68 42.90 45.51 47.30 45.56 46.29 43.64 43.28 46.61 46.70 45.97 43.65 43.20 46.00 44.92 38.48 37.59 38.67 48.79 48.63 48.92 45.91 42.09 37.94 42.82 34.78 36.59 30.85 34.98 39.81 45.42 47.92 46.87 47.75 47.34 47.86 46.99 47.86
47.20 48.41 52.83 59.09 58.49 54.48 45.68 42.57 46.80 48.92 48.38 47.68 41.93 45.57 42.05 44.58 44.08 44.00 43.81 47.63 47.03 48.52 46.25 41.44 35.25 45.14 47.58 49.14 48.08 43.41 45.51 36.04 35.50 27.67 25.10 33.93 36.50 38.09 41.68 42.69 44.64 43.34 42.82 43.99 45.91
47.31 49.25 55.91 58.23 57.27 49.43 41.41 45.14 48.67 50.15 48.98 46.00 44.10 43.23 43.57 42.94 44.57 43.69 44.38 46.88 49.14 47.08 46.03 41.77 38.64 39.73 44.44 41.94 39.93 41.67 38.23 39.42 39.23 37.11 26.03 25.36 33.30 44.32 41.59 42.36 42.10 42.65 44.41 44.48 44.72
46.79 45.32 56.29 58.05 47.10 48.05 45.15 48.84 46.84 48.68 50.19 48.38 48.07 46.18 44.20 44.36 42.39 42.47 43.21 45.86 50.10 48.70 42.30 43.91 39.06 34.21 38.53 45.42 48.06 45.35 39.86 40.05 32.80 31.96 33.91 31.81 32.93 46.63 45.49 43.73 43.88 43.36 44.81 44.36 44.21
43.69 46.64 56.53 54.55 40.61 43.71 49.74 49.11 49.03 47.25 47.39 46.83 45.68 46.95 46.49 43.14 38.95 43.72 44.62 48.85 49.10 46.57 43.51 43.38 36.62 30.32 33.90 39.02 43.78 42.06 42.76 41.84 39.51 38.64 33.48 29.43 32.90 47.08 46.58 45.08 45.01 43.33 45.57 46.24 46.38
44.48 43.51 49.38 50.37 48.68 45.21 44.54 45.32 45.18 49.94 48.27 48.07 46.35 46.15 43.74 41.75 42.78 41.47 43.49 47.41 48.81 47.39 51.72 46.51 38.72 35.13 30.66 37.76 40.62 38.48 41.19 43.12 38.76 29.51 33.32 34.26 36.51 41.55 43.82 44.23 45.42 44.21 44.61 44.40 44.67
46.42 45.59 46.87 41.43 43.74 45.16 45.65 44.89 43.18 43.73 47.97 47.11 43.81 44.32 41.26 36.48 38.95 38.70 43.30 43.85 46.70 48.73 44.31 40.39 34.07 37.04 38.33 41.05 41.80 40.63 40.64 40.65 39.51 39.27 33.75 36.74 38.53 41.57 42.58 43.06 42.88 43.59 44.81 45.03 44.87
44.12 43.97 45.84 43.11 44.77 44.47 44.15 43.17 43.33 44.57 43.91 43.43 41.35 43.16 41.50 36.52 38.03 36.23 40.68 39.31 38.83 43.43 41.11 42.04 33.12 36.35 35.63 40.52 40.29 38.60 41.47 41.52 41.96 41.84 41.23 40.99 39.49 42.65 44.09 44.24 43.69 43.50 44.63 43.70 44.43
49.52 49.15 45.27 43.59 43.10 41.82 42.71 44.18 43.67 43.92 45.32 45.51 42.97 40.03 38.65 40.42 42.12 41.69 41.82 41.70 41.14 38.24 39.06 38.93 37.04 34.17 30.01 38.90 38.13 33.57 38.93 40.90 41.55 43.43 41.93 36.24 40.13 41.96 41.53 42.54 41.65 41.88 42.74 42.60 43.21

GFSSW_sfc_wetblb_096.txt.gz
Wetbulb
55.90 56.18 56.80 57.46 57.23 56.95 56.55 56.42 56.04 55.80 55.64 55.55 55.65 55.28 54.94 54.65 54.99 49.87 45.73 49.79 51.31 57.19 58.81 52.32 50.28 50.56 49.45 44.39 45.21 46.19 37.58 37.30 39.07 41.97 45.57 52.05 52.47 57.59 58.83 55.40 55.85 56.95 55.93 57.21 57.71
55.12 55.28 55.46 56.09 56.71 56.63 56.27 56.16 55.70 55.99 55.93 55.58 55.34 55.29 54.95 54.39 49.37 46.77 52.83 56.96 58.43 59.65 53.38 49.14 45.48 46.90 41.91 41.39 42.48 40.25 38.16 39.31 44.08 46.19 47.69 49.77 51.41 53.57 52.98 52.52 52.83 55.50 56.70 57.35 56.75
54.76 54.71 54.79 54.87 55.09 55.75 56.01 55.69 55.87 55.53 55.80 55.18 55.10 54.83 54.10 53.32 45.83 49.20 59.56 59.39 59.98 60.62 56.06 51.65 47.40 45.88 40.99 39.93 40.48 40.03 38.62 44.01 46.49 47.48 50.03 49.85 49.78 54.15 50.46 48.16 51.34 49.01 52.77 54.41 53.85
54.71 54.80 54.74 54.48 54.49 54.68 55.24 55.55 55.66 55.75 55.25 55.70 54.79 54.46 54.58 49.90 40.19 54.98 65.02 66.25 61.34 58.60 51.54 47.46 44.45 40.55 37.84 37.64 41.23 36.98 43.61 44.74 46.29 47.68 50.14 49.11 49.75 51.22 53.12 51.68 52.18 51.93 52.22 52.71 51.67
55.16 55.29 55.28 55.00 54.43 54.49 54.66 55.23 55.36 55.06 54.79 55.02 54.73 54.43 50.16 43.67 45.66 55.60 63.42 64.98 59.22 55.04 48.43 45.41 42.14 41.68 40.11 40.66 40.43 38.93 42.99 45.05 47.01 47.16 45.72 48.80 49.87 51.22 51.46 56.10 53.32 52.89 52.90 51.24 50.59
55.97 55.67 55.52 55.68 55.24 54.63 54.72 54.86 54.89 54.76 54.55 54.63 54.58 54.19 48.27 38.61 53.09 61.19 58.30 57.67 54.63 48.89 45.55 44.04 43.73 45.06 43.55 43.21 40.10 43.09 44.15 45.23 45.45 46.01 44.42 44.97 46.48 48.05 49.95 52.16 51.52 51.60 51.24 50.77 52.31
56.15 56.13 55.91 55.62 55.77 55.25 54.72 54.22 54.13 54.12 54.77 54.84 54.61 53.06 47.69 44.35 53.54 58.68 55.04 51.72 52.06 50.86 45.07 45.80 47.33 47.39 45.73 41.98 45.35 44.53 41.09 43.28 45.04 44.46 44.42 45.82 43.05 44.44 49.66 50.70 49.92 50.08 49.07 50.66 51.52
56.15 55.92 56.10 56.03 55.97 55.65 54.82 54.08 53.72 54.16 55.33 54.23 54.70 51.59 43.63 53.54 52.78 51.20 51.36 49.42 49.32 51.47 48.28 49.86 49.08 46.55 45.46 46.87 44.77 41.68 40.50 37.71 42.95 45.09 46.33 45.45 39.45 47.05 49.81 49.04 48.73 49.36 49.54 50.26 51.26
55.69 55.38 55.86 55.20 55.27 55.39 54.44 53.35 53.28 54.94 55.52 55.12 49.98 46.80 44.21 56.93 53.96 55.43 53.78 51.76 51.55 50.03 48.79 51.31 49.35 45.29 45.32 40.48 37.18 37.83 34.13 35.99 39.92 44.38 44.64 42.85 39.71 46.71 49.05 48.11 47.41 48.24 48.73 50.18 50.23
55.50 54.63 54.61 54.71 55.12 54.99 53.25 52.73 53.03 53.91 54.61 54.23 52.77 44.59 48.93 50.33 50.18 52.43 53.63 54.05 51.45 50.60 49.34 48.93 44.56 40.91 39.00 37.32 31.45 35.27 35.50 37.29 38.00 42.63 42.10 40.02 41.50 44.53 47.25 47.16 47.02 47.75 48.66 49.73 50.15
54.71 54.36 54.09 54.40 54.66 54.01 51.39 46.77 49.52 48.05 49.53 46.16 48.05 47.35 50.77 54.85 54.02 49.70 53.54 53.90 50.57 48.11 41.66 44.03 38.29 35.75 39.40 41.28 42.15 40.90 39.58 38.25 40.74 44.64 42.67 41.98 42.32 43.62 44.60 45.28 44.41 45.21 46.12 47.26 49.07
54.22 53.95 53.87 54.11 54.36 53.65 50.54 44.07 50.24 50.54 44.43 51.37 52.29 50.23 53.52 54.56 47.94 49.71 55.04 48.39 46.17 41.24 43.69 40.72 36.58 42.43 44.91 44.59 43.37 42.30 39.12 38.44 41.81 44.76 41.41 40.41 40.32 43.16 44.69 44.88 45.46 46.38 46.49 47.25 47.39
53.46 54.07 53.99 53.62 53.52 50.44 45.87 47.53 52.07 52.22 42.99 49.32 52.67 51.89 52.18 52.17 49.16 48.60 51.93 48.59 44.95 41.98 41.78 38.57 42.71 46.60 44.76 42.88 42.16 41.07 39.02 39.27 39.68 42.87 42.76 40.74 38.45 41.28 45.28 46.53 47.42 47.24 47.39 47.79 50.17
54.02 53.98 53.71 53.15 49.49 48.75 48.05 53.25 52.13 51.96 38.31 45.80 49.09 52.26 52.14 50.12 47.05 53.13 52.51 49.51 45.84 42.63 42.74 41.51 46.29 45.59 44.00 42.99 42.52 36.99 43.26 43.89 42.70 38.48 33.35 41.18 30.81 37.96 42.37 43.75 45.93 46.08 47.03 48.39 49.25
53.94 54.06 53.94 52.95 45.68 46.30 52.82 50.56 50.85 49.96 32.93 49.54 49.61 55.16 51.48 47.06 48.03 49.38 52.93 49.16 44.00 43.80 43.59 40.78 42.88 42.54 41.63 42.55 44.32 40.14 45.77 43.57 42.39 37.02 34.63 36.63 32.62 36.69 40.85 41.06 43.10 44.55 46.28 46.93 48.03
53.69 53.93 53.42 49.15 46.76 49.46 52.64 52.58 50.07 40.50 32.98 46.45 48.87 46.98 45.50 46.85 47.50 49.96 49.51 50.35 48.88 44.16 44.46 42.31 46.56 45.55 44.26 46.44 45.21 46.69 42.48 39.96 38.21 34.75 28.68 35.05 34.21 34.01 37.97 41.39 42.90 44.81 46.43 48.06 47.81
53.59 53.08 51.80 51.05 46.39 51.40 50.63 48.30 38.47 33.99 49.34 44.77 43.78 45.87 44.34 43.95 45.42 46.16 44.92 42.75 39.55 35.57 36.14 40.86 41.37 45.02 47.89 43.57 45.21 42.19 35.54 27.95 27.27 27.47 28.01 38.93 35.47 36.23 42.30 44.48 45.11 44.67 46.49 47.70 48.16
52.52 51.32 49.54 50.49 49.23 50.13 50.11 43.47 33.53 44.49 44.95 50.27 46.87 45.45 41.76 44.21 44.08 45.34 42.86 39.27 42.46 41.40 37.95 34.50 34.53 44.20 47.87 44.86 41.10 39.84 37.23 29.68 25.42 26.19 29.75 38.17 33.40 39.35 44.87 46.30 47.56 48.83 47.84 47.47 46.64
51.00 46.90 47.74 51.67 52.10 51.01 45.95 36.85 38.93 45.44 46.76 45.10 45.71 41.73 41.91 44.93 44.70 44.47 41.65 40.76 43.19 42.22 36.20 37.35 38.74 46.83 47.51 47.58 44.91 40.36 35.28 40.26 33.89 34.86 29.72 33.00 38.10 43.28 45.98 46.40 47.09 46.14 46.54 45.85 46.03
46.83 44.81 47.65 54.23 53.88 50.25 43.19 40.30 44.49 48.65 47.60 46.94 41.21 43.75 39.31 42.11 42.59 43.85 42.29 46.25 46.67 46.70 45.36 40.48 34.41 44.32 46.61 47.82 46.30 42.73 44.73 34.25 33.64 27.26 24.72 32.90 36.08 36.86 40.10 42.49 44.61 44.04 43.88 44.40 45.87
43.94 44.72 52.86 55.21 54.38 46.41 39.17 42.15 48.32 49.10 48.26 45.11 42.94 41.72 42.06 41.53 42.44 41.97 43.94 47.00 48.16 45.63 44.22 41.26 37.50 38.38 42.48 40.14 38.42 39.56 37.97 38.33 36.84 35.53 25.78 24.23 31.74 42.16 41.67 40.91 41.55 42.60 43.75 42.22 41.61
43.21 39.16 53.46 54.43 43.74 43.57 41.43 46.71 48.25 49.08 49.27 47.01 46.20 45.16 42.65 43.04 40.94 40.61 40.88 43.90 49.02 47.27 41.22 42.48 37.36 33.53 36.90 42.90 45.19 41.79 38.91 36.88 31.18 30.15 32.62 30.04 30.69 45.43 44.83 44.35 42.51 41.58 43.50 42.92 43.44
40.04 41.32 50.58 52.12 38.69 39.62 44.93 48.15 48.64 47.05 45.89 45.14 43.90 44.80 44.03 40.88 37.15 42.53 43.10 46.85 47.77 45.66 41.98 41.78 35.06 29.82 32.41 36.59 41.29 38.95 41.22 39.33 37.36 34.24 31.30 29.42 30.33 45.96 46.38 45.09 44.53 41.39 41.51 42.85 43.20
40.78 38.59 44.97 46.51 45.56 42.52 42.19 44.30 43.74 48.69 47.05 46.56 44.35 44.18 41.32 39.36 39.80 39.50 41.38 45.96 47.48 46.90 50.85 45.24 36.60 33.18 28.62 34.37 38.36 37.19 40.45 41.20 37.39 29.61 30.96 32.24 34.53 40.69 42.82 42.30 41.50 41.16 41.54 41.23 42.04
41.60 41.47 42.50 38.48 41.76 40.42 41.85 43.65 42.14 42.35 46.17 45.45 42.47 42.23 39.40 34.61 36.48 36.88 40.10 41.37 45.00 47.42 43.54 38.97 33.10 35.41 37.52 39.07 39.80 39.63 40.04 40.35 39.05 38.51 31.56 33.86 33.83 38.68 40.29 39.96 40.21 40.74 42.31 42.89 41.98
40.12 42.54 43.39 41.36 43.23 41.51 42.70 41.71 42.20 42.95 42.71 41.29 39.69 41.16 39.56 35.19 35.74 34.25 36.84 36.65 36.82 40.88 39.19 39.71 31.89 34.60 34.08 38.83 38.47 36.79 39.65 40.30 41.23 41.02 40.48 40.45 38.22 40.52 40.80 39.86 40.88 41.69 42.18 41.31 41.87
47.13 47.41 43.34 40.72 40.30 38.84 39.48 41.22 42.95 42.39 43.74 44.01 41.40 38.99 37.26 38.66 39.55 38.83 39.32 39.30 38.61 36.13 36.19 35.64 35.10 34.70 29.43 37.20 37.21 31.52 37.09 38.73 39.75 42.70 42.30 37.16 38.22 38.77 38.26 39.89 39.60 39.20 40.34 40.62 41.16

GFSSW_sfc_wetblb_099.txt.gz
Wetbulb
55.15 55.25 55.28 55.50 55.76 56.25 56.76 56.16 56.01 56.00 56.14 55.92 55.41 55.57 55.25 55.11 54.67 48.39 44.57 48.89 50.78 56.77 57.50 50.04 50.57 48.70 47.86 43.84 43.97 44.41 36.28 34.84 38.04 40.62 42.14 48.27 48.53 57.01 57.34 55.20 56.28 55.48 55.86 58.41 64.40
55.06 55.11 55.23 55.29 55.18 55.18 55.51 56.07 55.66 55.59 55.58 56.25 55.53 55.40 54.63 54.38 48.14 45.34 51.91 56.13 58.33 58.33 51.22 45.70 44.25 45.74 41.72 41.54 41.07 38.94 33.87 36.57 42.31 43.77 42.70 47.07 47.10 51.95 53.18 53.81 54.46 53.20 55.58 55.64 60.33
55.53 55.85 55.99 55.98 55.42 54.92 54.82 55.10 55.79 55.56 55.51 55.56 55.87 55.07 54.85 52.94 43.07 45.79 58.65 58.20 59.00 59.21 52.25 48.77 46.29 44.69 37.61 37.97 39.16 38.36 37.48 41.62 43.87 45.24 45.87 46.21 47.11 51.57 51.14 49.97 53.48 48.90 50.28 53.89 54.26
56.11 56.38 56.34 56.28 56.12 55.53 54.69 54.86 55.26 55.66 54.96 54.71 55.29 54.27 54.66 49.82 32.66 52.79 64.59 63.06 60.21 57.25 53.80 46.41 42.77 39.75 36.57 37.01 39.02 34.76 40.84 42.98 43.68 46.73 46.54 45.81 48.24 49.10 52.14 54.31 54.89 52.28 51.75 51.40 52.06
56.21 56.38 56.61 56.34 56.18 55.96 55.42 55.09 54.74 54.90 54.78 54.54 54.70 54.31 49.89 42.82 42.77 50.61 62.34 65.79 58.21 55.36 50.39 43.84 41.17 40.24 37.64 37.99 37.84 37.40 40.56 42.38 44.82 44.89 44.63 46.62 48.64 49.62 50.84 54.47 55.95 53.17 52.64 51.68 49.81
56.32 56.33 56.09 55.93 55.59 55.41 55.81 55.38 54.49 54.24 53.76 54.41 54.14 54.19 47.84 39.69 49.49 54.18 59.81 57.49 56.88 51.44 46.34 43.13 42.36 43.72 41.71 41.24 38.39 39.89 41.21 42.58 42.84 42.60 44.52 43.45 44.49 49.44 51.01 54.45 53.88 53.20 50.99 50.94 50.89
55.61 55.43 55.34 55.49 55.42 55.28 55.27 55.09 54.40 53.70 53.57 54.60 54.24 52.36 47.34 44.42 52.94 57.17 56.59 52.69 53.80 50.35 46.34 46.33 45.65 45.78 43.88 41.34 44.12 42.89 38.33 39.80 42.10 41.83 42.47 44.38 41.72 44.73 49.90 53.84 52.98 54.47 55.36 50.94 51.27
55.73 55.64 54.96 55.11 55.11 55.43 55.65 54.73 53.14 53.18 53.84 54.39 54.63 51.24 43.75 52.77 51.83 50.60 52.82 48.95 51.31 50.92 47.01 48.12 46.24 44.23 42.55 44.62 44.68 38.42 38.41 32.88 41.51 42.33 43.58 45.31 37.85 44.72 48.90 49.64 51.70 52.58 51.88 50.78 50.46
54.96 54.69 54.86 54.86 55.02 54.94 55.18 54.38 53.19 53.64 55.24 54.62 50.27 47.92 42.29 55.20 52.55 55.14 52.41 49.59 49.34 50.43 50.27 49.91 45.93 42.83 42.43 39.08 35.30 35.32 31.81 33.38 38.55 42.27 42.62 41.83 39.09 45.21 47.51 47.57 47.70 48.32 49.32 49.32 49.03
54.59 54.16 54.07 54.54 54.18 54.75 54.48 53.31 52.48 54.51 53.99 53.43 52.25 43.35 47.11 48.40 51.66 53.58 53.14 52.92 49.43 47.23 45.59 44.24 42.28 39.33 36.36 35.67 30.82 33.61 33.34 35.70 36.45 40.46 41.20 38.77 40.04 43.78 45.03 46.69 46.50 47.03 47.53 48.38 49.26
54.01 54.09 53.93 53.62 54.28 54.11 52.39 45.68 47.83 45.81 48.72 45.41 46.89 45.92 48.83 53.29 54.21 48.61 51.77 50.64 49.18 45.38 40.14 42.78 37.27 34.77 38.24 39.73 40.31 39.07 37.23 36.74 39.68 42.58 40.35 39.63 39.99 43.06 43.32 43.60 44.25 45.11 45.86 46.94 48.28
54.07 54.56 54.78 54.25 53.87 53.70 51.20 42.89 48.31 49.09 43.53 49.68 50.28 49.28 51.63 52.83 49.49 48.35 52.02 47.68 45.03 39.22 41.82 38.95 35.38 41.15 42.63 42.58 41.38 40.13 37.47 37.01 40.37 42.64 40.08 39.46 38.91 41.11 43.07 43.62 44.36 45.44 45.92 46.59 50.14
54.42 54.52 53.64 53.78 53.25 49.71 45.18 46.09 50.59 49.45 41.76 46.97 50.32 50.05 50.73 51.53 49.32 49.75 50.17 47.75 43.12 40.35 39.86 36.83 40.74 45.07 43.38 41.29 40.14 38.69 36.66 37.38 38.65 41.26 41.12 38.64 36.96 39.22 42.90 44.64 45.47 45.38 45.95 46.67 49.77
54.01 53.83 53.25 53.32 48.59 47.39 46.57 51.60 51.18 49.29 37.49 43.68 47.74 50.57 51.74 50.59 46.13 52.01 51.84 48.44 44.04 40.62 40.60 39.50 43.87 43.28 41.95 40.93 41.08 35.65 41.75 41.93 41.25 37.09 32.33 38.91 29.74 36.92 40.35 41.30 43.97 44.95 45.16 47.72 48.96
53.32 53.87 53.23 52.96 47.45 44.99 51.08 49.76 48.99 47.83 28.35 48.51 47.95 53.95 50.04 46.80 47.11 48.17 51.28 48.11 43.40 42.72 41.72 39.18 41.49 40.58 39.45 41.09 42.94 39.66 43.38 41.49 40.13 35.48 33.05 35.65 31.75 35.50 38.99 39.23 41.22 42.54 45.24 45.66 46.62
52.61 53.65 53.15 49.01 48.96 48.61 51.20 50.63 48.83 38.26 31.16 45.41 47.90 45.43 43.99 45.51 46.80 48.26 48.52 49.18 48.11 43.19 42.85 41.07 45.52 43.66 42.55 44.72 44.56 45.01 40.68 37.82 35.68 32.82 27.99 33.35 32.44 32.55 36.41 39.39 40.73 43.09 44.64 46.30 46.86
52.57 52.84 51.35 51.19 44.88 49.60 49.22 47.89 37.59 33.15 47.16 44.70 42.87 44.11 42.99 42.09 44.24 45.13 43.72 42.35 39.65 35.25 35.50 38.76 40.48 43.38 45.87 41.86 43.75 40.48 34.43 26.87 25.98 26.19 26.77 35.85 33.17 34.91 40.35 42.61 44.32 43.67 44.54 45.66 46.80
51.85 51.25 49.72 50.54 49.82 49.94 48.87 43.22 33.35 42.03 44.54 49.53 45.18 43.27 40.05 42.13 42.48 43.77 41.94 38.52 41.91 40.74 36.68 33.19 32.51 42.47 46.83 43.17 39.45 38.17 35.63 28.57 24.56 24.91 28.26 35.96 31.20 37.19 42.88 43.95 45.37 46.26 45.95 45.78 44.91
50.69 46.84 45.76 48.50 50.75 49.07 45.26 36.58 37.25 43.17 47.55 44.23 44.42 39.92 39.25 42.86 42.88 42.61 40.89 40.28 41.97 41.17 35.96 35.10 37.67 45.22 46.86 46.64 44.12 38.66 35.16 39.08 33.04 33.02 28.32 31.20 35.45 41.08 43.91 43.66 44.86 44.89 45.20 45.10 45.21
47.04 44.34 45.26 50.93 51.75 48.89 42.43 39.64 42.71 48.86 47.17 46.56 40.94 42.28 37.89 40.17 39.67 39.73 39.86 44.21 44.22 43.89 41.85 39.30 34.78 42.94 45.35 46.90 46.29 41.90 43.00 33.71 33.15 27.13 24.38 30.39 32.75 33.79 39.36 41.28 43.17 43.63 44.46 44.00 42.78
43.02 41.64 49.22 53.34 52.30 45.93 38.60 40.51 46.02 51.07 47.86 44.40 41.82 41.07 41.97 40.47 41.57 40.97 42.45 46.38 47.41 44.41 43.61 39.78 36.98 37.06 41.08 39.41 38.05 39.66 38.03 37.42 36.33 32.69 26.69 25.22 31.24 40.85 41.88 40.63 40.07 39.37 39.22 39.36 40.69
41.99 36.06 50.09 52.15 43.28 42.27 40.02 44.17 46.81 48.98 49.64 46.67 45.10 43.53 41.06 40.62 39.38 40.10 40.04 44.17 47.76 46.88 40.78 41.27 36.66 32.37 35.91 41.62 43.79 40.42 36.96 36.24 31.33 29.77 30.46 29.79 32.18 43.25 42.56 40.20 40.39 40.28 41.20 40.28 40.40
39.64 39.21 48.42 51.39 39.40 39.64 43.14 45.56 48.38 46.46 45.94 45.20 43.31 44.78 43.30 39.12 35.78 40.96 41.56 45.96 46.92 45.27 41.80 41.91 34.53 29.38 32.15 34.45 40.15 37.94 39.63 36.90 34.67 33.19 29.47 26.78 29.46 44.01 43.65 42.70 41.29 41.05 41.71 41.72 41.83
41.04 37.48 43.56 46.04 45.66 41.12 39.41 42.36 43.82 48.09 46.82 46.13 43.71 44.23 41.23 38.43 38.36 37.87 40.05 44.45 46.77 46.58 48.58 44.59 35.93 33.58 29.71 31.60 36.24 35.31 39.18 39.97 37.87 30.79 29.93 30.58 33.89 39.56 40.94 40.43 39.05 39.15 40.49 41.86 41.17
41.53 40.33 42.36 37.97 41.10 42.07 41.98 41.91 41.94 42.25 45.85 44.74 41.65 42.09 39.81 34.57 35.30 35.30 38.11 39.76 43.82 44.82 42.46 38.33 33.51 35.41 36.99 38.89 38.29 37.53 38.20 39.11 38.24 37.85 34.16 33.62 33.08 36.29 37.43 38.21 38.38 39.79 40.63 40.60 39.98
38.65 42.58 43.42 41.87 43.23 42.26 42.23 40.79 40.40 42.45 42.15 41.12 39.98 40.48 39.52 36.15 35.86 34.55 35.92 35.51 35.96 39.61 38.26 38.22 31.70 34.03 33.56 38.00 37.27 35.62 37.70 38.96 39.07 39.12 39.51 39.02 37.95 38.35 38.43 39.57 39.33 39.58 40.11 39.55 40.33
46.47 46.61 43.48 40.51 38.94 38.24 39.57 40.35 40.18 43.48 43.20 43.49 41.39 38.72 37.75 38.91 39.81 39.44 38.98 38.46 38.19 35.29 35.01 34.64 33.26 30.98 28.71 35.72 35.61 31.10 36.13 37.27 38.25 40.37 39.72 36.15 39.64 39.49 39.17 39.30 38.06 38.04 38.94 38.94 40.02

GFSSW_sfc_wetblb_102.txt.gz
Wetbulb
55.92 56.09 56.31 56.29 56.13 55.51 55.24 55.42 55.92 55.83 55.71 55.78 55.79 55.12 55.05 54.66 53.97 47.56 44.32 48.32 50.91 56.81 57.43 50.20 49.48 47.52 46.13 42.87 42.66 42.40 35.06 31.04 35.53 39.25 41.19 45.44 45.26 50.04 55.31 54.99 56.19 55.74 54.05 59.74 70.37
56.48 56.73 56.74 56.82 56.63 56.33 55.38 55.12 55.24 55.81 55.81 55.31 55.43 54.99 54.75 54.60 48.29 45.09 51.07 55.73 58.23 59.86 49.42 44.89 43.20 45.02 40.54 40.57 40.03 39.29 33.05 35.24 40.83 41.87 41.83 44.52 44.54 47.56 51.01 51.46 54.30 55.78 54.22 62.70 70.03
56.66 56.62 56.64 56.78 56.83 56.17 56.03 55.37 55.24 55.31 55.64 55.28 55.05 54.71 54.25 53.02 40.56 41.53 57.57 57.61 59.34 58.72 48.96 45.94 45.31 43.49 37.49 36.66 38.91 35.41 33.67 39.55 40.73 43.96 44.77 43.63 44.95 48.42 49.68 48.93 52.75 53.71 49.83 55.13 64.62
56.75 57.00 56.43 56.35 56.07 55.72 55.65 55.77 55.66 55.37 55.04 54.82 54.47 54.61 53.84 48.24 35.23 51.97 61.82 59.00 60.44 56.37 48.29 45.07 41.63 38.33 35.59 35.74 37.46 33.60 38.92 41.42 42.24 45.04 44.08 42.39 45.85 46.30 51.02 52.32 55.43 53.86 53.71 50.73 55.45
55.83 56.06 55.97 55.82 55.70 55.58 55.49 55.66 55.41 54.79 54.23 53.81 54.54 54.33 48.58 40.94 42.33 49.00 60.17 61.57 57.28 54.74 46.03 42.36 39.76 38.42 35.63 36.52 37.41 34.89 38.96 40.45 43.19 43.84 42.42 44.31 45.02 44.94 48.79 53.40 56.05 54.81 55.85 53.74 49.87
55.38 55.39 55.51 55.43 55.32 55.28 55.03 55.17 55.23 54.74 53.87 53.62 54.79 54.38 47.08 39.51 49.59 52.09 59.92 57.29 54.80 50.72 46.13 42.55 41.25 42.52 39.76 39.25 37.08 38.96 39.83 41.36 41.41 40.36 39.59 41.24 42.26 44.62 49.07 52.46 53.88 54.14 54.14 54.44 50.76
55.13 54.87 54.83 54.79 55.27 55.69 55.76 55.27 54.82 54.32 53.73 53.63 55.23 51.98 46.32 43.68 53.08 52.24 54.85 53.25 53.57 49.92 45.90 44.34 43.95 42.92 41.59 39.70 42.72 41.17 36.97 37.41 39.72 41.80 39.32 42.00 39.60 42.20 47.10 49.55 53.01 53.76 55.93 55.81 56.29
55.04 54.63 54.19 54.56 54.38 54.94 55.26 55.13 54.68 54.21 53.55 54.16 54.87 50.43 42.16 52.05 51.63 49.93 52.94 49.82 53.76 50.30 46.55 47.66 45.78 42.18 40.78 43.45 42.59 37.44 36.36 30.99 38.82 39.70 41.34 42.09 36.10 43.45 46.34 47.75 50.17 51.87 53.80 54.75 55.95
54.19 53.83 53.98 54.27 54.06 54.49 55.05 54.58 54.01 53.84 53.79 55.28 50.26 47.20 41.04 53.56 51.07 53.03 53.64 49.26 49.52 49.99 49.22 49.87 44.52 39.89 40.87 36.86 33.93 33.80 30.49 31.65 36.11 40.07 40.21 40.82 37.22 44.36 46.79 46.98 48.54 51.96 53.41 55.03 54.44
54.02 53.83 54.37 54.32 54.36 54.50 54.36 54.21 53.02 54.55 53.75 52.92 51.46 43.55 45.28 46.84 51.41 53.21 52.94 49.27 46.73 46.66 45.24 41.98 38.69 36.63 34.85 33.40 28.98 31.49 31.20 33.76 34.25 38.48 39.37 38.05 39.84 45.50 47.99 45.68 48.15 50.62 51.98 54.14 53.06
54.12 54.07 54.64 53.89 53.52 53.91 52.66 46.42 46.49 46.33 48.26 43.02 44.88 44.83 46.90 51.59 53.59 49.61 51.81 49.75 47.95 43.49 37.42 38.49 34.12 32.32 35.92 38.16 38.58 37.65 35.88 35.31 38.46 41.33 38.52 37.24 37.98 41.87 43.13 43.11 42.75 45.63 47.32 49.00 48.51
54.01 54.17 53.92 53.41 53.23 53.17 51.57 43.31 46.80 47.24 42.78 48.07 48.83 48.05 50.84 50.89 47.80 49.04 51.76 45.30 43.22 38.35 39.81 37.10 33.64 39.61 41.35 40.48 39.22 38.36 35.58 35.63 39.29 41.17 38.73 37.46 37.69 40.13 40.79 42.34 43.01 44.53 45.38 45.71 49.12
53.14 53.04 53.35 53.23 52.92 49.79 45.94 45.60 49.57 48.44 41.26 45.75 48.77 48.46 48.94 50.01 47.47 48.34 47.88 45.94 42.87 39.63 38.62 35.38 39.49 43.12 41.58 39.40 38.48 37.19 35.47 35.65 37.20 40.12 40.13 37.16 35.64 37.13 40.71 43.07 44.27 44.09 45.28 47.99 49.61
52.71 52.67 52.88 53.13 47.91 45.68 44.87 50.43 50.63 48.92 36.97 41.94 45.94 48.78 50.03 49.32 45.26 51.86 49.24 47.10 42.47 39.84 39.58 38.07 41.87 41.63 39.28 38.88 39.46 34.77 40.55 39.98 38.66 35.75 31.22 36.97 29.07 35.16 38.47 40.44 43.54 44.30 43.96 46.94 49.34
52.01 52.18 51.99 52.70 47.42 44.43 48.36 48.53 48.67 46.78 28.57 46.03 46.66 53.21 49.70 45.59 45.66 46.58 50.20 46.88 41.84 41.04 40.24 38.14 39.79 38.74 37.74 39.52 41.48 38.36 42.01 39.80 38.30 34.08 31.56 34.26 30.71 34.10 37.34 37.90 40.50 42.62 44.52 45.70 46.94
51.84 52.08 51.94 49.79 48.16 47.93 49.29 49.12 47.13 37.48 30.35 43.63 46.93 44.88 43.07 44.47 44.82 46.58 46.28 48.19 46.88 41.83 41.58 40.73 44.31 42.36 41.35 43.06 43.03 43.46 38.91 36.40 34.01 31.55 27.61 31.49 31.54 31.88 35.47 37.88 40.14 42.49 44.18 45.77 46.79
52.52 52.36 50.48 50.27 43.74 47.76 48.26 46.26 36.07 32.25 45.02 43.95 41.66 43.54 41.57 41.04 43.02 43.75 42.28 40.10 38.37 33.92 34.50 37.49 39.19 42.45 43.82 39.27 41.76 38.57 33.59 25.89 25.56 25.73 26.03 33.63 31.66 33.91 38.70 41.96 42.84 42.78 43.83 45.43 47.19
51.92 50.59 49.77 49.63 49.68 49.46 47.62 41.76 32.19 40.36 42.11 48.40 44.33 42.67 39.72 41.13 41.43 42.28 40.25 37.30 40.59 39.03 34.31 32.41 31.61 41.33 45.31 42.13 38.38 36.11 34.70 26.91 23.60 23.90 26.48 34.57 30.07 35.94 41.76 43.11 44.37 44.89 44.86 45.22 45.42
50.19 45.64 44.30 45.86 49.65 48.39 42.94 35.61 36.31 41.35 46.71 44.30 43.24 38.97 38.40 41.34 41.39 40.99 38.56 39.30 40.54 40.80 35.70 33.06 34.70 44.21 45.76 45.35 42.55 37.20 33.50 36.38 30.36 29.71 26.61 29.71 34.37 39.89 42.53 42.08 43.42 43.52 44.29 43.77 41.98
46.72 43.53 42.35 48.24 49.98 46.02 40.63 38.37 41.36 47.25 48.47 45.57 39.67 41.73 36.87 39.01 38.72 38.44 38.09 42.48 41.80 42.95 41.87 38.06 34.77 42.58 44.53 45.89 45.28 40.34 41.30 32.20 30.32 24.97 23.54 28.54 31.13 32.80 38.03 40.20 42.01 41.61 41.12 42.24 42.38
44.04 37.99 44.37 50.53 49.61 44.24 37.35 39.87 44.38 48.70 48.76 44.24 42.05 41.01 40.72 39.97 39.22 37.45 38.73 44.65 46.17 43.19 41.95 39.23 36.85 36.32 40.41 38.83 38.51 39.89 35.94 34.62 33.73 30.12 24.39 23.47 29.38 38.40 39.57 40.11 39.77 40.17 39.69 38.84 39.84
42.86 34.17 45.97 51.72 42.78 42.46 40.40 43.56 45.92 47.38 49.69 46.72 45.19 43.74 41.52 41.27 40.51 40.58 39.79 41.95 46.91 45.97 40.98 41.50 35.88 32.04 36.35 40.61 42.49 39.33 36.60 35.05 29.95 30.20 30.15 28.29 29.82 42.18 41.75 41.66 39.82 39.34 39.87 39.56 40.68
38.75 39.28 46.13 50.15 38.17 39.94 43.02 44.12 46.71 46.59 46.40 45.42 43.77 44.80 43.46 38.64 37.42 41.37 41.81 45.38 47.10 45.45 42.56 42.89 35.47 30.06 32.14 36.79 40.20 37.23 37.55 35.58 33.71 31.93 29.02 26.46 29.82 42.79 41.20 40.02 40.36 38.95 40.09 40.98 41.40
41.41 34.62 41.57 43.74 44.22 40.81 39.65 40.27 42.18 47.71 45.70 45.85 43.46 44.17 41.05 38.06 38.86 38.64 40.25 43.90 46.32 46.45 47.87 44.26 35.79 33.58 29.59 30.95 35.05 35.24 38.27 38.08 34.49 28.25 29.81 30.17 32.43 37.73 39.49 40.43 40.83 38.75 39.90 40.33 40.82
41.54 36.10 43.54 36.21 40.25 41.25 42.30 41.06 40.67 40.99 45.28 44.74 42.70 42.13 39.70 35.41 35.69 35.63 38.27 39.84 42.51 44.23 41.78 38.62 34.04 35.59 36.81 38.92 38.02 35.97 36.74 37.80 36.42 36.38 32.17 34.56 33.43 36.49 38.51 39.67 38.02 39.59 40.47 40.60 40.60
40.16 40.99 42.68 39.09 41.87 41.27 41.09 39.33 38.86 41.83 41.23 40.81 40.73 40.82 40.20 36.53 36.08 35.12 36.45 36.18 35.80 39.42 37.15 37.55 32.33 34.09 33.08 37.08 36.38 34.45 36.38 37.45 37.58 37.73 36.92 37.87 35.44 40.20 38.29 39.66 39.40 39.52 40.14 39.88 40.75
45.74 45.36 42.68 39.56 37.06 35.19 38.93 39.47 39.09 41.47 43.41 43.14 42.33 41.17 38.66 38.72 39.31 39.43 39.02 38.55 38.78 36.56 34.46 33.48 32.36 30.59 28.84 35.20 34.20 29.82 35.18 36.07 36.51 38.64 38.40 34.57 38.81 38.28 37.47 38.73 38.48 39.11 39.82 39.78 40.09

GFSSW_sfc_wetblb_105.txt.gz
Wetbulb
57.16 57.06 56.83 56.65 56.54 56.47 56.21 56.02 55.59 55.83 55.93 56.10 55.25 55.59 55.39 55.46 54.75 51.49 46.75 52.10 52.56 56.73 56.85 52.57 50.46 49.46 50.71 49.60 50.04 49.28 43.52 40.94 42.44 43.64 45.88 51.06 50.05 53.57 56.08 56.70 58.38 58.41 56.03 59.60 72.14
56.83 56.67 56.41 56.46 56.45 56.25 56.22 55.92 55.80 55.67 55.72 55.51 55.51 55.13 55.18 54.75 51.21 47.63 53.99 55.34 57.43 58.28 52.73 49.82 46.50 48.17 47.32 48.21 48.19 47.74 42.74 42.43 46.23 47.63 47.17 49.53 50.38 52.11 52.26 53.60 55.31 56.72 58.33 70.02 72.18
56.33 56.50 56.28 56.31 56.17 56.10 55.78 56.05 56.27 56.12 55.66 55.41 54.65 54.82 54.61 53.83 45.88 47.33 55.76 57.16 59.31 59.67 51.99 50.37 49.94 47.21 44.35 47.00 46.16 44.69 42.79 45.49 46.57 48.99 49.99 48.66 49.46 51.51 51.23 51.01 54.38 55.72 55.45 60.78 70.23
56.02 55.95 55.94 55.94 55.85 55.78 55.48 55.90 56.07 55.98 55.60 55.05 54.59 54.33 54.63 51.13 41.65 57.08 60.07 58.75 60.94 57.84 50.92 48.99 47.66 44.71 43.17 42.37 46.13 42.37 44.85 46.56 47.06 48.84 49.16 48.19 50.26 49.32 51.03 52.66 56.08 57.19 57.46 57.61 59.76
55.52 55.67 55.49 55.43 55.42 55.45 55.61 55.66 55.71 55.50 55.01 54.80 54.30 54.67 51.54 45.04 46.33 51.43 61.26 59.97 58.47 54.16 49.05 47.83 45.85 44.88 42.10 43.47 43.95 43.41 44.46 45.47 47.48 48.11 48.15 48.77 47.25 47.71 49.20 52.93 55.67 56.48 58.61 57.57 57.90
55.03 55.00 54.83 54.66 54.78 55.11 55.47 55.49 55.61 55.38 55.00 54.12 54.21 54.70 48.21 41.61 53.44 55.69 60.19 58.41 56.93 52.98 48.22 48.09 47.07 48.07 45.33 44.74 43.78 44.93 44.79 44.89 45.92 46.27 47.29 46.35 46.67 47.62 48.56 51.63 52.06 54.40 55.97 57.55 58.86
55.19 55.00 54.29 54.31 54.53 54.28 55.10 54.87 54.93 55.02 54.91 53.71 54.59 52.54 46.47 46.97 56.48 60.34 60.68 57.33 56.95 52.90 47.03 48.25 48.60 47.46 47.46 45.01 47.68 46.19 43.38 46.22 45.36 45.28 44.70 46.75 43.56 44.59 48.98 50.77 51.13 54.73 57.23 58.65 59.94
54.20 54.07 54.59 54.24 54.74 54.86 55.02 54.93 54.73 54.82 54.60 53.88 55.16 50.73 44.28 53.14 54.89 53.26 56.68 54.92 56.45 52.13 51.03 50.05 50.05 47.54 47.42 48.12 46.60 43.98 42.76 41.40 47.33 45.29 45.17 45.05 39.37 46.14 50.06 50.21 49.97 51.61 53.47 56.49 59.70
54.34 54.02 54.11 54.35 54.88 54.80 54.67 54.52 54.74 56.05 53.24 54.43 51.10 47.64 43.70 55.07 51.85 54.39 55.38 52.70 53.37 52.34 51.39 50.98 49.38 45.69 46.07 43.80 42.12 41.97 40.10 40.20 43.10 46.07 45.24 44.06 41.96 47.32 50.31 49.93 50.03 52.33 54.68 55.98 58.87
54.01 54.12 53.83 54.08 54.41 54.20 54.14 54.01 54.02 54.58 53.62 52.85 51.24 43.98 47.86 48.83 52.87 53.66 55.60 54.09 50.54 49.75 47.47 46.04 44.69 42.43 42.71 41.71 37.25 39.59 38.93 40.85 41.19 44.85 44.43 43.29 43.58 47.29 49.47 49.60 50.40 52.89 53.12 54.29 57.22
53.63 53.23 53.19 53.17 53.19 53.42 52.58 50.09 47.50 47.13 48.45 45.50 46.64 46.15 48.41 53.27 55.53 52.26 53.90 50.25 49.83 46.67 41.04 43.06 40.07 39.09 42.56 43.92 44.48 43.00 42.04 41.52 44.73 46.88 43.79 43.53 43.86 46.10 48.90 50.32 50.83 52.22 52.54 55.05 57.71
52.97 52.90 52.82 53.27 53.17 52.67 51.05 46.09 49.39 50.70 45.13 49.57 48.98 48.74 51.57 53.04 49.14 50.43 54.00 47.97 46.67 42.77 43.93 40.59 38.16 42.98 45.15 44.60 42.81 42.57 41.17 41.65 44.85 45.77 44.27 44.11 43.58 46.94 47.83 49.07 51.93 51.04 53.02 54.69 57.13
52.34 52.28 52.22 52.40 52.15 50.32 48.14 47.66 52.16 52.10 44.51 47.26 49.08 48.54 49.87 51.57 48.68 49.74 51.24 48.68 45.66 43.19 42.59 40.74 42.86 45.91 43.45 43.30 41.58 42.44 41.43 42.01 41.88 45.03 45.46 43.40 42.65 44.57 47.48 48.16 49.48 50.72 53.49 54.27 55.80
52.59 51.91 51.90 52.33 49.13 48.43 45.88 51.66 52.98 51.89 41.64 43.30 45.86 49.40 50.74 51.86 47.39 54.52 51.96 49.16 46.34 43.58 43.72 43.02 46.16 43.57 43.19 42.31 43.95 40.56 45.22 44.28 43.49 42.09 39.64 44.07 38.54 43.67 45.52 46.53 47.65 50.20 51.39 52.48 53.59
52.26 52.97 52.22 52.14 47.34 45.26 49.27 52.02 52.35 50.20 30.88 45.91 47.35 54.72 51.69 49.10 49.51 49.41 51.52 48.88 44.85 44.25 44.26 41.75 43.05 42.75 42.11 43.46 45.38 43.29 45.94 45.02 44.47 42.71 41.56 41.70 40.28 43.35 45.45 44.75 47.75 50.14 51.34 53.20 55.11
52.47 52.22 52.05 49.70 48.62 49.20 51.55 51.03 51.01 40.06 29.95 43.81 48.44 46.42 46.23 47.91 47.39 48.83 47.54 50.75 50.49 46.09 45.42 44.39 47.31 45.98 45.51 46.47 45.91 46.44 44.33 43.40 42.93 42.32 36.94 40.27 40.41 41.53 44.33 45.83 48.37 49.92 50.86 52.31 54.39
52.00 51.72 50.55 49.92 44.82 50.75 50.62 47.54 39.34 33.32 44.86 44.28 44.11 45.96 45.66 44.30 45.47 46.68 45.03 43.93 42.44 39.00 39.31 42.71 43.64 46.75 47.27 44.31 45.87 45.19 43.01 37.11 35.47 35.62 35.37 40.62 39.74 43.20 45.76 47.92 48.82 50.68 51.14 53.30 55.47
50.87 50.11 49.72 49.97 50.93 50.73 50.51 44.15 33.20 39.43 39.87 46.79 45.41 45.64 42.23 44.31 44.97 44.92 43.82 41.56 45.39 44.30 40.74 37.39 35.44 43.44 46.96 44.78 43.14 42.88 43.59 37.99 30.72 32.45 36.11 40.62 37.95 43.03 47.86 49.32 50.14 51.51 52.71 53.96 54.21
50.11 49.00 47.35 49.29 50.90 49.85 44.12 37.09 37.17 39.95 44.05 44.60 44.09 41.15 42.06 43.71 44.43 44.06 43.35 42.58 44.24 45.16 39.52 38.07 38.13 46.36 47.61 47.75 46.92 42.19 40.00 43.77 38.90 37.85 37.36 39.91 41.99 47.04 47.82 47.68 49.32 50.14 51.70 51.96 52.29
47.56 44.66 44.54 50.51 51.67 47.14 40.05 37.69 41.88 46.25 47.28 46.00 39.86 42.44 38.43 41.51 41.16 42.33 41.65 45.39 44.18 46.17 48.02 43.44 37.99 44.97 46.62 48.46 47.10 45.38 46.14 39.95 41.19 32.46 30.97 36.53 38.02 41.07 45.07 46.09 48.41 49.07 49.84 50.26 50.09
45.97 39.59 47.68 52.02 50.74 43.75 35.96 38.85 43.18 47.99 47.77 44.35 42.72 40.98 41.35 40.44 42.08 41.19 41.83 45.49 46.91 45.36 47.08 46.02 42.11 41.15 44.44 43.73 42.99 42.81 42.33 41.74 42.74 40.48 34.81 33.06 37.47 46.44 47.30 48.52 48.60 49.33 49.81 50.04 50.36
43.04 35.58 47.99 51.94 44.06 43.56 39.28 42.55 44.70 46.00 47.82 47.41 47.11 44.84 41.89 42.89 41.13 41.51 41.18 44.51 47.65 46.41 42.27 44.28 42.50 38.41 39.95 44.16 45.84 45.23 42.98 43.59 38.99 36.81 39.23 39.16 38.53 46.65 47.81 49.15 49.64 48.43 48.05 48.74 49.58
39.71 39.31 48.56 50.69 38.68 40.86 43.98 43.12 45.09 44.42 45.21 45.59 44.75 45.17 45.23 42.79 38.31 41.04 42.96 46.32 47.97 47.05 44.97 45.95 40.62 35.03 37.47 41.44 44.10 42.75 42.92 42.13 42.41 41.75 38.27 35.78 37.88 45.98 46.55 46.41 47.24 46.31 46.62 47.26 47.79
41.71 34.69 43.29 47.62 45.63 40.92 40.20 41.07 40.34 45.25 43.90 46.24 44.86 45.26 42.87 40.80 42.63 40.75 41.45 44.02 47.38 47.38 49.53 48.13 41.04 38.83 34.13 36.56 42.06 40.16 42.10 42.25 42.49 37.57 38.36 38.50 40.76 43.51 45.30 46.26 46.26 46.10 46.72 46.84 47.18
42.39 36.98 42.10 37.15 38.80 39.10 41.34 41.64 39.57 39.57 44.90 45.69 43.40 43.74 41.32 37.62 38.37 39.08 41.34 42.50 44.19 46.03 44.31 45.61 39.43 41.09 40.51 41.90 41.44 41.17 41.16 41.31 40.36 41.52 37.56 39.92 40.21 44.65 46.44 46.98 46.95 46.70 47.18 46.74 46.80
40.55 39.99 41.49 38.87 40.76 40.21 40.51 39.30 38.78 40.45 41.07 40.10 41.48 41.98 41.81 37.40 38.97 38.61 41.18 41.52 41.90 44.08 43.05 42.63 38.49 40.01 37.56 39.92 40.14 38.60 40.64 41.25 41.48 41.94 41.55 41.62 41.20 47.15 46.03 47.10 45.20 45.68 45.88 45.75 45.45
47.03 46.68 41.61 38.19 37.75 37.09 38.66 38.33 39.23 40.15 43.28 43.36 42.97 40.99 40.06 40.25 41.99 42.64 44.21 43.24 43.36 42.44 40.92 41.11 39.81 37.67 33.85 37.40 37.71 34.78 39.42 40.66 41.49 42.85 42.73 38.95 43.70 45.78 43.37 44.97 45.35 45.19 45.64 44.82 44.94

GFSSW_sfc_wetblb_108.txt.gz
Wetbulb
57.52 57.50 57.28 57.07 57.11 56.85 56.59 56.58 56.60 56.13 56.15 56.13 56.35 56.04 55.51 56.06 55.77 55.82 52.77 56.74 56.99 57.50 57.17 54.94 53.10 54.51 54.69 53.06 53.89 53.76 47.17 44.85 45.91 46.54 48.33 51.93 52.00 55.26 56.73 56.45 58.42 61.10 60.23 62.28 73.72
57.24 57.07 56.98 57.00 57.04 56.79 56.59 56.38 56.39 56.51 56.63 56.13 55.95 55.61 55.48 55.48 54.32 53.04 59.41 58.24 57.73 58.68 55.06 50.61 47.98 50.66 50.61 51.14 51.51 49.29 45.59 45.77 48.98 49.42 48.92 50.96 51.79 52.62 53.66 54.70 56.50 59.55 60.29 69.22 73.07
56.77 56.50 56.64 56.50 56.42 56.28 56.38 56.33 56.34 56.51 56.36 56.13 55.33 55.22 55.16 55.36 51.93 52.41 60.77 60.89 58.44 59.64 55.47 53.02 50.38 49.45 48.46 50.59 50.24 49.18 46.07 49.37 48.82 50.28 50.45 49.71 49.85 52.40 51.36 50.90 55.96 57.26 58.88 63.22 71.80
56.17 56.10 56.14 55.95 55.79 55.81 55.96 55.97 56.23 56.33 56.02 55.57 55.26 54.71 55.30 54.97 45.60 56.80 60.77 60.07 59.39 59.33 54.41 52.17 49.55 46.91 46.21 46.22 49.95 45.88 48.92 49.19 49.90 49.95 49.89 49.02 50.77 49.84 51.52 52.22 55.68 58.60 60.10 60.49 63.08
55.93 55.21 55.25 55.40 55.27 54.93 55.24 55.42 55.65 55.66 55.70 55.40 54.86 54.56 54.58 50.45 51.36 58.56 60.33 60.26 60.40 56.25 52.53 51.39 49.22 48.38 45.59 46.79 47.51 46.92 47.35 48.73 49.55 49.57 49.63 49.99 48.64 49.01 50.23 53.17 54.86 56.69 58.60 59.44 60.86
55.70 55.06 54.63 54.87 54.96 54.82 55.34 55.27 55.35 55.34 55.28 55.30 54.77 54.62 52.16 46.17 56.57 57.24 60.11 58.59 57.85 55.05 53.17 53.37 50.29 50.39 47.75 46.85 46.58 47.95 47.60 47.70 48.64 48.80 49.31 47.86 48.34 49.25 50.09 52.51 52.66 53.56 55.16 57.58 60.38
55.17 55.19 54.81 54.43 54.90 55.39 55.61 55.16 54.73 54.84 55.26 55.63 54.55 54.15 49.87 51.28 58.34 61.47 59.87 58.92 58.73 55.49 52.33 53.70 51.40 49.39 49.44 47.16 49.08 48.46 46.29 48.08 49.08 49.43 48.56 49.37 45.99 46.70 50.57 51.83 51.55 52.49 53.82 57.42 59.42
55.11 54.98 54.94 54.83 54.74 55.05 55.37 54.87 54.69 54.99 56.06 55.41 54.73 53.11 48.75 57.34 58.77 58.43 61.78 59.55 59.63 57.38 54.00 53.89 52.20 50.43 49.70 51.71 50.09 47.94 47.94 44.43 48.72 50.00 49.81 48.35 43.01 48.32 51.07 50.74 50.62 51.76 52.69 56.54 57.55
54.57 54.04 54.39 54.33 54.31 54.41 54.65 54.38 54.29 55.36 53.39 54.84 53.11 51.45 49.28 55.78 52.75 56.25 59.71 55.66 56.42 53.68 53.76 51.71 50.96 48.94 49.64 47.48 46.08 46.97 43.06 44.13 45.86 50.75 49.39 47.43 45.56 49.37 51.03 50.38 50.73 51.77 52.61 55.05 56.99
54.35 53.99 54.07 53.91 53.85 53.91 53.81 53.68 54.47 54.71 53.98 54.19 52.96 46.60 51.66 50.15 54.52 55.55 57.72 56.85 52.25 51.24 49.25 48.27 47.51 46.10 47.49 46.45 40.92 43.35 43.11 44.72 44.64 48.50 48.59 47.31 46.89 50.49 51.80 50.78 50.80 51.48 52.41 55.92 58.12
53.58 53.68 53.56 53.38 53.42 52.98 51.63 52.67 50.43 48.17 49.43 49.83 50.97 50.82 51.34 55.08 57.42 54.42 55.76 54.54 52.36 49.29 44.52 46.61 43.86 42.58 45.82 47.71 47.25 46.07 44.69 44.63 47.43 49.64 48.58 48.10 48.42 49.97 51.46 51.37 51.17 51.61 53.84 56.36 58.06
53.49 53.75 52.95 53.42 53.25 52.80 51.93 49.33 52.93 53.70 48.13 53.04 53.04 52.34 54.69 55.55 51.75 53.00 55.97 49.74 47.68 43.83 47.17 44.33 42.18 47.22 48.40 48.35 46.99 46.29 44.91 45.09 47.88 49.15 47.94 48.56 48.00 50.65 51.02 51.14 52.22 52.97 55.13 56.19 57.76
53.25 53.03 52.63 53.29 52.92 52.36 50.38 52.07 57.15 56.35 48.81 50.52 53.43 52.18 52.90 54.23 51.34 50.83 52.71 50.89 46.70 44.76 45.47 44.23 45.92 48.04 46.93 46.18 45.17 45.58 44.58 45.08 45.16 47.97 49.53 48.10 46.73 48.53 51.03 52.32 53.64 55.13 56.55 56.87 57.01
53.36 53.17 52.88 52.93 50.64 52.99 49.20 53.39 57.44 56.20 44.25 45.86 47.86 51.56 53.26 53.46 49.66 55.64 54.15 51.49 48.70 45.66 46.92 46.61 48.93 46.65 46.07 44.91 46.20 42.66 47.45 46.51 45.55 44.96 42.18 48.63 41.32 47.21 49.64 50.44 51.92 53.75 55.08 55.82 56.80
52.72 52.65 52.68 52.42 48.97 48.21 51.69 56.57 56.91 55.20 31.87 47.88 49.69 56.72 54.13 50.68 51.52 52.53 55.42 51.50 46.51 46.34 47.66 44.75 46.08 45.82 44.72 45.30 47.39 44.67 48.35 47.02 46.44 45.16 45.57 45.68 42.61 46.60 49.32 48.23 50.54 53.00 53.97 55.68 57.14
52.51 52.43 51.91 50.43 52.23 52.32 54.09 54.39 53.58 41.96 31.78 43.82 51.27 49.34 48.86 50.32 50.45 52.84 51.66 53.00 50.91 47.56 48.21 46.88 49.96 48.33 47.36 48.02 48.19 48.94 46.85 47.20 47.08 45.51 40.30 44.30 43.68 44.38 47.25 48.56 50.67 53.05 54.78 55.33 57.16
51.93 52.01 51.14 50.62 48.23 54.43 54.75 50.17 39.83 34.40 44.69 43.39 46.70 49.59 48.61 47.14 47.93 49.02 47.32 45.99 43.23 40.71 41.73 44.85 45.76 48.22 48.98 46.00 48.56 47.64 45.19 39.26 37.77 38.31 37.96 45.65 43.17 44.96 49.66 51.11 51.94 53.58 55.21 56.43 57.92
51.00 50.25 52.56 52.72 54.60 53.39 53.35 44.60 33.26 39.14 41.71 47.35 45.29 47.57 45.35 47.62 47.08 47.04 45.81 43.60 46.47 45.86 43.21 40.20 38.33 45.33 48.55 46.75 45.23 45.69 45.48 40.16 33.89 36.00 39.21 45.21 40.41 46.18 51.83 53.46 54.57 55.27 56.88 58.05 59.11
49.75 52.74 51.86 55.49 55.00 53.28 45.54 37.10 37.59 40.82 43.83 44.40 45.71 43.41 42.14 43.59 45.91 45.80 45.15 43.92 45.81 47.55 41.70 40.97 41.14 47.64 48.12 49.31 48.64 45.83 42.72 47.65 42.76 43.05 40.25 42.62 45.50 49.42 51.86 52.09 53.64 54.95 56.26 57.11 58.13
49.20 49.98 50.02 54.99 54.40 50.55 41.65 35.95 40.58 45.07 45.16 46.79 40.83 43.99 39.99 41.57 40.79 44.20 44.60 47.34 45.64 48.16 49.86 46.06 40.72 46.11 47.08 49.54 49.78 47.73 49.15 42.07 43.34 34.91 34.23 39.54 41.95 43.82 48.41 50.10 52.98 53.83 55.36 56.36 56.97
48.97 45.07 52.67 54.62 52.26 44.89 39.65 40.26 42.24 44.97 45.75 45.50 43.52 41.87 41.86 40.19 41.07 40.72 44.57 46.82 48.67 48.09 49.52 48.36 46.06 44.31 48.34 45.81 44.98 45.68 44.77 45.76 45.77 43.64 37.53 36.10 39.47 50.40 49.60 51.77 52.91 54.33 55.69 55.66 55.92
46.42 40.27 52.88 54.39 43.87 45.11 42.18 44.61 43.92 45.45 47.97 47.53 47.51 44.78 42.59 42.95 39.82 41.26 43.55 46.37 50.19 49.94 45.62 48.63 46.22 41.08 43.19 48.52 49.75 49.22 46.76 46.76 41.12 39.59 42.73 41.43 40.30 51.24 51.93 53.25 54.76 54.38 54.92 55.68 56.50
42.39 43.80 53.66 52.93 39.60 39.33 44.44 43.84 45.01 44.90 44.10 45.30 45.18 46.45 46.57 43.13 38.35 39.24 44.06 48.46 49.95 49.29 47.49 49.46 45.08 39.16 41.00 45.35 47.79 46.09 47.58 48.16 47.19 46.29 40.20 37.91 39.91 49.96 51.57 52.24 54.19 53.54 53.58 53.94 54.45
43.97 38.03 46.05 50.10 47.45 41.37 40.27 40.84 41.94 45.87 44.49 46.48 45.85 46.87 44.17 42.58 45.72 42.24 41.39 45.99 49.52 50.12 51.63 51.11 46.69 42.88 38.13 40.89 45.97 43.26 45.20 46.98 46.41 40.91 41.42 42.38 43.77 47.59 49.57 50.71 51.78 52.05 52.78 52.19 52.20
45.08 39.77 43.23 38.20 41.05 41.87 42.97 42.18 39.65 38.97 44.64 46.15 43.37 45.01 43.28 38.88 40.91 40.88 40.98 42.13 46.36 48.19 49.43 50.08 43.45 44.38 44.13 43.94 43.70 42.80 44.29 45.82 44.20 45.16 40.90 43.89 43.63 47.00 49.85 51.13 51.87 52.66 52.52 52.01 51.57
40.99 40.09 40.52 38.07 42.69 41.28 40.85 40.19 38.72 38.90 40.08 39.05 39.99 43.53 45.10 41.36 40.24 38.55 40.76 42.31 42.41 44.89 45.26 48.10 43.36 44.44 40.00 44.30 43.83 41.67 45.17 45.57 45.38 45.07 45.12 45.57 44.72 50.02 51.77 52.38 51.69 51.62 51.46 50.81 50.97
47.10 47.05 40.32 38.35 39.12 38.25 39.83 39.17 40.36 42.59 42.87 43.74 43.19 41.59 41.62 42.44 44.90 45.66 45.53 46.12 47.62 45.21 44.77 44.58 45.20 43.10 38.10 43.07 42.77 39.23 43.29 44.44 45.34 46.73 46.05 42.60 46.78 50.40 49.43 50.22 51.04 51.12 50.93 50.47 50.05

GFSSW_sfc_wetblb_111.txt.gz
Wetbulb
57.68 57.72 57.59 57.44 57.51 57.49 57.52 57.22 57.13 57.23 57.19 57.11 56.99 56.74 56.29 56.20 56.12 56.77 54.60 58.94 60.22 61.60 57.38 57.38 54.17 53.06 55.32 53.96 54.43 54.41 48.04 46.02 47.66 48.50 49.79 54.22 52.56 55.87 57.71 55.71 57.88 60.49 61.94 63.88 70.63
57.33 57.39 56.94 57.11 57.17 57.07 56.93 57.08 56.98 57.15 57.27 57.18 57.01 56.48 56.08 56.07 55.25 54.74 61.03 62.50 60.11 59.41 54.15 53.37 50.92 51.78 51.61 52.09 52.99 51.07 47.78 48.05 51.45 52.12 50.98 52.46 52.71 53.69 54.26 54.34 55.54 58.65 62.55 64.09 67.76
56.54 56.63 56.31 56.53 56.29 56.55 56.12 56.16 56.58 56.78 56.91 56.71 56.45 56.03 55.84 56.32 54.21 55.79 65.57 62.08 59.95 59.73 56.02 53.88 52.55 51.57 49.97 51.69 51.63 50.79 47.42 50.43 50.74 51.68 52.17 51.74 52.03 53.68 52.55 52.03 55.11 55.81 59.58 62.79 68.25
55.84 55.89 55.71 55.68 55.77 55.82 55.53 55.30 55.51 56.04 56.06 56.71 56.42 55.83 55.66 55.93 47.64 59.67 61.75 62.08 60.85 58.26 55.95 53.06 51.04 48.10 48.13 48.35 51.71 48.44 50.88 51.02 51.60 51.79 51.33 50.13 51.67 50.78 51.89 52.80 55.88 56.88 60.20 61.97 61.93
55.69 55.65 55.53 55.37 55.49 55.65 55.59 55.80 55.77 55.69 55.63 55.52 55.55 55.61 54.53 52.08 53.55 61.73 61.62 62.43 59.80 57.28 55.83 53.18 51.11 48.97 46.99 48.62 50.22 48.96 50.13 50.96 51.62 51.42 51.20 51.40 50.04 50.40 51.36 53.89 55.61 56.08 58.97 61.10 61.69
55.82 55.56 55.54 55.44 55.32 55.37 55.85 56.01 55.89 55.54 55.34 55.03 55.54 55.26 52.35 48.29 60.68 62.62 59.52 58.68 56.99 57.85 55.08 54.37 52.14 51.98 49.71 49.13 48.38 50.12 49.70 50.16 50.48 50.38 50.75 49.12 49.46 50.32 51.33 53.62 53.83 54.80 55.50 58.05 60.53
54.92 55.13 54.95 55.13 55.31 55.65 55.63 55.20 55.09 54.92 54.79 55.66 56.45 54.17 50.97 52.62 60.30 60.65 60.39 58.19 59.42 58.10 54.47 55.74 55.50 51.75 51.07 48.87 51.15 49.72 46.82 48.59 49.00 49.76 49.35 50.50 47.32 47.99 51.67 52.96 52.55 52.94 54.38 55.59 58.16
55.13 54.93 54.35 54.25 54.20 54.48 55.11 54.87 54.60 54.38 55.14 56.41 56.18 52.71 49.06 60.18 61.35 60.23 59.84 58.96 59.55 59.78 57.21 56.74 56.23 52.14 50.90 52.12 49.43 47.01 47.72 44.62 49.48 50.09 50.44 49.74 44.69 50.22 52.58 52.01 51.29 52.48 53.30 54.17 56.67
54.67 54.52 54.45 53.74 53.81 54.10 54.18 54.05 53.59 54.40 55.60 55.22 53.94 51.10 50.87 59.32 56.13 59.60 61.12 57.42 58.19 59.01 57.60 55.21 54.10 49.81 49.89 47.08 45.50 47.82 43.20 45.24 47.02 51.16 50.51 49.28 46.86 51.07 53.25 52.21 51.45 52.09 52.72 53.62 55.17
54.41 54.16 53.99 54.02 53.95 53.22 53.49 53.29 54.48 54.29 54.47 54.93 54.59 48.90 53.34 52.99 56.99 57.34 61.02 59.12 56.35 54.90 51.97 50.07 49.21 46.61 47.41 45.99 41.07 43.65 43.32 45.33 45.59 49.95 50.53 49.24 48.49 50.84 53.22 53.12 52.03 51.79 52.51 53.64 54.24
54.68 53.93 53.85 53.60 53.93 53.56 52.99 54.31 52.58 48.58 50.64 51.91 52.28 52.04 54.46 57.09 57.66 55.25 58.85 56.75 55.02 51.12 46.04 47.87 43.93 42.52 45.59 47.48 47.37 47.87 47.11 45.43 48.14 50.47 49.38 49.47 49.47 51.24 53.39 53.53 52.55 52.62 52.63 53.43 54.33
54.95 54.45 54.09 53.68 53.50 53.21 52.31 50.97 52.91 55.88 49.19 54.36 54.27 55.06 56.69 57.16 52.40 53.76 57.68 52.38 49.98 45.52 47.52 45.12 42.11 46.75 48.23 48.34 47.55 47.32 46.41 45.97 48.62 50.38 49.91 49.36 48.98 51.68 52.89 52.85 53.09 53.20 53.51 53.53 54.28
54.11 53.66 53.60 53.49 53.12 53.48 53.71 53.00 56.39 56.82 49.57 51.04 53.82 53.96 54.56 56.14 52.17 52.91 53.66 52.28 49.09 46.32 45.50 43.38 45.27 47.52 47.47 47.28 46.50 46.55 45.62 46.15 46.12 49.37 50.44 49.11 47.63 49.64 52.35 53.11 53.33 53.80 54.55 55.36 55.29
53.43 53.12 53.17 52.84 51.01 53.82 50.48 55.47 56.96 59.03 44.71 45.72 50.13 52.80 54.71 55.01 50.89 56.42 55.02 52.01 49.47 45.81 46.05 45.56 48.19 46.45 47.01 46.27 47.73 44.61 48.29 47.33 46.84 46.26 43.03 50.47 42.23 49.27 51.14 51.31 52.22 53.99 55.25 56.21 57.37
52.82 52.90 52.79 52.15 49.99 49.55 53.11 55.51 56.89 56.62 32.17 47.04 51.10 57.50 54.80 51.99 52.12 52.54 56.10 52.30 47.82 46.60 46.45 44.46 46.00 46.37 45.71 46.35 48.60 46.26 49.17 47.56 47.03 45.90 45.77 46.11 44.21 47.41 51.30 49.41 51.26 53.36 55.19 56.56 57.55
52.23 52.36 51.84 51.58 53.22 53.84 55.73 55.44 53.65 41.35 31.72 44.19 51.28 50.78 50.55 51.44 51.38 53.52 52.73 53.79 52.23 48.72 48.44 47.45 51.08 49.87 48.33 49.29 49.28 49.89 47.94 47.67 47.41 45.48 40.04 44.98 44.96 45.18 48.00 50.10 51.51 53.47 54.66 55.88 56.58
51.88 51.76 51.17 53.31 50.07 56.02 56.61 50.97 38.41 33.23 44.50 42.72 44.79 49.23 50.05 48.65 48.90 49.52 48.11 47.75 44.66 41.76 42.40 45.63 47.05 49.65 50.19 47.21 49.43 48.53 45.92 39.74 38.16 38.32 38.34 46.28 44.52 45.92 51.32 51.47 52.98 53.21 54.38 56.15 58.23
51.35 50.19 52.43 55.69 56.99 56.29 53.47 44.33 32.37 38.30 40.90 46.08 45.46 49.03 43.10 47.76 48.45 48.00 46.89 44.81 47.87 46.75 42.15 40.23 39.82 47.13 49.26 47.64 46.07 46.34 45.95 40.77 34.27 36.08 39.30 45.71 42.21 46.00 52.71 54.31 54.81 56.20 56.37 57.72 59.09
49.33 54.34 54.27 56.14 57.70 56.23 47.76 37.17 37.54 40.53 43.43 42.56 43.65 42.21 42.21 46.62 44.84 43.79 47.26 45.94 48.14 47.40 41.63 41.31 41.91 48.26 49.08 49.17 49.19 46.41 43.86 48.32 43.37 43.43 40.42 41.85 46.36 51.57 53.20 52.86 53.83 55.36 57.15 58.10 59.61
49.85 51.62 52.16 57.29 57.96 51.93 43.75 37.25 41.07 44.63 44.60 44.44 40.18 41.43 40.89 42.60 42.71 41.38 43.95 48.53 46.96 48.95 49.26 45.77 41.05 47.17 47.91 49.50 49.73 47.98 49.58 42.94 43.76 35.81 34.64 39.56 42.24 43.05 49.42 50.87 52.46 53.89 55.92 57.97 59.88
50.21 46.55 54.80 58.05 56.19 45.42 38.55 40.97 43.81 47.14 46.30 42.47 41.61 41.46 43.63 41.22 39.84 39.79 41.74 46.96 48.33 47.11 48.40 47.80 45.71 44.08 47.50 45.59 44.96 45.88 45.33 46.62 46.09 43.83 37.60 37.01 41.29 51.15 50.22 52.13 52.32 54.17 56.68 58.03 58.85
48.12 41.91 54.73 56.21 43.33 44.83 41.21 41.80 43.59 46.79 48.86 46.63 46.54 41.69 41.78 41.75 39.82 38.85 39.70 45.03 49.49 50.02 44.45 48.22 45.33 39.42 44.01 48.50 49.70 49.01 46.96 47.56 42.58 39.06 43.72 41.89 40.10 52.57 51.74 53.50 54.93 55.06 57.14 57.85 58.48
42.14 45.37 53.51 53.22 38.65 41.16 44.37 42.45 44.62 45.41 45.94 46.01 44.71 46.69 46.79 42.26 39.87 41.60 42.67 45.86 47.87 49.14 47.20 49.73 44.28 40.28 39.25 45.70 49.42 46.78 48.31 48.14 47.95 47.22 42.12 37.79 40.25 52.02 52.90 53.14 54.24 54.77 56.31 56.93 57.71
42.82 39.46 45.69 50.03 48.04 39.61 39.87 41.06 41.50 45.77 43.93 42.92 43.74 45.77 44.98 44.00 46.00 41.67 41.99 42.30 47.71 50.90 51.39 52.79 46.57 43.90 39.89 42.71 47.07 44.64 47.26 48.52 45.51 38.83 40.99 40.73 42.38 47.02 49.12 50.36 52.17 54.00 56.13 56.42 56.57
44.25 41.47 42.43 37.59 40.20 41.98 41.58 41.44 40.33 39.60 42.17 42.77 43.30 45.06 42.83 40.32 41.26 40.47 43.71 44.19 47.18 51.40 51.54 50.94 43.94 46.26 44.24 46.96 46.94 45.59 45.58 45.97 45.93 46.08 42.64 44.97 44.47 45.03 50.27 52.42 53.40 55.17 55.39 54.59 54.26
40.41 38.60 40.38 38.39 42.59 40.92 40.53 40.35 39.33 40.08 40.54 39.99 39.32 42.46 43.99 37.97 42.65 36.65 42.36 43.55 42.35 48.98 50.14 51.17 44.62 46.21 41.87 46.56 45.79 43.78 46.61 47.21 47.57 47.13 46.81 46.56 45.50 50.92 52.78 53.52 52.11 52.84 54.00 53.57 53.76
45.71 44.93 40.83 37.38 40.16 38.13 39.70 37.03 38.53 41.79 42.96 43.00 41.91 42.52 40.27 40.45 46.64 47.64 47.91 47.96 45.12 45.36 47.99 48.31 45.93 43.84 39.89 44.43 42.68 40.40 45.00 45.02 47.15 48.58 47.18 43.75 47.60 51.69 50.99 51.70 52.51 53.47 53.46 52.37 53.33

GFSSW_sfc_wetblb_114.txt.gz
Wetbulb
57.09 57.29 57.47 57.32 57.50 57.62 57.24 57.20 57.13 57.16 57.58 57.69 57.48 58.00 56.64 56.26 56.41 55.65 52.56 56.91 60.08 62.47 56.56 53.61 53.37 52.21 53.22 52.87 53.93 53.61 46.60 44.73 45.71 47.02 48.63 52.84 51.82 55.68 58.56 56.05 57.12 59.20 60.28 63.31 71.61
56.29 56.46 56.71 56.80 56.72 56.83 56.42 56.08 56.31 56.71 57.08 57.36 57.58 57.70 57.13 56.92 53.56 52.64 59.40 63.12 65.10 64.05 56.90 52.60 52.38 50.56 48.70 50.08 51.90 49.60 46.13 45.62 49.65 50.59 49.98 52.16 52.45 53.32 53.43 53.53 54.31 55.88 60.24 62.99 65.47
55.84 56.23 56.33 56.26 56.10 56.40 56.26 56.13 55.91 56.03 56.42 56.76 57.02 57.27 57.14 56.00 51.52 54.66 67.12 64.50 64.34 62.95 57.46 54.61 53.59 51.13 47.44 49.60 50.17 49.76 46.46 49.50 50.16 51.47 52.45 51.57 51.61 53.63 52.09 51.17 54.30 54.23 57.22 60.81 62.41
56.01 56.15 56.22 56.23 55.91 56.31 56.19 56.29 56.47 56.57 56.32 56.12 56.12 56.06 56.77 54.23 46.18 56.90 65.78 64.69 64.24 59.71 56.08 51.92 51.84 48.33 46.67 46.58 50.15 46.97 49.86 50.21 50.72 51.78 51.44 49.96 51.89 51.20 51.93 52.46 55.56 56.20 57.64 59.03 62.17
55.77 55.28 55.41 55.70 55.83 56.15 56.24 55.92 55.82 56.04 55.86 55.89 55.42 55.73 54.00 50.50 51.06 59.82 65.03 63.18 60.16 57.21 53.41 51.07 49.95 48.18 45.66 47.59 49.15 48.02 49.38 50.89 51.65 51.38 51.12 52.05 50.33 50.27 50.55 53.31 54.72 55.23 56.25 56.68 61.73
55.79 55.67 55.49 55.33 55.13 55.35 55.58 55.70 55.58 55.62 55.21 55.34 55.39 55.67 51.31 44.94 59.07 60.91 61.44 60.51 58.56 56.28 52.87 52.31 51.35 50.65 48.42 47.31 47.29 49.40 49.79 49.98 50.93 50.89 50.87 49.38 49.44 49.99 50.85 53.27 53.42 53.94 54.58 55.54 57.55
55.78 55.39 54.80 54.76 54.39 54.72 54.83 54.56 54.52 55.17 54.75 54.99 55.77 55.64 49.48 49.83 60.15 61.85 60.78 58.95 57.72 55.26 52.01 54.69 54.57 51.61 50.35 47.48 50.13 49.29 46.69 48.43 49.02 49.86 49.22 50.27 46.84 47.41 51.09 52.46 51.78 52.59 53.77 55.02 56.36
55.79 55.09 55.04 54.86 54.78 54.82 54.94 54.34 54.11 54.08 54.21 54.83 57.05 54.25 46.62 58.05 60.29 58.20 60.25 58.32 57.87 56.47 56.91 56.18 55.62 53.04 51.03 51.56 49.38 47.06 46.89 42.83 47.76 48.94 49.15 48.62 43.29 48.93 51.56 51.36 50.61 51.52 52.99 53.86 55.56
55.44 55.07 54.97 54.82 54.78 54.78 54.44 54.11 54.49 54.51 55.09 56.06 53.29 51.11 47.70 60.78 55.52 59.11 59.87 56.78 56.99 58.19 58.04 57.14 54.97 51.31 50.79 46.19 44.26 46.34 40.98 42.53 44.37 49.12 48.62 47.42 44.58 49.44 52.11 51.98 51.59 52.55 52.89 53.40 54.64
55.55 54.85 54.74 54.62 54.50 54.25 53.69 53.45 54.45 54.36 54.63 54.75 54.49 47.43 51.29 52.04 57.54 58.35 59.77 59.55 55.72 54.90 54.39 53.42 50.98 47.22 46.93 44.18 38.12 41.82 42.82 44.29 44.21 48.08 49.13 47.55 47.49 50.08 52.24 52.37 52.45 51.97 52.38 53.11 54.06
54.75 54.70 54.27 53.74 53.90 53.24 52.66 52.38 50.70 48.27 50.38 49.67 50.22 49.55 53.30 57.86 59.40 56.88 58.65 57.38 56.37 53.17 47.93 50.48 44.34 42.04 44.59 45.45 45.62 45.48 44.97 44.36 46.47 48.83 48.61 47.81 48.37 50.21 51.97 52.09 52.81 53.38 53.60 53.50 54.21
54.15 54.35 54.05 53.53 53.35 52.87 51.56 48.78 50.97 53.25 46.00 52.26 52.71 53.49 55.30 56.72 52.59 54.51 58.00 53.44 52.21 47.30 49.38 46.20 41.77 45.56 46.94 46.32 45.52 45.31 44.35 45.06 47.75 49.62 48.95 48.72 48.14 51.00 52.29 52.69 53.73 54.24 53.84 54.23 54.51
53.53 53.72 53.74 53.51 52.75 52.20 53.49 53.84 56.08 54.57 44.80 46.87 50.37 51.70 52.53 54.70 51.87 52.42 54.39 53.83 49.90 47.31 45.95 43.04 45.18 46.88 45.50 44.82 44.38 44.73 43.97 45.13 45.93 48.33 49.52 48.22 46.39 49.06 51.71 53.31 53.95 53.56 54.23 54.99 55.72
52.95 53.06 52.97 52.73 49.65 52.77 48.66 53.48 55.38 56.45 42.12 43.85 47.81 50.82 52.15 53.94 49.49 55.92 54.94 53.24 50.18 46.16 46.38 45.21 47.79 45.61 44.15 43.85 45.36 42.61 47.34 47.21 46.97 45.46 41.50 48.56 39.83 48.61 50.90 51.26 52.18 52.78 54.16 54.39 55.38
52.07 52.52 52.33 52.04 48.52 47.24 52.27 55.71 55.75 52.68 28.44 45.72 50.07 55.94 53.73 49.78 51.52 51.82 56.42 52.39 47.45 47.26 47.19 44.28 44.85 44.49 43.37 43.87 46.58 44.95 48.90 47.17 46.93 45.20 44.73 44.75 42.16 46.16 50.84 49.21 50.70 53.11 54.11 55.83 57.70
51.52 51.77 51.73 50.41 51.73 52.56 55.11 55.69 52.53 38.13 28.48 42.70 49.21 49.97 49.64 50.90 50.44 52.55 51.99 53.65 52.20 48.16 48.26 47.09 49.32 47.19 46.64 47.21 47.89 49.32 47.46 47.37 46.68 44.59 38.78 43.23 42.55 43.68 47.24 49.90 51.32 53.40 53.54 55.52 56.35
51.13 51.12 50.38 51.16 47.57 55.55 56.18 51.90 37.12 30.90 42.97 41.33 43.33 48.09 46.79 47.48 48.28 49.20 47.51 46.96 44.63 40.94 41.91 44.99 45.08 47.55 48.68 46.34 48.25 47.41 45.13 38.40 36.95 37.32 36.65 44.62 42.58 45.41 50.64 52.03 52.51 52.90 53.92 56.08 58.37
50.27 49.42 50.56 53.41 55.97 55.81 53.27 42.58 30.82 38.11 39.43 44.06 43.23 43.70 41.72 44.06 42.57 44.06 45.23 44.03 47.70 45.46 42.17 40.50 38.26 45.33 48.72 47.28 44.92 45.55 45.27 39.12 33.09 34.53 37.92 44.45 40.42 44.85 52.64 53.75 54.66 54.65 55.53 56.37 58.56
48.82 51.69 51.57 54.46 56.42 55.93 46.99 35.19 35.23 39.22 42.81 41.94 42.84 40.18 40.89 43.33 42.80 40.69 41.41 44.66 47.14 48.19 41.66 41.05 41.16 47.65 49.11 49.03 48.43 45.11 42.54 47.09 42.05 43.55 38.89 41.78 45.43 49.80 52.24 52.36 53.15 54.21 55.48 57.12 58.42
47.45 49.25 50.99 56.93 57.89 52.95 42.68 36.00 38.82 43.07 43.64 43.50 37.64 40.83 37.91 41.40 39.97 39.79 41.01 45.55 46.59 49.47 49.61 45.43 39.62 46.12 47.37 49.12 48.56 47.39 48.71 41.82 42.99 35.15 33.44 39.83 42.24 42.57 48.58 50.57 52.13 53.74 55.30 57.50 59.48
48.30 43.93 50.61 58.30 57.13 48.07 36.96 37.62 40.97 45.83 45.65 41.61 41.01 40.46 40.22 39.95 40.34 39.37 39.51 45.22 46.03 46.05 48.80 47.17 44.12 42.09 46.45 45.15 43.59 44.03 43.44 45.01 45.96 43.81 37.31 35.67 39.86 48.07 49.31 51.19 50.28 53.81 56.52 58.25 59.10
44.99 38.54 51.56 54.74 44.91 44.68 39.70 40.86 42.06 43.08 46.87 44.54 45.17 44.41 43.52 41.50 37.99 40.69 40.01 42.53 48.67 48.35 43.93 47.65 44.75 37.89 42.02 48.25 49.14 48.01 45.48 45.96 39.97 39.64 42.82 40.79 39.51 49.57 51.22 53.12 52.45 51.98 56.97 58.26 59.31
39.91 42.51 52.02 51.21 36.78 38.22 39.97 41.42 43.27 43.49 42.69 43.11 42.70 45.62 45.48 42.77 38.03 41.10 43.19 47.11 48.00 46.80 46.10 47.59 43.09 36.74 38.90 44.77 48.47 45.34 46.48 48.22 48.84 47.58 42.43 39.56 38.54 50.33 52.58 51.72 51.43 50.86 53.99 57.04 58.06
41.18 37.19 44.14 47.12 44.01 38.87 36.70 39.03 39.05 44.35 43.60 45.00 43.19 45.29 43.81 41.44 41.56 40.43 42.76 44.62 46.41 47.06 49.29 48.62 44.52 40.47 36.59 41.57 45.83 43.55 44.89 46.95 47.41 43.08 41.83 42.52 43.46 47.82 49.86 50.67 52.77 53.29 55.06 54.19 53.86
43.32 39.98 41.44 35.48 37.48 38.83 40.00 39.79 37.70 36.96 43.21 43.42 39.81 39.26 39.42 37.32 37.57 39.94 44.49 44.41 45.09 46.77 46.77 47.91 41.30 43.10 40.82 44.83 44.97 46.21 44.82 46.20 43.87 45.10 41.03 42.61 42.95 47.63 49.63 50.41 52.70 54.18 54.53 53.60 53.32
39.88 38.39 41.45 36.63 40.39 38.91 39.14 37.86 38.19 39.21 40.09 39.35 38.66 40.02 40.61 40.50 41.34 39.05 42.11 43.10 41.78 46.05 44.19 49.41 42.73 45.05 42.91 44.21 43.17 45.59 46.63 46.48 44.66 44.26 45.07 45.75 42.00 48.90 50.78 50.75 50.21 53.28 54.06 53.61 53.49
45.29 45.97 40.68 36.27 38.49 36.82 37.09 37.28 38.42 40.49 41.74 42.81 41.29 40.77 40.20 40.79 43.82 45.25 46.34 45.58 46.80 45.26 46.83 48.47 45.68 44.13 37.64 42.68 42.90 40.99 46.23 46.77 47.43 48.77 47.77 44.01 47.73 51.63 49.33 49.19 50.57 53.53 53.79 52.94 52.13

GFSSW_sfc_wetblb_117.txt.gz
Wetbulb
57.03 55.98 56.23 56.24 56.37 56.73 56.46 55.72 55.70 56.12 56.42 56.48 57.07 56.49 56.45 56.28 55.83 52.48 48.36 53.72 56.40 60.41 59.47 55.73 51.56 50.80 48.78 46.16 48.15 48.68 41.53 38.32 40.35 42.12 43.06 47.85 46.91 51.78 54.86 53.91 55.83 57.06 56.09 69.75 70.89
56.27 55.50 55.78 55.74 55.57 55.34 55.62 56.37 55.97 55.47 56.37 56.88 57.09 57.00 57.25 57.23 51.50 48.80 55.84 61.61 62.36 63.27 57.54 53.08 50.33 47.71 42.94 44.49 44.67 44.52 39.70 41.33 44.95 45.53 44.74 46.78 47.78 48.39 50.54 52.55 52.19 54.61 60.14 69.05 69.80
55.79 55.49 55.45 55.66 55.30 56.01 55.15 55.17 56.30 55.56 56.43 56.97 57.11 56.70 56.58 55.75 48.02 49.88 66.35 64.90 62.84 63.94 57.50 54.90 53.93 48.11 41.01 43.40 42.74 43.14 41.87 44.80 46.57 48.00 48.13 47.47 48.05 48.98 48.13 46.73 50.26 51.14 54.51 64.63 65.12
55.54 55.53 55.38 55.61 55.29 55.48 55.44 55.37 55.88 56.06 55.93 56.43 56.36 56.19 56.33 51.89 39.15 52.96 66.31 66.24 64.13 61.21 56.70 53.36 49.31 43.45 41.30 39.45 44.04 40.84 46.03 46.60 47.24 48.77 48.15 46.33 47.85 47.22 47.65 47.75 50.46 52.15 53.46 54.05 60.43
55.79 55.44 55.14 55.29 55.23 54.75 54.71 55.12 55.20 55.29 55.24 55.34 55.36 55.66 52.94 46.68 46.71 55.97 64.45 64.29 63.49 59.27 54.26 51.18 46.42 44.12 41.22 42.71 43.13 42.75 44.63 47.19 48.45 48.03 47.65 48.16 46.63 47.40 47.34 50.72 51.47 51.72 52.13 51.54 52.30
55.98 55.96 55.56 55.28 55.36 55.44 55.01 54.85 54.90 54.76 54.66 54.74 54.81 55.22 50.24 42.18 54.15 57.52 57.78 59.91 58.21 55.56 52.59 50.64 46.44 46.96 43.36 42.96 42.24 44.37 45.63 46.37 46.63 46.93 47.65 45.74 46.17 46.78 48.36 50.79 50.17 50.33 50.28 50.66 51.50
55.70 55.78 55.71 55.45 55.33 55.17 54.92 54.30 54.36 54.51 54.14 54.32 54.22 52.63 49.20 45.13 56.17 57.33 54.24 57.70 57.29 55.12 51.73 52.58 50.61 48.07 46.84 41.81 45.52 44.97 42.12 44.62 46.53 45.65 45.72 47.35 43.62 45.40 48.27 49.85 48.40 48.88 49.38 50.29 51.05
55.56 55.62 55.73 55.65 55.33 55.25 54.86 54.28 54.24 54.59 54.35 54.61 54.90 51.67 44.63 54.63 55.60 54.48 55.23 55.80 58.60 56.90 54.83 54.34 51.74 48.14 47.02 46.51 46.01 41.92 42.16 38.18 42.44 45.10 45.82 45.25 40.53 45.24 47.96 47.49 47.44 48.76 49.35 50.17 50.01
54.71 54.60 55.19 55.42 55.27 54.80 54.27 53.80 54.18 54.13 55.02 55.32 52.30 49.86 43.59 56.40 51.95 54.36 55.28 54.36 55.60 54.34 53.94 54.21 50.62 47.46 47.19 42.75 38.76 40.09 35.98 37.28 40.27 44.12 44.70 43.74 41.74 45.78 47.82 47.13 47.11 47.95 48.83 49.38 49.21
54.05 53.97 54.42 54.66 54.46 53.93 53.39 53.14 53.30 53.81 53.13 54.00 52.23 46.75 48.56 46.88 54.60 56.64 56.80 57.18 54.35 52.66 49.34 49.97 47.98 43.27 42.18 39.80 33.76 35.49 36.48 39.65 39.74 43.58 44.41 42.48 42.19 45.27 47.13 47.74 47.34 47.71 48.47 48.69 48.85
53.68 53.84 53.84 53.90 53.95 53.29 51.27 47.04 45.06 45.89 49.33 45.82 46.73 47.07 49.65 54.37 57.20 55.40 56.78 55.26 54.37 50.46 44.66 48.16 41.55 38.83 41.22 43.09 42.94 42.03 40.39 40.11 43.18 46.24 44.22 42.60 43.04 44.56 47.78 47.55 47.04 47.38 47.59 48.06 48.66
52.44 53.02 53.27 53.21 53.39 52.96 49.98 44.33 47.58 48.28 42.65 48.66 50.06 50.32 52.12 53.70 48.86 52.73 56.92 50.32 49.44 44.37 46.96 43.99 40.20 44.93 46.14 45.22 43.61 41.97 39.69 39.39 43.77 47.07 45.07 43.88 43.06 46.58 48.42 48.01 47.80 48.04 48.76 48.25 48.31
52.30 52.17 52.46 52.69 52.50 50.02 47.25 49.27 54.47 53.15 42.30 44.88 48.40 48.01 48.27 51.66 48.23 49.08 53.67 51.13 47.91 45.81 44.84 41.11 44.34 48.04 45.46 42.86 41.90 40.85 39.02 39.85 40.55 45.18 46.95 44.85 41.86 44.76 49.55 50.10 50.62 50.38 50.43 49.63 48.81
51.73 51.57 51.82 51.84 47.56 46.56 43.81 49.47 52.74 51.88 33.84 38.59 42.99 47.81 49.45 49.71 45.92 53.22 53.97 51.77 48.78 45.40 46.35 44.11 47.93 45.95 43.34 41.24 42.31 37.82 43.43 43.58 43.32 42.34 37.18 44.57 32.72 42.21 46.37 47.13 49.48 49.01 47.51 48.40 50.03
51.25 51.56 51.38 51.36 45.31 42.78 47.14 51.09 51.32 47.91 22.27 41.82 45.32 53.02 50.53 46.56 48.44 49.07 53.98 51.66 45.78 46.96 46.88 43.37 44.63 43.93 41.46 41.67 43.59 40.35 45.28 43.77 43.24 41.66 39.22 40.10 35.09 39.50 45.55 46.00 47.57 47.69 48.62 48.62 49.40
50.79 50.94 50.74 47.37 46.60 47.43 50.13 50.32 48.16 34.02 23.78 38.02 44.10 43.57 46.23 45.64 46.17 50.09 49.58 52.30 51.82 47.37 46.98 45.76 49.21 46.08 44.52 45.66 44.73 45.29 43.84 43.71 42.35 37.96 31.27 37.80 37.32 37.09 41.76 45.23 47.02 48.83 49.58 50.78 51.29
50.62 50.43 48.72 47.99 42.28 48.60 50.26 47.98 34.51 28.64 40.02 37.11 39.51 42.47 41.88 43.06 44.83 46.78 44.27 44.21 41.66 38.53 39.15 43.93 44.03 47.35 47.76 43.05 44.48 42.78 39.25 33.33 31.21 30.21 29.76 39.96 37.08 37.97 45.45 49.30 50.03 49.20 49.34 50.25 53.82
49.90 48.79 47.80 49.01 50.25 49.66 46.47 39.42 27.23 34.62 36.26 41.89 40.64 41.22 38.13 42.13 41.38 42.55 39.92 41.11 45.34 42.96 38.53 36.43 35.74 43.90 47.67 43.57 41.02 40.29 39.50 32.67 25.54 27.81 31.77 40.75 34.73 40.07 47.41 49.70 51.85 52.59 50.81 53.62 55.29
48.30 45.97 46.40 49.43 52.25 51.03 44.04 33.32 30.74 35.01 39.45 38.73 38.97 34.90 36.51 40.88 42.77 41.57 38.59 39.97 42.69 45.49 37.46 36.56 37.22 46.66 46.96 46.79 45.04 41.34 38.42 42.45 36.91 38.65 33.84 36.51 39.67 46.23 49.04 49.86 50.06 51.82 52.59 51.79 54.39
44.53 43.87 44.88 51.24 53.55 49.28 39.26 34.13 35.63 40.83 41.41 39.83 34.14 37.35 33.35 37.75 38.32 39.19 39.30 43.46 42.74 45.91 46.53 41.96 36.52 45.06 45.96 46.92 47.53 44.34 44.95 37.37 36.73 28.93 28.60 35.32 38.71 38.23 45.14 46.63 50.56 49.17 50.83 54.28 56.15
43.48 38.53 45.60 52.08 51.85 42.93 34.83 34.95 38.18 42.91 42.27 38.88 36.71 36.46 37.03 36.17 39.34 37.61 38.86 43.07 46.04 46.13 47.12 43.08 41.64 40.80 44.30 43.06 40.81 42.09 41.16 40.37 38.40 35.36 29.10 28.62 35.96 46.70 45.53 46.45 48.32 50.05 51.61 52.82 55.14
40.74 33.12 46.24 50.67 37.83 39.29 36.48 36.53 40.45 40.93 43.70 42.46 42.43 40.74 37.54 39.55 37.48 39.03 39.04 42.16 47.26 46.77 42.04 44.07 41.60 36.00 38.77 45.96 47.77 45.42 41.24 40.95 33.28 33.38 36.76 33.90 36.57 49.29 47.98 50.18 49.88 49.40 52.13 53.80 53.88
38.10 37.93 48.40 47.10 30.89 33.35 37.30 37.98 41.03 40.32 40.84 39.50 40.25 42.02 41.64 38.77 36.81 39.89 41.71 47.03 46.63 45.36 42.43 45.22 39.18 31.97 36.29 40.35 44.39 41.84 44.22 42.28 40.91 40.14 34.98 31.95 34.89 48.58 50.49 49.55 51.74 51.02 50.50 52.69 54.66
39.70 34.48 39.05 41.34 39.59 35.91 34.53 35.67 35.71 42.19 41.26 41.91 41.07 42.11 38.76 39.05 42.13 39.29 40.69 45.27 47.44 45.91 47.05 47.11 40.16 36.44 31.85 36.29 41.57 39.95 43.18 42.75 41.55 33.79 36.38 38.42 39.61 44.92 47.33 48.23 49.64 50.55 51.88 52.73 53.34
40.93 36.47 38.75 31.61 33.88 35.42 37.41 37.04 34.42 35.09 40.91 41.94 39.12 39.27 37.96 35.18 38.44 38.20 40.72 40.96 44.94 47.12 46.24 45.44 37.81 40.80 42.14 43.50 43.53 43.31 43.75 42.63 41.70 42.16 37.77 40.78 41.31 44.04 46.54 48.62 48.91 50.95 51.48 51.49 51.94
38.08 36.42 38.90 34.70 36.32 35.25 36.92 34.09 35.35 36.71 38.04 37.98 38.01 38.88 39.47 37.11 38.67 37.92 39.82 37.32 40.01 43.94 43.31 44.44 37.67 40.76 39.61 42.68 43.58 41.58 44.11 44.58 45.40 44.27 43.12 42.50 42.56 47.74 49.20 51.36 50.73 50.66 50.96 50.78 52.23
42.46 43.43 39.60 35.39 34.02 33.19 34.39 35.37 35.41 38.23 39.38 39.41 41.17 39.61 38.54 39.79 42.09 42.78 43.85 43.69 43.95 43.08 40.02 40.57 40.27 37.53 35.72 40.61 40.09 36.35 41.59 44.40 45.09 45.57 44.74 39.67 44.39 47.79 47.69 48.36 49.07 51.19 51.32 50.96 49.63

GFSSW_sfc_wetblb_120.txt.gz
Wetbulb
56.26 56.02 55.92 56.16 56.48 56.17 55.48 55.47 55.58 55.53 55.48 55.71 56.27 57.02 56.18 55.85 56.24 51.55 47.00 51.63 53.80 58.54 61.03 54.29 53.14 51.13 48.37 43.34 45.52 45.36 36.33 33.62 37.02 39.77 41.62 46.07 44.76 48.61 51.99 52.38 54.63 56.02 57.79 69.34 69.34
55.76 56.00 55.84 55.90 56.16 56.17 55.71 55.65 55.72 55.22 56.02 56.13 55.93 56.66 56.47 56.48 50.70 47.73 54.40 58.43 59.71 62.90 54.65 50.62 49.35 48.43 41.98 42.05 42.87 40.74 37.50 37.43 42.90 44.40 42.57 45.63 44.68 46.20 48.37 48.96 52.20 55.11 69.33 69.78 68.71
55.85 55.76 55.82 55.62 55.56 55.83 55.21 55.19 55.61 55.56 56.01 56.40 56.05 56.08 55.12 54.73 46.22 47.86 62.42 62.84 60.50 60.77 56.85 53.93 52.48 46.96 39.23 39.70 40.79 39.56 40.05 43.65 43.02 46.20 46.33 46.53 46.84 47.59 46.45 46.09 49.51 48.38 64.06 68.29 67.84
55.98 55.66 55.76 55.54 55.37 55.37 55.15 54.82 54.63 54.85 55.06 55.06 55.31 55.54 56.01 50.98 35.79 51.64 66.19 65.14 65.33 59.06 56.43 53.03 49.24 43.89 38.33 37.64 40.61 37.80 43.57 44.71 44.03 46.15 46.46 45.86 46.59 46.17 46.91 47.64 50.07 50.29 56.03 64.60 64.67
56.06 55.70 55.81 56.08 55.72 55.58 54.95 54.89 54.73 54.65 54.36 54.31 54.53 54.76 51.95 44.93 44.53 53.46 60.64 61.14 61.27 57.56 54.52 50.69 46.44 42.26 38.83 39.40 40.07 38.57 40.07 43.63 46.04 46.11 46.20 46.67 45.73 45.86 46.01 49.66 50.83 50.43 50.97 51.54 59.53
55.33 55.38 55.22 56.05 56.05 55.79 55.58 55.17 54.97 54.97 54.35 54.24 54.06 54.25 47.78 38.05 50.62 53.53 54.83 56.25 59.95 55.34 53.71 51.23 47.51 46.77 40.56 41.19 39.79 41.16 42.57 43.08 43.77 44.03 45.57 45.15 45.77 44.62 47.26 49.86 49.44 49.23 48.39 49.30 53.69
54.66 54.84 54.88 55.41 55.43 55.40 55.24 54.56 54.09 54.42 53.91 54.09 54.20 52.18 45.28 42.26 52.27 53.43 51.82 50.33 56.40 56.18 53.01 53.93 52.20 46.81 43.78 40.10 44.04 43.12 40.26 41.82 43.04 43.68 42.48 45.34 43.04 44.52 47.35 48.63 47.90 48.14 47.74 48.40 49.28
54.04 54.21 54.37 54.64 54.97 54.97 54.97 54.29 53.92 54.11 53.91 54.11 54.90 51.62 41.99 51.54 52.50 51.01 51.78 51.77 53.34 57.52 55.61 54.80 53.47 48.33 41.40 44.07 43.47 39.51 38.86 35.98 39.98 41.83 43.75 43.78 40.01 46.15 47.10 46.02 46.53 47.27 47.84 48.34 48.50
53.49 53.46 53.71 53.41 54.13 54.60 54.21 53.94 54.31 54.38 53.89 54.19 51.59 48.14 41.38 54.11 50.50 52.84 52.90 50.00 53.46 55.57 54.74 55.38 50.62 45.17 42.48 38.43 36.20 36.56 34.17 32.88 36.84 41.61 42.51 41.58 41.10 44.43 46.74 45.92 45.02 45.68 46.13 47.42 47.83
52.95 52.78 52.87 52.95 52.95 53.24 52.91 53.01 52.77 52.23 51.80 52.74 52.28 45.91 46.94 46.10 51.67 55.04 54.27 52.68 51.69 53.56 50.62 49.39 44.30 38.55 39.29 35.70 31.21 33.71 32.50 36.17 37.07 40.70 41.08 40.30 40.53 43.07 45.97 45.56 45.55 45.04 45.77 46.28 47.02
52.48 52.43 52.45 52.47 52.68 52.16 50.15 47.08 41.50 41.33 45.83 44.52 45.05 44.88 47.36 51.55 54.68 50.95 54.72 51.40 51.60 48.98 40.99 42.70 38.22 35.93 38.06 40.12 40.59 40.24 37.91 36.50 39.34 43.08 41.69 40.64 40.88 41.70 44.49 43.43 43.40 44.03 44.65 45.75 46.43
51.49 52.10 52.06 52.03 52.10 51.60 49.27 44.17 43.37 44.94 41.14 47.45 48.05 47.98 49.82 50.63 45.44 48.72 52.65 48.46 47.79 42.67 44.34 39.91 36.85 42.90 44.98 43.38 41.89 40.59 38.46 37.41 40.30 43.34 42.11 41.32 40.52 43.45 44.43 43.69 45.00 46.11 46.03 46.15 45.81
51.41 51.35 51.37 51.47 51.20 47.55 44.19 44.30 49.24 47.45 38.26 42.93 46.33 46.28 46.67 49.07 44.43 45.45 49.73 48.73 46.39 43.32 42.84 39.19 42.23 46.81 44.50 42.66 40.70 39.73 38.26 37.68 37.55 41.95 42.86 41.09 39.63 42.21 45.05 45.97 46.96 47.25 47.23 47.04 46.57
51.18 51.01 51.07 50.89 44.50 43.16 39.97 44.72 47.19 48.53 32.66 37.00 40.52 44.57 46.83 47.68 43.44 50.67 50.79 48.26 46.97 43.16 44.49 42.02 46.06 44.99 43.10 41.59 41.94 36.62 42.68 42.29 40.77 38.78 32.39 41.68 33.19 39.14 43.75 45.43 46.71 47.35 46.97 47.46 46.69
50.72 51.04 50.71 50.33 43.45 40.85 43.32 44.99 47.72 43.50 19.80 38.91 42.54 52.02 48.78 44.10 46.49 47.46 51.80 47.95 44.32 44.67 45.81 41.41 43.14 42.66 41.93 42.52 44.55 39.64 43.86 42.20 41.59 38.77 34.81 38.25 33.32 37.39 42.39 41.92 44.18 46.47 46.16 46.04 48.02
50.48 50.83 50.53 45.41 42.48 44.47 46.48 45.84 43.20 32.47 22.28 35.59 42.03 41.58 40.94 44.47 45.26 46.79 48.21 50.43 49.31 45.41 46.71 45.46 49.32 46.31 44.73 47.12 46.17 45.58 42.07 41.20 40.51 38.32 29.79 36.63 35.53 35.09 38.48 43.35 45.34 46.94 47.72 47.26 47.25
50.29 50.32 48.73 47.27 39.44 43.79 43.93 41.87 30.28 25.14 38.41 35.79 37.18 39.86 38.79 38.16 41.09 42.72 41.98 42.06 40.19 36.84 37.71 43.37 44.35 47.99 48.37 43.99 45.67 43.16 37.71 29.98 28.49 26.88 28.40 37.36 34.72 36.54 42.16 45.69 47.03 46.17 46.35 48.22 48.22
49.68 48.99 46.44 46.28 45.01 45.91 45.08 38.86 26.27 32.66 34.12 39.81 38.98 38.54 35.00 38.58 41.04 42.46 41.20 38.56 42.51 41.53 38.47 36.76 35.01 44.22 47.94 43.19 40.35 40.01 37.88 27.94 23.29 24.02 28.99 38.56 31.94 37.45 45.03 46.80 49.30 48.72 48.43 51.25 51.06
48.56 43.08 42.26 44.06 51.91 48.00 42.67 31.50 31.49 33.44 37.69 36.64 37.52 33.69 34.59 38.49 39.80 39.73 38.49 38.11 41.57 43.40 37.49 36.41 36.81 46.53 47.38 47.30 45.11 40.22 35.53 39.14 33.88 36.11 32.15 34.09 38.76 45.59 48.28 47.89 49.82 49.86 51.61 50.49 55.21
43.08 39.59 39.96 45.52 49.34 47.80 38.30 34.25 34.73 39.50 39.79 38.89 32.40 35.62 31.71 35.89 36.39 37.74 38.14 42.59 40.48 44.74 45.89 40.95 34.65 43.83 45.70 47.22 46.69 42.97 42.64 35.21 35.94 28.50 25.99 32.64 36.28 36.82 43.14 45.36 49.26 49.47 50.11 52.64 56.20
38.67 34.57 41.19 46.82 48.11 39.28 32.03 33.21 35.77 40.81 41.08 38.37 36.09 34.87 35.19 34.67 36.97 35.96 37.86 42.94 44.76 44.40 45.29 43.01 38.63 40.00 44.30 41.80 40.38 40.45 38.56 39.75 37.81 35.15 27.12 27.85 33.62 44.27 44.29 45.80 48.78 49.40 51.36 52.23 52.65
39.80 30.64 42.33 44.57 33.12 34.31 33.30 35.51 39.95 39.61 42.07 40.19 39.60 38.18 35.61 37.39 36.82 37.40 37.76 41.93 47.46 46.97 41.23 43.05 40.34 33.88 37.53 44.05 45.88 41.70 39.92 37.75 33.84 30.09 33.54 33.96 32.73 47.02 47.83 49.71 49.30 50.49 51.97 52.88 53.75
36.96 34.04 43.33 41.55 26.30 30.68 35.72 36.54 38.57 37.50 38.31 39.23 38.32 40.89 40.07 37.97 34.28 37.97 41.18 46.82 46.55 44.16 43.79 44.93 39.84 31.59 35.04 39.14 42.96 39.92 42.04 39.79 37.97 35.54 33.11 29.77 33.43 47.11 49.49 48.81 50.09 50.11 51.90 52.86 51.99
39.71 33.20 34.20 35.30 34.89 32.23 31.93 34.08 33.87 39.83 38.99 39.22 39.27 41.40 38.30 36.41 39.58 38.38 39.50 44.62 46.65 45.81 47.38 46.07 40.52 34.48 31.13 34.18 39.11 38.14 41.24 41.49 37.89 31.84 34.16 35.55 38.36 42.86 45.79 48.01 49.35 49.86 50.19 51.84 51.80
36.43 32.85 36.48 28.90 31.49 31.98 33.63 34.90 32.51 32.76 38.17 40.31 37.40 38.30 38.32 34.12 35.00 37.90 40.34 40.75 45.49 47.29 45.03 43.40 37.95 37.49 40.57 42.66 43.46 42.51 41.78 42.17 38.08 38.27 34.85 38.73 40.23 43.66 45.12 47.58 49.08 49.98 51.15 50.79 49.75
32.39 34.94 37.89 34.95 33.79 32.48 33.56 32.62 32.69 34.42 34.54 35.15 34.67 36.38 38.41 35.67 35.24 34.34 38.92 36.78 37.81 43.88 41.92 43.88 38.37 39.36 39.59 43.20 42.47 42.04 43.81 43.42 43.00 43.02 42.55 42.29 40.65 46.16 48.10 49.49 48.99 49.75 50.41 49.47 48.19
40.62 42.18 38.69 35.33 31.23 31.99 32.02 32.81 33.24 35.73 37.35 38.07 36.80 36.61 36.61 39.04 40.56 41.50 41.62 41.95 42.67 41.99 41.48 41.26 39.92 36.15 34.82 40.11 40.85 36.98 41.48 43.46 44.01 45.05 44.38 39.77 42.89 46.76 47.24 48.60 48.51 49.02 49.03 46.66 47.08

GFSSW_sfc_wetblb_123.txt.gz
Wetbulb
56.20 56.05 55.97 56.14 56.11 56.00 55.81 55.34 55.46 55.72 55.75 55.14 55.53 55.31 55.25 55.94 55.41 50.49 45.79 50.03 53.01 57.69 59.35 53.23 52.26 50.93 47.38 42.81 43.74 44.54 34.98 31.26 35.09 37.39 39.74 44.16 43.35 47.51 49.74 47.14 48.47 54.24 62.13 67.55 69.22
55.83 55.79 55.77 55.82 55.69 55.61 55.26 55.31 54.96 54.86 54.73 55.49 55.92 55.76 54.80 55.51 49.28 46.34 53.15 56.91 58.32 59.21 53.77 49.81 47.91 46.73 42.02 41.43 41.01 39.07 33.16 35.92 41.03 41.77 40.14 43.64 43.86 45.52 46.05 46.12 47.10 50.04 67.80 68.06 67.70
55.47 55.57 55.55 55.57 55.61 55.82 55.18 54.94 54.99 55.11 54.85 54.61 54.33 55.37 55.47 54.31 44.83 44.03 58.31 59.10 58.85 59.15 54.70 51.88 50.73 45.39 39.06 38.74 39.01 38.43 37.00 41.24 42.57 45.03 44.76 44.27 44.20 46.85 43.96 43.28 46.89 46.55 65.03 66.39 66.86
54.64 54.92 54.87 55.20 55.33 55.67 55.47 55.38 55.21 55.10 54.74 54.40 53.79 54.26 55.21 50.31 33.72 48.30 65.07 63.52 64.21 57.58 55.83 51.17 48.31 43.15 36.93 37.01 39.02 36.02 40.46 43.09 42.77 44.93 44.45 44.17 46.26 45.29 44.94 45.71 48.23 49.25 66.43 66.99 65.60
53.94 54.14 54.08 54.14 54.24 54.44 54.69 54.59 54.79 54.65 54.38 53.66 53.72 54.15 51.64 43.71 42.72 51.35 58.26 56.13 60.11 55.60 52.51 49.75 44.17 42.71 37.15 37.44 38.11 35.24 38.26 41.83 45.30 44.59 43.81 44.97 44.12 44.01 44.93 47.71 49.61 49.07 58.45 65.86 65.37
53.54 53.55 53.61 53.73 53.92 54.38 54.78 54.74 54.66 54.42 54.06 53.78 53.42 53.61 47.94 37.37 48.76 50.90 51.22 52.13 56.80 53.74 51.73 49.69 47.04 45.01 41.81 39.54 37.70 39.52 40.00 40.96 41.07 40.57 41.57 43.15 44.60 43.91 46.01 48.04 48.17 48.28 47.45 49.85 51.85
53.48 53.31 53.25 53.36 53.54 53.85 53.86 53.63 53.55 54.13 54.08 54.13 53.93 50.99 45.57 41.50 50.27 50.26 49.47 46.84 50.29 55.13 51.59 52.77 50.80 47.44 43.82 38.06 42.86 40.70 38.30 40.00 40.06 41.81 39.94 42.29 40.85 42.20 46.36 47.81 46.75 46.92 46.79 47.02 49.67
53.04 53.14 52.25 52.48 52.69 52.98 53.15 53.10 52.91 53.39 53.65 53.96 54.41 50.32 41.94 50.76 51.45 49.53 49.65 47.93 49.61 50.01 50.82 54.91 53.10 45.90 40.40 42.58 41.70 38.21 37.60 33.95 37.19 40.22 41.67 42.18 37.54 44.07 46.08 45.75 45.70 46.71 46.78 46.92 47.45
52.52 52.49 51.83 51.62 51.60 51.96 52.35 52.25 53.16 52.84 53.50 53.36 50.12 47.66 40.05 52.28 48.64 50.61 49.92 46.47 48.54 51.14 51.33 56.35 51.13 44.41 42.28 37.08 33.73 34.82 28.61 31.69 35.07 39.44 40.14 40.13 37.08 43.55 45.55 44.61 44.35 45.03 46.12 47.00 46.04
51.94 51.78 51.74 51.76 51.39 52.00 51.60 51.60 51.24 51.53 51.40 51.59 51.01 43.60 45.12 43.48 49.80 52.15 53.36 50.11 47.55 49.33 48.48 50.17 43.72 39.74 38.05 35.11 29.20 30.39 30.15 33.32 34.58 38.83 38.96 38.83 37.95 41.45 43.80 44.13 43.84 44.09 44.66 45.52 46.03
50.91 51.32 51.16 51.43 51.68 51.14 48.68 45.87 40.17 38.86 43.48 41.62 42.57 43.47 45.10 49.59 52.45 51.05 52.60 49.58 47.97 48.59 42.36 45.38 39.06 34.64 38.18 39.76 38.34 37.89 35.77 34.95 37.22 40.97 39.42 37.41 37.70 40.03 42.63 42.32 42.05 42.18 42.47 43.52 44.69
50.59 50.65 51.13 51.22 51.48 50.93 48.40 42.90 42.67 42.53 37.08 44.20 44.38 44.85 47.57 48.75 43.34 46.72 51.48 45.48 43.33 41.55 44.66 38.97 37.18 41.36 41.94 41.03 38.36 37.59 35.69 34.90 38.66 41.74 38.74 38.64 38.62 40.89 41.70 42.25 42.10 43.90 43.09 43.47 43.74
50.83 50.70 50.83 51.23 50.92 45.93 40.09 41.52 46.21 44.19 35.63 40.15 44.02 43.60 44.69 46.80 42.94 43.54 47.42 44.59 42.15 41.33 41.71 37.12 38.93 43.82 41.35 38.57 36.75 37.14 36.07 35.69 36.45 40.45 40.13 38.36 36.46 39.25 43.43 43.04 43.83 43.50 44.09 44.29 45.17
50.25 50.33 50.73 50.22 43.03 40.80 38.78 42.26 43.70 44.23 32.25 35.65 39.56 43.71 46.22 46.81 42.05 49.48 49.44 44.88 42.15 39.76 42.64 39.97 43.49 40.72 40.14 39.28 39.87 34.91 40.89 40.70 39.46 36.54 30.07 38.38 28.48 36.69 40.77 41.99 43.81 44.83 42.95 44.20 45.35
50.02 50.47 50.57 50.47 44.31 40.00 41.33 42.37 43.95 41.16 17.45 36.57 40.73 49.89 46.32 42.23 44.61 47.11 51.02 45.49 39.24 42.38 44.13 40.14 40.97 40.37 38.93 40.92 42.84 38.51 42.87 40.40 40.28 35.80 32.17 34.90 30.45 34.66 38.92 39.37 41.70 43.39 44.94 45.81 46.18
49.93 50.44 50.18 44.89 42.18 43.21 44.95 42.44 40.82 30.84 20.94 33.83 40.77 39.89 39.45 41.51 42.14 46.06 47.01 47.46 45.85 42.91 45.25 43.41 46.74 44.50 42.89 45.37 44.89 44.58 41.14 39.48 37.99 35.26 26.22 33.70 32.26 32.93 36.54 40.32 42.14 44.62 45.97 46.95 46.01
49.76 49.80 48.23 47.05 40.35 44.00 43.62 41.32 29.91 23.83 35.87 33.57 35.04 38.96 37.29 36.27 39.08 42.59 40.95 40.82 38.32 36.16 36.99 41.47 42.42 45.48 46.52 41.95 45.25 41.67 36.13 27.14 25.25 24.74 26.04 34.23 32.22 35.05 40.27 43.70 44.94 45.39 46.20 46.46 45.67
49.24 48.47 45.15 45.05 44.09 45.45 43.22 38.03 23.93 30.66 32.34 38.75 38.16 37.69 33.74 37.57 39.89 41.41 39.36 38.07 41.46 39.70 37.17 35.83 34.16 43.49 46.42 43.01 39.28 38.48 36.85 26.15 21.12 22.01 25.85 36.18 30.01 35.28 44.65 48.79 49.51 50.58 50.69 49.96 44.11
48.35 42.23 40.78 42.46 45.20 44.16 38.67 30.00 31.01 34.38 37.64 35.44 35.87 32.55 33.11 37.06 37.36 39.57 38.08 38.13 39.02 41.06 36.48 35.75 35.78 45.55 47.15 47.17 44.79 40.02 35.59 38.00 32.50 33.48 29.15 32.11 35.60 43.43 49.03 48.92 50.96 53.32 55.22 56.09 57.15
42.05 37.19 38.01 43.66 46.17 42.79 36.11 31.58 33.22 36.97 38.24 37.67 32.83 34.54 31.46 33.39 34.04 36.94 36.99 41.50 40.31 43.93 44.55 40.86 35.16 43.38 45.88 47.91 46.52 41.29 41.53 32.86 33.70 25.75 25.39 31.56 34.90 35.51 42.94 45.85 49.17 50.89 51.71 53.59 55.27
39.08 33.34 39.91 45.12 43.85 35.70 28.57 33.33 35.85 39.93 39.63 36.33 35.61 34.41 35.11 34.92 34.76 34.10 36.41 41.98 44.07 44.04 45.74 42.28 38.92 38.76 42.22 41.28 39.54 40.52 38.06 37.63 34.89 31.96 25.97 27.11 33.16 42.16 44.29 47.22 48.88 50.21 51.28 51.86 52.97
40.70 30.05 40.54 41.84 29.87 31.09 30.95 33.48 38.78 38.21 39.98 39.42 39.89 35.69 35.13 36.01 35.35 34.96 36.26 40.13 46.63 44.61 40.36 43.17 39.59 34.69 37.53 42.80 44.87 41.38 37.77 37.91 28.82 28.91 31.96 31.79 33.04 45.92 47.34 49.32 50.27 50.55 51.67 52.19 52.41
37.27 36.14 41.72 39.10 24.59 28.06 32.72 33.44 37.02 35.74 36.32 37.08 36.61 39.69 39.20 36.54 34.28 37.71 39.04 44.91 46.27 44.82 42.35 43.12 38.48 31.93 33.80 39.67 42.73 40.14 41.16 38.22 36.38 35.25 32.09 30.88 32.11 45.77 48.78 49.11 50.22 49.87 50.01 49.76 48.94
38.50 31.12 32.41 33.44 35.23 30.33 30.37 31.59 32.36 37.34 36.66 36.71 37.30 39.37 36.76 36.42 38.02 36.64 38.60 43.33 46.16 45.24 48.22 45.81 41.37 32.69 29.00 33.91 38.15 37.41 40.27 39.89 37.34 29.94 32.38 32.73 37.07 43.87 46.15 47.43 50.06 49.53 49.97 49.58 48.98
33.40 29.24 36.92 29.83 31.71 32.00 32.09 32.92 30.69 31.49 36.52 37.52 35.15 35.58 35.06 34.29 35.59 35.25 38.68 40.31 44.66 47.02 44.81 42.47 37.46 36.97 39.03 40.82 41.57 40.50 40.48 40.17 37.46 36.24 34.34 37.33 38.77 43.50 46.37 47.59 49.46 50.11 50.51 49.51 48.58
32.86 34.14 37.09 33.54 33.92 31.02 31.40 31.57 31.08 32.82 34.89 33.31 34.41 35.45 36.33 34.83 35.16 33.46 36.41 37.44 38.61 43.55 41.89 41.59 37.60 39.41 38.02 42.40 42.49 40.08 41.91 42.96 40.83 39.70 39.16 40.48 39.83 45.17 48.35 48.92 48.12 48.74 48.77 46.60 45.84
41.20 41.73 37.93 34.03 32.89 31.45 31.06 32.63 32.82 34.53 36.06 37.54 36.66 35.39 33.91 37.70 38.70 39.74 40.89 40.57 40.16 39.56 40.50 39.44 38.82 36.18 33.79 41.07 40.19 36.07 40.04 42.04 42.26 42.97 42.25 38.23 42.08 47.43 47.28 48.11 48.61 49.13 46.83 45.24 45.49